<?xml version="1.0" encoding="UTF-8"?>
<gpx xmlns="http://www.topografix.com/GPX/1/1" version="1.1" xmlns:xsi="http://www.w3.org/2001/XMLSchema-instance" xsi:schemaLocation="http://www.topografix.com/GPX/1/1 http://www.topografix.com/GPX/1/1/gpx.xsd" creator="MotionXGPSFull 24.4 Build 5112 R64">
<trk>
<name><![CDATA[Huahin to Bangkok]]></name>
<desc><![CDATA[Mar 31, 2018  1:47 pm]]></desc>
<trkseg>
<trkpt lat="12.5716758" lon="99.9563455">
<ele>12.214</ele>
<time>2018-03-31T06:47:17.002Z</time>
</trkpt>
<trkpt lat="12.5716724" lon="99.9563480">
<ele>11.885</ele>
<time>2018-03-31T06:47:18.002Z</time>
</trkpt>
<trkpt lat="12.5716724" lon="99.9563480">
<ele>11.569</ele>
<time>2018-03-31T06:47:32.000Z</time>
</trkpt>
<trkpt lat="12.5716724" lon="99.9563480">
<ele>11.467</ele>
<time>2018-03-31T06:47:51.013Z</time>
</trkpt>
<trkpt lat="12.5719898" lon="99.9562859">
<ele>11.541</ele>
<time>2018-03-31T06:48:12.469Z</time>
</trkpt>
<trkpt lat="12.5720834" lon="99.9562688">
<ele>11.722</ele>
<time>2018-03-31T06:48:15.585Z</time>
</trkpt>
<trkpt lat="12.5721804" lon="99.9562071">
<ele>11.961</ele>
<time>2018-03-31T06:48:18.846Z</time>
</trkpt>
<trkpt lat="12.5722492" lon="99.9561315">
<ele>12.185</ele>
<time>2018-03-31T06:48:21.354Z</time>
</trkpt>
<trkpt lat="12.5723279" lon="99.9560626">
<ele>12.211</ele>
<time>2018-03-31T06:48:23.616Z</time>
</trkpt>
<trkpt lat="12.5724484" lon="99.9559952">
<ele>11.907</ele>
<time>2018-03-31T06:48:26.153Z</time>
</trkpt>
<trkpt lat="12.5725929" lon="99.9559214">
<ele>11.455</ele>
<time>2018-03-31T06:48:28.480Z</time>
</trkpt>
<trkpt lat="12.5728345" lon="99.9557915">
<ele>11.075</ele>
<time>2018-03-31T06:48:31.635Z</time>
</trkpt>
<trkpt lat="12.5730845" lon="99.9557146">
<ele>10.762</ele>
<time>2018-03-31T06:48:34.238Z</time>
</trkpt>
<trkpt lat="12.5733720" lon="99.9555764">
<ele>10.438</ele>
<time>2018-03-31T06:48:37.732Z</time>
</trkpt>
<trkpt lat="12.5735066" lon="99.9554503">
<ele>10.066</ele>
<time>2018-03-31T06:48:40.648Z</time>
</trkpt>
<trkpt lat="12.5736095" lon="99.9553265">
<ele>9.646</ele>
<time>2018-03-31T06:48:44.298Z</time>
</trkpt>
<trkpt lat="12.5737157" lon="99.9552877">
<ele>9.199</ele>
<time>2018-03-31T06:48:47.233Z</time>
</trkpt>
<trkpt lat="12.5738433" lon="99.9552541">
<ele>8.809</ele>
<time>2018-03-31T06:48:49.990Z</time>
</trkpt>
<trkpt lat="12.5739724" lon="99.9551757">
<ele>8.584</ele>
<time>2018-03-31T06:48:52.803Z</time>
</trkpt>
<trkpt lat="12.5740814" lon="99.9550969">
<ele>8.522</ele>
<time>2018-03-31T06:48:55.334Z</time>
</trkpt>
<trkpt lat="12.5741988" lon="99.9550357">
<ele>8.480</ele>
<time>2018-03-31T06:48:57.735Z</time>
</trkpt>
<trkpt lat="12.5743359" lon="99.9549585">
<ele>8.308</ele>
<time>2018-03-31T06:49:00.364Z</time>
</trkpt>
<trkpt lat="12.5745019" lon="99.9548743">
<ele>8.034</ele>
<time>2018-03-31T06:49:03.188Z</time>
</trkpt>
<trkpt lat="12.5746605" lon="99.9547858">
<ele>7.823</ele>
<time>2018-03-31T06:49:05.846Z</time>
</trkpt>
<trkpt lat="12.5748270" lon="99.9547082">
<ele>7.733</ele>
<time>2018-03-31T06:49:08.899Z</time>
</trkpt>
<trkpt lat="12.5749164" lon="99.9546677">
<ele>7.717</ele>
<time>2018-03-31T06:49:10.996Z</time>
</trkpt>
<trkpt lat="12.5749164" lon="99.9546677">
<ele>7.721</ele>
<time>2018-03-31T06:49:15.996Z</time>
</trkpt>
<trkpt lat="12.5749164" lon="99.9546677">
<ele>7.720</ele>
<time>2018-03-31T06:49:42.259Z</time>
</trkpt>
<trkpt lat="12.5750758" lon="99.9545877">
<ele>7.715</ele>
<time>2018-03-31T06:49:53.703Z</time>
</trkpt>
<trkpt lat="12.5751655" lon="99.9545401">
<ele>7.725</ele>
<time>2018-03-31T06:49:58.552Z</time>
</trkpt>
<trkpt lat="12.5752559" lon="99.9544923">
<ele>7.816</ele>
<time>2018-03-31T06:50:03.066Z</time>
</trkpt>
<trkpt lat="12.5753602" lon="99.9544317">
<ele>7.946</ele>
<time>2018-03-31T06:50:06.925Z</time>
</trkpt>
<trkpt lat="12.5754648" lon="99.9543594">
<ele>7.970</ele>
<time>2018-03-31T06:50:10.363Z</time>
</trkpt>
<trkpt lat="12.5755597" lon="99.9543142">
<ele>7.892</ele>
<time>2018-03-31T06:50:13.952Z</time>
</trkpt>
<trkpt lat="12.5756376" lon="99.9542646">
<ele>7.823</ele>
<time>2018-03-31T06:50:17.308Z</time>
</trkpt>
<trkpt lat="12.5757438" lon="99.9542045">
<ele>7.793</ele>
<time>2018-03-31T06:50:21.240Z</time>
</trkpt>
<trkpt lat="12.5758479" lon="99.9541433">
<ele>7.668</ele>
<time>2018-03-31T06:50:24.044Z</time>
</trkpt>
<trkpt lat="12.5759755" lon="99.9540669">
<ele>7.182</ele>
<time>2018-03-31T06:50:26.941Z</time>
</trkpt>
<trkpt lat="12.5761144" lon="99.9539953">
<ele>6.400</ele>
<time>2018-03-31T06:50:29.811Z</time>
</trkpt>
<trkpt lat="12.5762645" lon="99.9539127">
<ele>5.776</ele>
<time>2018-03-31T06:50:33.412Z</time>
</trkpt>
<trkpt lat="12.5763445" lon="99.9538652">
<ele>5.622</ele>
<time>2018-03-31T06:50:35.994Z</time>
</trkpt>
<trkpt lat="12.5763445" lon="99.9538652">
<ele>5.757</ele>
<time>2018-03-31T06:50:40.994Z</time>
</trkpt>
<trkpt lat="12.5763445" lon="99.9538652">
<ele>5.845</ele>
<time>2018-03-31T06:50:42.844Z</time>
</trkpt>
<trkpt lat="12.5765280" lon="99.9537805">
<ele>5.811</ele>
<time>2018-03-31T06:50:53.840Z</time>
</trkpt>
<trkpt lat="12.5766265" lon="99.9537353">
<ele>5.884</ele>
<time>2018-03-31T06:50:56.743Z</time>
</trkpt>
<trkpt lat="12.5767146" lon="99.9536918">
<ele>6.210</ele>
<time>2018-03-31T06:51:00.038Z</time>
</trkpt>
<trkpt lat="12.5768163" lon="99.9536452">
<ele>6.633</ele>
<time>2018-03-31T06:51:03.934Z</time>
</trkpt>
<trkpt lat="12.5769100" lon="99.9536149">
<ele>6.907</ele>
<time>2018-03-31T06:51:07.056Z</time>
</trkpt>
<trkpt lat="12.5770014" lon="99.9535844">
<ele>7.025</ele>
<time>2018-03-31T06:51:10.197Z</time>
</trkpt>
<trkpt lat="12.5770984" lon="99.9535534">
<ele>7.170</ele>
<time>2018-03-31T06:51:14.393Z</time>
</trkpt>
<trkpt lat="12.5771872" lon="99.9535234">
<ele>7.428</ele>
<time>2018-03-31T06:51:18.993Z</time>
</trkpt>
<trkpt lat="12.5771872" lon="99.9535234">
<ele>7.625</ele>
<time>2018-03-31T06:51:28.993Z</time>
</trkpt>
<trkpt lat="12.5771872" lon="99.9535234">
<ele>7.616</ele>
<time>2018-03-31T06:51:30.493Z</time>
</trkpt>
<trkpt lat="12.5774126" lon="99.9534607">
<ele>7.536</ele>
<time>2018-03-31T06:51:46.928Z</time>
</trkpt>
<trkpt lat="12.5775197" lon="99.9534310">
<ele>7.719</ele>
<time>2018-03-31T06:51:51.211Z</time>
</trkpt>
<trkpt lat="12.5776160" lon="99.9534039">
<ele>8.259</ele>
<time>2018-03-31T06:51:53.944Z</time>
</trkpt>
<trkpt lat="12.5777394" lon="99.9533688">
<ele>8.699</ele>
<time>2018-03-31T06:51:56.546Z</time>
</trkpt>
<trkpt lat="12.5778862" lon="99.9533308">
<ele>8.618</ele>
<time>2018-03-31T06:51:59.464Z</time>
</trkpt>
<trkpt lat="12.5780284" lon="99.9532919">
<ele>8.157</ele>
<time>2018-03-31T06:52:02.888Z</time>
</trkpt>
<trkpt lat="12.5781352" lon="99.9532760">
<ele>7.683</ele>
<time>2018-03-31T06:52:06.072Z</time>
</trkpt>
<trkpt lat="12.5782458" lon="99.9532498">
<ele>7.478</ele>
<time>2018-03-31T06:52:09.851Z</time>
</trkpt>
<trkpt lat="12.5783506" lon="99.9532184">
<ele>7.669</ele>
<time>2018-03-31T06:52:13.092Z</time>
</trkpt>
<trkpt lat="12.5784628" lon="99.9531929">
<ele>8.092</ele>
<time>2018-03-31T06:52:16.093Z</time>
</trkpt>
<trkpt lat="12.5785744" lon="99.9531669">
<ele>8.401</ele>
<time>2018-03-31T06:52:18.954Z</time>
</trkpt>
<trkpt lat="12.5786849" lon="99.9531454">
<ele>8.434</ele>
<time>2018-03-31T06:52:21.643Z</time>
</trkpt>
<trkpt lat="12.5788099" lon="99.9531181">
<ele>8.319</ele>
<time>2018-03-31T06:52:24.687Z</time>
</trkpt>
<trkpt lat="12.5789288" lon="99.9530924">
<ele>8.185</ele>
<time>2018-03-31T06:52:27.548Z</time>
</trkpt>
<trkpt lat="12.5790521" lon="99.9530600">
<ele>8.008</ele>
<time>2018-03-31T06:52:30.190Z</time>
</trkpt>
<trkpt lat="12.5792107" lon="99.9530165">
<ele>7.763</ele>
<time>2018-03-31T06:52:32.981Z</time>
</trkpt>
<trkpt lat="12.5794112" lon="99.9529649">
<ele>7.415</ele>
<time>2018-03-31T06:52:35.889Z</time>
</trkpt>
<trkpt lat="12.5796424" lon="99.9529086">
<ele>6.921</ele>
<time>2018-03-31T06:52:38.843Z</time>
</trkpt>
<trkpt lat="12.5798899" lon="99.9528489">
<ele>6.405</ele>
<time>2018-03-31T06:52:41.919Z</time>
</trkpt>
<trkpt lat="12.5801000" lon="99.9528016">
<ele>5.987</ele>
<time>2018-03-31T06:52:44.685Z</time>
</trkpt>
<trkpt lat="12.5802980" lon="99.9527518">
<ele>5.605</ele>
<time>2018-03-31T06:52:47.651Z</time>
</trkpt>
<trkpt lat="12.5804245" lon="99.9527186">
<ele>5.312</ele>
<time>2018-03-31T06:52:49.991Z</time>
</trkpt>
<trkpt lat="12.5804245" lon="99.9527186">
<ele>5.224</ele>
<time>2018-03-31T06:52:53.991Z</time>
</trkpt>
<trkpt lat="12.5804245" lon="99.9527186">
<ele>5.258</ele>
<time>2018-03-31T06:53:04.265Z</time>
</trkpt>
<trkpt lat="12.5806231" lon="99.9526758">
<ele>5.294</ele>
<time>2018-03-31T06:53:10.710Z</time>
</trkpt>
<trkpt lat="12.5807653" lon="99.9526383">
<ele>5.298</ele>
<time>2018-03-31T06:53:12.990Z</time>
</trkpt>
<trkpt lat="12.5807653" lon="99.9526383">
<ele>5.279</ele>
<time>2018-03-31T06:53:17.990Z</time>
</trkpt>
<trkpt lat="12.5807653" lon="99.9526383">
<ele>5.268</ele>
<time>2018-03-31T06:53:21.362Z</time>
</trkpt>
<trkpt lat="12.5809919" lon="99.9525883">
<ele>5.273</ele>
<time>2018-03-31T06:53:29.331Z</time>
</trkpt>
<trkpt lat="12.5811559" lon="99.9525463">
<ele>5.307</ele>
<time>2018-03-31T06:53:32.424Z</time>
</trkpt>
<trkpt lat="12.5813147" lon="99.9525072">
<ele>5.406</ele>
<time>2018-03-31T06:53:35.414Z</time>
</trkpt>
<trkpt lat="12.5814696" lon="99.9524697">
<ele>5.541</ele>
<time>2018-03-31T06:53:38.092Z</time>
</trkpt>
<trkpt lat="12.5816664" lon="99.9524179">
<ele>5.640</ele>
<time>2018-03-31T06:53:41.105Z</time>
</trkpt>
<trkpt lat="12.5818819" lon="99.9523606">
<ele>5.677</ele>
<time>2018-03-31T06:53:44.395Z</time>
</trkpt>
<trkpt lat="12.5820718" lon="99.9523072">
<ele>5.740</ele>
<time>2018-03-31T06:53:47.956Z</time>
</trkpt>
<trkpt lat="12.5821940" lon="99.9522754">
<ele>5.981</ele>
<time>2018-03-31T06:53:50.621Z</time>
</trkpt>
<trkpt lat="12.5823421" lon="99.9522425">
<ele>6.368</ele>
<time>2018-03-31T06:53:53.438Z</time>
</trkpt>
<trkpt lat="12.5825162" lon="99.9521938">
<ele>6.547</ele>
<time>2018-03-31T06:53:56.552Z</time>
</trkpt>
<trkpt lat="12.5826858" lon="99.9521470">
<ele>6.333</ele>
<time>2018-03-31T06:53:59.426Z</time>
</trkpt>
<trkpt lat="12.5828679" lon="99.9521042">
<ele>5.950</ele>
<time>2018-03-31T06:54:02.185Z</time>
</trkpt>
<trkpt lat="12.5830868" lon="99.9520444">
<ele>5.375</ele>
<time>2018-03-31T06:54:05.435Z</time>
</trkpt>
<trkpt lat="12.5832813" lon="99.9519917">
<ele>4.509</ele>
<time>2018-03-31T06:54:08.552Z</time>
</trkpt>
<trkpt lat="12.5834020" lon="99.9519598">
<ele>4.253</ele>
<time>2018-03-31T06:54:10.682Z</time>
</trkpt>
<trkpt lat="12.5835070" lon="99.9519311">
<ele>5.297</ele>
<time>2018-03-31T06:54:12.557Z</time>
</trkpt>
<trkpt lat="12.5836251" lon="99.9519115">
<ele>6.778</ele>
<time>2018-03-31T06:54:14.631Z</time>
</trkpt>
<trkpt lat="12.5837478" lon="99.9518997">
<ele>7.665</ele>
<time>2018-03-31T06:54:16.981Z</time>
</trkpt>
<trkpt lat="12.5838442" lon="99.9518797">
<ele>7.903</ele>
<time>2018-03-31T06:54:18.903Z</time>
</trkpt>
<trkpt lat="12.5839394" lon="99.9518534">
<ele>7.805</ele>
<time>2018-03-31T06:54:20.646Z</time>
</trkpt>
<trkpt lat="12.5840502" lon="99.9518233">
<ele>7.671</ele>
<time>2018-03-31T06:54:22.414Z</time>
</trkpt>
<trkpt lat="12.5841853" lon="99.9517951">
<ele>7.636</ele>
<time>2018-03-31T06:54:24.286Z</time>
</trkpt>
<trkpt lat="12.5843359" lon="99.9517598">
<ele>7.659</ele>
<time>2018-03-31T06:54:26.185Z</time>
</trkpt>
<trkpt lat="12.5844931" lon="99.9517147">
<ele>7.614</ele>
<time>2018-03-31T06:54:28.012Z</time>
</trkpt>
<trkpt lat="12.5846797" lon="99.9516686">
<ele>7.403</ele>
<time>2018-03-31T06:54:29.922Z</time>
</trkpt>
<trkpt lat="12.5848842" lon="99.9516209">
<ele>7.035</ele>
<time>2018-03-31T06:54:31.818Z</time>
</trkpt>
<trkpt lat="12.5851060" lon="99.9515694">
<ele>6.650</ele>
<time>2018-03-31T06:54:33.789Z</time>
</trkpt>
<trkpt lat="12.5853368" lon="99.9515177">
<ele>6.405</ele>
<time>2018-03-31T06:54:35.787Z</time>
</trkpt>
<trkpt lat="12.5855732" lon="99.9514714">
<ele>6.328</ele>
<time>2018-03-31T06:54:37.723Z</time>
</trkpt>
<trkpt lat="12.5858216" lon="99.9514107">
<ele>6.468</ele>
<time>2018-03-31T06:54:39.663Z</time>
</trkpt>
<trkpt lat="12.5860867" lon="99.9513461">
<ele>6.866</ele>
<time>2018-03-31T06:54:41.610Z</time>
</trkpt>
<trkpt lat="12.5863694" lon="99.9512777">
<ele>7.336</ele>
<time>2018-03-31T06:54:43.564Z</time>
</trkpt>
<trkpt lat="12.5866789" lon="99.9511998">
<ele>7.646</ele>
<time>2018-03-31T06:54:45.633Z</time>
</trkpt>
<trkpt lat="12.5869752" lon="99.9511261">
<ele>7.727</ele>
<time>2018-03-31T06:54:47.650Z</time>
</trkpt>
<trkpt lat="12.5872571" lon="99.9510543">
<ele>7.516</ele>
<time>2018-03-31T06:54:49.915Z</time>
</trkpt>
<trkpt lat="12.5875684" lon="99.9509767">
<ele>7.041</ele>
<time>2018-03-31T06:54:53.026Z</time>
</trkpt>
<trkpt lat="12.5878173" lon="99.9509196">
<ele>6.589</ele>
<time>2018-03-31T06:54:56.387Z</time>
</trkpt>
<trkpt lat="12.5879978" lon="99.9508742">
<ele>6.410</ele>
<time>2018-03-31T06:54:59.777Z</time>
</trkpt>
<trkpt lat="12.5881291" lon="99.9508390">
<ele>6.423</ele>
<time>2018-03-31T06:55:02.686Z</time>
</trkpt>
<trkpt lat="12.5882620" lon="99.9508074">
<ele>6.415</ele>
<time>2018-03-31T06:55:05.764Z</time>
</trkpt>
<trkpt lat="12.5883873" lon="99.9507778">
<ele>6.291</ele>
<time>2018-03-31T06:55:08.979Z</time>
</trkpt>
<trkpt lat="12.5884940" lon="99.9507518">
<ele>6.047</ele>
<time>2018-03-31T06:55:11.782Z</time>
</trkpt>
<trkpt lat="12.5886070" lon="99.9507229">
<ele>5.641</ele>
<time>2018-03-31T06:55:14.803Z</time>
</trkpt>
<trkpt lat="12.5887031" lon="99.9506986">
<ele>5.118</ele>
<time>2018-03-31T06:55:17.510Z</time>
</trkpt>
<trkpt lat="12.5888170" lon="99.9506757">
<ele>4.723</ele>
<time>2018-03-31T06:55:20.451Z</time>
</trkpt>
<trkpt lat="12.5889556" lon="99.9506413">
<ele>4.725</ele>
<time>2018-03-31T06:55:23.185Z</time>
</trkpt>
<trkpt lat="12.5891483" lon="99.9505897">
<ele>5.141</ele>
<time>2018-03-31T06:55:26.006Z</time>
</trkpt>
<trkpt lat="12.5894057" lon="99.9505279">
<ele>5.775</ele>
<time>2018-03-31T06:55:29.085Z</time>
</trkpt>
<trkpt lat="12.5896768" lon="99.9504573">
<ele>6.381</ele>
<time>2018-03-31T06:55:32.101Z</time>
</trkpt>
<trkpt lat="12.5899557" lon="99.9503897">
<ele>6.763</ele>
<time>2018-03-31T06:55:35.241Z</time>
</trkpt>
<trkpt lat="12.5902200" lon="99.9503248">
<ele>6.837</ele>
<time>2018-03-31T06:55:38.411Z</time>
</trkpt>
<trkpt lat="12.5904600" lon="99.9502671">
<ele>6.704</ele>
<time>2018-03-31T06:55:41.445Z</time>
</trkpt>
<trkpt lat="12.5907013" lon="99.9502070">
<ele>6.479</ele>
<time>2018-03-31T06:55:44.843Z</time>
</trkpt>
<trkpt lat="12.5908935" lon="99.9501578">
<ele>6.264</ele>
<time>2018-03-31T06:55:48.979Z</time>
</trkpt>
<trkpt lat="12.5910250" lon="99.9501199">
<ele>6.147</ele>
<time>2018-03-31T06:55:53.350Z</time>
</trkpt>
<trkpt lat="12.5911142" lon="99.9500991">
<ele>6.146</ele>
<time>2018-03-31T06:55:55.846Z</time>
</trkpt>
<trkpt lat="12.5912139" lon="99.9500754">
<ele>6.096</ele>
<time>2018-03-31T06:55:57.980Z</time>
</trkpt>
<trkpt lat="12.5913728" lon="99.9500335">
<ele>5.879</ele>
<time>2018-03-31T06:56:00.506Z</time>
</trkpt>
<trkpt lat="12.5915771" lon="99.9499830">
<ele>5.634</ele>
<time>2018-03-31T06:56:03.224Z</time>
</trkpt>
<trkpt lat="12.5918324" lon="99.9499111">
<ele>5.534</ele>
<time>2018-03-31T06:56:06.218Z</time>
</trkpt>
<trkpt lat="12.5921222" lon="99.9498460">
<ele>5.582</ele>
<time>2018-03-31T06:56:09.286Z</time>
</trkpt>
<trkpt lat="12.5924102" lon="99.9497813">
<ele>5.823</ele>
<time>2018-03-31T06:56:12.032Z</time>
</trkpt>
<trkpt lat="12.5927494" lon="99.9497010">
<ele>6.251</ele>
<time>2018-03-31T06:56:14.917Z</time>
</trkpt>
<trkpt lat="12.5931654" lon="99.9495983">
<ele>6.573</ele>
<time>2018-03-31T06:56:18.129Z</time>
</trkpt>
<trkpt lat="12.5935756" lon="99.9495152">
<ele>6.432</ele>
<time>2018-03-31T06:56:21.124Z</time>
</trkpt>
<trkpt lat="12.5939901" lon="99.9494537">
<ele>5.915</ele>
<time>2018-03-31T06:56:24.087Z</time>
</trkpt>
<trkpt lat="12.5944082" lon="99.9494100">
<ele>5.465</ele>
<time>2018-03-31T06:56:26.982Z</time>
</trkpt>
<trkpt lat="12.5948658" lon="99.9493992">
<ele>5.340</ele>
<time>2018-03-31T06:56:29.944Z</time>
</trkpt>
<trkpt lat="12.5953631" lon="99.9494310">
<ele>5.465</ele>
<time>2018-03-31T06:56:32.931Z</time>
</trkpt>
<trkpt lat="12.5957594" lon="99.9494574">
<ele>5.609</ele>
<time>2018-03-31T06:56:35.194Z</time>
</trkpt>
<trkpt lat="12.5963385" lon="99.9495327">
<ele>5.572</ele>
<time>2018-03-31T06:56:38.396Z</time>
</trkpt>
<trkpt lat="12.5964786" lon="99.9494642">
<ele>5.327</ele>
<time>2018-03-31T06:56:39.229Z</time>
</trkpt>
<trkpt lat="12.5970019" lon="99.9495290">
<ele>4.971</ele>
<time>2018-03-31T06:56:42.011Z</time>
</trkpt>
<trkpt lat="12.5977436" lon="99.9496684">
<ele>4.647</ele>
<time>2018-03-31T06:56:45.964Z</time>
</trkpt>
<trkpt lat="12.5985568" lon="99.9496906">
<ele>4.421</ele>
<time>2018-03-31T06:56:50.230Z</time>
</trkpt>
<trkpt lat="12.5991550" lon="99.9496414">
<ele>4.115</ele>
<time>2018-03-31T06:56:53.377Z</time>
</trkpt>
<trkpt lat="12.5996385" lon="99.9496061">
<ele>3.680</ele>
<time>2018-03-31T06:56:55.929Z</time>
</trkpt>
<trkpt lat="12.6002196" lon="99.9497022">
<ele>3.741</ele>
<time>2018-03-31T06:56:59.073Z</time>
</trkpt>
<trkpt lat="12.6007584" lon="99.9497636">
<ele>4.671</ele>
<time>2018-03-31T06:57:02.020Z</time>
</trkpt>
<trkpt lat="12.6012908" lon="99.9496687">
<ele>5.612</ele>
<time>2018-03-31T06:57:04.954Z</time>
</trkpt>
<trkpt lat="12.6019166" lon="99.9497863">
<ele>5.319</ele>
<time>2018-03-31T06:57:08.320Z</time>
</trkpt>
<trkpt lat="12.6024704" lon="99.9497504">
<ele>3.472</ele>
<time>2018-03-31T06:57:11.212Z</time>
</trkpt>
<trkpt lat="12.6030451" lon="99.9497446">
<ele>1.029</ele>
<time>2018-03-31T06:57:14.206Z</time>
</trkpt>
<trkpt lat="12.6036177" lon="99.9497754">
<ele>0.000</ele>
<time>2018-03-31T06:57:17.188Z</time>
</trkpt>
<trkpt lat="12.6042079" lon="99.9498398">
<ele>0.000</ele>
<time>2018-03-31T06:57:20.243Z</time>
</trkpt>
<trkpt lat="12.6048159" lon="99.9498994">
<ele>0.737</ele>
<time>2018-03-31T06:57:23.365Z</time>
</trkpt>
<trkpt lat="12.6053674" lon="99.9498808">
<ele>1.268</ele>
<time>2018-03-31T06:57:26.189Z</time>
</trkpt>
<trkpt lat="12.6059636" lon="99.9499024">
<ele>1.304</ele>
<time>2018-03-31T06:57:29.207Z</time>
</trkpt>
<trkpt lat="12.6065684" lon="99.9499015">
<ele>1.150</ele>
<time>2018-03-31T06:57:32.171Z</time>
</trkpt>
<trkpt lat="12.6072142" lon="99.9499015">
<ele>1.063</ele>
<time>2018-03-31T06:57:35.211Z</time>
</trkpt>
<trkpt lat="12.6078953" lon="99.9499204">
<ele>1.115</ele>
<time>2018-03-31T06:57:38.308Z</time>
</trkpt>
<trkpt lat="12.6085646" lon="99.9499873">
<ele>1.219</ele>
<time>2018-03-31T06:57:41.334Z</time>
</trkpt>
<trkpt lat="12.6091896" lon="99.9500466">
<ele>0.946</ele>
<time>2018-03-31T06:57:44.191Z</time>
</trkpt>
<trkpt lat="12.6098566" lon="99.9501078">
<ele>0.000</ele>
<time>2018-03-31T06:57:47.280Z</time>
</trkpt>
<trkpt lat="12.6104583" lon="99.9501415">
<ele>0.000</ele>
<time>2018-03-31T06:57:50.123Z</time>
</trkpt>
<trkpt lat="12.6110343" lon="99.9501629">
<ele>0.000</ele>
<time>2018-03-31T06:57:52.944Z</time>
</trkpt>
<trkpt lat="12.6116193" lon="99.9501782">
<ele>0.000</ele>
<time>2018-03-31T06:57:55.862Z</time>
</trkpt>
<trkpt lat="12.6122991" lon="99.9502813">
<ele>0.139</ele>
<time>2018-03-31T06:57:59.241Z</time>
</trkpt>
<trkpt lat="12.6128108" lon="99.9502624">
<ele>0.592</ele>
<time>2018-03-31T06:58:01.818Z</time>
</trkpt>
<trkpt lat="12.6133801" lon="99.9502712">
<ele>0.321</ele>
<time>2018-03-31T06:58:04.768Z</time>
</trkpt>
<trkpt lat="12.6139800" lon="99.9503095">
<ele>0.000</ele>
<time>2018-03-31T06:58:07.832Z</time>
</trkpt>
<trkpt lat="12.6145784" lon="99.9502849">
<ele>0.000</ele>
<time>2018-03-31T06:58:10.909Z</time>
</trkpt>
<trkpt lat="12.6150758" lon="99.9503329">
<ele>0.247</ele>
<time>2018-03-31T06:58:13.685Z</time>
</trkpt>
<trkpt lat="12.6154879" lon="99.9503330">
<ele>1.159</ele>
<time>2018-03-31T06:58:16.278Z</time>
</trkpt>
<trkpt lat="12.6158501" lon="99.9502889">
<ele>2.167</ele>
<time>2018-03-31T06:58:18.848Z</time>
</trkpt>
<trkpt lat="12.6163381" lon="99.9503223">
<ele>3.050</ele>
<time>2018-03-31T06:58:22.224Z</time>
</trkpt>
<trkpt lat="12.6168118" lon="99.9503684">
<ele>3.612</ele>
<time>2018-03-31T06:58:25.295Z</time>
</trkpt>
<trkpt lat="12.6172742" lon="99.9503646">
<ele>3.846</ele>
<time>2018-03-31T06:58:28.234Z</time>
</trkpt>
<trkpt lat="12.6177821" lon="99.9503960">
<ele>4.022</ele>
<time>2018-03-31T06:58:31.352Z</time>
</trkpt>
<trkpt lat="12.6183055" lon="99.9504259">
<ele>4.345</ele>
<time>2018-03-31T06:58:34.394Z</time>
</trkpt>
<trkpt lat="12.6188434" lon="99.9504482">
<ele>4.829</ele>
<time>2018-03-31T06:58:37.398Z</time>
</trkpt>
<trkpt lat="12.6193933" lon="99.9504738">
<ele>5.451</ele>
<time>2018-03-31T06:58:40.390Z</time>
</trkpt>
<trkpt lat="12.6199562" lon="99.9504893">
<ele>5.856</ele>
<time>2018-03-31T06:58:43.386Z</time>
</trkpt>
<trkpt lat="12.6205892" lon="99.9505484">
<ele>5.469</ele>
<time>2018-03-31T06:58:46.646Z</time>
</trkpt>
<trkpt lat="12.6211697" lon="99.9505571">
<ele>4.335</ele>
<time>2018-03-31T06:58:49.551Z</time>
</trkpt>
<trkpt lat="12.6217796" lon="99.9505693">
<ele>3.223</ele>
<time>2018-03-31T06:58:52.582Z</time>
</trkpt>
<trkpt lat="12.6223633" lon="99.9505660">
<ele>2.470</ele>
<time>2018-03-31T06:58:55.473Z</time>
</trkpt>
<trkpt lat="12.6230031" lon="99.9506284">
<ele>1.819</ele>
<time>2018-03-31T06:58:58.646Z</time>
</trkpt>
<trkpt lat="12.6236087" lon="99.9506659">
<ele>1.333</ele>
<time>2018-03-31T06:59:01.673Z</time>
</trkpt>
<trkpt lat="12.6242068" lon="99.9506856">
<ele>1.165</ele>
<time>2018-03-31T06:59:04.743Z</time>
</trkpt>
<trkpt lat="12.6247080" lon="99.9506695">
<ele>1.186</ele>
<time>2018-03-31T06:59:07.418Z</time>
</trkpt>
<trkpt lat="12.6253105" lon="99.9507517">
<ele>1.200</ele>
<time>2018-03-31T06:59:10.711Z</time>
</trkpt>
<trkpt lat="12.6258438" lon="99.9507812">
<ele>1.116</ele>
<time>2018-03-31T06:59:13.592Z</time>
</trkpt>
<trkpt lat="12.6263891" lon="99.9507918">
<ele>0.862</ele>
<time>2018-03-31T06:59:16.589Z</time>
</trkpt>
<trkpt lat="12.6269283" lon="99.9508379">
<ele>0.383</ele>
<time>2018-03-31T06:59:19.616Z</time>
</trkpt>
<trkpt lat="12.6274305" lon="99.9508380">
<ele>0.000</ele>
<time>2018-03-31T06:59:22.458Z</time>
</trkpt>
<trkpt lat="12.6279476" lon="99.9508558">
<ele>0.000</ele>
<time>2018-03-31T06:59:25.389Z</time>
</trkpt>
<trkpt lat="12.6284911" lon="99.9508551">
<ele>0.000</ele>
<time>2018-03-31T06:59:28.483Z</time>
</trkpt>
<trkpt lat="12.6290008" lon="99.9507772">
<ele>0.000</ele>
<time>2018-03-31T06:59:31.417Z</time>
</trkpt>
<trkpt lat="12.6295515" lon="99.9506541">
<ele>0.826</ele>
<time>2018-03-31T06:59:34.529Z</time>
</trkpt>
<trkpt lat="12.6300660" lon="99.9504265">
<ele>1.890</ele>
<time>2018-03-31T06:59:37.501Z</time>
</trkpt>
<trkpt lat="12.6306206" lon="99.9502076">
<ele>3.133</ele>
<time>2018-03-31T06:59:40.552Z</time>
</trkpt>
<trkpt lat="12.6311811" lon="99.9499743">
<ele>4.388</ele>
<time>2018-03-31T06:59:43.575Z</time>
</trkpt>
<trkpt lat="12.6317489" lon="99.9497612">
<ele>5.375</ele>
<time>2018-03-31T06:59:46.559Z</time>
</trkpt>
<trkpt lat="12.6323552" lon="99.9495486">
<ele>6.114</ele>
<time>2018-03-31T06:59:49.682Z</time>
</trkpt>
<trkpt lat="12.6329271" lon="99.9493300">
<ele>6.763</ele>
<time>2018-03-31T06:59:52.691Z</time>
</trkpt>
<trkpt lat="12.6334507" lon="99.9491123">
<ele>7.368</ele>
<time>2018-03-31T06:59:55.588Z</time>
</trkpt>
<trkpt lat="12.6339930" lon="99.9489179">
<ele>7.947</ele>
<time>2018-03-31T06:59:58.592Z</time>
</trkpt>
<trkpt lat="12.6345437" lon="99.9487176">
<ele>8.448</ele>
<time>2018-03-31T07:00:01.635Z</time>
</trkpt>
<trkpt lat="12.6350790" lon="99.9485156">
<ele>8.812</ele>
<time>2018-03-31T07:00:04.622Z</time>
</trkpt>
<trkpt lat="12.6356339" lon="99.9483769">
<ele>9.059</ele>
<time>2018-03-31T07:00:07.630Z</time>
</trkpt>
<trkpt lat="12.6362560" lon="99.9484000">
<ele>9.113</ele>
<time>2018-03-31T07:00:10.833Z</time>
</trkpt>
<trkpt lat="12.6368585" lon="99.9484613">
<ele>8.878</ele>
<time>2018-03-31T07:00:13.801Z</time>
</trkpt>
<trkpt lat="12.6374826" lon="99.9485113">
<ele>8.045</ele>
<time>2018-03-31T07:00:16.729Z</time>
</trkpt>
<trkpt lat="12.6381621" lon="99.9485445">
<ele>6.440</ele>
<time>2018-03-31T07:00:19.814Z</time>
</trkpt>
<trkpt lat="12.6388177" lon="99.9485815">
<ele>4.739</ele>
<time>2018-03-31T07:00:22.772Z</time>
</trkpt>
<trkpt lat="12.6394735" lon="99.9486255">
<ele>3.962</ele>
<time>2018-03-31T07:00:25.735Z</time>
</trkpt>
<trkpt lat="12.6401712" lon="99.9486746">
<ele>4.231</ele>
<time>2018-03-31T07:00:28.853Z</time>
</trkpt>
<trkpt lat="12.6408342" lon="99.9487129">
<ele>4.978</ele>
<time>2018-03-31T07:00:31.843Z</time>
</trkpt>
<trkpt lat="12.6414599" lon="99.9487523">
<ele>5.532</ele>
<time>2018-03-31T07:00:34.764Z</time>
</trkpt>
<trkpt lat="12.6420782" lon="99.9488019">
<ele>5.522</ele>
<time>2018-03-31T07:00:37.703Z</time>
</trkpt>
<trkpt lat="12.6420782" lon="99.9488019">
<ele>5.522</ele>
<time>2018-03-31T07:00:37.703Z</time>
</trkpt>
<trkpt lat="12.6462717" lon="99.9494124">
<ele>3.488</ele>
<time>2018-03-31T07:00:57.135Z</time>
</trkpt>
<trkpt lat="12.6468358" lon="99.9497848">
<ele>3.487</ele>
<time>2018-03-31T07:01:00.176Z</time>
</trkpt>
<trkpt lat="12.6473619" lon="99.9501540">
<ele>3.670</ele>
<time>2018-03-31T07:01:03.092Z</time>
</trkpt>
<trkpt lat="12.6479077" lon="99.9505297">
<ele>4.150</ele>
<time>2018-03-31T07:01:06.058Z</time>
</trkpt>
<trkpt lat="12.6484759" lon="99.9509125">
<ele>4.528</ele>
<time>2018-03-31T07:01:09.081Z</time>
</trkpt>
<trkpt lat="12.6490733" lon="99.9512734">
<ele>4.462</ele>
<time>2018-03-31T07:01:12.130Z</time>
</trkpt>
<trkpt lat="12.6497049" lon="99.9515662">
<ele>4.104</ele>
<time>2018-03-31T07:01:15.144Z</time>
</trkpt>
<trkpt lat="12.6503717" lon="99.9517517">
<ele>3.695</ele>
<time>2018-03-31T07:01:18.123Z</time>
</trkpt>
<trkpt lat="12.6508189" lon="99.9517875">
<ele>3.177</ele>
<time>2018-03-31T07:01:19.978Z</time>
</trkpt>
<trkpt lat="12.6513766" lon="99.9518134">
<ele>2.037</ele>
<time>2018-03-31T07:01:22.188Z</time>
</trkpt>
<trkpt lat="12.6518827" lon="99.9518275">
<ele>0.275</ele>
<time>2018-03-31T07:01:24.184Z</time>
</trkpt>
<trkpt lat="12.6523741" lon="99.9518482">
<ele>0.000</ele>
<time>2018-03-31T07:01:26.135Z</time>
</trkpt>
<trkpt lat="12.6528752" lon="99.9518687">
<ele>0.000</ele>
<time>2018-03-31T07:01:28.125Z</time>
</trkpt>
<trkpt lat="12.6533856" lon="99.9519193">
<ele>0.000</ele>
<time>2018-03-31T07:01:30.161Z</time>
</trkpt>
<trkpt lat="12.6538902" lon="99.9519607">
<ele>0.000</ele>
<time>2018-03-31T07:01:32.192Z</time>
</trkpt>
<trkpt lat="12.6543774" lon="99.9519501">
<ele>0.000</ele>
<time>2018-03-31T07:01:34.183Z</time>
</trkpt>
<trkpt lat="12.6548455" lon="99.9519570">
<ele>0.000</ele>
<time>2018-03-31T07:01:36.113Z</time>
</trkpt>
<trkpt lat="12.6553447" lon="99.9519923">
<ele>0.000</ele>
<time>2018-03-31T07:01:38.137Z</time>
</trkpt>
<trkpt lat="12.6558719" lon="99.9520289">
<ele>0.000</ele>
<time>2018-03-31T07:01:40.283Z</time>
</trkpt>
<trkpt lat="12.6563184" lon="99.9520221">
<ele>0.000</ele>
<time>2018-03-31T07:01:42.110Z</time>
</trkpt>
<trkpt lat="12.6568291" lon="99.9520598">
<ele>0.000</ele>
<time>2018-03-31T07:01:44.182Z</time>
</trkpt>
<trkpt lat="12.6573114" lon="99.9520611">
<ele>0.000</ele>
<time>2018-03-31T07:01:46.127Z</time>
</trkpt>
<trkpt lat="12.6577960" lon="99.9520690">
<ele>0.000</ele>
<time>2018-03-31T07:01:48.071Z</time>
</trkpt>
<trkpt lat="12.6582953" lon="99.9520971">
<ele>0.000</ele>
<time>2018-03-31T07:01:50.050Z</time>
</trkpt>
<trkpt lat="12.6590760" lon="99.9521376">
<ele>0.000</ele>
<time>2018-03-31T07:01:53.114Z</time>
</trkpt>
<trkpt lat="12.6598472" lon="99.9521482">
<ele>0.000</ele>
<time>2018-03-31T07:01:56.102Z</time>
</trkpt>
<trkpt lat="12.6606314" lon="99.9522154">
<ele>0.000</ele>
<time>2018-03-31T07:01:59.105Z</time>
</trkpt>
<trkpt lat="12.6614494" lon="99.9522695">
<ele>0.000</ele>
<time>2018-03-31T07:02:02.167Z</time>
</trkpt>
<trkpt lat="12.6622627" lon="99.9522162">
<ele>0.000</ele>
<time>2018-03-31T07:02:05.205Z</time>
</trkpt>
<trkpt lat="12.6630100" lon="99.9522386">
<ele>0.000</ele>
<time>2018-03-31T07:02:08.025Z</time>
</trkpt>
<trkpt lat="12.6638093" lon="99.9522738">
<ele>0.000</ele>
<time>2018-03-31T07:02:11.103Z</time>
</trkpt>
<trkpt lat="12.6645266" lon="99.9522850">
<ele>0.000</ele>
<time>2018-03-31T07:02:13.970Z</time>
</trkpt>
<trkpt lat="12.6652348" lon="99.9523067">
<ele>0.000</ele>
<time>2018-03-31T07:02:16.882Z</time>
</trkpt>
<trkpt lat="12.6659700" lon="99.9523468">
<ele>0.000</ele>
<time>2018-03-31T07:02:19.984Z</time>
</trkpt>
<trkpt lat="12.6666625" lon="99.9523750">
<ele>0.000</ele>
<time>2018-03-31T07:02:23.142Z</time>
</trkpt>
<trkpt lat="12.6672299" lon="99.9524119">
<ele>0.000</ele>
<time>2018-03-31T07:02:26.061Z</time>
</trkpt>
<trkpt lat="12.6677641" lon="99.9524082">
<ele>0.000</ele>
<time>2018-03-31T07:02:29.026Z</time>
</trkpt>
<trkpt lat="12.6682486" lon="99.9524153">
<ele>0.000</ele>
<time>2018-03-31T07:02:31.836Z</time>
</trkpt>
<trkpt lat="12.6687334" lon="99.9524148">
<ele>0.000</ele>
<time>2018-03-31T07:02:34.657Z</time>
</trkpt>
<trkpt lat="12.6693232" lon="99.9524421">
<ele>0.000</ele>
<time>2018-03-31T07:02:37.967Z</time>
</trkpt>
<trkpt lat="12.6699017" lon="99.9524304">
<ele>0.000</ele>
<time>2018-03-31T07:02:41.113Z</time>
</trkpt>
<trkpt lat="12.6704328" lon="99.9524381">
<ele>0.000</ele>
<time>2018-03-31T07:02:43.926Z</time>
</trkpt>
<trkpt lat="12.6710529" lon="99.9524980">
<ele>0.000</ele>
<time>2018-03-31T07:02:47.120Z</time>
</trkpt>
<trkpt lat="12.6716350" lon="99.9524891">
<ele>0.000</ele>
<time>2018-03-31T07:02:50.055Z</time>
</trkpt>
<trkpt lat="12.6722205" lon="99.9524780">
<ele>0.000</ele>
<time>2018-03-31T07:02:52.945Z</time>
</trkpt>
<trkpt lat="12.6728635" lon="99.9525246">
<ele>0.000</ele>
<time>2018-03-31T07:02:56.039Z</time>
</trkpt>
<trkpt lat="12.6734926" lon="99.9525029">
<ele>0.000</ele>
<time>2018-03-31T07:02:58.995Z</time>
</trkpt>
<trkpt lat="12.6741357" lon="99.9525001">
<ele>0.000</ele>
<time>2018-03-31T07:03:01.981Z</time>
</trkpt>
<trkpt lat="12.6747989" lon="99.9525345">
<ele>0.000</ele>
<time>2018-03-31T07:03:05.063Z</time>
</trkpt>
<trkpt lat="12.6754262" lon="99.9525308">
<ele>0.000</ele>
<time>2018-03-31T07:03:07.929Z</time>
</trkpt>
<trkpt lat="12.6761373" lon="99.9525387">
<ele>0.000</ele>
<time>2018-03-31T07:03:11.099Z</time>
</trkpt>
<trkpt lat="12.6767980" lon="99.9525453">
<ele>0.000</ele>
<time>2018-03-31T07:03:14.021Z</time>
</trkpt>
<trkpt lat="12.6775026" lon="99.9526053">
<ele>0.000</ele>
<time>2018-03-31T07:03:17.196Z</time>
</trkpt>
<trkpt lat="12.6781063" lon="99.9525915">
<ele>0.000</ele>
<time>2018-03-31T07:03:19.959Z</time>
</trkpt>
<trkpt lat="12.6787917" lon="99.9526852">
<ele>0.000</ele>
<time>2018-03-31T07:03:23.147Z</time>
</trkpt>
<trkpt lat="12.6794149" lon="99.9526735">
<ele>0.000</ele>
<time>2018-03-31T07:03:26.065Z</time>
</trkpt>
<trkpt lat="12.6800395" lon="99.9526664">
<ele>0.000</ele>
<time>2018-03-31T07:03:29.031Z</time>
</trkpt>
<trkpt lat="12.6806589" lon="99.9526624">
<ele>0.000</ele>
<time>2018-03-31T07:03:31.975Z</time>
</trkpt>
<trkpt lat="12.6813055" lon="99.9526684">
<ele>0.000</ele>
<time>2018-03-31T07:03:35.014Z</time>
</trkpt>
<trkpt lat="12.6819575" lon="99.9526910">
<ele>0.000</ele>
<time>2018-03-31T07:03:38.083Z</time>
</trkpt>
<trkpt lat="12.6825830" lon="99.9526906">
<ele>0.000</ele>
<time>2018-03-31T07:03:41.028Z</time>
</trkpt>
<trkpt lat="12.6832586" lon="99.9527418">
<ele>0.000</ele>
<time>2018-03-31T07:03:44.220Z</time>
</trkpt>
<trkpt lat="12.6838843" lon="99.9527352">
<ele>0.696</ele>
<time>2018-03-31T07:03:47.213Z</time>
</trkpt>
<trkpt lat="12.6845120" lon="99.9527846">
<ele>0.883</ele>
<time>2018-03-31T07:03:50.230Z</time>
</trkpt>
<trkpt lat="12.6851369" lon="99.9527889">
<ele>0.000</ele>
<time>2018-03-31T07:03:53.122Z</time>
</trkpt>
<trkpt lat="12.6858012" lon="99.9528243">
<ele>0.000</ele>
<time>2018-03-31T07:03:56.059Z</time>
</trkpt>
<trkpt lat="12.6864941" lon="99.9528278">
<ele>0.000</ele>
<time>2018-03-31T07:03:59.056Z</time>
</trkpt>
<trkpt lat="12.6871885" lon="99.9528298">
<ele>0.000</ele>
<time>2018-03-31T07:04:02.062Z</time>
</trkpt>
<trkpt lat="12.6878869" lon="99.9528600">
<ele>0.000</ele>
<time>2018-03-31T07:04:05.052Z</time>
</trkpt>
<trkpt lat="12.6886063" lon="99.9528742">
<ele>0.000</ele>
<time>2018-03-31T07:04:08.043Z</time>
</trkpt>
<trkpt lat="12.6893539" lon="99.9528928">
<ele>0.000</ele>
<time>2018-03-31T07:04:11.074Z</time>
</trkpt>
<trkpt lat="12.6901125" lon="99.9529379">
<ele>0.000</ele>
<time>2018-03-31T07:04:14.128Z</time>
</trkpt>
<trkpt lat="12.6908424" lon="99.9529809">
<ele>0.000</ele>
<time>2018-03-31T07:04:17.080Z</time>
</trkpt>
<trkpt lat="12.6915532" lon="99.9529965">
<ele>0.000</ele>
<time>2018-03-31T07:04:19.943Z</time>
</trkpt>
<trkpt lat="12.6923230" lon="99.9530003">
<ele>0.000</ele>
<time>2018-03-31T07:04:23.053Z</time>
</trkpt>
<trkpt lat="12.6930288" lon="99.9530120">
<ele>0.000</ele>
<time>2018-03-31T07:04:25.926Z</time>
</trkpt>
<trkpt lat="12.6937785" lon="99.9529774">
<ele>0.000</ele>
<time>2018-03-31T07:04:28.937Z</time>
</trkpt>
<trkpt lat="12.6945700" lon="99.9530163">
<ele>0.000</ele>
<time>2018-03-31T07:04:32.114Z</time>
</trkpt>
<trkpt lat="12.6952973" lon="99.9530040">
<ele>0.000</ele>
<time>2018-03-31T07:04:35.151Z</time>
</trkpt>
<trkpt lat="12.6959653" lon="99.9530677">
<ele>0.000</ele>
<time>2018-03-31T07:04:38.118Z</time>
</trkpt>
<trkpt lat="12.6965870" lon="99.9530977">
<ele>0.571</ele>
<time>2018-03-31T07:04:40.986Z</time>
</trkpt>
<trkpt lat="12.6972229" lon="99.9530874">
<ele>1.092</ele>
<time>2018-03-31T07:04:43.908Z</time>
</trkpt>
<trkpt lat="12.6979029" lon="99.9531206">
<ele>1.234</ele>
<time>2018-03-31T07:04:46.961Z</time>
</trkpt>
<trkpt lat="12.6985864" lon="99.9531555">
<ele>1.699</ele>
<time>2018-03-31T07:04:49.957Z</time>
</trkpt>
<trkpt lat="12.6992613" lon="99.9531752">
<ele>2.160</ele>
<time>2018-03-31T07:04:52.855Z</time>
</trkpt>
<trkpt lat="12.6999838" lon="99.9531641">
<ele>2.134</ele>
<time>2018-03-31T07:04:55.912Z</time>
</trkpt>
<trkpt lat="12.7007035" lon="99.9531645">
<ele>1.819</ele>
<time>2018-03-31T07:04:58.938Z</time>
</trkpt>
<trkpt lat="12.7014144" lon="99.9531740">
<ele>1.417</ele>
<time>2018-03-31T07:05:01.931Z</time>
</trkpt>
<trkpt lat="12.7021275" lon="99.9531960">
<ele>0.776</ele>
<time>2018-03-31T07:05:04.912Z</time>
</trkpt>
<trkpt lat="12.7028712" lon="99.9532122">
<ele>0.000</ele>
<time>2018-03-31T07:05:07.956Z</time>
</trkpt>
<trkpt lat="12.7036176" lon="99.9532127">
<ele>0.000</ele>
<time>2018-03-31T07:05:10.953Z</time>
</trkpt>
<trkpt lat="12.7043713" lon="99.9532280">
<ele>0.000</ele>
<time>2018-03-31T07:05:13.978Z</time>
</trkpt>
<trkpt lat="12.7051046" lon="99.9532379">
<ele>0.000</ele>
<time>2018-03-31T07:05:16.961Z</time>
</trkpt>
<trkpt lat="12.7058170" lon="99.9532552">
<ele>0.000</ele>
<time>2018-03-31T07:05:19.865Z</time>
</trkpt>
<trkpt lat="12.7065633" lon="99.9532783">
<ele>0.000</ele>
<time>2018-03-31T07:05:22.885Z</time>
</trkpt>
<trkpt lat="12.7073058" lon="99.9533070">
<ele>0.143</ele>
<time>2018-03-31T07:05:25.912Z</time>
</trkpt>
<trkpt lat="12.7080302" lon="99.9533451">
<ele>0.712</ele>
<time>2018-03-31T07:05:28.904Z</time>
</trkpt>
<trkpt lat="12.7087535" lon="99.9533730">
<ele>1.073</ele>
<time>2018-03-31T07:05:31.889Z</time>
</trkpt>
<trkpt lat="12.7094837" lon="99.9533646">
<ele>1.254</ele>
<time>2018-03-31T07:05:34.868Z</time>
</trkpt>
<trkpt lat="12.7102368" lon="99.9533650">
<ele>1.386</ele>
<time>2018-03-31T07:05:37.896Z</time>
</trkpt>
<trkpt lat="12.7110056" lon="99.9533783">
<ele>1.830</ele>
<time>2018-03-31T07:05:40.954Z</time>
</trkpt>
<trkpt lat="12.7117843" lon="99.9534204">
<ele>2.689</ele>
<time>2018-03-31T07:05:44.068Z</time>
</trkpt>
<trkpt lat="12.7125015" lon="99.9534139">
<ele>3.589</ele>
<time>2018-03-31T07:05:46.990Z</time>
</trkpt>
<trkpt lat="12.7132099" lon="99.9534015">
<ele>4.123</ele>
<time>2018-03-31T07:05:49.914Z</time>
</trkpt>
<trkpt lat="12.7139463" lon="99.9534077">
<ele>4.184</ele>
<time>2018-03-31T07:05:52.965Z</time>
</trkpt>
<trkpt lat="12.7146455" lon="99.9534540">
<ele>3.949</ele>
<time>2018-03-31T07:05:55.859Z</time>
</trkpt>
<trkpt lat="12.7153765" lon="99.9535171">
<ele>3.967</ele>
<time>2018-03-31T07:05:58.827Z</time>
</trkpt>
<trkpt lat="12.7161367" lon="99.9536167">
<ele>4.561</ele>
<time>2018-03-31T07:06:01.848Z</time>
</trkpt>
<trkpt lat="12.7168809" lon="99.9537620">
<ele>5.406</ele>
<time>2018-03-31T07:06:04.784Z</time>
</trkpt>
<trkpt lat="12.7176511" lon="99.9539232">
<ele>6.145</ele>
<time>2018-03-31T07:06:07.820Z</time>
</trkpt>
<trkpt lat="12.7184125" lon="99.9540822">
<ele>6.698</ele>
<time>2018-03-31T07:06:10.874Z</time>
</trkpt>
<trkpt lat="12.7191359" lon="99.9542351">
<ele>7.230</ele>
<time>2018-03-31T07:06:13.838Z</time>
</trkpt>
<trkpt lat="12.7198536" lon="99.9543862">
<ele>7.998</ele>
<time>2018-03-31T07:06:16.791Z</time>
</trkpt>
<trkpt lat="12.7205994" lon="99.9545376">
<ele>8.906</ele>
<time>2018-03-31T07:06:19.859Z</time>
</trkpt>
<trkpt lat="12.7213212" lon="99.9546885">
<ele>9.558</ele>
<time>2018-03-31T07:06:22.861Z</time>
</trkpt>
<trkpt lat="12.7220493" lon="99.9548367">
<ele>9.965</ele>
<time>2018-03-31T07:06:25.902Z</time>
</trkpt>
<trkpt lat="12.7227591" lon="99.9549970">
<ele>10.420</ele>
<time>2018-03-31T07:06:28.876Z</time>
</trkpt>
<trkpt lat="12.7234759" lon="99.9551569">
<ele>10.934</ele>
<time>2018-03-31T07:06:31.894Z</time>
</trkpt>
<trkpt lat="12.7241832" lon="99.9553071">
<ele>11.243</ele>
<time>2018-03-31T07:06:34.926Z</time>
</trkpt>
<trkpt lat="12.7248586" lon="99.9554415">
<ele>11.251</ele>
<time>2018-03-31T07:06:37.903Z</time>
</trkpt>
<trkpt lat="12.7254854" lon="99.9555858">
<ele>10.897</ele>
<time>2018-03-31T07:06:40.776Z</time>
</trkpt>
<trkpt lat="12.7261187" lon="99.9557203">
<ele>9.800</ele>
<time>2018-03-31T07:06:43.761Z</time>
</trkpt>
<trkpt lat="12.7267364" lon="99.9558513">
<ele>7.988</ele>
<time>2018-03-31T07:06:46.761Z</time>
</trkpt>
<trkpt lat="12.7273511" lon="99.9559738">
<ele>6.830</ele>
<time>2018-03-31T07:06:49.791Z</time>
</trkpt>
<trkpt lat="12.7279722" lon="99.9560906">
<ele>7.383</ele>
<time>2018-03-31T07:06:52.768Z</time>
</trkpt>
<trkpt lat="12.7286467" lon="99.9562428">
<ele>9.231</ele>
<time>2018-03-31T07:06:55.827Z</time>
</trkpt>
<trkpt lat="12.7293337" lon="99.9563962">
<ele>11.350</ele>
<time>2018-03-31T07:06:58.768Z</time>
</trkpt>
<trkpt lat="12.7300677" lon="99.9565361">
<ele>12.340</ele>
<time>2018-03-31T07:07:01.793Z</time>
</trkpt>
<trkpt lat="12.7307879" lon="99.9567011">
<ele>11.591</ele>
<time>2018-03-31T07:07:04.738Z</time>
</trkpt>
<trkpt lat="12.7315339" lon="99.9568569">
<ele>10.168</ele>
<time>2018-03-31T07:07:07.744Z</time>
</trkpt>
<trkpt lat="12.7323120" lon="99.9570126">
<ele>9.170</ele>
<time>2018-03-31T07:07:10.847Z</time>
</trkpt>
<trkpt lat="12.7330748" lon="99.9571658">
<ele>9.257</ele>
<time>2018-03-31T07:07:13.877Z</time>
</trkpt>
<trkpt lat="12.7338129" lon="99.9573403">
<ele>10.517</ele>
<time>2018-03-31T07:07:16.822Z</time>
</trkpt>
<trkpt lat="12.7345410" lon="99.9575250">
<ele>11.719</ele>
<time>2018-03-31T07:07:19.723Z</time>
</trkpt>
<trkpt lat="12.7352844" lon="99.9577013">
<ele>11.261</ele>
<time>2018-03-31T07:07:22.653Z</time>
</trkpt>
<trkpt lat="12.7360577" lon="99.9578777">
<ele>9.021</ele>
<time>2018-03-31T07:07:25.681Z</time>
</trkpt>
<trkpt lat="12.7368176" lon="99.9580523">
<ele>6.458</ele>
<time>2018-03-31T07:07:28.658Z</time>
</trkpt>
<trkpt lat="12.7375739" lon="99.9582309">
<ele>5.048</ele>
<time>2018-03-31T07:07:31.629Z</time>
</trkpt>
<trkpt lat="12.7383328" lon="99.9584209">
<ele>4.899</ele>
<time>2018-03-31T07:07:34.613Z</time>
</trkpt>
<trkpt lat="12.7390883" lon="99.9585960">
<ele>5.227</ele>
<time>2018-03-31T07:07:37.557Z</time>
</trkpt>
<trkpt lat="12.7398785" lon="99.9587531">
<ele>4.672</ele>
<time>2018-03-31T07:07:40.599Z</time>
</trkpt>
<trkpt lat="12.7406644" lon="99.9589272">
<ele>2.522</ele>
<time>2018-03-31T07:07:43.625Z</time>
</trkpt>
<trkpt lat="12.7414399" lon="99.9591069">
<ele>0.000</ele>
<time>2018-03-31T07:07:46.612Z</time>
</trkpt>
<trkpt lat="12.7422293" lon="99.9592724">
<ele>0.000</ele>
<time>2018-03-31T07:07:49.632Z</time>
</trkpt>
<trkpt lat="12.7430186" lon="99.9594555">
<ele>0.000</ele>
<time>2018-03-31T07:07:52.653Z</time>
</trkpt>
<trkpt lat="12.7437973" lon="99.9596343">
<ele>0.000</ele>
<time>2018-03-31T07:07:55.634Z</time>
</trkpt>
<trkpt lat="12.7445795" lon="99.9598025">
<ele>0.000</ele>
<time>2018-03-31T07:07:58.660Z</time>
</trkpt>
<trkpt lat="12.7453364" lon="99.9599700">
<ele>0.126</ele>
<time>2018-03-31T07:08:01.641Z</time>
</trkpt>
<trkpt lat="12.7461039" lon="99.9601124">
<ele>0.557</ele>
<time>2018-03-31T07:08:04.638Z</time>
</trkpt>
<trkpt lat="12.7468748" lon="99.9602821">
<ele>0.724</ele>
<time>2018-03-31T07:08:07.612Z</time>
</trkpt>
<trkpt lat="12.7476678" lon="99.9604415">
<ele>0.873</ele>
<time>2018-03-31T07:08:10.598Z</time>
</trkpt>
<trkpt lat="12.7484683" lon="99.9606352">
<ele>1.207</ele>
<time>2018-03-31T07:08:13.620Z</time>
</trkpt>
<trkpt lat="12.7492533" lon="99.9608057">
<ele>1.561</ele>
<time>2018-03-31T07:08:16.607Z</time>
</trkpt>
<trkpt lat="12.7500264" lon="99.9609602">
<ele>1.799</ele>
<time>2018-03-31T07:08:19.603Z</time>
</trkpt>
<trkpt lat="12.7507817" lon="99.9611192">
<ele>2.025</ele>
<time>2018-03-31T07:08:22.568Z</time>
</trkpt>
<trkpt lat="12.7515588" lon="99.9612933">
<ele>2.248</ele>
<time>2018-03-31T07:08:25.584Z</time>
</trkpt>
<trkpt lat="12.7523566" lon="99.9614823">
<ele>2.492</ele>
<time>2018-03-31T07:08:28.625Z</time>
</trkpt>
<trkpt lat="12.7528912" lon="99.9615957">
<ele>3.124</ele>
<time>2018-03-31T07:08:30.632Z</time>
</trkpt>
<trkpt lat="12.7534147" lon="99.9617125">
<ele>4.220</ele>
<time>2018-03-31T07:08:32.621Z</time>
</trkpt>
<trkpt lat="12.7539319" lon="99.9618244">
<ele>5.080</ele>
<time>2018-03-31T07:08:34.603Z</time>
</trkpt>
<trkpt lat="12.7544504" lon="99.9619567">
<ele>5.188</ele>
<time>2018-03-31T07:08:36.594Z</time>
</trkpt>
<trkpt lat="12.7549954" lon="99.9620707">
<ele>4.848</ele>
<time>2018-03-31T07:08:38.631Z</time>
</trkpt>
<trkpt lat="12.7555344" lon="99.9621958">
<ele>4.593</ele>
<time>2018-03-31T07:08:40.620Z</time>
</trkpt>
<trkpt lat="12.7560747" lon="99.9623217">
<ele>4.628</ele>
<time>2018-03-31T07:08:42.582Z</time>
</trkpt>
<trkpt lat="12.7566424" lon="99.9624413">
<ele>4.856</ele>
<time>2018-03-31T07:08:44.602Z</time>
</trkpt>
<trkpt lat="12.7571950" lon="99.9625637">
<ele>5.074</ele>
<time>2018-03-31T07:08:46.542Z</time>
</trkpt>
<trkpt lat="12.7577737" lon="99.9626921">
<ele>5.132</ele>
<time>2018-03-31T07:08:48.548Z</time>
</trkpt>
<trkpt lat="12.7583389" lon="99.9628457">
<ele>5.043</ele>
<time>2018-03-31T07:08:50.512Z</time>
</trkpt>
<trkpt lat="12.7589304" lon="99.9629748">
<ele>4.819</ele>
<time>2018-03-31T07:08:52.533Z</time>
</trkpt>
<trkpt lat="12.7595145" lon="99.9631075">
<ele>4.455</ele>
<time>2018-03-31T07:08:54.530Z</time>
</trkpt>
<trkpt lat="12.7601009" lon="99.9632271">
<ele>4.135</ele>
<time>2018-03-31T07:08:56.539Z</time>
</trkpt>
<trkpt lat="12.7606733" lon="99.9633489">
<ele>3.940</ele>
<time>2018-03-31T07:08:58.543Z</time>
</trkpt>
<trkpt lat="12.7612307" lon="99.9634644">
<ele>3.546</ele>
<time>2018-03-31T07:09:00.537Z</time>
</trkpt>
<trkpt lat="12.7617841" lon="99.9635776">
<ele>2.815</ele>
<time>2018-03-31T07:09:02.548Z</time>
</trkpt>
<trkpt lat="12.7623250" lon="99.9636881">
<ele>2.286</ele>
<time>2018-03-31T07:09:04.543Z</time>
</trkpt>
<trkpt lat="12.7631263" lon="99.9638722">
<ele>2.377</ele>
<time>2018-03-31T07:09:07.542Z</time>
</trkpt>
<trkpt lat="12.7639149" lon="99.9640559">
<ele>2.913</ele>
<time>2018-03-31T07:09:10.521Z</time>
</trkpt>
<trkpt lat="12.7647024" lon="99.9642518">
<ele>3.578</ele>
<time>2018-03-31T07:09:13.516Z</time>
</trkpt>
<trkpt lat="12.7654879" lon="99.9644378">
<ele>4.074</ele>
<time>2018-03-31T07:09:16.508Z</time>
</trkpt>
<trkpt lat="12.7662637" lon="99.9646403">
<ele>4.165</ele>
<time>2018-03-31T07:09:19.490Z</time>
</trkpt>
<trkpt lat="12.7670625" lon="99.9648172">
<ele>3.832</ele>
<time>2018-03-31T07:09:22.535Z</time>
</trkpt>
<trkpt lat="12.7678519" lon="99.9649866">
<ele>3.241</ele>
<time>2018-03-31T07:09:25.557Z</time>
</trkpt>
<trkpt lat="12.7686074" lon="99.9651871">
<ele>2.696</ele>
<time>2018-03-31T07:09:28.518Z</time>
</trkpt>
<trkpt lat="12.7693818" lon="99.9653586">
<ele>2.397</ele>
<time>2018-03-31T07:09:31.561Z</time>
</trkpt>
<trkpt lat="12.7701413" lon="99.9655124">
<ele>2.495</ele>
<time>2018-03-31T07:09:34.566Z</time>
</trkpt>
<trkpt lat="12.7709019" lon="99.9656633">
<ele>2.967</ele>
<time>2018-03-31T07:09:37.605Z</time>
</trkpt>
<trkpt lat="12.7716195" lon="99.9658463">
<ele>3.367</ele>
<time>2018-03-31T07:09:40.525Z</time>
</trkpt>
<trkpt lat="12.7723771" lon="99.9660060">
<ele>3.265</ele>
<time>2018-03-31T07:09:43.568Z</time>
</trkpt>
<trkpt lat="12.7731343" lon="99.9661447">
<ele>2.814</ele>
<time>2018-03-31T07:09:46.577Z</time>
</trkpt>
<trkpt lat="12.7738902" lon="99.9662894">
<ele>2.528</ele>
<time>2018-03-31T07:09:49.575Z</time>
</trkpt>
<trkpt lat="12.7746124" lon="99.9664805">
<ele>2.648</ele>
<time>2018-03-31T07:09:52.463Z</time>
</trkpt>
<trkpt lat="12.7753812" lon="99.9666642">
<ele>2.692</ele>
<time>2018-03-31T07:09:55.479Z</time>
</trkpt>
<trkpt lat="12.7761318" lon="99.9668842">
<ele>2.131</ele>
<time>2018-03-31T07:09:58.410Z</time>
</trkpt>
<trkpt lat="12.7769375" lon="99.9670731">
<ele>1.126</ele>
<time>2018-03-31T07:10:01.436Z</time>
</trkpt>
<trkpt lat="12.7777762" lon="99.9672424">
<ele>0.205</ele>
<time>2018-03-31T07:10:04.526Z</time>
</trkpt>
<trkpt lat="12.7785839" lon="99.9674244">
<ele>0.132</ele>
<time>2018-03-31T07:10:07.588Z</time>
</trkpt>
<trkpt lat="12.7793475" lon="99.9676143">
<ele>1.437</ele>
<time>2018-03-31T07:10:10.632Z</time>
</trkpt>
<trkpt lat="12.7800855" lon="99.9677689">
<ele>3.396</ele>
<time>2018-03-31T07:10:13.701Z</time>
</trkpt>
<trkpt lat="12.7807540" lon="99.9679138">
<ele>4.785</ele>
<time>2018-03-31T07:10:16.651Z</time>
</trkpt>
<trkpt lat="12.7813839" lon="99.9680790">
<ele>5.072</ele>
<time>2018-03-31T07:10:19.628Z</time>
</trkpt>
<trkpt lat="12.7819770" lon="99.9682223">
<ele>4.405</ele>
<time>2018-03-31T07:10:22.516Z</time>
</trkpt>
<trkpt lat="12.7825895" lon="99.9683382">
<ele>3.424</ele>
<time>2018-03-31T07:10:25.441Z</time>
</trkpt>
<trkpt lat="12.7832650" lon="99.9684956">
<ele>2.775</ele>
<time>2018-03-31T07:10:28.610Z</time>
</trkpt>
<trkpt lat="12.7838823" lon="99.9686794">
<ele>2.832</ele>
<time>2018-03-31T07:10:31.559Z</time>
</trkpt>
<trkpt lat="12.7845155" lon="99.9687924">
<ele>3.819</ele>
<time>2018-03-31T07:10:34.546Z</time>
</trkpt>
<trkpt lat="12.7851317" lon="99.9689586">
<ele>5.337</ele>
<time>2018-03-31T07:10:37.489Z</time>
</trkpt>
<trkpt lat="12.7857548" lon="99.9691112">
<ele>6.520</ele>
<time>2018-03-31T07:10:40.389Z</time>
</trkpt>
<trkpt lat="12.7864306" lon="99.9692649">
<ele>6.730</ele>
<time>2018-03-31T07:10:43.415Z</time>
</trkpt>
<trkpt lat="12.7871538" lon="99.9694039">
<ele>6.014</ele>
<time>2018-03-31T07:10:46.499Z</time>
</trkpt>
<trkpt lat="12.7878744" lon="99.9695906">
<ele>4.952</ele>
<time>2018-03-31T07:10:49.582Z</time>
</trkpt>
<trkpt lat="12.7885495" lon="99.9697588">
<ele>4.070</ele>
<time>2018-03-31T07:10:52.563Z</time>
</trkpt>
<trkpt lat="12.7892093" lon="99.9698978">
<ele>3.812</ele>
<time>2018-03-31T07:10:55.570Z</time>
</trkpt>
<trkpt lat="12.7898463" lon="99.9700216">
<ele>4.520</ele>
<time>2018-03-31T07:10:58.531Z</time>
</trkpt>
<trkpt lat="12.7904703" lon="99.9701504">
<ele>5.732</ele>
<time>2018-03-31T07:11:01.461Z</time>
</trkpt>
<trkpt lat="12.7911056" lon="99.9702846">
<ele>6.613</ele>
<time>2018-03-31T07:11:04.509Z</time>
</trkpt>
<trkpt lat="12.7917002" lon="99.9704329">
<ele>6.884</ele>
<time>2018-03-31T07:11:07.664Z</time>
</trkpt>
<trkpt lat="12.7921770" lon="99.9705472">
<ele>6.811</ele>
<time>2018-03-31T07:11:10.640Z</time>
</trkpt>
<trkpt lat="12.7925938" lon="99.9706413">
<ele>6.745</ele>
<time>2018-03-31T07:11:13.661Z</time>
</trkpt>
<trkpt lat="12.7929689" lon="99.9707283">
<ele>6.837</ele>
<time>2018-03-31T07:11:16.729Z</time>
</trkpt>
<trkpt lat="12.7932762" lon="99.9708123">
<ele>6.991</ele>
<time>2018-03-31T07:11:19.459Z</time>
</trkpt>
<trkpt lat="12.7936081" lon="99.9709101">
<ele>6.839</ele>
<time>2018-03-31T07:11:22.468Z</time>
</trkpt>
<trkpt lat="12.7939518" lon="99.9709745">
<ele>5.997</ele>
<time>2018-03-31T07:11:25.482Z</time>
</trkpt>
<trkpt lat="12.7942872" lon="99.9710551">
<ele>4.729</ele>
<time>2018-03-31T07:11:28.368Z</time>
</trkpt>
<trkpt lat="12.7946575" lon="99.9711709">
<ele>3.780</ele>
<time>2018-03-31T07:11:31.413Z</time>
</trkpt>
<trkpt lat="12.7950673" lon="99.9712714">
<ele>3.232</ele>
<time>2018-03-31T07:11:34.572Z</time>
</trkpt>
<trkpt lat="12.7954519" lon="99.9713547">
<ele>2.634</ele>
<time>2018-03-31T07:11:37.483Z</time>
</trkpt>
<trkpt lat="12.7958590" lon="99.9714444">
<ele>1.968</ele>
<time>2018-03-31T07:11:40.499Z</time>
</trkpt>
<trkpt lat="12.7962756" lon="99.9715390">
<ele>1.606</ele>
<time>2018-03-31T07:11:43.484Z</time>
</trkpt>
<trkpt lat="12.7966958" lon="99.9716616">
<ele>1.640</ele>
<time>2018-03-31T07:11:46.511Z</time>
</trkpt>
<trkpt lat="12.7970828" lon="99.9717830">
<ele>1.480</ele>
<time>2018-03-31T07:11:49.419Z</time>
</trkpt>
<trkpt lat="12.7974743" lon="99.9718497">
<ele>0.694</ele>
<time>2018-03-31T07:11:52.423Z</time>
</trkpt>
<trkpt lat="12.7978512" lon="99.9719405">
<ele>0.000</ele>
<time>2018-03-31T07:11:55.441Z</time>
</trkpt>
<trkpt lat="12.7982192" lon="99.9720318">
<ele>0.000</ele>
<time>2018-03-31T07:11:58.523Z</time>
</trkpt>
<trkpt lat="12.7985402" lon="99.9720973">
<ele>0.363</ele>
<time>2018-03-31T07:12:01.507Z</time>
</trkpt>
<trkpt lat="12.7988027" lon="99.9721241">
<ele>0.800</ele>
<time>2018-03-31T07:12:04.757Z</time>
</trkpt>
<trkpt lat="12.7988423" lon="99.9720251">
<ele>0.695</ele>
<time>2018-03-31T07:12:06.705Z</time>
</trkpt>
<trkpt lat="12.7988960" lon="99.9719372">
<ele>0.504</ele>
<time>2018-03-31T07:12:09.760Z</time>
</trkpt>
<trkpt lat="12.7989857" lon="99.9718844">
<ele>0.955</ele>
<time>2018-03-31T07:12:13.411Z</time>
</trkpt>
<trkpt lat="12.7990655" lon="99.9718182">
<ele>2.093</ele>
<time>2018-03-31T07:12:16.943Z</time>
</trkpt>
<trkpt lat="12.7991879" lon="99.9718255">
<ele>3.505</ele>
<time>2018-03-31T07:12:21.114Z</time>
</trkpt>
<trkpt lat="12.7992748" lon="99.9718705">
<ele>5.273</ele>
<time>2018-03-31T07:12:24.994Z</time>
</trkpt>
<trkpt lat="12.7992748" lon="99.9718705">
<ele>7.328</ele>
<time>2018-03-31T07:12:29.994Z</time>
</trkpt>
<trkpt lat="12.7992748" lon="99.9718705">
<ele>8.600</ele>
<time>2018-03-31T07:17:50.507Z</time>
</trkpt>
<trkpt lat="12.7990976" lon="99.9719665">
<ele>8.523</ele>
<time>2018-03-31T07:18:12.667Z</time>
</trkpt>
<trkpt lat="12.7991361" lon="99.9720870">
<ele>7.998</ele>
<time>2018-03-31T07:18:19.189Z</time>
</trkpt>
<trkpt lat="12.7991845" lon="99.9721732">
<ele>7.883</ele>
<time>2018-03-31T07:18:24.346Z</time>
</trkpt>
<trkpt lat="12.7992528" lon="99.9722337">
<ele>7.974</ele>
<time>2018-03-31T07:18:27.927Z</time>
</trkpt>
<trkpt lat="12.7993438" lon="99.9722516">
<ele>7.695</ele>
<time>2018-03-31T07:18:30.200Z</time>
</trkpt>
<trkpt lat="12.7995051" lon="99.9722895">
<ele>6.917</ele>
<time>2018-03-31T07:18:32.625Z</time>
</trkpt>
<trkpt lat="12.7997548" lon="99.9723567">
<ele>6.147</ele>
<time>2018-03-31T07:18:35.326Z</time>
</trkpt>
<trkpt lat="12.8000935" lon="99.9724518">
<ele>5.800</ele>
<time>2018-03-31T07:18:38.269Z</time>
</trkpt>
<trkpt lat="12.8004636" lon="99.9725391">
<ele>5.785</ele>
<time>2018-03-31T07:18:41.060Z</time>
</trkpt>
<trkpt lat="12.8008796" lon="99.9726150">
<ele>5.853</ele>
<time>2018-03-31T07:18:43.938Z</time>
</trkpt>
<trkpt lat="12.8013551" lon="99.9726608">
<ele>5.725</ele>
<time>2018-03-31T07:18:47.070Z</time>
</trkpt>
<trkpt lat="12.8017832" lon="99.9727208">
<ele>5.308</ele>
<time>2018-03-31T07:18:50.010Z</time>
</trkpt>
<trkpt lat="12.8021506" lon="99.9726778">
<ele>4.812</ele>
<time>2018-03-31T07:18:52.833Z</time>
</trkpt>
<trkpt lat="12.8024388" lon="99.9725995">
<ele>4.289</ele>
<time>2018-03-31T07:18:55.304Z</time>
</trkpt>
<trkpt lat="12.8027827" lon="99.9724377">
<ele>3.768</ele>
<time>2018-03-31T07:18:58.331Z</time>
</trkpt>
<trkpt lat="12.8031496" lon="99.9722039">
<ele>3.389</ele>
<time>2018-03-31T07:19:01.439Z</time>
</trkpt>
<trkpt lat="12.8034501" lon="99.9719156">
<ele>2.974</ele>
<time>2018-03-31T07:19:04.437Z</time>
</trkpt>
<trkpt lat="12.8036395" lon="99.9716453">
<ele>2.352</ele>
<time>2018-03-31T07:19:07.143Z</time>
</trkpt>
<trkpt lat="12.8037677" lon="99.9713619">
<ele>1.643</ele>
<time>2018-03-31T07:19:10.192Z</time>
</trkpt>
<trkpt lat="12.8038605" lon="99.9711559">
<ele>1.121</ele>
<time>2018-03-31T07:19:12.752Z</time>
</trkpt>
<trkpt lat="12.8039203" lon="99.9709347">
<ele>0.879</ele>
<time>2018-03-31T07:19:15.509Z</time>
</trkpt>
<trkpt lat="12.8039541" lon="99.9706379">
<ele>0.700</ele>
<time>2018-03-31T07:19:19.006Z</time>
</trkpt>
<trkpt lat="12.8040062" lon="99.9704924">
<ele>0.436</ele>
<time>2018-03-31T07:19:20.995Z</time>
</trkpt>
<trkpt lat="12.8040062" lon="99.9704924">
<ele>0.278</ele>
<time>2018-03-31T07:19:25.994Z</time>
</trkpt>
<trkpt lat="12.8040062" lon="99.9704924">
<ele>0.288</ele>
<time>2018-03-31T07:20:06.803Z</time>
</trkpt>
<trkpt lat="12.8041282" lon="99.9702786">
<ele>0.348</ele>
<time>2018-03-31T07:20:14.995Z</time>
</trkpt>
<trkpt lat="12.8042184" lon="99.9699511">
<ele>0.242</ele>
<time>2018-03-31T07:20:18.710Z</time>
</trkpt>
<trkpt lat="12.8042878" lon="99.9695100">
<ele>0.000</ele>
<time>2018-03-31T07:20:22.090Z</time>
</trkpt>
<trkpt lat="12.8043910" lon="99.9690605">
<ele>0.000</ele>
<time>2018-03-31T07:20:25.030Z</time>
</trkpt>
<trkpt lat="12.8045248" lon="99.9685232">
<ele>0.000</ele>
<time>2018-03-31T07:20:28.152Z</time>
</trkpt>
<trkpt lat="12.8046268" lon="99.9678883">
<ele>0.000</ele>
<time>2018-03-31T07:20:31.540Z</time>
</trkpt>
<trkpt lat="12.8047420" lon="99.9673720">
<ele>0.000</ele>
<time>2018-03-31T07:20:34.290Z</time>
</trkpt>
<trkpt lat="12.8048393" lon="99.9668391">
<ele>0.235</ele>
<time>2018-03-31T07:20:37.065Z</time>
</trkpt>
<trkpt lat="12.8049393" lon="99.9662440">
<ele>1.487</ele>
<time>2018-03-31T07:20:40.104Z</time>
</trkpt>
<trkpt lat="12.8050427" lon="99.9656655">
<ele>2.561</ele>
<time>2018-03-31T07:20:43.033Z</time>
</trkpt>
<trkpt lat="12.8051309" lon="99.9650501">
<ele>2.851</ele>
<time>2018-03-31T07:20:46.115Z</time>
</trkpt>
<trkpt lat="12.8052191" lon="99.9644642">
<ele>2.669</ele>
<time>2018-03-31T07:20:49.063Z</time>
</trkpt>
<trkpt lat="12.8052393" lon="99.9638465">
<ele>2.443</ele>
<time>2018-03-31T07:20:52.166Z</time>
</trkpt>
<trkpt lat="12.8051730" lon="99.9632645">
<ele>2.336</ele>
<time>2018-03-31T07:20:55.112Z</time>
</trkpt>
<trkpt lat="12.8051297" lon="99.9626673">
<ele>2.453</ele>
<time>2018-03-31T07:20:58.080Z</time>
</trkpt>
<trkpt lat="12.8050800" lon="99.9620714">
<ele>2.799</ele>
<time>2018-03-31T07:21:01.000Z</time>
</trkpt>
<trkpt lat="12.8050366" lon="99.9614764">
<ele>2.990</ele>
<time>2018-03-31T07:21:03.891Z</time>
</trkpt>
<trkpt lat="12.8050029" lon="99.9608661">
<ele>2.625</ele>
<time>2018-03-31T07:21:06.793Z</time>
</trkpt>
<trkpt lat="12.8049655" lon="99.9602254">
<ele>1.878</ele>
<time>2018-03-31T07:21:09.799Z</time>
</trkpt>
<trkpt lat="12.8049171" lon="99.9596079">
<ele>1.263</ele>
<time>2018-03-31T07:21:12.710Z</time>
</trkpt>
<trkpt lat="12.8048619" lon="99.9589780">
<ele>1.187</ele>
<time>2018-03-31T07:21:15.645Z</time>
</trkpt>
<trkpt lat="12.8048305" lon="99.9583126">
<ele>1.616</ele>
<time>2018-03-31T07:21:18.662Z</time>
</trkpt>
<trkpt lat="12.8047917" lon="99.9576454">
<ele>2.329</ele>
<time>2018-03-31T07:21:21.617Z</time>
</trkpt>
<trkpt lat="12.8047581" lon="99.9569477">
<ele>3.275</ele>
<time>2018-03-31T07:21:24.642Z</time>
</trkpt>
<trkpt lat="12.8047253" lon="99.9562403">
<ele>4.364</ele>
<time>2018-03-31T07:21:27.655Z</time>
</trkpt>
<trkpt lat="12.8047073" lon="99.9555436">
<ele>5.280</ele>
<time>2018-03-31T07:21:30.664Z</time>
</trkpt>
<trkpt lat="12.8046418" lon="99.9548920">
<ele>5.516</ele>
<time>2018-03-31T07:21:33.597Z</time>
</trkpt>
<trkpt lat="12.8045481" lon="99.9542472">
<ele>4.941</ele>
<time>2018-03-31T07:21:36.674Z</time>
</trkpt>
<trkpt lat="12.8044804" lon="99.9536673">
<ele>4.346</ele>
<time>2018-03-31T07:21:39.487Z</time>
</trkpt>
<trkpt lat="12.8044902" lon="99.9529993">
<ele>4.429</ele>
<time>2018-03-31T07:21:42.606Z</time>
</trkpt>
<trkpt lat="12.8044469" lon="99.9523240">
<ele>4.927</ele>
<time>2018-03-31T07:21:45.821Z</time>
</trkpt>
<trkpt lat="12.8046472" lon="99.9517472">
<ele>5.036</ele>
<time>2018-03-31T07:21:48.761Z</time>
</trkpt>
<trkpt lat="12.8050023" lon="99.9511478">
<ele>4.311</ele>
<time>2018-03-31T07:21:51.988Z</time>
</trkpt>
<trkpt lat="12.8054066" lon="99.9506020">
<ele>3.212</ele>
<time>2018-03-31T07:21:55.059Z</time>
</trkpt>
<trkpt lat="12.8057790" lon="99.9500758">
<ele>2.469</ele>
<time>2018-03-31T07:21:57.910Z</time>
</trkpt>
<trkpt lat="12.8061649" lon="99.9494992">
<ele>2.258</ele>
<time>2018-03-31T07:22:00.893Z</time>
</trkpt>
<trkpt lat="12.8065749" lon="99.9489119">
<ele>2.674</ele>
<time>2018-03-31T07:22:03.931Z</time>
</trkpt>
<trkpt lat="12.8069757" lon="99.9483300">
<ele>3.634</ele>
<time>2018-03-31T07:22:06.916Z</time>
</trkpt>
<trkpt lat="12.8073831" lon="99.9477428">
<ele>4.593</ele>
<time>2018-03-31T07:22:09.918Z</time>
</trkpt>
<trkpt lat="12.8077870" lon="99.9471497">
<ele>5.178</ele>
<time>2018-03-31T07:22:12.883Z</time>
</trkpt>
<trkpt lat="12.8082023" lon="99.9465489">
<ele>5.563</ele>
<time>2018-03-31T07:22:15.903Z</time>
</trkpt>
<trkpt lat="12.8086011" lon="99.9459642">
<ele>5.953</ele>
<time>2018-03-31T07:22:18.969Z</time>
</trkpt>
<trkpt lat="12.8089344" lon="99.9453889">
<ele>6.567</ele>
<time>2018-03-31T07:22:22.088Z</time>
</trkpt>
<trkpt lat="12.8091827" lon="99.9448405">
<ele>7.764</ele>
<time>2018-03-31T07:22:25.162Z</time>
</trkpt>
<trkpt lat="12.8092743" lon="99.9442954">
<ele>9.465</ele>
<time>2018-03-31T07:22:28.173Z</time>
</trkpt>
<trkpt lat="12.8092651" lon="99.9437442">
<ele>11.001</ele>
<time>2018-03-31T07:22:31.473Z</time>
</trkpt>
<trkpt lat="12.8092040" lon="99.9432866">
<ele>11.973</ele>
<time>2018-03-31T07:22:34.649Z</time>
</trkpt>
<trkpt lat="12.8090699" lon="99.9429083">
<ele>12.448</ele>
<time>2018-03-31T07:22:37.768Z</time>
</trkpt>
<trkpt lat="12.8089518" lon="99.9425828">
<ele>12.556</ele>
<time>2018-03-31T07:22:40.779Z</time>
</trkpt>
<trkpt lat="12.8088038" lon="99.9423146">
<ele>12.102</ele>
<time>2018-03-31T07:22:43.782Z</time>
</trkpt>
<trkpt lat="12.8085906" lon="99.9421202">
<ele>11.020</ele>
<time>2018-03-31T07:22:46.693Z</time>
</trkpt>
<trkpt lat="12.8083009" lon="99.9420578">
<ele>9.769</ele>
<time>2018-03-31T07:22:49.492Z</time>
</trkpt>
<trkpt lat="12.8079827" lon="99.9421778">
<ele>8.775</ele>
<time>2018-03-31T07:22:52.526Z</time>
</trkpt>
<trkpt lat="12.8078379" lon="99.9423554">
<ele>8.087</ele>
<time>2018-03-31T07:22:54.551Z</time>
</trkpt>
<trkpt lat="12.8077742" lon="99.9425841">
<ele>7.494</ele>
<time>2018-03-31T07:22:56.608Z</time>
</trkpt>
<trkpt lat="12.8077895" lon="99.9428145">
<ele>6.805</ele>
<time>2018-03-31T07:22:58.556Z</time>
</trkpt>
<trkpt lat="12.8079081" lon="99.9430186">
<ele>6.248</ele>
<time>2018-03-31T07:23:00.508Z</time>
</trkpt>
<trkpt lat="12.8080796" lon="99.9431812">
<ele>5.943</ele>
<time>2018-03-31T07:23:02.477Z</time>
</trkpt>
<trkpt lat="12.8082862" lon="99.9433071">
<ele>5.678</ele>
<time>2018-03-31T07:23:04.483Z</time>
</trkpt>
<trkpt lat="12.8085237" lon="99.9433719">
<ele>5.386</ele>
<time>2018-03-31T07:23:06.400Z</time>
</trkpt>
<trkpt lat="12.8087648" lon="99.9434237">
<ele>5.183</ele>
<time>2018-03-31T07:23:08.170Z</time>
</trkpt>
<trkpt lat="12.8090406" lon="99.9434781">
<ele>5.264</ele>
<time>2018-03-31T07:23:10.044Z</time>
</trkpt>
<trkpt lat="12.8093442" lon="99.9435133">
<ele>5.763</ele>
<time>2018-03-31T07:23:11.936Z</time>
</trkpt>
<trkpt lat="12.8096796" lon="99.9435307">
<ele>6.452</ele>
<time>2018-03-31T07:23:13.883Z</time>
</trkpt>
<trkpt lat="12.8100378" lon="99.9435110">
<ele>6.996</ele>
<time>2018-03-31T07:23:15.851Z</time>
</trkpt>
<trkpt lat="12.8104001" lon="99.9434579">
<ele>7.446</ele>
<time>2018-03-31T07:23:17.767Z</time>
</trkpt>
<trkpt lat="12.8107817" lon="99.9433746">
<ele>7.954</ele>
<time>2018-03-31T07:23:19.736Z</time>
</trkpt>
<trkpt lat="12.8111686" lon="99.9432588">
<ele>8.486</ele>
<time>2018-03-31T07:23:21.729Z</time>
</trkpt>
<trkpt lat="12.8115346" lon="99.9430963">
<ele>8.961</ele>
<time>2018-03-31T07:23:23.695Z</time>
</trkpt>
<trkpt lat="12.8119181" lon="99.9429420">
<ele>9.292</ele>
<time>2018-03-31T07:23:25.733Z</time>
</trkpt>
<trkpt lat="12.8122858" lon="99.9427721">
<ele>9.397</ele>
<time>2018-03-31T07:23:27.737Z</time>
</trkpt>
<trkpt lat="12.8126613" lon="99.9426084">
<ele>9.325</ele>
<time>2018-03-31T07:23:29.790Z</time>
</trkpt>
<trkpt lat="12.8130286" lon="99.9424545">
<ele>9.260</ele>
<time>2018-03-31T07:23:31.807Z</time>
</trkpt>
<trkpt lat="12.8135579" lon="99.9422289">
<ele>9.323</ele>
<time>2018-03-31T07:23:34.724Z</time>
</trkpt>
<trkpt lat="12.8141286" lon="99.9420007">
<ele>9.404</ele>
<time>2018-03-31T07:23:37.769Z</time>
</trkpt>
<trkpt lat="12.8146929" lon="99.9417585">
<ele>8.534</ele>
<time>2018-03-31T07:23:40.713Z</time>
</trkpt>
<trkpt lat="12.8152869" lon="99.9415215">
<ele>6.247</ele>
<time>2018-03-31T07:23:43.671Z</time>
</trkpt>
<trkpt lat="12.8158788" lon="99.9412314">
<ele>3.943</ele>
<time>2018-03-31T07:23:46.607Z</time>
</trkpt>
<trkpt lat="12.8165086" lon="99.9409602">
<ele>3.026</ele>
<time>2018-03-31T07:23:49.610Z</time>
</trkpt>
<trkpt lat="12.8171324" lon="99.9406815">
<ele>3.252</ele>
<time>2018-03-31T07:23:52.642Z</time>
</trkpt>
<trkpt lat="12.8177342" lon="99.9404249">
<ele>3.859</ele>
<time>2018-03-31T07:23:55.605Z</time>
</trkpt>
<trkpt lat="12.8183377" lon="99.9401680">
<ele>4.287</ele>
<time>2018-03-31T07:23:58.577Z</time>
</trkpt>
<trkpt lat="12.8189357" lon="99.9398939">
<ele>4.440</ele>
<time>2018-03-31T07:24:01.512Z</time>
</trkpt>
<trkpt lat="12.8195613" lon="99.9396243">
<ele>4.332</ele>
<time>2018-03-31T07:24:04.519Z</time>
</trkpt>
<trkpt lat="12.8201822" lon="99.9393376">
<ele>4.048</ele>
<time>2018-03-31T07:24:07.526Z</time>
</trkpt>
<trkpt lat="12.8208186" lon="99.9390772">
<ele>3.827</ele>
<time>2018-03-31T07:24:10.574Z</time>
</trkpt>
<trkpt lat="12.8214265" lon="99.9387989">
<ele>3.809</ele>
<time>2018-03-31T07:24:13.543Z</time>
</trkpt>
<trkpt lat="12.8220546" lon="99.9385411">
<ele>3.961</ele>
<time>2018-03-31T07:24:16.509Z</time>
</trkpt>
<trkpt lat="12.8226724" lon="99.9382421">
<ele>4.433</ele>
<time>2018-03-31T07:24:19.431Z</time>
</trkpt>
<trkpt lat="12.8233421" lon="99.9379684">
<ele>5.246</ele>
<time>2018-03-31T07:24:22.480Z</time>
</trkpt>
<trkpt lat="12.8239931" lon="99.9376777">
<ele>6.128</ele>
<time>2018-03-31T07:24:25.541Z</time>
</trkpt>
<trkpt lat="12.8246045" lon="99.9374039">
<ele>6.798</ele>
<time>2018-03-31T07:24:28.484Z</time>
</trkpt>
<trkpt lat="12.8252203" lon="99.9371288">
<ele>7.291</ele>
<time>2018-03-31T07:24:31.468Z</time>
</trkpt>
<trkpt lat="12.8258270" lon="99.9368401">
<ele>7.766</ele>
<time>2018-03-31T07:24:34.453Z</time>
</trkpt>
<trkpt lat="12.8264471" lon="99.9365767">
<ele>8.695</ele>
<time>2018-03-31T07:24:37.451Z</time>
</trkpt>
<trkpt lat="12.8270680" lon="99.9362966">
<ele>10.300</ele>
<time>2018-03-31T07:24:40.464Z</time>
</trkpt>
<trkpt lat="12.8277040" lon="99.9360414">
<ele>11.858</ele>
<time>2018-03-31T07:24:43.492Z</time>
</trkpt>
<trkpt lat="12.8283220" lon="99.9357649">
<ele>12.494</ele>
<time>2018-03-31T07:24:46.528Z</time>
</trkpt>
<trkpt lat="12.8289104" lon="99.9354917">
<ele>12.291</ele>
<time>2018-03-31T07:24:49.503Z</time>
</trkpt>
<trkpt lat="12.8295088" lon="99.9352341">
<ele>11.717</ele>
<time>2018-03-31T07:24:52.534Z</time>
</trkpt>
<trkpt lat="12.8300855" lon="99.9349546">
<ele>11.138</ele>
<time>2018-03-31T07:24:55.514Z</time>
</trkpt>
<trkpt lat="12.8306695" lon="99.9346828">
<ele>10.756</ele>
<time>2018-03-31T07:24:58.493Z</time>
</trkpt>
<trkpt lat="12.8312726" lon="99.9344266">
<ele>10.637</ele>
<time>2018-03-31T07:25:01.523Z</time>
</trkpt>
<trkpt lat="12.8318627" lon="99.9341682">
<ele>10.682</ele>
<time>2018-03-31T07:25:04.463Z</time>
</trkpt>
<trkpt lat="12.8324723" lon="99.9338800">
<ele>10.793</ele>
<time>2018-03-31T07:25:07.484Z</time>
</trkpt>
<trkpt lat="12.8330924" lon="99.9336133">
<ele>10.904</ele>
<time>2018-03-31T07:25:10.520Z</time>
</trkpt>
<trkpt lat="12.8336928" lon="99.9333450">
<ele>11.117</ele>
<time>2018-03-31T07:25:13.489Z</time>
</trkpt>
<trkpt lat="12.8343051" lon="99.9330923">
<ele>11.504</ele>
<time>2018-03-31T07:25:16.424Z</time>
</trkpt>
<trkpt lat="12.8349433" lon="99.9328123">
<ele>11.612</ele>
<time>2018-03-31T07:25:19.420Z</time>
</trkpt>
<trkpt lat="12.8356030" lon="99.9325357">
<ele>10.981</ele>
<time>2018-03-31T07:25:22.410Z</time>
</trkpt>
<trkpt lat="12.8362637" lon="99.9322288">
<ele>9.975</ele>
<time>2018-03-31T07:25:25.377Z</time>
</trkpt>
<trkpt lat="12.8369464" lon="99.9319300">
<ele>9.301</ele>
<time>2018-03-31T07:25:28.360Z</time>
</trkpt>
<trkpt lat="12.8376406" lon="99.9316172">
<ele>9.144</ele>
<time>2018-03-31T07:25:31.422Z</time>
</trkpt>
<trkpt lat="12.8383175" lon="99.9313302">
<ele>9.252</ele>
<time>2018-03-31T07:25:34.401Z</time>
</trkpt>
<trkpt lat="12.8389907" lon="99.9310210">
<ele>9.272</ele>
<time>2018-03-31T07:25:37.339Z</time>
</trkpt>
<trkpt lat="12.8396966" lon="99.9306971">
<ele>8.831</ele>
<time>2018-03-31T07:25:40.375Z</time>
</trkpt>
<trkpt lat="12.8403975" lon="99.9303854">
<ele>7.463</ele>
<time>2018-03-31T07:25:43.424Z</time>
</trkpt>
<trkpt lat="12.8410726" lon="99.9300994">
<ele>5.413</ele>
<time>2018-03-31T07:25:46.412Z</time>
</trkpt>
<trkpt lat="12.8417314" lon="99.9298039">
<ele>4.029</ele>
<time>2018-03-31T07:25:49.375Z</time>
</trkpt>
<trkpt lat="12.8423873" lon="99.9295166">
<ele>4.067</ele>
<time>2018-03-31T07:25:52.309Z</time>
</trkpt>
<trkpt lat="12.8430338" lon="99.9291691">
<ele>4.949</ele>
<time>2018-03-31T07:25:55.354Z</time>
</trkpt>
<trkpt lat="12.8436618" lon="99.9288937">
<ele>6.381</ele>
<time>2018-03-31T07:25:58.308Z</time>
</trkpt>
<trkpt lat="12.8442990" lon="99.9286505">
<ele>8.386</ele>
<time>2018-03-31T07:26:01.356Z</time>
</trkpt>
<trkpt lat="12.8448991" lon="99.9283673">
<ele>10.408</ele>
<time>2018-03-31T07:26:04.377Z</time>
</trkpt>
<trkpt lat="12.8454967" lon="99.9281237">
<ele>11.778</ele>
<time>2018-03-31T07:26:07.337Z</time>
</trkpt>
<trkpt lat="12.8461107" lon="99.9278808">
<ele>12.333</ele>
<time>2018-03-31T07:26:10.296Z</time>
</trkpt>
<trkpt lat="12.8467426" lon="99.9276112">
<ele>11.963</ele>
<time>2018-03-31T07:26:13.224Z</time>
</trkpt>
<trkpt lat="12.8474397" lon="99.9273477">
<ele>10.673</ele>
<time>2018-03-31T07:26:16.251Z</time>
</trkpt>
<trkpt lat="12.8481430" lon="99.9270489">
<ele>9.129</ele>
<time>2018-03-31T07:26:19.240Z</time>
</trkpt>
<trkpt lat="12.8488714" lon="99.9267370">
<ele>8.112</ele>
<time>2018-03-31T07:26:22.256Z</time>
</trkpt>
<trkpt lat="12.8496019" lon="99.9264217">
<ele>7.357</ele>
<time>2018-03-31T07:26:25.216Z</time>
</trkpt>
<trkpt lat="12.8503600" lon="99.9260971">
<ele>6.390</ele>
<time>2018-03-31T07:26:28.222Z</time>
</trkpt>
<trkpt lat="12.8511204" lon="99.9257564">
<ele>5.123</ele>
<time>2018-03-31T07:26:31.239Z</time>
</trkpt>
<trkpt lat="12.8518665" lon="99.9254135">
<ele>3.728</ele>
<time>2018-03-31T07:26:34.247Z</time>
</trkpt>
<trkpt lat="12.8526017" lon="99.9250952">
<ele>2.714</ele>
<time>2018-03-31T07:26:37.251Z</time>
</trkpt>
<trkpt lat="12.8533023" lon="99.9247858">
<ele>2.685</ele>
<time>2018-03-31T07:26:40.201Z</time>
</trkpt>
<trkpt lat="12.8540075" lon="99.9244677">
<ele>3.604</ele>
<time>2018-03-31T07:26:43.264Z</time>
</trkpt>
<trkpt lat="12.8546801" lon="99.9241727">
<ele>4.832</ele>
<time>2018-03-31T07:26:46.231Z</time>
</trkpt>
<trkpt lat="12.8553679" lon="99.9238823">
<ele>5.698</ele>
<time>2018-03-31T07:26:49.267Z</time>
</trkpt>
<trkpt lat="12.8560593" lon="99.9236171">
<ele>6.091</ele>
<time>2018-03-31T07:26:52.329Z</time>
</trkpt>
<trkpt lat="12.8566912" lon="99.9233166">
<ele>5.962</ele>
<time>2018-03-31T07:26:55.253Z</time>
</trkpt>
<trkpt lat="12.8573567" lon="99.9230265">
<ele>5.224</ele>
<time>2018-03-31T07:26:58.251Z</time>
</trkpt>
<trkpt lat="12.8580327" lon="99.9227126">
<ele>4.168</ele>
<time>2018-03-31T07:27:01.336Z</time>
</trkpt>
<trkpt lat="12.8586746" lon="99.9224178">
<ele>3.183</ele>
<time>2018-03-31T07:27:04.338Z</time>
</trkpt>
<trkpt lat="12.8593146" lon="99.9221585">
<ele>2.533</ele>
<time>2018-03-31T07:27:07.322Z</time>
</trkpt>
<trkpt lat="12.8599383" lon="99.9218741">
<ele>2.353</ele>
<time>2018-03-31T07:27:10.268Z</time>
</trkpt>
<trkpt lat="12.8605797" lon="99.9215865">
<ele>2.659</ele>
<time>2018-03-31T07:27:13.219Z</time>
</trkpt>
<trkpt lat="12.8612637" lon="99.9213038">
<ele>3.306</ele>
<time>2018-03-31T07:27:16.227Z</time>
</trkpt>
<trkpt lat="12.8619489" lon="99.9209978">
<ele>4.017</ele>
<time>2018-03-31T07:27:19.234Z</time>
</trkpt>
<trkpt lat="12.8626187" lon="99.9206986">
<ele>4.610</ele>
<time>2018-03-31T07:27:22.230Z</time>
</trkpt>
<trkpt lat="12.8632696" lon="99.9204087">
<ele>5.460</ele>
<time>2018-03-31T07:27:25.239Z</time>
</trkpt>
<trkpt lat="12.8639037" lon="99.9201232">
<ele>6.816</ele>
<time>2018-03-31T07:27:28.257Z</time>
</trkpt>
<trkpt lat="12.8645363" lon="99.9198558">
<ele>8.069</ele>
<time>2018-03-31T07:27:31.314Z</time>
</trkpt>
<trkpt lat="12.8651285" lon="99.9195732">
<ele>8.232</ele>
<time>2018-03-31T07:27:34.236Z</time>
</trkpt>
<trkpt lat="12.8657567" lon="99.9193025">
<ele>7.297</ele>
<time>2018-03-31T07:27:37.253Z</time>
</trkpt>
<trkpt lat="12.8663875" lon="99.9190437">
<ele>6.105</ele>
<time>2018-03-31T07:27:40.251Z</time>
</trkpt>
<trkpt lat="12.8670045" lon="99.9187694">
<ele>5.309</ele>
<time>2018-03-31T07:27:43.178Z</time>
</trkpt>
<trkpt lat="12.8676536" lon="99.9184981">
<ele>4.942</ele>
<time>2018-03-31T07:27:46.169Z</time>
</trkpt>
<trkpt lat="12.8683084" lon="99.9181976">
<ele>4.736</ele>
<time>2018-03-31T07:27:49.182Z</time>
</trkpt>
<trkpt lat="12.8689600" lon="99.9178856">
<ele>4.403</ele>
<time>2018-03-31T07:27:52.180Z</time>
</trkpt>
<trkpt lat="12.8696348" lon="99.9176055">
<ele>3.971</ele>
<time>2018-03-31T07:27:55.189Z</time>
</trkpt>
<trkpt lat="12.8703077" lon="99.9173193">
<ele>3.455</ele>
<time>2018-03-31T07:27:58.129Z</time>
</trkpt>
<trkpt lat="12.8710069" lon="99.9169926">
<ele>2.846</ele>
<time>2018-03-31T07:28:01.150Z</time>
</trkpt>
<trkpt lat="12.8716898" lon="99.9166384">
<ele>2.530</ele>
<time>2018-03-31T07:28:04.113Z</time>
</trkpt>
<trkpt lat="12.8724060" lon="99.9163115">
<ele>2.849</ele>
<time>2018-03-31T07:28:07.137Z</time>
</trkpt>
<trkpt lat="12.8731194" lon="99.9160155">
<ele>3.501</ele>
<time>2018-03-31T07:28:10.139Z</time>
</trkpt>
<trkpt lat="12.8738080" lon="99.9157226">
<ele>4.000</ele>
<time>2018-03-31T07:28:13.129Z</time>
</trkpt>
<trkpt lat="12.8744752" lon="99.9154274">
<ele>4.210</ele>
<time>2018-03-31T07:28:16.106Z</time>
</trkpt>
<trkpt lat="12.8751562" lon="99.9151395">
<ele>4.171</ele>
<time>2018-03-31T07:28:19.104Z</time>
</trkpt>
<trkpt lat="12.8758607" lon="99.9148682">
<ele>3.860</ele>
<time>2018-03-31T07:28:22.106Z</time>
</trkpt>
<trkpt lat="12.8765704" lon="99.9145829">
<ele>3.385</ele>
<time>2018-03-31T07:28:25.108Z</time>
</trkpt>
<trkpt lat="12.8772829" lon="99.9142944">
<ele>3.234</ele>
<time>2018-03-31T07:28:28.123Z</time>
</trkpt>
<trkpt lat="12.8779839" lon="99.9139966">
<ele>3.718</ele>
<time>2018-03-31T07:28:31.156Z</time>
</trkpt>
<trkpt lat="12.8786363" lon="99.9136663">
<ele>4.875</ele>
<time>2018-03-31T07:28:34.108Z</time>
</trkpt>
<trkpt lat="12.8793017" lon="99.9133397">
<ele>6.763</ele>
<time>2018-03-31T07:28:37.119Z</time>
</trkpt>
<trkpt lat="12.8799777" lon="99.9130450">
<ele>8.867</ele>
<time>2018-03-31T07:28:40.177Z</time>
</trkpt>
<trkpt lat="12.8806435" lon="99.9128082">
<ele>10.233</ele>
<time>2018-03-31T07:28:43.191Z</time>
</trkpt>
<trkpt lat="12.8813236" lon="99.9126461">
<ele>10.633</ele>
<time>2018-03-31T07:28:46.215Z</time>
</trkpt>
<trkpt lat="12.8819825" lon="99.9125476">
<ele>10.336</ele>
<time>2018-03-31T07:28:49.128Z</time>
</trkpt>
<trkpt lat="12.8826535" lon="99.9124394">
<ele>9.678</ele>
<time>2018-03-31T07:28:52.121Z</time>
</trkpt>
<trkpt lat="12.8833263" lon="99.9123342">
<ele>9.164</ele>
<time>2018-03-31T07:28:55.092Z</time>
</trkpt>
<trkpt lat="12.8840234" lon="99.9122274">
<ele>9.064</ele>
<time>2018-03-31T07:28:58.085Z</time>
</trkpt>
<trkpt lat="12.8847420" lon="99.9121137">
<ele>9.224</ele>
<time>2018-03-31T07:29:01.065Z</time>
</trkpt>
<trkpt lat="12.8854896" lon="99.9120047">
<ele>9.446</ele>
<time>2018-03-31T07:29:04.061Z</time>
</trkpt>
<trkpt lat="12.8862532" lon="99.9118946">
<ele>9.660</ele>
<time>2018-03-31T07:29:07.091Z</time>
</trkpt>
<trkpt lat="12.8869841" lon="99.9117728">
<ele>9.843</ele>
<time>2018-03-31T07:29:10.049Z</time>
</trkpt>
<trkpt lat="12.8877060" lon="99.9116415">
<ele>10.016</ele>
<time>2018-03-31T07:29:13.125Z</time>
</trkpt>
<trkpt lat="12.8883512" lon="99.9115270">
<ele>10.236</ele>
<time>2018-03-31T07:29:16.253Z</time>
</trkpt>
<trkpt lat="12.8888379" lon="99.9114635">
<ele>10.605</ele>
<time>2018-03-31T07:29:19.087Z</time>
</trkpt>
<trkpt lat="12.8892586" lon="99.9113634">
<ele>11.091</ele>
<time>2018-03-31T07:29:21.912Z</time>
</trkpt>
<trkpt lat="12.8896895" lon="99.9113260">
<ele>11.543</ele>
<time>2018-03-31T07:29:24.767Z</time>
</trkpt>
<trkpt lat="12.8901538" lon="99.9112771">
<ele>12.000</ele>
<time>2018-03-31T07:29:27.591Z</time>
</trkpt>
<trkpt lat="12.8907237" lon="99.9111955">
<ele>12.525</ele>
<time>2018-03-31T07:29:30.673Z</time>
</trkpt>
<trkpt lat="12.8913569" lon="99.9111175">
<ele>12.656</ele>
<time>2018-03-31T07:29:33.731Z</time>
</trkpt>
<trkpt lat="12.8920174" lon="99.9110097">
<ele>11.983</ele>
<time>2018-03-31T07:29:36.706Z</time>
</trkpt>
<trkpt lat="12.8927229" lon="99.9108952">
<ele>10.913</ele>
<time>2018-03-31T07:29:39.746Z</time>
</trkpt>
<trkpt lat="12.8934348" lon="99.9107745">
<ele>10.154</ele>
<time>2018-03-31T07:29:42.758Z</time>
</trkpt>
<trkpt lat="12.8941506" lon="99.9106633">
<ele>9.996</ele>
<time>2018-03-31T07:29:45.774Z</time>
</trkpt>
<trkpt lat="12.8948454" lon="99.9105718">
<ele>10.289</ele>
<time>2018-03-31T07:29:48.687Z</time>
</trkpt>
<trkpt lat="12.8955678" lon="99.9104667">
<ele>10.563</ele>
<time>2018-03-31T07:29:51.687Z</time>
</trkpt>
<trkpt lat="12.8963103" lon="99.9103500">
<ele>10.516</ele>
<time>2018-03-31T07:29:54.725Z</time>
</trkpt>
<trkpt lat="12.8970714" lon="99.9102375">
<ele>10.410</ele>
<time>2018-03-31T07:29:57.809Z</time>
</trkpt>
<trkpt lat="12.8978045" lon="99.9101229">
<ele>10.525</ele>
<time>2018-03-31T07:30:00.805Z</time>
</trkpt>
<trkpt lat="12.8982896" lon="99.9100494">
<ele>10.900</ele>
<time>2018-03-31T07:30:02.819Z</time>
</trkpt>
<trkpt lat="12.8987678" lon="99.9099770">
<ele>11.386</ele>
<time>2018-03-31T07:30:04.813Z</time>
</trkpt>
<trkpt lat="12.8992477" lon="99.9099131">
<ele>11.696</ele>
<time>2018-03-31T07:30:06.806Z</time>
</trkpt>
<trkpt lat="12.8997300" lon="99.9098419">
<ele>11.620</ele>
<time>2018-03-31T07:30:08.802Z</time>
</trkpt>
<trkpt lat="12.9002142" lon="99.9097657">
<ele>11.255</ele>
<time>2018-03-31T07:30:10.799Z</time>
</trkpt>
<trkpt lat="12.9007026" lon="99.9096749">
<ele>10.818</ele>
<time>2018-03-31T07:30:12.822Z</time>
</trkpt>
<trkpt lat="12.9011860" lon="99.9096006">
<ele>10.444</ele>
<time>2018-03-31T07:30:14.819Z</time>
</trkpt>
<trkpt lat="12.9016514" lon="99.9095346">
<ele>10.081</ele>
<time>2018-03-31T07:30:16.741Z</time>
</trkpt>
<trkpt lat="12.9021429" lon="99.9094645">
<ele>9.603</ele>
<time>2018-03-31T07:30:18.776Z</time>
</trkpt>
<trkpt lat="12.9026111" lon="99.9093784">
<ele>8.984</ele>
<time>2018-03-31T07:30:20.735Z</time>
</trkpt>
<trkpt lat="12.9030934" lon="99.9093085">
<ele>8.484</ele>
<time>2018-03-31T07:30:22.721Z</time>
</trkpt>
<trkpt lat="12.9035862" lon="99.9092184">
<ele>8.326</ele>
<time>2018-03-31T07:30:24.718Z</time>
</trkpt>
<trkpt lat="12.9040889" lon="99.9091345">
<ele>8.461</ele>
<time>2018-03-31T07:30:26.704Z</time>
</trkpt>
<trkpt lat="12.9046120" lon="99.9090525">
<ele>8.718</ele>
<time>2018-03-31T07:30:28.723Z</time>
</trkpt>
<trkpt lat="12.9051423" lon="99.9089731">
<ele>9.062</ele>
<time>2018-03-31T07:30:30.732Z</time>
</trkpt>
<trkpt lat="12.9056749" lon="99.9088844">
<ele>9.502</ele>
<time>2018-03-31T07:30:32.729Z</time>
</trkpt>
<trkpt lat="12.9062041" lon="99.9088185">
<ele>9.890</ele>
<time>2018-03-31T07:30:34.692Z</time>
</trkpt>
<trkpt lat="12.9067427" lon="99.9087430">
<ele>10.068</ele>
<time>2018-03-31T07:30:36.697Z</time>
</trkpt>
<trkpt lat="12.9072802" lon="99.9086764">
<ele>10.207</ele>
<time>2018-03-31T07:30:38.695Z</time>
</trkpt>
<trkpt lat="12.9080865" lon="99.9085668">
<ele>10.714</ele>
<time>2018-03-31T07:30:41.682Z</time>
</trkpt>
<trkpt lat="12.9089033" lon="99.9084346">
<ele>11.790</ele>
<time>2018-03-31T07:30:44.671Z</time>
</trkpt>
<trkpt lat="12.9097472" lon="99.9083215">
<ele>13.121</ele>
<time>2018-03-31T07:30:47.704Z</time>
</trkpt>
<trkpt lat="12.9105846" lon="99.9082047">
<ele>14.181</ele>
<time>2018-03-31T07:30:50.725Z</time>
</trkpt>
<trkpt lat="12.9113991" lon="99.9080742">
<ele>14.472</ele>
<time>2018-03-31T07:30:53.712Z</time>
</trkpt>
<trkpt lat="12.9122054" lon="99.9079459">
<ele>13.944</ele>
<time>2018-03-31T07:30:56.717Z</time>
</trkpt>
<trkpt lat="12.9130036" lon="99.9078256">
<ele>13.181</ele>
<time>2018-03-31T07:30:59.767Z</time>
</trkpt>
<trkpt lat="12.9137595" lon="99.9077089">
<ele>12.704</ele>
<time>2018-03-31T07:31:02.739Z</time>
</trkpt>
<trkpt lat="12.9145072" lon="99.9075965">
<ele>12.411</ele>
<time>2018-03-31T07:31:05.701Z</time>
</trkpt>
<trkpt lat="12.9152653" lon="99.9074728">
<ele>12.086</ele>
<time>2018-03-31T07:31:08.676Z</time>
</trkpt>
<trkpt lat="12.9160360" lon="99.9073560">
<ele>11.798</ele>
<time>2018-03-31T07:31:11.656Z</time>
</trkpt>
<trkpt lat="12.9168187" lon="99.9072271">
<ele>11.664</ele>
<time>2018-03-31T07:31:14.646Z</time>
</trkpt>
<trkpt lat="12.9176172" lon="99.9071154">
<ele>11.548</ele>
<time>2018-03-31T07:31:17.632Z</time>
</trkpt>
<trkpt lat="12.9184385" lon="99.9069942">
<ele>11.344</ele>
<time>2018-03-31T07:31:20.674Z</time>
</trkpt>
<trkpt lat="12.9192406" lon="99.9068769">
<ele>11.197</ele>
<time>2018-03-31T07:31:23.686Z</time>
</trkpt>
<trkpt lat="12.9200069" lon="99.9067422">
<ele>11.273</ele>
<time>2018-03-31T07:31:26.707Z</time>
</trkpt>
<trkpt lat="12.9207259" lon="99.9066293">
<ele>11.483</ele>
<time>2018-03-31T07:31:29.740Z</time>
</trkpt>
<trkpt lat="12.9213872" lon="99.9065398">
<ele>11.650</ele>
<time>2018-03-31T07:31:32.730Z</time>
</trkpt>
<trkpt lat="12.9220297" lon="99.9064302">
<ele>11.802</ele>
<time>2018-03-31T07:31:35.795Z</time>
</trkpt>
<trkpt lat="12.9226343" lon="99.9063450">
<ele>12.091</ele>
<time>2018-03-31T07:31:38.754Z</time>
</trkpt>
<trkpt lat="12.9232397" lon="99.9062687">
<ele>12.504</ele>
<time>2018-03-31T07:31:41.706Z</time>
</trkpt>
<trkpt lat="12.9238721" lon="99.9062053">
<ele>12.824</ele>
<time>2018-03-31T07:31:44.692Z</time>
</trkpt>
<trkpt lat="12.9245196" lon="99.9061238">
<ele>12.754</ele>
<time>2018-03-31T07:31:47.680Z</time>
</trkpt>
<trkpt lat="12.9251745" lon="99.9060224">
<ele>12.217</ele>
<time>2018-03-31T07:31:50.658Z</time>
</trkpt>
<trkpt lat="12.9258528" lon="99.9059229">
<ele>11.570</ele>
<time>2018-03-31T07:31:53.694Z</time>
</trkpt>
<trkpt lat="12.9265213" lon="99.9058437">
<ele>11.287</ele>
<time>2018-03-31T07:31:56.672Z</time>
</trkpt>
<trkpt lat="12.9271908" lon="99.9057384">
<ele>11.448</ele>
<time>2018-03-31T07:31:59.633Z</time>
</trkpt>
<trkpt lat="12.9278956" lon="99.9056333">
<ele>11.753</ele>
<time>2018-03-31T07:32:02.670Z</time>
</trkpt>
<trkpt lat="12.9286044" lon="99.9055282">
<ele>11.998</ele>
<time>2018-03-31T07:32:05.691Z</time>
</trkpt>
<trkpt lat="12.9293062" lon="99.9054235">
<ele>12.219</ele>
<time>2018-03-31T07:32:08.688Z</time>
</trkpt>
<trkpt lat="12.9300113" lon="99.9053162">
<ele>12.443</ele>
<time>2018-03-31T07:32:11.699Z</time>
</trkpt>
<trkpt lat="12.9307307" lon="99.9052111">
<ele>12.674</ele>
<time>2018-03-31T07:32:14.757Z</time>
</trkpt>
<trkpt lat="12.9314295" lon="99.9051022">
<ele>12.903</ele>
<time>2018-03-31T07:32:17.700Z</time>
</trkpt>
<trkpt lat="12.9321569" lon="99.9049899">
<ele>13.075</ele>
<time>2018-03-31T07:32:20.693Z</time>
</trkpt>
<trkpt lat="12.9328989" lon="99.9048697">
<ele>13.143</ele>
<time>2018-03-31T07:32:23.675Z</time>
</trkpt>
<trkpt lat="12.9336626" lon="99.9047501">
<ele>13.110</ele>
<time>2018-03-31T07:32:26.706Z</time>
</trkpt>
<trkpt lat="12.9344079" lon="99.9046495">
<ele>13.024</ele>
<time>2018-03-31T07:32:29.656Z</time>
</trkpt>
<trkpt lat="12.9351615" lon="99.9045342">
<ele>13.003</ele>
<time>2018-03-31T07:32:32.645Z</time>
</trkpt>
<trkpt lat="12.9359165" lon="99.9044170">
<ele>13.015</ele>
<time>2018-03-31T07:32:35.627Z</time>
</trkpt>
<trkpt lat="12.9366862" lon="99.9042992">
<ele>13.014</ele>
<time>2018-03-31T07:32:38.675Z</time>
</trkpt>
<trkpt lat="12.9374284" lon="99.9041937">
<ele>12.964</ele>
<time>2018-03-31T07:32:41.662Z</time>
</trkpt>
<trkpt lat="12.9381503" lon="99.9040793">
<ele>12.909</ele>
<time>2018-03-31T07:32:44.609Z</time>
</trkpt>
<trkpt lat="12.9388910" lon="99.9039814">
<ele>12.961</ele>
<time>2018-03-31T07:32:47.597Z</time>
</trkpt>
<trkpt lat="12.9396454" lon="99.9038632">
<ele>13.130</ele>
<time>2018-03-31T07:32:50.616Z</time>
</trkpt>
<trkpt lat="12.9403930" lon="99.9037505">
<ele>13.563</ele>
<time>2018-03-31T07:32:53.595Z</time>
</trkpt>
<trkpt lat="12.9411520" lon="99.9036493">
<ele>14.565</ele>
<time>2018-03-31T07:32:56.607Z</time>
</trkpt>
<trkpt lat="12.9419226" lon="99.9035173">
<ele>15.853</ele>
<time>2018-03-31T07:32:59.674Z</time>
</trkpt>
<trkpt lat="12.9426712" lon="99.9034265">
<ele>16.851</ele>
<time>2018-03-31T07:33:02.630Z</time>
</trkpt>
<trkpt lat="12.9434305" lon="99.9033131">
<ele>16.867</ele>
<time>2018-03-31T07:33:05.618Z</time>
</trkpt>
<trkpt lat="12.9442061" lon="99.9031945">
<ele>15.704</ele>
<time>2018-03-31T07:33:08.640Z</time>
</trkpt>
<trkpt lat="12.9449880" lon="99.9030804">
<ele>14.142</ele>
<time>2018-03-31T07:33:11.658Z</time>
</trkpt>
<trkpt lat="12.9457681" lon="99.9029459">
<ele>12.995</ele>
<time>2018-03-31T07:33:14.660Z</time>
</trkpt>
<trkpt lat="12.9465592" lon="99.9028196">
<ele>12.395</ele>
<time>2018-03-31T07:33:17.690Z</time>
</trkpt>
<trkpt lat="12.9473394" lon="99.9026966">
<ele>12.041</ele>
<time>2018-03-31T07:33:20.696Z</time>
</trkpt>
<trkpt lat="12.9481096" lon="99.9025767">
<ele>11.634</ele>
<time>2018-03-31T07:33:23.684Z</time>
</trkpt>
<trkpt lat="12.9488777" lon="99.9024567">
<ele>11.286</ele>
<time>2018-03-31T07:33:26.672Z</time>
</trkpt>
<trkpt lat="12.9496389" lon="99.9023549">
<ele>11.176</ele>
<time>2018-03-31T07:33:29.649Z</time>
</trkpt>
<trkpt lat="12.9503949" lon="99.9022495">
<ele>11.168</ele>
<time>2018-03-31T07:33:32.667Z</time>
</trkpt>
<trkpt lat="12.9511233" lon="99.9021357">
<ele>11.040</ele>
<time>2018-03-31T07:33:35.752Z</time>
</trkpt>
<trkpt lat="12.9517693" lon="99.9020461">
<ele>10.782</ele>
<time>2018-03-31T07:33:38.779Z</time>
</trkpt>
<trkpt lat="12.9523496" lon="99.9019404">
<ele>10.407</ele>
<time>2018-03-31T07:33:41.651Z</time>
</trkpt>
<trkpt lat="12.9529753" lon="99.9018502">
<ele>10.051</ele>
<time>2018-03-31T07:33:44.596Z</time>
</trkpt>
<trkpt lat="12.9536641" lon="99.9017323">
<ele>10.054</ele>
<time>2018-03-31T07:33:47.602Z</time>
</trkpt>
<trkpt lat="12.9544125" lon="99.9016280">
<ele>10.387</ele>
<time>2018-03-31T07:33:50.626Z</time>
</trkpt>
<trkpt lat="12.9552035" lon="99.9015183">
<ele>10.692</ele>
<time>2018-03-31T07:33:53.659Z</time>
</trkpt>
<trkpt lat="12.9560116" lon="99.9014100">
<ele>10.749</ele>
<time>2018-03-31T07:33:56.662Z</time>
</trkpt>
<trkpt lat="12.9568272" lon="99.9012988">
<ele>10.543</ele>
<time>2018-03-31T07:33:59.633Z</time>
</trkpt>
<trkpt lat="12.9576643" lon="99.9011364">
<ele>10.268</ele>
<time>2018-03-31T07:34:02.686Z</time>
</trkpt>
<trkpt lat="12.9584756" lon="99.9009761">
<ele>10.281</ele>
<time>2018-03-31T07:34:05.699Z</time>
</trkpt>
<trkpt lat="12.9592587" lon="99.9008764">
<ele>10.691</ele>
<time>2018-03-31T07:34:08.618Z</time>
</trkpt>
<trkpt lat="12.9600680" lon="99.9007684">
<ele>11.150</ele>
<time>2018-03-31T07:34:11.605Z</time>
</trkpt>
<trkpt lat="12.9609009" lon="99.9006518">
<ele>11.339</ele>
<time>2018-03-31T07:34:14.641Z</time>
</trkpt>
<trkpt lat="12.9617270" lon="99.9005235">
<ele>11.324</ele>
<time>2018-03-31T07:34:17.641Z</time>
</trkpt>
<trkpt lat="12.9625585" lon="99.9004082">
<ele>11.247</ele>
<time>2018-03-31T07:34:20.669Z</time>
</trkpt>
<trkpt lat="12.9633589" lon="99.9002851">
<ele>11.187</ele>
<time>2018-03-31T07:34:23.659Z</time>
</trkpt>
<trkpt lat="12.9641380" lon="99.9001703">
<ele>11.207</ele>
<time>2018-03-31T07:34:26.669Z</time>
</trkpt>
<trkpt lat="12.9648878" lon="99.9000791">
<ele>11.323</ele>
<time>2018-03-31T07:34:29.707Z</time>
</trkpt>
<trkpt lat="12.9655730" lon="99.9000037">
<ele>11.451</ele>
<time>2018-03-31T07:34:32.684Z</time>
</trkpt>
<trkpt lat="12.9662248" lon="99.8999255">
<ele>11.748</ele>
<time>2018-03-31T07:34:35.698Z</time>
</trkpt>
<trkpt lat="12.9668375" lon="99.8998187">
<ele>12.371</ele>
<time>2018-03-31T07:34:38.646Z</time>
</trkpt>
<trkpt lat="12.9674439" lon="99.8997214">
<ele>13.068</ele>
<time>2018-03-31T07:34:41.577Z</time>
</trkpt>
<trkpt lat="12.9680790" lon="99.8996465">
<ele>13.557</ele>
<time>2018-03-31T07:34:44.643Z</time>
</trkpt>
<trkpt lat="12.9686908" lon="99.8995570">
<ele>13.637</ele>
<time>2018-03-31T07:34:47.751Z</time>
</trkpt>
<trkpt lat="12.9692107" lon="99.8994776">
<ele>13.135</ele>
<time>2018-03-31T07:34:50.660Z</time>
</trkpt>
<trkpt lat="12.9697016" lon="99.8994241">
<ele>12.229</ele>
<time>2018-03-31T07:34:53.728Z</time>
</trkpt>
<trkpt lat="12.9701041" lon="99.8993523">
<ele>11.231</ele>
<time>2018-03-31T07:34:56.645Z</time>
</trkpt>
<trkpt lat="12.9704755" lon="99.8992787">
<ele>10.252</ele>
<time>2018-03-31T07:34:59.686Z</time>
</trkpt>
<trkpt lat="12.9708226" lon="99.8992248">
<ele>9.245</ele>
<time>2018-03-31T07:35:02.735Z</time>
</trkpt>
<trkpt lat="12.9711298" lon="99.8991633">
<ele>8.323</ele>
<time>2018-03-31T07:35:05.855Z</time>
</trkpt>
<trkpt lat="12.9713573" lon="99.8991395">
<ele>7.915</ele>
<time>2018-03-31T07:35:08.843Z</time>
</trkpt>
<trkpt lat="12.9715110" lon="99.8991167">
<ele>8.156</ele>
<time>2018-03-31T07:35:12.275Z</time>
</trkpt>
<trkpt lat="12.9716260" lon="99.8990871">
<ele>8.753</ele>
<time>2018-03-31T07:35:15.716Z</time>
</trkpt>
<trkpt lat="12.9717203" lon="99.8990568">
<ele>9.519</ele>
<time>2018-03-31T07:35:22.992Z</time>
</trkpt>
<trkpt lat="12.9717203" lon="99.8990568">
<ele>10.288</ele>
<time>2018-03-31T07:35:31.992Z</time>
</trkpt>
<trkpt lat="12.9717203" lon="99.8990568">
<ele>10.696</ele>
<time>2018-03-31T07:35:59.454Z</time>
</trkpt>
<trkpt lat="12.9719395" lon="99.8990488">
<ele>10.657</ele>
<time>2018-03-31T07:36:09.965Z</time>
</trkpt>
<trkpt lat="12.9721035" lon="99.8990233">
<ele>10.760</ele>
<time>2018-03-31T07:36:13.217Z</time>
</trkpt>
<trkpt lat="12.9722842" lon="99.8990017">
<ele>11.437</ele>
<time>2018-03-31T07:36:16.383Z</time>
</trkpt>
<trkpt lat="12.9724532" lon="99.8989650">
<ele>12.075</ele>
<time>2018-03-31T07:36:19.441Z</time>
</trkpt>
<trkpt lat="12.9726146" lon="99.8989543">
<ele>12.066</ele>
<time>2018-03-31T07:36:22.354Z</time>
</trkpt>
<trkpt lat="12.9727753" lon="99.8989235">
<ele>11.606</ele>
<time>2018-03-31T07:36:25.228Z</time>
</trkpt>
<trkpt lat="12.9729347" lon="99.8988957">
<ele>11.241</ele>
<time>2018-03-31T07:36:27.715Z</time>
</trkpt>
<trkpt lat="12.9731601" lon="99.8988531">
<ele>11.332</ele>
<time>2018-03-31T07:36:30.464Z</time>
</trkpt>
<trkpt lat="12.9734604" lon="99.8988162">
<ele>11.895</ele>
<time>2018-03-31T07:36:33.434Z</time>
</trkpt>
<trkpt lat="12.9738043" lon="99.8987760">
<ele>12.670</ele>
<time>2018-03-31T07:36:36.384Z</time>
</trkpt>
<trkpt lat="12.9741999" lon="99.8987194">
<ele>13.372</ele>
<time>2018-03-31T07:36:39.490Z</time>
</trkpt>
<trkpt lat="12.9745950" lon="99.8986632">
<ele>13.762</ele>
<time>2018-03-31T07:36:42.354Z</time>
</trkpt>
<trkpt lat="12.9750425" lon="99.8985987">
<ele>13.892</ele>
<time>2018-03-31T07:36:45.336Z</time>
</trkpt>
<trkpt lat="12.9755431" lon="99.8985197">
<ele>13.878</ele>
<time>2018-03-31T07:36:48.416Z</time>
</trkpt>
<trkpt lat="12.9760521" lon="99.8984386">
<ele>13.839</ele>
<time>2018-03-31T07:36:51.360Z</time>
</trkpt>
<trkpt lat="12.9765838" lon="99.8983521">
<ele>13.873</ele>
<time>2018-03-31T07:36:54.363Z</time>
</trkpt>
<trkpt lat="12.9771292" lon="99.8982693">
<ele>14.026</ele>
<time>2018-03-31T07:36:57.412Z</time>
</trkpt>
<trkpt lat="12.9776613" lon="99.8981965">
<ele>14.283</ele>
<time>2018-03-31T07:37:00.303Z</time>
</trkpt>
<trkpt lat="12.9782177" lon="99.8981199">
<ele>14.599</ele>
<time>2018-03-31T07:37:03.259Z</time>
</trkpt>
<trkpt lat="12.9787923" lon="99.8980404">
<ele>14.706</ele>
<time>2018-03-31T07:37:06.307Z</time>
</trkpt>
<trkpt lat="12.9793761" lon="99.8979547">
<ele>14.470</ele>
<time>2018-03-31T07:37:09.449Z</time>
</trkpt>
<trkpt lat="12.9799320" lon="99.8979021">
<ele>14.334</ele>
<time>2018-03-31T07:37:12.494Z</time>
</trkpt>
<trkpt lat="12.9802810" lon="99.8979111">
<ele>14.660</ele>
<time>2018-03-31T07:37:14.407Z</time>
</trkpt>
<trkpt lat="12.9808496" lon="99.8979260">
<ele>15.128</ele>
<time>2018-03-31T07:37:17.414Z</time>
</trkpt>
<trkpt lat="12.9812482" lon="99.8980194">
<ele>15.370</ele>
<time>2018-03-31T07:37:19.453Z</time>
</trkpt>
<trkpt lat="12.9816215" lon="99.8981575">
<ele>15.408</ele>
<time>2018-03-31T07:37:21.348Z</time>
</trkpt>
<trkpt lat="12.9820373" lon="99.8983270">
<ele>15.202</ele>
<time>2018-03-31T07:37:23.404Z</time>
</trkpt>
<trkpt lat="12.9824507" lon="99.8985485">
<ele>14.560</ele>
<time>2018-03-31T07:37:25.496Z</time>
</trkpt>
<trkpt lat="12.9828366" lon="99.8988069">
<ele>13.659</ele>
<time>2018-03-31T07:37:27.548Z</time>
</trkpt>
<trkpt lat="12.9832245" lon="99.8990470">
<ele>12.992</ele>
<time>2018-03-31T07:37:29.567Z</time>
</trkpt>
<trkpt lat="12.9836002" lon="99.8992736">
<ele>12.714</ele>
<time>2018-03-31T07:37:31.504Z</time>
</trkpt>
<trkpt lat="12.9839825" lon="99.8995082">
<ele>12.547</ele>
<time>2018-03-31T07:37:33.468Z</time>
</trkpt>
<trkpt lat="12.9843896" lon="99.8997472">
<ele>12.297</ele>
<time>2018-03-31T07:37:35.515Z</time>
</trkpt>
<trkpt lat="12.9847952" lon="99.8999851">
<ele>12.254</ele>
<time>2018-03-31T07:37:37.532Z</time>
</trkpt>
<trkpt lat="12.9852045" lon="99.9002174">
<ele>12.696</ele>
<time>2018-03-31T07:37:39.537Z</time>
</trkpt>
<trkpt lat="12.9856184" lon="99.9004472">
<ele>13.340</ele>
<time>2018-03-31T07:37:41.566Z</time>
</trkpt>
<trkpt lat="12.9860089" lon="99.9006872">
<ele>13.788</ele>
<time>2018-03-31T07:37:43.563Z</time>
</trkpt>
<trkpt lat="12.9863952" lon="99.9009161">
<ele>13.956</ele>
<time>2018-03-31T07:37:45.564Z</time>
</trkpt>
<trkpt lat="12.9867794" lon="99.9011528">
<ele>13.937</ele>
<time>2018-03-31T07:37:47.620Z</time>
</trkpt>
<trkpt lat="12.9871493" lon="99.9013877">
<ele>13.944</ele>
<time>2018-03-31T07:37:49.655Z</time>
</trkpt>
<trkpt lat="12.9875163" lon="99.9016063">
<ele>14.225</ele>
<time>2018-03-31T07:37:51.657Z</time>
</trkpt>
<trkpt lat="12.9878844" lon="99.9018287">
<ele>14.738</ele>
<time>2018-03-31T07:37:53.675Z</time>
</trkpt>
<trkpt lat="12.9884459" lon="99.9021566">
<ele>14.851</ele>
<time>2018-03-31T07:37:56.742Z</time>
</trkpt>
<trkpt lat="12.9889838" lon="99.9024918">
<ele>14.208</ele>
<time>2018-03-31T07:37:59.743Z</time>
</trkpt>
<trkpt lat="12.9895156" lon="99.9028214">
<ele>13.378</ele>
<time>2018-03-31T07:38:02.714Z</time>
</trkpt>
<trkpt lat="12.9900467" lon="99.9031594">
<ele>12.854</ele>
<time>2018-03-31T07:38:05.712Z</time>
</trkpt>
<trkpt lat="12.9905946" lon="99.9034796">
<ele>12.336</ele>
<time>2018-03-31T07:38:08.737Z</time>
</trkpt>
<trkpt lat="12.9911388" lon="99.9038006">
<ele>11.631</ele>
<time>2018-03-31T07:38:11.698Z</time>
</trkpt>
<trkpt lat="12.9916920" lon="99.9041432">
<ele>11.143</ele>
<time>2018-03-31T07:38:14.674Z</time>
</trkpt>
<trkpt lat="12.9922558" lon="99.9044898">
<ele>11.250</ele>
<time>2018-03-31T07:38:17.646Z</time>
</trkpt>
<trkpt lat="12.9928376" lon="99.9048362">
<ele>11.732</ele>
<time>2018-03-31T07:38:20.638Z</time>
</trkpt>
<trkpt lat="12.9934142" lon="99.9051767">
<ele>12.085</ele>
<time>2018-03-31T07:38:23.558Z</time>
</trkpt>
<trkpt lat="12.9939880" lon="99.9055700">
<ele>11.983</ele>
<time>2018-03-31T07:38:26.585Z</time>
</trkpt>
<trkpt lat="12.9945702" lon="99.9059508">
<ele>11.496</ele>
<time>2018-03-31T07:38:29.675Z</time>
</trkpt>
<trkpt lat="12.9951269" lon="99.9063112">
<ele>10.965</ele>
<time>2018-03-31T07:38:32.646Z</time>
</trkpt>
<trkpt lat="12.9956949" lon="99.9066863">
<ele>10.559</ele>
<time>2018-03-31T07:38:35.613Z</time>
</trkpt>
<trkpt lat="12.9962839" lon="99.9070774">
<ele>10.181</ele>
<time>2018-03-31T07:38:38.582Z</time>
</trkpt>
<trkpt lat="12.9968970" lon="99.9074688">
<ele>9.508</ele>
<time>2018-03-31T07:38:41.568Z</time>
</trkpt>
<trkpt lat="12.9975326" lon="99.9078524">
<ele>8.459</ele>
<time>2018-03-31T07:38:44.573Z</time>
</trkpt>
<trkpt lat="12.9981736" lon="99.9082610">
<ele>7.511</ele>
<time>2018-03-31T07:38:47.604Z</time>
</trkpt>
<trkpt lat="12.9988124" lon="99.9086551">
<ele>7.019</ele>
<time>2018-03-31T07:38:50.549Z</time>
</trkpt>
<trkpt lat="12.9994761" lon="99.9090545">
<ele>6.764</ele>
<time>2018-03-31T07:38:53.536Z</time>
</trkpt>
<trkpt lat="13.0001531" lon="99.9094718">
<ele>6.556</ele>
<time>2018-03-31T07:38:56.549Z</time>
</trkpt>
<trkpt lat="13.0008293" lon="99.9098823">
<ele>6.416</ele>
<time>2018-03-31T07:38:59.500Z</time>
</trkpt>
<trkpt lat="13.0015212" lon="99.9103094">
<ele>6.376</ele>
<time>2018-03-31T07:39:02.489Z</time>
</trkpt>
<trkpt lat="13.0022353" lon="99.9107365">
<ele>6.308</ele>
<time>2018-03-31T07:39:05.517Z</time>
</trkpt>
<trkpt lat="13.0029420" lon="99.9111713">
<ele>6.117</ele>
<time>2018-03-31T07:39:08.553Z</time>
</trkpt>
<trkpt lat="13.0036386" lon="99.9115961">
<ele>5.995</ele>
<time>2018-03-31T07:39:11.581Z</time>
</trkpt>
<trkpt lat="13.0043286" lon="99.9120150">
<ele>6.340</ele>
<time>2018-03-31T07:39:14.594Z</time>
</trkpt>
<trkpt lat="13.0050163" lon="99.9124221">
<ele>7.392</ele>
<time>2018-03-31T07:39:17.576Z</time>
</trkpt>
<trkpt lat="13.0056876" lon="99.9128368">
<ele>8.787</ele>
<time>2018-03-31T07:39:20.505Z</time>
</trkpt>
<trkpt lat="13.0063920" lon="99.9132628">
<ele>9.628</ele>
<time>2018-03-31T07:39:23.542Z</time>
</trkpt>
<trkpt lat="13.0070863" lon="99.9136930">
<ele>9.523</ele>
<time>2018-03-31T07:39:26.534Z</time>
</trkpt>
<trkpt lat="13.0077939" lon="99.9141400">
<ele>8.974</ele>
<time>2018-03-31T07:39:29.578Z</time>
</trkpt>
<trkpt lat="13.0084867" lon="99.9145886">
<ele>8.775</ele>
<time>2018-03-31T07:39:32.561Z</time>
</trkpt>
<trkpt lat="13.0091931" lon="99.9150277">
<ele>9.351</ele>
<time>2018-03-31T07:39:35.559Z</time>
</trkpt>
<trkpt lat="13.0099107" lon="99.9154602">
<ele>10.402</ele>
<time>2018-03-31T07:39:38.577Z</time>
</trkpt>
<trkpt lat="13.0106335" lon="99.9158832">
<ele>11.225</ele>
<time>2018-03-31T07:39:41.607Z</time>
</trkpt>
<trkpt lat="13.0113421" lon="99.9163121">
<ele>11.551</ele>
<time>2018-03-31T07:39:44.623Z</time>
</trkpt>
<trkpt lat="13.0120336" lon="99.9167516">
<ele>11.553</ele>
<time>2018-03-31T07:39:47.616Z</time>
</trkpt>
<trkpt lat="13.0127100" lon="99.9171771">
<ele>11.397</ele>
<time>2018-03-31T07:39:50.550Z</time>
</trkpt>
<trkpt lat="13.0134203" lon="99.9176038">
<ele>10.965</ele>
<time>2018-03-31T07:39:53.616Z</time>
</trkpt>
<trkpt lat="13.0141141" lon="99.9180354">
<ele>10.250</ele>
<time>2018-03-31T07:39:56.658Z</time>
</trkpt>
<trkpt lat="13.0148148" lon="99.9184470">
<ele>9.617</ele>
<time>2018-03-31T07:39:59.690Z</time>
</trkpt>
<trkpt lat="13.0155034" lon="99.9188653">
<ele>9.267</ele>
<time>2018-03-31T07:40:02.709Z</time>
</trkpt>
<trkpt lat="13.0161904" lon="99.9192994">
<ele>8.995</ele>
<time>2018-03-31T07:40:05.772Z</time>
</trkpt>
<trkpt lat="13.0168705" lon="99.9197210">
<ele>8.725</ele>
<time>2018-03-31T07:40:08.787Z</time>
</trkpt>
<trkpt lat="13.0175539" lon="99.9201182">
<ele>8.552</ele>
<time>2018-03-31T07:40:11.759Z</time>
</trkpt>
<trkpt lat="13.0182428" lon="99.9205398">
<ele>8.490</ele>
<time>2018-03-31T07:40:14.769Z</time>
</trkpt>
<trkpt lat="13.0189440" lon="99.9209545">
<ele>8.477</ele>
<time>2018-03-31T07:40:17.764Z</time>
</trkpt>
<trkpt lat="13.0196467" lon="99.9213694">
<ele>8.476</ele>
<time>2018-03-31T07:40:20.711Z</time>
</trkpt>
<trkpt lat="13.0203616" lon="99.9218196">
<ele>8.525</ele>
<time>2018-03-31T07:40:23.703Z</time>
</trkpt>
<trkpt lat="13.0211013" lon="99.9222707">
<ele>8.747</ele>
<time>2018-03-31T07:40:26.720Z</time>
</trkpt>
<trkpt lat="13.0218415" lon="99.9227183">
<ele>9.148</ele>
<time>2018-03-31T07:40:29.716Z</time>
</trkpt>
<trkpt lat="13.0225760" lon="99.9231513">
<ele>9.518</ele>
<time>2018-03-31T07:40:32.646Z</time>
</trkpt>
<trkpt lat="13.0233260" lon="99.9236224">
<ele>9.490</ele>
<time>2018-03-31T07:40:35.624Z</time>
</trkpt>
<trkpt lat="13.0241055" lon="99.9241026">
<ele>8.980</ele>
<time>2018-03-31T07:40:38.643Z</time>
</trkpt>
<trkpt lat="13.0248747" lon="99.9246022">
<ele>8.404</ele>
<time>2018-03-31T07:40:41.614Z</time>
</trkpt>
<trkpt lat="13.0256800" lon="99.9250949">
<ele>8.193</ele>
<time>2018-03-31T07:40:44.635Z</time>
</trkpt>
<trkpt lat="13.0264860" lon="99.9255962">
<ele>8.323</ele>
<time>2018-03-31T07:40:47.684Z</time>
</trkpt>
<trkpt lat="13.0272819" lon="99.9260698">
<ele>8.521</ele>
<time>2018-03-31T07:40:50.691Z</time>
</trkpt>
<trkpt lat="13.0280714" lon="99.9265470">
<ele>8.590</ele>
<time>2018-03-31T07:40:53.701Z</time>
</trkpt>
<trkpt lat="13.0288498" lon="99.9270299">
<ele>8.562</ele>
<time>2018-03-31T07:40:56.759Z</time>
</trkpt>
<trkpt lat="13.0296026" lon="99.9274949">
<ele>8.520</ele>
<time>2018-03-31T07:40:59.839Z</time>
</trkpt>
<trkpt lat="13.0303129" lon="99.9279316">
<ele>8.240</ele>
<time>2018-03-31T07:41:02.830Z</time>
</trkpt>
<trkpt lat="13.0310261" lon="99.9283621">
<ele>7.461</ele>
<time>2018-03-31T07:41:05.833Z</time>
</trkpt>
<trkpt lat="13.0317389" lon="99.9287913">
<ele>6.415</ele>
<time>2018-03-31T07:41:08.791Z</time>
</trkpt>
<trkpt lat="13.0324623" lon="99.9292229">
<ele>5.527</ele>
<time>2018-03-31T07:41:11.752Z</time>
</trkpt>
<trkpt lat="13.0332091" lon="99.9296661">
<ele>4.706</ele>
<time>2018-03-31T07:41:14.835Z</time>
</trkpt>
<trkpt lat="13.0339403" lon="99.9300889">
<ele>3.749</ele>
<time>2018-03-31T07:41:17.923Z</time>
</trkpt>
<trkpt lat="13.0346221" lon="99.9305213">
<ele>2.960</ele>
<time>2018-03-31T07:41:21.006Z</time>
</trkpt>
<trkpt lat="13.0352630" lon="99.9309152">
<ele>2.516</ele>
<time>2018-03-31T07:41:24.020Z</time>
</trkpt>
<trkpt lat="13.0359018" lon="99.9313126">
<ele>2.235</ele>
<time>2018-03-31T07:41:27.145Z</time>
</trkpt>
<trkpt lat="13.0365067" lon="99.9317032">
<ele>1.937</ele>
<time>2018-03-31T07:41:30.184Z</time>
</trkpt>
<trkpt lat="13.0371088" lon="99.9320772">
<ele>1.501</ele>
<time>2018-03-31T07:41:33.169Z</time>
</trkpt>
<trkpt lat="13.0377224" lon="99.9324553">
<ele>0.854</ele>
<time>2018-03-31T07:41:36.137Z</time>
</trkpt>
<trkpt lat="13.0383535" lon="99.9328329">
<ele>0.122</ele>
<time>2018-03-31T07:41:39.096Z</time>
</trkpt>
<trkpt lat="13.0389900" lon="99.9332264">
<ele>0.000</ele>
<time>2018-03-31T07:41:42.034Z</time>
</trkpt>
<trkpt lat="13.0396662" lon="99.9336178">
<ele>0.175</ele>
<time>2018-03-31T07:41:45.010Z</time>
</trkpt>
<trkpt lat="13.0403537" lon="99.9340265">
<ele>1.522</ele>
<time>2018-03-31T07:41:47.979Z</time>
</trkpt>
<trkpt lat="13.0410658" lon="99.9344585">
<ele>3.447</ele>
<time>2018-03-31T07:41:51.041Z</time>
</trkpt>
<trkpt lat="13.0417580" lon="99.9348863">
<ele>5.288</ele>
<time>2018-03-31T07:41:54.011Z</time>
</trkpt>
<trkpt lat="13.0424652" lon="99.9353240">
<ele>6.656</ele>
<time>2018-03-31T07:41:57.005Z</time>
</trkpt>
<trkpt lat="13.0431703" lon="99.9357711">
<ele>7.644</ele>
<time>2018-03-31T07:41:59.979Z</time>
</trkpt>
<trkpt lat="13.0438989" lon="99.9362057">
<ele>8.407</ele>
<time>2018-03-31T07:42:02.968Z</time>
</trkpt>
<trkpt lat="13.0446288" lon="99.9366615">
<ele>9.103</ele>
<time>2018-03-31T07:42:05.967Z</time>
</trkpt>
<trkpt lat="13.0453551" lon="99.9371269">
<ele>9.862</ele>
<time>2018-03-31T07:42:08.939Z</time>
</trkpt>
<trkpt lat="13.0460995" lon="99.9375948">
<ele>10.718</ele>
<time>2018-03-31T07:42:11.942Z</time>
</trkpt>
<trkpt lat="13.0468379" lon="99.9380542">
<ele>11.463</ele>
<time>2018-03-31T07:42:14.907Z</time>
</trkpt>
<trkpt lat="13.0475955" lon="99.9384931">
<ele>11.609</ele>
<time>2018-03-31T07:42:17.928Z</time>
</trkpt>
<trkpt lat="13.0483321" lon="99.9389693">
<ele>10.883</ele>
<time>2018-03-31T07:42:21.049Z</time>
</trkpt>
<trkpt lat="13.0490314" lon="99.9393924">
<ele>9.774</ele>
<time>2018-03-31T07:42:24.085Z</time>
</trkpt>
<trkpt lat="13.0497187" lon="99.9398193">
<ele>9.016</ele>
<time>2018-03-31T07:42:27.199Z</time>
</trkpt>
<trkpt lat="13.0503918" lon="99.9402073">
<ele>8.781</ele>
<time>2018-03-31T07:42:30.256Z</time>
</trkpt>
<trkpt lat="13.0510343" lon="99.9406001">
<ele>8.690</ele>
<time>2018-03-31T07:42:33.261Z</time>
</trkpt>
<trkpt lat="13.0516623" lon="99.9410004">
<ele>8.428</ele>
<time>2018-03-31T07:42:36.256Z</time>
</trkpt>
<trkpt lat="13.0523097" lon="99.9414031">
<ele>8.255</ele>
<time>2018-03-31T07:42:39.323Z</time>
</trkpt>
<trkpt lat="13.0529423" lon="99.9417823">
<ele>8.563</ele>
<time>2018-03-31T07:42:42.282Z</time>
</trkpt>
<trkpt lat="13.0535927" lon="99.9421809">
<ele>9.184</ele>
<time>2018-03-31T07:42:45.370Z</time>
</trkpt>
<trkpt lat="13.0542289" lon="99.9425799">
<ele>9.580</ele>
<time>2018-03-31T07:42:48.503Z</time>
</trkpt>
<trkpt lat="13.0548306" lon="99.9429578">
<ele>9.531</ele>
<time>2018-03-31T07:42:51.525Z</time>
</trkpt>
<trkpt lat="13.0554448" lon="99.9433159">
<ele>9.515</ele>
<time>2018-03-31T07:42:54.529Z</time>
</trkpt>
<trkpt lat="13.0561129" lon="99.9436320">
<ele>10.083</ele>
<time>2018-03-31T07:42:57.649Z</time>
</trkpt>
<trkpt lat="13.0567769" lon="99.9438127">
<ele>11.008</ele>
<time>2018-03-31T07:43:00.597Z</time>
</trkpt>
<trkpt lat="13.0574707" lon="99.9439604">
<ele>11.314</ele>
<time>2018-03-31T07:43:03.667Z</time>
</trkpt>
<trkpt lat="13.0581243" lon="99.9441137">
<ele>10.445</ele>
<time>2018-03-31T07:43:06.557Z</time>
</trkpt>
<trkpt lat="13.0588126" lon="99.9442836">
<ele>9.095</ele>
<time>2018-03-31T07:43:09.555Z</time>
</trkpt>
<trkpt lat="13.0595089" lon="99.9444213">
<ele>8.244</ele>
<time>2018-03-31T07:43:12.530Z</time>
</trkpt>
<trkpt lat="13.0602117" lon="99.9445738">
<ele>8.079</ele>
<time>2018-03-31T07:43:15.577Z</time>
</trkpt>
<trkpt lat="13.0608762" lon="99.9447355">
<ele>8.459</ele>
<time>2018-03-31T07:43:18.500Z</time>
</trkpt>
<trkpt lat="13.0615752" lon="99.9449051">
<ele>9.140</ele>
<time>2018-03-31T07:43:21.554Z</time>
</trkpt>
<trkpt lat="13.0622776" lon="99.9450434">
<ele>9.700</ele>
<time>2018-03-31T07:43:24.629Z</time>
</trkpt>
<trkpt lat="13.0629412" lon="99.9452175">
<ele>9.963</ele>
<time>2018-03-31T07:43:27.611Z</time>
</trkpt>
<trkpt lat="13.0635970" lon="99.9453519">
<ele>10.302</ele>
<time>2018-03-31T07:43:30.539Z</time>
</trkpt>
<trkpt lat="13.0642704" lon="99.9454955">
<ele>10.956</ele>
<time>2018-03-31T07:43:33.576Z</time>
</trkpt>
<trkpt lat="13.0649416" lon="99.9456568">
<ele>11.540</ele>
<time>2018-03-31T07:43:36.641Z</time>
</trkpt>
<trkpt lat="13.0655960" lon="99.9457920">
<ele>11.559</ele>
<time>2018-03-31T07:43:39.652Z</time>
</trkpt>
<trkpt lat="13.0662283" lon="99.9459388">
<ele>10.817</ele>
<time>2018-03-31T07:43:42.622Z</time>
</trkpt>
<trkpt lat="13.0668728" lon="99.9461107">
<ele>9.215</ele>
<time>2018-03-31T07:43:45.679Z</time>
</trkpt>
<trkpt lat="13.0675065" lon="99.9462630">
<ele>7.157</ele>
<time>2018-03-31T07:43:48.630Z</time>
</trkpt>
<trkpt lat="13.0681581" lon="99.9464240">
<ele>5.538</ele>
<time>2018-03-31T07:43:51.585Z</time>
</trkpt>
<trkpt lat="13.0688380" lon="99.9465911">
<ele>4.656</ele>
<time>2018-03-31T07:43:54.569Z</time>
</trkpt>
<trkpt lat="13.0695439" lon="99.9467766">
<ele>4.138</ele>
<time>2018-03-31T07:43:57.682Z</time>
</trkpt>
<trkpt lat="13.0702308" lon="99.9469476">
<ele>4.117</ele>
<time>2018-03-31T07:44:00.813Z</time>
</trkpt>
<trkpt lat="13.0708821" lon="99.9471105">
<ele>5.210</ele>
<time>2018-03-31T07:44:03.922Z</time>
</trkpt>
<trkpt lat="13.0715085" lon="99.9472644">
<ele>7.216</ele>
<time>2018-03-31T07:44:07.038Z</time>
</trkpt>
<trkpt lat="13.0721138" lon="99.9473977">
<ele>9.015</ele>
<time>2018-03-31T07:44:10.126Z</time>
</trkpt>
<trkpt lat="13.0726829" lon="99.9475595">
<ele>9.775</ele>
<time>2018-03-31T07:44:13.068Z</time>
</trkpt>
<trkpt lat="13.0732736" lon="99.9477102">
<ele>9.546</ele>
<time>2018-03-31T07:44:16.006Z</time>
</trkpt>
<trkpt lat="13.0738706" lon="99.9478501">
<ele>8.822</ele>
<time>2018-03-31T07:44:18.810Z</time>
</trkpt>
<trkpt lat="13.0745176" lon="99.9479806">
<ele>8.073</ele>
<time>2018-03-31T07:44:21.648Z</time>
</trkpt>
<trkpt lat="13.0752331" lon="99.9481143">
<ele>7.562</ele>
<time>2018-03-31T07:44:24.585Z</time>
</trkpt>
<trkpt lat="13.0757297" lon="99.9481583">
<ele>7.305</ele>
<time>2018-03-31T07:44:26.502Z</time>
</trkpt>
<trkpt lat="13.0762830" lon="99.9481134">
<ele>7.151</ele>
<time>2018-03-31T07:44:28.590Z</time>
</trkpt>
<trkpt lat="13.0768166" lon="99.9480511">
<ele>6.770</ele>
<time>2018-03-31T07:44:30.611Z</time>
</trkpt>
<trkpt lat="13.0773334" lon="99.9479426">
<ele>5.974</ele>
<time>2018-03-31T07:44:32.605Z</time>
</trkpt>
<trkpt lat="13.0778347" lon="99.9477873">
<ele>5.174</ele>
<time>2018-03-31T07:44:34.572Z</time>
</trkpt>
<trkpt lat="13.0783236" lon="99.9475655">
<ele>4.829</ele>
<time>2018-03-31T07:44:36.557Z</time>
</trkpt>
<trkpt lat="13.0788037" lon="99.9473158">
<ele>4.863</ele>
<time>2018-03-31T07:44:38.527Z</time>
</trkpt>
<trkpt lat="13.0792875" lon="99.9470683">
<ele>5.001</ele>
<time>2018-03-31T07:44:40.475Z</time>
</trkpt>
<trkpt lat="13.0797853" lon="99.9468083">
<ele>5.038</ele>
<time>2018-03-31T07:44:42.462Z</time>
</trkpt>
<trkpt lat="13.0802799" lon="99.9465531">
<ele>4.607</ele>
<time>2018-03-31T07:44:44.419Z</time>
</trkpt>
<trkpt lat="13.0807744" lon="99.9462813">
<ele>3.453</ele>
<time>2018-03-31T07:44:46.397Z</time>
</trkpt>
<trkpt lat="13.0812807" lon="99.9460081">
<ele>1.865</ele>
<time>2018-03-31T07:44:48.414Z</time>
</trkpt>
<trkpt lat="13.0817830" lon="99.9457350">
<ele>0.497</ele>
<time>2018-03-31T07:44:50.422Z</time>
</trkpt>
<trkpt lat="13.0822852" lon="99.9454600">
<ele>0.000</ele>
<time>2018-03-31T07:44:52.437Z</time>
</trkpt>
<trkpt lat="13.0827871" lon="99.9451901">
<ele>0.000</ele>
<time>2018-03-31T07:44:54.443Z</time>
</trkpt>
<trkpt lat="13.0832853" lon="99.9449200">
<ele>0.000</ele>
<time>2018-03-31T07:44:56.437Z</time>
</trkpt>
<trkpt lat="13.0837826" lon="99.9446501">
<ele>0.000</ele>
<time>2018-03-31T07:44:58.431Z</time>
</trkpt>
<trkpt lat="13.0842860" lon="99.9443733">
<ele>0.000</ele>
<time>2018-03-31T07:45:00.463Z</time>
</trkpt>
<trkpt lat="13.0847789" lon="99.9440981">
<ele>0.000</ele>
<time>2018-03-31T07:45:02.496Z</time>
</trkpt>
<trkpt lat="13.0852783" lon="99.9438288">
<ele>0.000</ele>
<time>2018-03-31T07:45:04.569Z</time>
</trkpt>
<trkpt lat="13.0859973" lon="99.9434349">
<ele>0.000</ele>
<time>2018-03-31T07:45:07.656Z</time>
</trkpt>
<trkpt lat="13.0866932" lon="99.9430670">
<ele>0.000</ele>
<time>2018-03-31T07:45:10.715Z</time>
</trkpt>
<trkpt lat="13.0873841" lon="99.9427161">
<ele>0.147</ele>
<time>2018-03-31T07:45:13.775Z</time>
</trkpt>
<trkpt lat="13.0880735" lon="99.9424092">
<ele>0.648</ele>
<time>2018-03-31T07:45:16.755Z</time>
</trkpt>
<trkpt lat="13.0887721" lon="99.9420944">
<ele>0.516</ele>
<time>2018-03-31T07:45:19.790Z</time>
</trkpt>
<trkpt lat="13.0894620" lon="99.9417799">
<ele>0.000</ele>
<time>2018-03-31T07:45:22.815Z</time>
</trkpt>
<trkpt lat="13.0901323" lon="99.9414415">
<ele>0.000</ele>
<time>2018-03-31T07:45:25.785Z</time>
</trkpt>
<trkpt lat="13.0908222" lon="99.9411149">
<ele>0.000</ele>
<time>2018-03-31T07:45:28.725Z</time>
</trkpt>
<trkpt lat="13.0915424" lon="99.9407930">
<ele>0.000</ele>
<time>2018-03-31T07:45:31.672Z</time>
</trkpt>
<trkpt lat="13.0922900" lon="99.9404576">
<ele>0.000</ele>
<time>2018-03-31T07:45:34.688Z</time>
</trkpt>
<trkpt lat="13.0930404" lon="99.9401250">
<ele>0.214</ele>
<time>2018-03-31T07:45:37.689Z</time>
</trkpt>
<trkpt lat="13.0938286" lon="99.9398253">
<ele>0.237</ele>
<time>2018-03-31T07:45:40.746Z</time>
</trkpt>
<trkpt lat="13.0945714" lon="99.9394662">
<ele>0.107</ele>
<time>2018-03-31T07:45:43.689Z</time>
</trkpt>
<trkpt lat="13.0953391" lon="99.9390870">
<ele>0.078</ele>
<time>2018-03-31T07:45:46.690Z</time>
</trkpt>
<trkpt lat="13.0961039" lon="99.9387258">
<ele>0.596</ele>
<time>2018-03-31T07:45:49.627Z</time>
</trkpt>
<trkpt lat="13.0968815" lon="99.9383542">
<ele>1.803</ele>
<time>2018-03-31T07:45:52.594Z</time>
</trkpt>
<trkpt lat="13.0976887" lon="99.9380094">
<ele>3.261</ele>
<time>2018-03-31T07:45:55.584Z</time>
</trkpt>
<trkpt lat="13.0984887" lon="99.9376598">
<ele>4.458</ele>
<time>2018-03-31T07:45:58.516Z</time>
</trkpt>
<trkpt lat="13.0993161" lon="99.9372920">
<ele>5.095</ele>
<time>2018-03-31T07:46:01.519Z</time>
</trkpt>
<trkpt lat="13.1001525" lon="99.9369123">
<ele>4.943</ele>
<time>2018-03-31T07:46:04.555Z</time>
</trkpt>
<trkpt lat="13.1009775" lon="99.9365258">
<ele>4.290</ele>
<time>2018-03-31T07:46:07.576Z</time>
</trkpt>
<trkpt lat="13.1017898" lon="99.9361449">
<ele>3.888</ele>
<time>2018-03-31T07:46:10.554Z</time>
</trkpt>
<trkpt lat="13.1026148" lon="99.9357739">
<ele>4.152</ele>
<time>2018-03-31T07:46:13.557Z</time>
</trkpt>
<trkpt lat="13.1034637" lon="99.9353880">
<ele>4.748</ele>
<time>2018-03-31T07:46:16.667Z</time>
</trkpt>
<trkpt lat="13.1042866" lon="99.9350092">
<ele>5.328</ele>
<time>2018-03-31T07:46:19.694Z</time>
</trkpt>
<trkpt lat="13.1050956" lon="99.9346305">
<ele>5.806</ele>
<time>2018-03-31T07:46:22.682Z</time>
</trkpt>
<trkpt lat="13.1059176" lon="99.9342720">
<ele>6.034</ele>
<time>2018-03-31T07:46:25.689Z</time>
</trkpt>
<trkpt lat="13.1067354" lon="99.9338819">
<ele>5.659</ele>
<time>2018-03-31T07:46:28.738Z</time>
</trkpt>
<trkpt lat="13.1075539" lon="99.9335126">
<ele>4.667</ele>
<time>2018-03-31T07:46:31.797Z</time>
</trkpt>
<trkpt lat="13.1083643" lon="99.9331520">
<ele>3.767</ele>
<time>2018-03-31T07:46:34.883Z</time>
</trkpt>
<trkpt lat="13.1091532" lon="99.9327866">
<ele>3.581</ele>
<time>2018-03-31T07:46:37.995Z</time>
</trkpt>
<trkpt lat="13.1098943" lon="99.9324207">
<ele>4.361</ele>
<time>2018-03-31T07:46:41.052Z</time>
</trkpt>
<trkpt lat="13.1106544" lon="99.9321362">
<ele>5.882</ele>
<time>2018-03-31T07:46:44.195Z</time>
</trkpt>
<trkpt lat="13.1113088" lon="99.9317522">
<ele>6.900</ele>
<time>2018-03-31T07:46:47.277Z</time>
</trkpt>
<trkpt lat="13.1119384" lon="99.9313733">
<ele>6.469</ele>
<time>2018-03-31T07:46:50.394Z</time>
</trkpt>
<trkpt lat="13.1124819" lon="99.9309011">
<ele>5.228</ele>
<time>2018-03-31T07:46:53.520Z</time>
</trkpt>
<trkpt lat="13.1129200" lon="99.9303988">
<ele>4.230</ele>
<time>2018-03-31T07:46:56.401Z</time>
</trkpt>
<trkpt lat="13.1132648" lon="99.9297942">
<ele>3.922</ele>
<time>2018-03-31T07:46:59.348Z</time>
</trkpt>
<trkpt lat="13.1135391" lon="99.9291317">
<ele>4.493</ele>
<time>2018-03-31T07:47:02.385Z</time>
</trkpt>
<trkpt lat="13.1137411" lon="99.9284289">
<ele>5.715</ele>
<time>2018-03-31T07:47:05.547Z</time>
</trkpt>
<trkpt lat="13.1138767" lon="99.9277631">
<ele>6.964</ele>
<time>2018-03-31T07:47:08.565Z</time>
</trkpt>
<trkpt lat="13.1139896" lon="99.9270419">
<ele>7.848</ele>
<time>2018-03-31T07:47:12.002Z</time>
</trkpt>
<trkpt lat="13.1141193" lon="99.9264456">
<ele>8.307</ele>
<time>2018-03-31T07:47:15.184Z</time>
</trkpt>
<trkpt lat="13.1142184" lon="99.9258833">
<ele>8.192</ele>
<time>2018-03-31T07:47:18.383Z</time>
</trkpt>
<trkpt lat="13.1143097" lon="99.9253858">
<ele>7.453</ele>
<time>2018-03-31T07:47:21.289Z</time>
</trkpt>
<trkpt lat="13.1144155" lon="99.9248655">
<ele>6.464</ele>
<time>2018-03-31T07:47:24.440Z</time>
</trkpt>
<trkpt lat="13.1145371" lon="99.9243746">
<ele>5.845</ele>
<time>2018-03-31T07:47:27.717Z</time>
</trkpt>
<trkpt lat="13.1146487" lon="99.9238670">
<ele>5.761</ele>
<time>2018-03-31T07:47:31.209Z</time>
</trkpt>
<trkpt lat="13.1147331" lon="99.9234729">
<ele>5.986</ele>
<time>2018-03-31T07:47:33.591Z</time>
</trkpt>
<trkpt lat="13.1148393" lon="99.9230033">
<ele>5.907</ele>
<time>2018-03-31T07:47:36.130Z</time>
</trkpt>
<trkpt lat="13.1149465" lon="99.9224391">
<ele>5.136</ele>
<time>2018-03-31T07:47:38.903Z</time>
</trkpt>
<trkpt lat="13.1150593" lon="99.9218372">
<ele>4.151</ele>
<time>2018-03-31T07:47:41.667Z</time>
</trkpt>
<trkpt lat="13.1151810" lon="99.9211915">
<ele>3.548</ele>
<time>2018-03-31T07:47:44.538Z</time>
</trkpt>
<trkpt lat="13.1153185" lon="99.9205350">
<ele>3.696</ele>
<time>2018-03-31T07:47:47.493Z</time>
</trkpt>
<trkpt lat="13.1154656" lon="99.9198397">
<ele>4.652</ele>
<time>2018-03-31T07:47:50.716Z</time>
</trkpt>
<trkpt lat="13.1155912" lon="99.9192180">
<ele>5.266</ele>
<time>2018-03-31T07:47:53.604Z</time>
</trkpt>
<trkpt lat="13.1157240" lon="99.9185649">
<ele>4.642</ele>
<time>2018-03-31T07:47:56.584Z</time>
</trkpt>
<trkpt lat="13.1158524" lon="99.9179154">
<ele>3.274</ele>
<time>2018-03-31T07:47:59.518Z</time>
</trkpt>
<trkpt lat="13.1159702" lon="99.9172488">
<ele>1.925</ele>
<time>2018-03-31T07:48:02.552Z</time>
</trkpt>
<trkpt lat="13.1160833" lon="99.9165770">
<ele>1.054</ele>
<time>2018-03-31T07:48:05.674Z</time>
</trkpt>
<trkpt lat="13.1162180" lon="99.9159326">
<ele>0.803</ele>
<time>2018-03-31T07:48:08.670Z</time>
</trkpt>
<trkpt lat="13.1163175" lon="99.9153103">
<ele>0.873</ele>
<time>2018-03-31T07:48:11.414Z</time>
</trkpt>
<trkpt lat="13.1164546" lon="99.9146273">
<ele>1.172</ele>
<time>2018-03-31T07:48:14.317Z</time>
</trkpt>
<trkpt lat="13.1165909" lon="99.9139205">
<ele>1.701</ele>
<time>2018-03-31T07:48:17.229Z</time>
</trkpt>
<trkpt lat="13.1167187" lon="99.9131792">
<ele>2.133</ele>
<time>2018-03-31T07:48:20.238Z</time>
</trkpt>
<trkpt lat="13.1168671" lon="99.9124354">
<ele>2.177</ele>
<time>2018-03-31T07:48:23.280Z</time>
</trkpt>
<trkpt lat="13.1170000" lon="99.9117095">
<ele>1.599</ele>
<time>2018-03-31T07:48:26.231Z</time>
</trkpt>
<trkpt lat="13.1171241" lon="99.9109534">
<ele>0.272</ele>
<time>2018-03-31T07:48:29.273Z</time>
</trkpt>
<trkpt lat="13.1172652" lon="99.9101865">
<ele>0.000</ele>
<time>2018-03-31T07:48:32.332Z</time>
</trkpt>
<trkpt lat="13.1174009" lon="99.9094429">
<ele>0.000</ele>
<time>2018-03-31T07:48:35.243Z</time>
</trkpt>
<trkpt lat="13.1175400" lon="99.9086696">
<ele>0.000</ele>
<time>2018-03-31T07:48:38.239Z</time>
</trkpt>
<trkpt lat="13.1176777" lon="99.9078985">
<ele>0.000</ele>
<time>2018-03-31T07:48:41.214Z</time>
</trkpt>
<trkpt lat="13.1178237" lon="99.9071202">
<ele>0.000</ele>
<time>2018-03-31T07:48:44.197Z</time>
</trkpt>
<trkpt lat="13.1179660" lon="99.9063623">
<ele>0.000</ele>
<time>2018-03-31T07:48:47.076Z</time>
</trkpt>
<trkpt lat="13.1181052" lon="99.9055830">
<ele>0.000</ele>
<time>2018-03-31T07:48:49.998Z</time>
</trkpt>
<trkpt lat="13.1182333" lon="99.9047860">
<ele>0.000</ele>
<time>2018-03-31T07:48:52.933Z</time>
</trkpt>
<trkpt lat="13.1183716" lon="99.9039747">
<ele>0.000</ele>
<time>2018-03-31T07:48:55.887Z</time>
</trkpt>
<trkpt lat="13.1185496" lon="99.9031512">
<ele>0.000</ele>
<time>2018-03-31T07:48:58.897Z</time>
</trkpt>
<trkpt lat="13.1187602" lon="99.9023532">
<ele>0.000</ele>
<time>2018-03-31T07:49:01.837Z</time>
</trkpt>
<trkpt lat="13.1190000" lon="99.9015649">
<ele>0.000</ele>
<time>2018-03-31T07:49:04.761Z</time>
</trkpt>
<trkpt lat="13.1192282" lon="99.9007522">
<ele>0.000</ele>
<time>2018-03-31T07:49:07.752Z</time>
</trkpt>
<trkpt lat="13.1194708" lon="99.8999230">
<ele>0.000</ele>
<time>2018-03-31T07:49:10.834Z</time>
</trkpt>
<trkpt lat="13.1197041" lon="99.8991295">
<ele>0.000</ele>
<time>2018-03-31T07:49:13.850Z</time>
</trkpt>
<trkpt lat="13.1199481" lon="99.8983480">
<ele>0.000</ele>
<time>2018-03-31T07:49:16.929Z</time>
</trkpt>
<trkpt lat="13.1201716" lon="99.8975928">
<ele>0.000</ele>
<time>2018-03-31T07:49:19.979Z</time>
</trkpt>
<trkpt lat="13.1203942" lon="99.8968503">
<ele>0.000</ele>
<time>2018-03-31T07:49:23.055Z</time>
</trkpt>
<trkpt lat="13.1206006" lon="99.8961390">
<ele>0.000</ele>
<time>2018-03-31T07:49:26.039Z</time>
</trkpt>
<trkpt lat="13.1207988" lon="99.8954391">
<ele>0.000</ele>
<time>2018-03-31T07:49:28.986Z</time>
</trkpt>
<trkpt lat="13.1209901" lon="99.8947163">
<ele>0.000</ele>
<time>2018-03-31T07:49:32.016Z</time>
</trkpt>
<trkpt lat="13.1211951" lon="99.8940107">
<ele>0.000</ele>
<time>2018-03-31T07:49:34.985Z</time>
</trkpt>
<trkpt lat="13.1213909" lon="99.8933201">
<ele>0.000</ele>
<time>2018-03-31T07:49:37.837Z</time>
</trkpt>
<trkpt lat="13.1215791" lon="99.8925897">
<ele>0.000</ele>
<time>2018-03-31T07:49:40.749Z</time>
</trkpt>
<trkpt lat="13.1217739" lon="99.8918340">
<ele>0.000</ele>
<time>2018-03-31T07:49:43.698Z</time>
</trkpt>
<trkpt lat="13.1220112" lon="99.8910833">
<ele>0.000</ele>
<time>2018-03-31T07:49:46.699Z</time>
</trkpt>
<trkpt lat="13.1222044" lon="99.8903183">
<ele>0.000</ele>
<time>2018-03-31T07:49:49.772Z</time>
</trkpt>
<trkpt lat="13.1224098" lon="99.8895838">
<ele>0.000</ele>
<time>2018-03-31T07:49:52.749Z</time>
</trkpt>
<trkpt lat="13.1226269" lon="99.8888636">
<ele>0.000</ele>
<time>2018-03-31T07:49:55.653Z</time>
</trkpt>
<trkpt lat="13.1228325" lon="99.8880899">
<ele>0.000</ele>
<time>2018-03-31T07:49:58.694Z</time>
</trkpt>
<trkpt lat="13.1230497" lon="99.8873011">
<ele>0.000</ele>
<time>2018-03-31T07:50:01.772Z</time>
</trkpt>
<trkpt lat="13.1232733" lon="99.8865605">
<ele>0.000</ele>
<time>2018-03-31T07:50:04.682Z</time>
</trkpt>
<trkpt lat="13.1234807" lon="99.8858018">
<ele>0.000</ele>
<time>2018-03-31T07:50:07.644Z</time>
</trkpt>
<trkpt lat="13.1236906" lon="99.8850513">
<ele>0.000</ele>
<time>2018-03-31T07:50:10.596Z</time>
</trkpt>
<trkpt lat="13.1239149" lon="99.8842588">
<ele>0.000</ele>
<time>2018-03-31T07:50:13.756Z</time>
</trkpt>
<trkpt lat="13.1241378" lon="99.8835169">
<ele>0.000</ele>
<time>2018-03-31T07:50:16.741Z</time>
</trkpt>
<trkpt lat="13.1243509" lon="99.8827345">
<ele>0.000</ele>
<time>2018-03-31T07:50:19.835Z</time>
</trkpt>
<trkpt lat="13.1245700" lon="99.8819775">
<ele>0.000</ele>
<time>2018-03-31T07:50:22.832Z</time>
</trkpt>
<trkpt lat="13.1247897" lon="99.8812387">
<ele>0.000</ele>
<time>2018-03-31T07:50:25.807Z</time>
</trkpt>
<trkpt lat="13.1249773" lon="99.8804808">
<ele>0.000</ele>
<time>2018-03-31T07:50:28.876Z</time>
</trkpt>
<trkpt lat="13.1250582" lon="99.8797205">
<ele>0.000</ele>
<time>2018-03-31T07:50:31.910Z</time>
</trkpt>
<trkpt lat="13.1251223" lon="99.8789766">
<ele>0.000</ele>
<time>2018-03-31T07:50:34.867Z</time>
</trkpt>
<trkpt lat="13.1251791" lon="99.8782285">
<ele>0.000</ele>
<time>2018-03-31T07:50:37.802Z</time>
</trkpt>
<trkpt lat="13.1252538" lon="99.8774618">
<ele>0.000</ele>
<time>2018-03-31T07:50:40.841Z</time>
</trkpt>
<trkpt lat="13.1253192" lon="99.8766999">
<ele>0.000</ele>
<time>2018-03-31T07:50:43.973Z</time>
</trkpt>
<trkpt lat="13.1255093" lon="99.8760074">
<ele>0.000</ele>
<time>2018-03-31T07:50:47.000Z</time>
</trkpt>
<trkpt lat="13.1258717" lon="99.8754192">
<ele>0.000</ele>
<time>2018-03-31T07:50:49.880Z</time>
</trkpt>
<trkpt lat="13.1262970" lon="99.8748534">
<ele>0.000</ele>
<time>2018-03-31T07:50:52.728Z</time>
</trkpt>
<trkpt lat="13.1267256" lon="99.8742313">
<ele>0.000</ele>
<time>2018-03-31T07:50:55.697Z</time>
</trkpt>
<trkpt lat="13.1271525" lon="99.8735969">
<ele>0.000</ele>
<time>2018-03-31T07:50:58.738Z</time>
</trkpt>
<trkpt lat="13.1275711" lon="99.8729904">
<ele>0.000</ele>
<time>2018-03-31T07:51:01.767Z</time>
</trkpt>
<trkpt lat="13.1279212" lon="99.8723523">
<ele>0.195</ele>
<time>2018-03-31T07:51:04.852Z</time>
</trkpt>
<trkpt lat="13.1282191" lon="99.8717093">
<ele>0.228</ele>
<time>2018-03-31T07:51:07.908Z</time>
</trkpt>
<trkpt lat="13.1285032" lon="99.8710894">
<ele>0.105</ele>
<time>2018-03-31T07:51:10.813Z</time>
</trkpt>
<trkpt lat="13.1288030" lon="99.8704426">
<ele>0.413</ele>
<time>2018-03-31T07:51:13.743Z</time>
</trkpt>
<trkpt lat="13.1291229" lon="99.8697843">
<ele>1.435</ele>
<time>2018-03-31T07:51:16.648Z</time>
</trkpt>
<trkpt lat="13.1294436" lon="99.8690933">
<ele>2.758</ele>
<time>2018-03-31T07:51:19.596Z</time>
</trkpt>
<trkpt lat="13.1297467" lon="99.8683750">
<ele>3.834</ele>
<time>2018-03-31T07:51:22.558Z</time>
</trkpt>
<trkpt lat="13.1300780" lon="99.8676553">
<ele>4.324</ele>
<time>2018-03-31T07:51:25.537Z</time>
</trkpt>
<trkpt lat="13.1304198" lon="99.8669495">
<ele>3.710</ele>
<time>2018-03-31T07:51:28.459Z</time>
</trkpt>
<trkpt lat="13.1307416" lon="99.8662155">
<ele>2.153</ele>
<time>2018-03-31T07:51:31.405Z</time>
</trkpt>
<trkpt lat="13.1310769" lon="99.8654686">
<ele>0.706</ele>
<time>2018-03-31T07:51:34.392Z</time>
</trkpt>
<trkpt lat="13.1314271" lon="99.8647157">
<ele>0.063</ele>
<time>2018-03-31T07:51:37.483Z</time>
</trkpt>
<trkpt lat="13.1316529" lon="99.8642422">
<ele>0.000</ele>
<time>2018-03-31T07:51:39.499Z</time>
</trkpt>
<trkpt lat="13.1318805" lon="99.8637692">
<ele>0.067</ele>
<time>2018-03-31T07:51:41.556Z</time>
</trkpt>
<trkpt lat="13.1321492" lon="99.8633329">
<ele>0.104</ele>
<time>2018-03-31T07:51:43.583Z</time>
</trkpt>
<trkpt lat="13.1324475" lon="99.8629282">
<ele>0.223</ele>
<time>2018-03-31T07:51:45.567Z</time>
</trkpt>
<trkpt lat="13.1327935" lon="99.8625556">
<ele>0.454</ele>
<time>2018-03-31T07:51:47.559Z</time>
</trkpt>
<trkpt lat="13.1331562" lon="99.8621998">
<ele>0.625</ele>
<time>2018-03-31T07:51:49.534Z</time>
</trkpt>
<trkpt lat="13.1335270" lon="99.8618378">
<ele>0.587</ele>
<time>2018-03-31T07:51:51.544Z</time>
</trkpt>
<trkpt lat="13.1338896" lon="99.8614647">
<ele>0.361</ele>
<time>2018-03-31T07:51:53.583Z</time>
</trkpt>
<trkpt lat="13.1342573" lon="99.8611053">
<ele>0.229</ele>
<time>2018-03-31T07:51:55.656Z</time>
</trkpt>
<trkpt lat="13.1346132" lon="99.8607573">
<ele>0.528</ele>
<time>2018-03-31T07:51:57.709Z</time>
</trkpt>
<trkpt lat="13.1349626" lon="99.8604338">
<ele>1.339</ele>
<time>2018-03-31T07:51:59.690Z</time>
</trkpt>
<trkpt lat="13.1353053" lon="99.8601104">
<ele>2.400</ele>
<time>2018-03-31T07:52:01.651Z</time>
</trkpt>
<trkpt lat="13.1356726" lon="99.8597877">
<ele>3.289</ele>
<time>2018-03-31T07:52:03.690Z</time>
</trkpt>
<trkpt lat="13.1360495" lon="99.8594849">
<ele>3.907</ele>
<time>2018-03-31T07:52:05.725Z</time>
</trkpt>
<trkpt lat="13.1364528" lon="99.8592414">
<ele>4.395</ele>
<time>2018-03-31T07:52:07.721Z</time>
</trkpt>
<trkpt lat="13.1368770" lon="99.8590379">
<ele>4.556</ele>
<time>2018-03-31T07:52:09.721Z</time>
</trkpt>
<trkpt lat="13.1373123" lon="99.8588627">
<ele>4.220</ele>
<time>2018-03-31T07:52:11.709Z</time>
</trkpt>
<trkpt lat="13.1377554" lon="99.8587308">
<ele>3.725</ele>
<time>2018-03-31T07:52:13.658Z</time>
</trkpt>
<trkpt lat="13.1382164" lon="99.8586307">
<ele>3.085</ele>
<time>2018-03-31T07:52:15.643Z</time>
</trkpt>
<trkpt lat="13.1389072" lon="99.8584551">
<ele>2.104</ele>
<time>2018-03-31T07:52:18.626Z</time>
</trkpt>
<trkpt lat="13.1396155" lon="99.8583106">
<ele>1.173</ele>
<time>2018-03-31T07:52:21.637Z</time>
</trkpt>
<trkpt lat="13.1403329" lon="99.8581658">
<ele>0.621</ele>
<time>2018-03-31T07:52:24.691Z</time>
</trkpt>
<trkpt lat="13.1410221" lon="99.8579936">
<ele>0.295</ele>
<time>2018-03-31T07:52:27.692Z</time>
</trkpt>
<trkpt lat="13.1417152" lon="99.8578383">
<ele>0.252</ele>
<time>2018-03-31T07:52:30.776Z</time>
</trkpt>
<trkpt lat="13.1423940" lon="99.8576962">
<ele>0.538</ele>
<time>2018-03-31T07:52:33.860Z</time>
</trkpt>
<trkpt lat="13.1430120" lon="99.8574690">
<ele>0.753</ele>
<time>2018-03-31T07:52:36.741Z</time>
</trkpt>
<trkpt lat="13.1436176" lon="99.8571413">
<ele>0.581</ele>
<time>2018-03-31T07:52:39.642Z</time>
</trkpt>
<trkpt lat="13.1442128" lon="99.8567492">
<ele>0.255</ele>
<time>2018-03-31T07:52:42.547Z</time>
</trkpt>
<trkpt lat="13.1448262" lon="99.8563211">
<ele>0.000</ele>
<time>2018-03-31T07:52:45.512Z</time>
</trkpt>
<trkpt lat="13.1454367" lon="99.8558761">
<ele>0.000</ele>
<time>2018-03-31T07:52:48.423Z</time>
</trkpt>
<trkpt lat="13.1460681" lon="99.8554101">
<ele>0.000</ele>
<time>2018-03-31T07:52:51.361Z</time>
</trkpt>
<trkpt lat="13.1467349" lon="99.8549447">
<ele>0.000</ele>
<time>2018-03-31T07:52:54.345Z</time>
</trkpt>
<trkpt lat="13.1474180" lon="99.8544864">
<ele>0.000</ele>
<time>2018-03-31T07:52:57.328Z</time>
</trkpt>
<trkpt lat="13.1481021" lon="99.8540304">
<ele>0.000</ele>
<time>2018-03-31T07:53:00.287Z</time>
</trkpt>
<trkpt lat="13.1487802" lon="99.8535754">
<ele>0.000</ele>
<time>2018-03-31T07:53:03.239Z</time>
</trkpt>
<trkpt lat="13.1494714" lon="99.8530967">
<ele>0.000</ele>
<time>2018-03-31T07:53:06.286Z</time>
</trkpt>
<trkpt lat="13.1501631" lon="99.8526298">
<ele>0.000</ele>
<time>2018-03-31T07:53:09.334Z</time>
</trkpt>
<trkpt lat="13.1508241" lon="99.8521604">
<ele>0.000</ele>
<time>2018-03-31T07:53:12.342Z</time>
</trkpt>
<trkpt lat="13.1514767" lon="99.8517236">
<ele>0.000</ele>
<time>2018-03-31T07:53:15.258Z</time>
</trkpt>
<trkpt lat="13.1521412" lon="99.8512731">
<ele>0.000</ele>
<time>2018-03-31T07:53:18.197Z</time>
</trkpt>
<trkpt lat="13.1528090" lon="99.8507967">
<ele>0.000</ele>
<time>2018-03-31T07:53:21.177Z</time>
</trkpt>
<trkpt lat="13.1534973" lon="99.8503088">
<ele>0.000</ele>
<time>2018-03-31T07:53:24.254Z</time>
</trkpt>
<trkpt lat="13.1541604" lon="99.8498545">
<ele>0.000</ele>
<time>2018-03-31T07:53:27.208Z</time>
</trkpt>
<trkpt lat="13.1548394" lon="99.8493701">
<ele>0.000</ele>
<time>2018-03-31T07:53:30.283Z</time>
</trkpt>
<trkpt lat="13.1555060" lon="99.8488926">
<ele>0.000</ele>
<time>2018-03-31T07:53:33.315Z</time>
</trkpt>
<trkpt lat="13.1561650" lon="99.8484154">
<ele>0.000</ele>
<time>2018-03-31T07:53:36.325Z</time>
</trkpt>
<trkpt lat="13.1568310" lon="99.8479429">
<ele>0.000</ele>
<time>2018-03-31T07:53:39.335Z</time>
</trkpt>
<trkpt lat="13.1575044" lon="99.8474585">
<ele>0.000</ele>
<time>2018-03-31T07:53:42.372Z</time>
</trkpt>
<trkpt lat="13.1581735" lon="99.8469814">
<ele>0.000</ele>
<time>2018-03-31T07:53:45.364Z</time>
</trkpt>
<trkpt lat="13.1588494" lon="99.8465164">
<ele>0.000</ele>
<time>2018-03-31T07:53:48.351Z</time>
</trkpt>
<trkpt lat="13.1595151" lon="99.8460242">
<ele>0.000</ele>
<time>2018-03-31T07:53:51.336Z</time>
</trkpt>
<trkpt lat="13.1602206" lon="99.8455364">
<ele>0.000</ele>
<time>2018-03-31T07:53:54.387Z</time>
</trkpt>
<trkpt lat="13.1609121" lon="99.8450477">
<ele>0.000</ele>
<time>2018-03-31T07:53:57.377Z</time>
</trkpt>
<trkpt lat="13.1616123" lon="99.8445448">
<ele>0.000</ele>
<time>2018-03-31T07:54:00.428Z</time>
</trkpt>
<trkpt lat="13.1623074" lon="99.8440571">
<ele>0.000</ele>
<time>2018-03-31T07:54:03.507Z</time>
</trkpt>
<trkpt lat="13.1629671" lon="99.8436018">
<ele>0.000</ele>
<time>2018-03-31T07:54:06.493Z</time>
</trkpt>
<trkpt lat="13.1636305" lon="99.8431415">
<ele>0.000</ele>
<time>2018-03-31T07:54:09.593Z</time>
</trkpt>
<trkpt lat="13.1642683" lon="99.8427153">
<ele>0.000</ele>
<time>2018-03-31T07:54:12.600Z</time>
</trkpt>
<trkpt lat="13.1649511" lon="99.8423863">
<ele>0.000</ele>
<time>2018-03-31T07:54:15.534Z</time>
</trkpt>
<trkpt lat="13.1656854" lon="99.8420926">
<ele>0.000</ele>
<time>2018-03-31T07:54:18.511Z</time>
</trkpt>
<trkpt lat="13.1664411" lon="99.8417906">
<ele>0.000</ele>
<time>2018-03-31T07:54:21.512Z</time>
</trkpt>
<trkpt lat="13.1671961" lon="99.8414528">
<ele>0.000</ele>
<time>2018-03-31T07:54:24.526Z</time>
</trkpt>
<trkpt lat="13.1680165" lon="99.8412521">
<ele>0.000</ele>
<time>2018-03-31T07:54:27.647Z</time>
</trkpt>
<trkpt lat="13.1687514" lon="99.8409176">
<ele>0.000</ele>
<time>2018-03-31T07:54:30.700Z</time>
</trkpt>
<trkpt lat="13.1694777" lon="99.8406043">
<ele>0.000</ele>
<time>2018-03-31T07:54:33.746Z</time>
</trkpt>
<trkpt lat="13.1701880" lon="99.8403099">
<ele>0.000</ele>
<time>2018-03-31T07:54:36.717Z</time>
</trkpt>
<trkpt lat="13.1708927" lon="99.8399896">
<ele>0.000</ele>
<time>2018-03-31T07:54:39.678Z</time>
</trkpt>
<trkpt lat="13.1716398" lon="99.8396967">
<ele>0.000</ele>
<time>2018-03-31T07:54:42.733Z</time>
</trkpt>
<trkpt lat="13.1723614" lon="99.8393767">
<ele>0.000</ele>
<time>2018-03-31T07:54:45.734Z</time>
</trkpt>
<trkpt lat="13.1731108" lon="99.8391100">
<ele>0.000</ele>
<time>2018-03-31T07:54:48.824Z</time>
</trkpt>
<trkpt lat="13.1738342" lon="99.8388226">
<ele>0.000</ele>
<time>2018-03-31T07:54:52.033Z</time>
</trkpt>
<trkpt lat="13.1744527" lon="99.8384947">
<ele>0.000</ele>
<time>2018-03-31T07:54:55.020Z</time>
</trkpt>
<trkpt lat="13.1751030" lon="99.8382247">
<ele>0.052</ele>
<time>2018-03-31T07:54:58.024Z</time>
</trkpt>
<trkpt lat="13.1757548" lon="99.8379315">
<ele>1.236</ele>
<time>2018-03-31T07:55:01.029Z</time>
</trkpt>
<trkpt lat="13.1764432" lon="99.8376939">
<ele>3.262</ele>
<time>2018-03-31T07:55:04.022Z</time>
</trkpt>
<trkpt lat="13.1770845" lon="99.8373894">
<ele>5.150</ele>
<time>2018-03-31T07:55:06.847Z</time>
</trkpt>
<trkpt lat="13.1777813" lon="99.8370762">
<ele>6.165</ele>
<time>2018-03-31T07:55:09.791Z</time>
</trkpt>
<trkpt lat="13.1785228" lon="99.8367652">
<ele>6.252</ele>
<time>2018-03-31T07:55:12.814Z</time>
</trkpt>
<trkpt lat="13.1792347" lon="99.8364173">
<ele>6.069</ele>
<time>2018-03-31T07:55:15.715Z</time>
</trkpt>
<trkpt lat="13.1800159" lon="99.8360987">
<ele>6.148</ele>
<time>2018-03-31T07:55:18.715Z</time>
</trkpt>
<trkpt lat="13.1808201" lon="99.8358064">
<ele>6.566</ele>
<time>2018-03-31T07:55:21.706Z</time>
</trkpt>
<trkpt lat="13.1816414" lon="99.8355248">
<ele>7.148</ele>
<time>2018-03-31T07:55:24.733Z</time>
</trkpt>
<trkpt lat="13.1824815" lon="99.8352777">
<ele>7.652</ele>
<time>2018-03-31T07:55:27.807Z</time>
</trkpt>
<trkpt lat="13.1833005" lon="99.8350275">
<ele>8.002</ele>
<time>2018-03-31T07:55:30.832Z</time>
</trkpt>
<trkpt lat="13.1841166" lon="99.8347861">
<ele>8.274</ele>
<time>2018-03-31T07:55:33.851Z</time>
</trkpt>
<trkpt lat="13.1849214" lon="99.8345100">
<ele>8.446</ele>
<time>2018-03-31T07:55:36.900Z</time>
</trkpt>
<trkpt lat="13.1857191" lon="99.8342304">
<ele>8.512</ele>
<time>2018-03-31T07:55:39.991Z</time>
</trkpt>
<trkpt lat="13.1864936" lon="99.8339684">
<ele>8.622</ele>
<time>2018-03-31T07:55:43.019Z</time>
</trkpt>
<trkpt lat="13.1872727" lon="99.8337428">
<ele>9.248</ele>
<time>2018-03-31T07:55:46.019Z</time>
</trkpt>
<trkpt lat="13.1880543" lon="99.8335577">
<ele>10.477</ele>
<time>2018-03-31T07:55:48.964Z</time>
</trkpt>
<trkpt lat="13.1888382" lon="99.8333070">
<ele>11.004</ele>
<time>2018-03-31T07:55:51.942Z</time>
</trkpt>
<trkpt lat="13.1896369" lon="99.8330602">
<ele>9.920</ele>
<time>2018-03-31T07:55:54.930Z</time>
</trkpt>
<trkpt lat="13.1904488" lon="99.8328382">
<ele>8.247</ele>
<time>2018-03-31T07:55:57.900Z</time>
</trkpt>
<trkpt lat="13.1912700" lon="99.8325943">
<ele>7.015</ele>
<time>2018-03-31T07:56:00.880Z</time>
</trkpt>
<trkpt lat="13.1921007" lon="99.8323353">
<ele>6.206</ele>
<time>2018-03-31T07:56:03.870Z</time>
</trkpt>
<trkpt lat="13.1929435" lon="99.8320743">
<ele>5.711</ele>
<time>2018-03-31T07:56:06.873Z</time>
</trkpt>
<trkpt lat="13.1935127" lon="99.8319068">
<ele>5.420</ele>
<time>2018-03-31T07:56:08.888Z</time>
</trkpt>
<trkpt lat="13.1943577" lon="99.8316541">
<ele>5.162</ele>
<time>2018-03-31T07:56:11.871Z</time>
</trkpt>
<trkpt lat="13.1952018" lon="99.8313855">
<ele>4.909</ele>
<time>2018-03-31T07:56:14.850Z</time>
</trkpt>
<trkpt lat="13.1960534" lon="99.8310958">
<ele>4.739</ele>
<time>2018-03-31T07:56:17.851Z</time>
</trkpt>
<trkpt lat="13.1969161" lon="99.8308102">
<ele>4.787</ele>
<time>2018-03-31T07:56:20.882Z</time>
</trkpt>
<trkpt lat="13.1977809" lon="99.8305388">
<ele>5.185</ele>
<time>2018-03-31T07:56:23.943Z</time>
</trkpt>
<trkpt lat="13.1986308" lon="99.8302845">
<ele>6.039</ele>
<time>2018-03-31T07:56:26.970Z</time>
</trkpt>
<trkpt lat="13.1994599" lon="99.8299919">
<ele>7.419</ele>
<time>2018-03-31T07:56:29.968Z</time>
</trkpt>
<trkpt lat="13.2003081" lon="99.8297096">
<ele>9.379</ele>
<time>2018-03-31T07:56:33.065Z</time>
</trkpt>
<trkpt lat="13.2011458" lon="99.8294801">
<ele>11.475</ele>
<time>2018-03-31T07:56:36.176Z</time>
</trkpt>
<trkpt lat="13.2019479" lon="99.8292441">
<ele>12.738</ele>
<time>2018-03-31T07:56:39.285Z</time>
</trkpt>
<trkpt lat="13.2027205" lon="99.8290169">
<ele>12.802</ele>
<time>2018-03-31T07:56:42.388Z</time>
</trkpt>
<trkpt lat="13.2034631" lon="99.8287990">
<ele>12.166</ele>
<time>2018-03-31T07:56:45.411Z</time>
</trkpt>
<trkpt lat="13.2041968" lon="99.8285915">
<ele>11.336</ele>
<time>2018-03-31T07:56:48.376Z</time>
</trkpt>
<trkpt lat="13.2049437" lon="99.8283573">
<ele>10.489</ele>
<time>2018-03-31T07:56:51.417Z</time>
</trkpt>
<trkpt lat="13.2056903" lon="99.8281489">
<ele>9.631</ele>
<time>2018-03-31T07:56:54.444Z</time>
</trkpt>
<trkpt lat="13.2064236" lon="99.8279106">
<ele>8.977</ele>
<time>2018-03-31T07:56:57.458Z</time>
</trkpt>
<trkpt lat="13.2071616" lon="99.8276729">
<ele>8.949</ele>
<time>2018-03-31T07:57:00.478Z</time>
</trkpt>
<trkpt lat="13.2078987" lon="99.8274491">
<ele>9.716</ele>
<time>2018-03-31T07:57:03.461Z</time>
</trkpt>
<trkpt lat="13.2086370" lon="99.8272013">
<ele>10.927</ele>
<time>2018-03-31T07:57:06.462Z</time>
</trkpt>
<trkpt lat="13.2094055" lon="99.8270139">
<ele>11.925</ele>
<time>2018-03-31T07:57:09.535Z</time>
</trkpt>
<trkpt lat="13.2101622" lon="99.8269017">
<ele>12.532</ele>
<time>2018-03-31T07:57:12.551Z</time>
</trkpt>
<trkpt lat="13.2109361" lon="99.8268231">
<ele>13.000</ele>
<time>2018-03-31T07:57:15.642Z</time>
</trkpt>
<trkpt lat="13.2116831" lon="99.8267564">
<ele>12.966</ele>
<time>2018-03-31T07:57:18.612Z</time>
</trkpt>
<trkpt lat="13.2124383" lon="99.8266713">
<ele>11.822</ele>
<time>2018-03-31T07:57:21.600Z</time>
</trkpt>
<trkpt lat="13.2131937" lon="99.8266057">
<ele>9.683</ele>
<time>2018-03-31T07:57:24.563Z</time>
</trkpt>
<trkpt lat="13.2139589" lon="99.8265131">
<ele>7.442</ele>
<time>2018-03-31T07:57:27.571Z</time>
</trkpt>
<trkpt lat="13.2147378" lon="99.8264206">
<ele>6.278</ele>
<time>2018-03-31T07:57:30.651Z</time>
</trkpt>
<trkpt lat="13.2154958" lon="99.8263538">
<ele>6.560</ele>
<time>2018-03-31T07:57:33.639Z</time>
</trkpt>
<trkpt lat="13.2162648" lon="99.8262359">
<ele>7.425</ele>
<time>2018-03-31T07:57:36.659Z</time>
</trkpt>
<trkpt lat="13.2170168" lon="99.8261594">
<ele>7.928</ele>
<time>2018-03-31T07:57:39.576Z</time>
</trkpt>
<trkpt lat="13.2178131" lon="99.8260724">
<ele>7.827</ele>
<time>2018-03-31T07:57:42.743Z</time>
</trkpt>
<trkpt lat="13.2185888" lon="99.8259678">
<ele>7.469</ele>
<time>2018-03-31T07:57:46.087Z</time>
</trkpt>
<trkpt lat="13.2192955" lon="99.8258802">
<ele>7.269</ele>
<time>2018-03-31T07:57:49.351Z</time>
</trkpt>
<trkpt lat="13.2199131" lon="99.8257829">
<ele>7.270</ele>
<time>2018-03-31T07:57:52.169Z</time>
</trkpt>
<trkpt lat="13.2205563" lon="99.8256966">
<ele>7.225</ele>
<time>2018-03-31T07:57:54.961Z</time>
</trkpt>
<trkpt lat="13.2212471" lon="99.8256388">
<ele>6.998</ele>
<time>2018-03-31T07:57:57.849Z</time>
</trkpt>
<trkpt lat="13.2219753" lon="99.8255453">
<ele>6.817</ele>
<time>2018-03-31T07:58:00.855Z</time>
</trkpt>
<trkpt lat="13.2226929" lon="99.8254335">
<ele>6.894</ele>
<time>2018-03-31T07:58:03.770Z</time>
</trkpt>
<trkpt lat="13.2234420" lon="99.8253560">
<ele>7.045</ele>
<time>2018-03-31T07:58:06.720Z</time>
</trkpt>
<trkpt lat="13.2242024" lon="99.8252275">
<ele>7.067</ele>
<time>2018-03-31T07:58:09.665Z</time>
</trkpt>
<trkpt lat="13.2249971" lon="99.8251363">
<ele>7.126</ele>
<time>2018-03-31T07:58:12.665Z</time>
</trkpt>
<trkpt lat="13.2257884" lon="99.8250303">
<ele>7.714</ele>
<time>2018-03-31T07:58:15.646Z</time>
</trkpt>
<trkpt lat="13.2265930" lon="99.8249127">
<ele>8.924</ele>
<time>2018-03-31T07:58:18.697Z</time>
</trkpt>
<trkpt lat="13.2273859" lon="99.8248256">
<ele>10.113</ele>
<time>2018-03-31T07:58:21.678Z</time>
</trkpt>
<trkpt lat="13.2281837" lon="99.8247397">
<ele>10.430</ele>
<time>2018-03-31T07:58:24.646Z</time>
</trkpt>
<trkpt lat="13.2289887" lon="99.8246040">
<ele>9.508</ele>
<time>2018-03-31T07:58:27.652Z</time>
</trkpt>
<trkpt lat="13.2298091" lon="99.8245224">
<ele>7.730</ele>
<time>2018-03-31T07:58:30.705Z</time>
</trkpt>
<trkpt lat="13.2306196" lon="99.8243939">
<ele>6.217</ele>
<time>2018-03-31T07:58:33.814Z</time>
</trkpt>
<trkpt lat="13.2314071" lon="99.8242807">
<ele>5.745</ele>
<time>2018-03-31T07:58:36.943Z</time>
</trkpt>
<trkpt lat="13.2321456" lon="99.8241659">
<ele>6.003</ele>
<time>2018-03-31T07:58:39.934Z</time>
</trkpt>
<trkpt lat="13.2328741" lon="99.8240778">
<ele>5.960</ele>
<time>2018-03-31T07:58:42.869Z</time>
</trkpt>
<trkpt lat="13.2336288" lon="99.8239759">
<ele>5.161</ele>
<time>2018-03-31T07:58:45.939Z</time>
</trkpt>
<trkpt lat="13.2343625" lon="99.8238160">
<ele>4.174</ele>
<time>2018-03-31T07:58:49.018Z</time>
</trkpt>
<trkpt lat="13.2348340" lon="99.8237278">
<ele>4.003</ele>
<time>2018-03-31T07:58:51.011Z</time>
</trkpt>
<trkpt lat="13.2353230" lon="99.8236263">
<ele>4.944</ele>
<time>2018-03-31T07:58:53.135Z</time>
</trkpt>
<trkpt lat="13.2358124" lon="99.8235751">
<ele>6.222</ele>
<time>2018-03-31T07:58:55.296Z</time>
</trkpt>
<trkpt lat="13.2362686" lon="99.8234743">
<ele>6.919</ele>
<time>2018-03-31T07:58:57.410Z</time>
</trkpt>
<trkpt lat="13.2367115" lon="99.8233942">
<ele>7.003</ele>
<time>2018-03-31T07:58:59.512Z</time>
</trkpt>
<trkpt lat="13.2371512" lon="99.8233157">
<ele>6.842</ele>
<time>2018-03-31T07:59:01.663Z</time>
</trkpt>
<trkpt lat="13.2375794" lon="99.8232787">
<ele>6.849</ele>
<time>2018-03-31T07:59:03.801Z</time>
</trkpt>
<trkpt lat="13.2379975" lon="99.8232399">
<ele>7.232</ele>
<time>2018-03-31T07:59:05.928Z</time>
</trkpt>
<trkpt lat="13.2384081" lon="99.8232461">
<ele>7.705</ele>
<time>2018-03-31T07:59:07.998Z</time>
</trkpt>
<trkpt lat="13.2388023" lon="99.8232883">
<ele>7.956</ele>
<time>2018-03-31T07:59:09.936Z</time>
</trkpt>
<trkpt lat="13.2391926" lon="99.8233660">
<ele>8.027</ele>
<time>2018-03-31T07:59:11.811Z</time>
</trkpt>
<trkpt lat="13.2395886" lon="99.8234769">
<ele>8.027</ele>
<time>2018-03-31T07:59:13.687Z</time>
</trkpt>
<trkpt lat="13.2399938" lon="99.8235878">
<ele>7.907</ele>
<time>2018-03-31T07:59:15.545Z</time>
</trkpt>
<trkpt lat="13.2404266" lon="99.8236797">
<ele>7.626</ele>
<time>2018-03-31T07:59:17.456Z</time>
</trkpt>
<trkpt lat="13.2408670" lon="99.8237826">
<ele>7.341</ele>
<time>2018-03-31T07:59:19.377Z</time>
</trkpt>
<trkpt lat="13.2413088" lon="99.8238916">
<ele>7.236</ele>
<time>2018-03-31T07:59:21.286Z</time>
</trkpt>
<trkpt lat="13.2417667" lon="99.8239942">
<ele>7.434</ele>
<time>2018-03-31T07:59:23.248Z</time>
</trkpt>
<trkpt lat="13.2422320" lon="99.8241089">
<ele>7.943</ele>
<time>2018-03-31T07:59:25.255Z</time>
</trkpt>
<trkpt lat="13.2427024" lon="99.8242105">
<ele>8.524</ele>
<time>2018-03-31T07:59:27.305Z</time>
</trkpt>
<trkpt lat="13.2434049" lon="99.8243496">
<ele>8.919</ele>
<time>2018-03-31T07:59:30.373Z</time>
</trkpt>
<trkpt lat="13.2440808" lon="99.8244887">
<ele>8.993</ele>
<time>2018-03-31T07:59:33.295Z</time>
</trkpt>
<trkpt lat="13.2447720" lon="99.8246541">
<ele>8.763</ele>
<time>2018-03-31T07:59:36.280Z</time>
</trkpt>
<trkpt lat="13.2454776" lon="99.8247830">
<ele>8.586</ele>
<time>2018-03-31T07:59:39.308Z</time>
</trkpt>
<trkpt lat="13.2461865" lon="99.8249320">
<ele>8.727</ele>
<time>2018-03-31T07:59:42.385Z</time>
</trkpt>
<trkpt lat="13.2468833" lon="99.8250788">
<ele>8.998</ele>
<time>2018-03-31T07:59:45.420Z</time>
</trkpt>
<trkpt lat="13.2475615" lon="99.8252133">
<ele>9.040</ele>
<time>2018-03-31T07:59:48.382Z</time>
</trkpt>
<trkpt lat="13.2482577" lon="99.8253572">
<ele>8.690</ele>
<time>2018-03-31T07:59:51.483Z</time>
</trkpt>
<trkpt lat="13.2489445" lon="99.8254959">
<ele>8.097</ele>
<time>2018-03-31T07:59:54.571Z</time>
</trkpt>
<trkpt lat="13.2496118" lon="99.8256290">
<ele>7.511</ele>
<time>2018-03-31T07:59:57.526Z</time>
</trkpt>
<trkpt lat="13.2502823" lon="99.8257491">
<ele>7.023</ele>
<time>2018-03-31T08:00:00.402Z</time>
</trkpt>
<trkpt lat="13.2509874" lon="99.8257639">
<ele>6.680</ele>
<time>2018-03-31T08:00:03.327Z</time>
</trkpt>
<trkpt lat="13.2517066" lon="99.8256415">
<ele>6.521</ele>
<time>2018-03-31T08:00:06.389Z</time>
</trkpt>
<trkpt lat="13.2524180" lon="99.8254503">
<ele>6.417</ele>
<time>2018-03-31T08:00:09.528Z</time>
</trkpt>
<trkpt lat="13.2531035" lon="99.8252769">
<ele>6.175</ele>
<time>2018-03-31T08:00:12.532Z</time>
</trkpt>
<trkpt lat="13.2537874" lon="99.8250707">
<ele>5.840</ele>
<time>2018-03-31T08:00:15.564Z</time>
</trkpt>
<trkpt lat="13.2544937" lon="99.8249156">
<ele>5.446</ele>
<time>2018-03-31T08:00:18.648Z</time>
</trkpt>
<trkpt lat="13.2551636" lon="99.8247196">
<ele>4.928</ele>
<time>2018-03-31T08:00:21.602Z</time>
</trkpt>
<trkpt lat="13.2558473" lon="99.8245637">
<ele>4.418</ele>
<time>2018-03-31T08:00:24.557Z</time>
</trkpt>
<trkpt lat="13.2565381" lon="99.8243520">
<ele>4.098</ele>
<time>2018-03-31T08:00:27.574Z</time>
</trkpt>
<trkpt lat="13.2572105" lon="99.8241203">
<ele>3.958</ele>
<time>2018-03-31T08:00:30.454Z</time>
</trkpt>
<trkpt lat="13.2579164" lon="99.8239275">
<ele>4.256</ele>
<time>2018-03-31T08:00:33.319Z</time>
</trkpt>
<trkpt lat="13.2586593" lon="99.8237147">
<ele>5.138</ele>
<time>2018-03-31T08:00:36.278Z</time>
</trkpt>
<trkpt lat="13.2594031" lon="99.8234711">
<ele>6.359</ele>
<time>2018-03-31T08:00:39.243Z</time>
</trkpt>
<trkpt lat="13.2601809" lon="99.8232926">
<ele>7.571</ele>
<time>2018-03-31T08:00:42.267Z</time>
</trkpt>
<trkpt lat="13.2609487" lon="99.8230856">
<ele>8.325</ele>
<time>2018-03-31T08:00:45.315Z</time>
</trkpt>
<trkpt lat="13.2617112" lon="99.8228952">
<ele>8.221</ele>
<time>2018-03-31T08:00:48.377Z</time>
</trkpt>
<trkpt lat="13.2624534" lon="99.8226792">
<ele>7.703</ele>
<time>2018-03-31T08:00:51.447Z</time>
</trkpt>
<trkpt lat="13.2631930" lon="99.8224779">
<ele>7.431</ele>
<time>2018-03-31T08:00:54.553Z</time>
</trkpt>
<trkpt lat="13.2639182" lon="99.8222905">
<ele>7.515</ele>
<time>2018-03-31T08:00:57.594Z</time>
</trkpt>
<trkpt lat="13.2646312" lon="99.8220956">
<ele>7.669</ele>
<time>2018-03-31T08:01:00.583Z</time>
</trkpt>
<trkpt lat="13.2653473" lon="99.8218931">
<ele>7.770</ele>
<time>2018-03-31T08:01:03.615Z</time>
</trkpt>
<trkpt lat="13.2660503" lon="99.8216929">
<ele>7.877</ele>
<time>2018-03-31T08:01:06.639Z</time>
</trkpt>
<trkpt lat="13.2667553" lon="99.8214894">
<ele>8.064</ele>
<time>2018-03-31T08:01:09.678Z</time>
</trkpt>
<trkpt lat="13.2674512" lon="99.8213013">
<ele>8.549</ele>
<time>2018-03-31T08:01:12.588Z</time>
</trkpt>
<trkpt lat="13.2681711" lon="99.8211044">
<ele>9.433</ele>
<time>2018-03-31T08:01:15.511Z</time>
</trkpt>
<trkpt lat="13.2688841" lon="99.8208754">
<ele>10.154</ele>
<time>2018-03-31T08:01:18.356Z</time>
</trkpt>
<trkpt lat="13.2696649" lon="99.8206786">
<ele>10.269</ele>
<time>2018-03-31T08:01:21.354Z</time>
</trkpt>
<trkpt lat="13.2704513" lon="99.8204823">
<ele>10.122</ele>
<time>2018-03-31T08:01:24.375Z</time>
</trkpt>
<trkpt lat="13.2712650" lon="99.8203086">
<ele>10.100</ele>
<time>2018-03-31T08:01:27.536Z</time>
</trkpt>
<trkpt lat="13.2720090" lon="99.8200963">
<ele>10.114</ele>
<time>2018-03-31T08:01:30.564Z</time>
</trkpt>
<trkpt lat="13.2727571" lon="99.8198463">
<ele>9.988</ele>
<time>2018-03-31T08:01:33.779Z</time>
</trkpt>
<trkpt lat="13.2734845" lon="99.8196584">
<ele>9.902</ele>
<time>2018-03-31T08:01:36.946Z</time>
</trkpt>
<trkpt lat="13.2741929" lon="99.8195565">
<ele>10.038</ele>
<time>2018-03-31T08:01:39.974Z</time>
</trkpt>
<trkpt lat="13.2748868" lon="99.8195069">
<ele>9.540</ele>
<time>2018-03-31T08:01:42.856Z</time>
</trkpt>
<trkpt lat="13.2756013" lon="99.8195723">
<ele>7.802</ele>
<time>2018-03-31T08:01:45.747Z</time>
</trkpt>
<trkpt lat="13.2763315" lon="99.8196716">
<ele>6.006</ele>
<time>2018-03-31T08:01:48.611Z</time>
</trkpt>
<trkpt lat="13.2770693" lon="99.8198027">
<ele>5.307</ele>
<time>2018-03-31T08:01:51.431Z</time>
</trkpt>
<trkpt lat="13.2778591" lon="99.8199483">
<ele>5.477</ele>
<time>2018-03-31T08:01:54.419Z</time>
</trkpt>
<trkpt lat="13.2786694" lon="99.8200872">
<ele>5.991</ele>
<time>2018-03-31T08:01:57.481Z</time>
</trkpt>
<trkpt lat="13.2794613" lon="99.8202141">
<ele>6.460</ele>
<time>2018-03-31T08:02:00.521Z</time>
</trkpt>
<trkpt lat="13.2802565" lon="99.8203607">
<ele>6.748</ele>
<time>2018-03-31T08:02:03.683Z</time>
</trkpt>
<trkpt lat="13.2810217" lon="99.8204906">
<ele>6.910</ele>
<time>2018-03-31T08:02:06.775Z</time>
</trkpt>
<trkpt lat="13.2817644" lon="99.8206193">
<ele>6.976</ele>
<time>2018-03-31T08:02:09.768Z</time>
</trkpt>
<trkpt lat="13.2825075" lon="99.8207518">
<ele>6.966</ele>
<time>2018-03-31T08:02:12.761Z</time>
</trkpt>
<trkpt lat="13.2832532" lon="99.8209087">
<ele>6.915</ele>
<time>2018-03-31T08:02:15.786Z</time>
</trkpt>
<trkpt lat="13.2839837" lon="99.8210279">
<ele>6.641</ele>
<time>2018-03-31T08:02:18.721Z</time>
</trkpt>
<trkpt lat="13.2847133" lon="99.8211552">
<ele>5.875</ele>
<time>2018-03-31T08:02:21.636Z</time>
</trkpt>
<trkpt lat="13.2854690" lon="99.8212997">
<ele>4.792</ele>
<time>2018-03-31T08:02:24.614Z</time>
</trkpt>
<trkpt lat="13.2862278" lon="99.8214251">
<ele>3.813</ele>
<time>2018-03-31T08:02:27.532Z</time>
</trkpt>
<trkpt lat="13.2870085" lon="99.8215691">
<ele>3.059</ele>
<time>2018-03-31T08:02:30.499Z</time>
</trkpt>
<trkpt lat="13.2878059" lon="99.8217085">
<ele>2.530</ele>
<time>2018-03-31T08:02:33.490Z</time>
</trkpt>
<trkpt lat="13.2886096" lon="99.8218376">
<ele>2.376</ele>
<time>2018-03-31T08:02:36.463Z</time>
</trkpt>
<trkpt lat="13.2894214" lon="99.8219874">
<ele>2.635</ele>
<time>2018-03-31T08:02:39.443Z</time>
</trkpt>
<trkpt lat="13.2902361" lon="99.8221398">
<ele>3.180</ele>
<time>2018-03-31T08:02:42.403Z</time>
</trkpt>
<trkpt lat="13.2910611" lon="99.8222803">
<ele>3.831</ele>
<time>2018-03-31T08:02:45.367Z</time>
</trkpt>
<trkpt lat="13.2919015" lon="99.8224287">
<ele>4.326</ele>
<time>2018-03-31T08:02:48.365Z</time>
</trkpt>
<trkpt lat="13.2927439" lon="99.8225884">
<ele>4.457</ele>
<time>2018-03-31T08:02:51.350Z</time>
</trkpt>
<trkpt lat="13.2935971" lon="99.8227381">
<ele>4.310</ele>
<time>2018-03-31T08:02:54.332Z</time>
</trkpt>
<trkpt lat="13.2944450" lon="99.8228900">
<ele>4.074</ele>
<time>2018-03-31T08:02:57.277Z</time>
</trkpt>
<trkpt lat="13.2953172" lon="99.8230414">
<ele>3.871</ele>
<time>2018-03-31T08:03:00.323Z</time>
</trkpt>
<trkpt lat="13.2961911" lon="99.8231982">
<ele>3.734</ele>
<time>2018-03-31T08:03:03.434Z</time>
</trkpt>
<trkpt lat="13.2970371" lon="99.8233505">
<ele>3.567</ele>
<time>2018-03-31T08:03:06.529Z</time>
</trkpt>
<trkpt lat="13.2978738" lon="99.8235080">
<ele>3.271</ele>
<time>2018-03-31T08:03:09.714Z</time>
</trkpt>
<trkpt lat="13.2986825" lon="99.8236406">
<ele>2.972</ele>
<time>2018-03-31T08:03:12.884Z</time>
</trkpt>
<trkpt lat="13.2994482" lon="99.8237950">
<ele>2.819</ele>
<time>2018-03-31T08:03:15.916Z</time>
</trkpt>
<trkpt lat="13.3001933" lon="99.8239152">
<ele>2.759</ele>
<time>2018-03-31T08:03:18.821Z</time>
</trkpt>
<trkpt lat="13.3009646" lon="99.8240347">
<ele>2.604</ele>
<time>2018-03-31T08:03:21.837Z</time>
</trkpt>
<trkpt lat="13.3017314" lon="99.8241942">
<ele>2.293</ele>
<time>2018-03-31T08:03:24.881Z</time>
</trkpt>
<trkpt lat="13.3025007" lon="99.8243464">
<ele>2.238</ele>
<time>2018-03-31T08:03:27.890Z</time>
</trkpt>
<trkpt lat="13.3032661" lon="99.8244690">
<ele>2.721</ele>
<time>2018-03-31T08:03:30.754Z</time>
</trkpt>
<trkpt lat="13.3040539" lon="99.8246057">
<ele>3.365</ele>
<time>2018-03-31T08:03:33.613Z</time>
</trkpt>
<trkpt lat="13.3048798" lon="99.8247502">
<ele>3.783</ele>
<time>2018-03-31T08:03:36.572Z</time>
</trkpt>
<trkpt lat="13.3057200" lon="99.8249100">
<ele>3.982</ele>
<time>2018-03-31T08:03:39.599Z</time>
</trkpt>
<trkpt lat="13.3065511" lon="99.8250805">
<ele>4.200</ele>
<time>2018-03-31T08:03:42.652Z</time>
</trkpt>
<trkpt lat="13.3073707" lon="99.8252531">
<ele>4.609</ele>
<time>2018-03-31T08:03:45.728Z</time>
</trkpt>
<trkpt lat="13.3081762" lon="99.8254216">
<ele>4.930</ele>
<time>2018-03-31T08:03:48.836Z</time>
</trkpt>
<trkpt lat="13.3089846" lon="99.8255676">
<ele>4.818</ele>
<time>2018-03-31T08:03:52.085Z</time>
</trkpt>
<trkpt lat="13.3097473" lon="99.8257054">
<ele>4.281</ele>
<time>2018-03-31T08:03:55.306Z</time>
</trkpt>
<trkpt lat="13.3104835" lon="99.8258407">
<ele>3.582</ele>
<time>2018-03-31T08:03:58.565Z</time>
</trkpt>
<trkpt lat="13.3111765" lon="99.8259780">
<ele>3.209</ele>
<time>2018-03-31T08:04:01.786Z</time>
</trkpt>
<trkpt lat="13.3118542" lon="99.8261048">
<ele>3.438</ele>
<time>2018-03-31T08:04:05.041Z</time>
</trkpt>
<trkpt lat="13.3124971" lon="99.8262201">
<ele>4.128</ele>
<time>2018-03-31T08:04:08.146Z</time>
</trkpt>
<trkpt lat="13.3131134" lon="99.8263311">
<ele>5.008</ele>
<time>2018-03-31T08:04:11.133Z</time>
</trkpt>
<trkpt lat="13.3137409" lon="99.8264392">
<ele>5.751</ele>
<time>2018-03-31T08:04:14.230Z</time>
</trkpt>
<trkpt lat="13.3143817" lon="99.8265587">
<ele>6.152</ele>
<time>2018-03-31T08:04:17.430Z</time>
</trkpt>
<trkpt lat="13.3149823" lon="99.8266725">
<ele>6.297</ele>
<time>2018-03-31T08:04:20.384Z</time>
</trkpt>
<trkpt lat="13.3155783" lon="99.8267753">
<ele>6.344</ele>
<time>2018-03-31T08:04:23.225Z</time>
</trkpt>
<trkpt lat="13.3162050" lon="99.8268819">
<ele>6.560</ele>
<time>2018-03-31T08:04:26.099Z</time>
</trkpt>
<trkpt lat="13.3168190" lon="99.8269859">
<ele>7.061</ele>
<time>2018-03-31T08:04:28.829Z</time>
</trkpt>
<trkpt lat="13.3174921" lon="99.8271222">
<ele>7.553</ele>
<time>2018-03-31T08:04:31.778Z</time>
</trkpt>
<trkpt lat="13.3181594" lon="99.8272309">
<ele>7.880</ele>
<time>2018-03-31T08:04:34.626Z</time>
</trkpt>
<trkpt lat="13.3188537" lon="99.8273456">
<ele>8.171</ele>
<time>2018-03-31T08:04:37.589Z</time>
</trkpt>
<trkpt lat="13.3195696" lon="99.8274898">
<ele>8.415</ele>
<time>2018-03-31T08:04:40.635Z</time>
</trkpt>
<trkpt lat="13.3202673" lon="99.8276215">
<ele>8.523</ele>
<time>2018-03-31T08:04:43.513Z</time>
</trkpt>
<trkpt lat="13.3209880" lon="99.8277485">
<ele>8.363</ele>
<time>2018-03-31T08:04:46.446Z</time>
</trkpt>
<trkpt lat="13.3217341" lon="99.8278961">
<ele>7.778</ele>
<time>2018-03-31T08:04:49.535Z</time>
</trkpt>
<trkpt lat="13.3224701" lon="99.8280514">
<ele>6.969</ele>
<time>2018-03-31T08:04:52.633Z</time>
</trkpt>
<trkpt lat="13.3231938" lon="99.8281764">
<ele>6.380</ele>
<time>2018-03-31T08:04:55.641Z</time>
</trkpt>
<trkpt lat="13.3239059" lon="99.8282807">
<ele>6.367</ele>
<time>2018-03-31T08:04:58.574Z</time>
</trkpt>
<trkpt lat="13.3246474" lon="99.8283879">
<ele>6.896</ele>
<time>2018-03-31T08:05:01.679Z</time>
</trkpt>
<trkpt lat="13.3253766" lon="99.8285071">
<ele>7.180</ele>
<time>2018-03-31T08:05:04.827Z</time>
</trkpt>
<trkpt lat="13.3260852" lon="99.8286314">
<ele>6.607</ele>
<time>2018-03-31T08:05:08.002Z</time>
</trkpt>
<trkpt lat="13.3267846" lon="99.8287409">
<ele>5.622</ele>
<time>2018-03-31T08:05:11.330Z</time>
</trkpt>
<trkpt lat="13.3274638" lon="99.8288162">
<ele>4.905</ele>
<time>2018-03-31T08:05:14.856Z</time>
</trkpt>
<trkpt lat="13.3280793" lon="99.8289381">
<ele>4.638</ele>
<time>2018-03-31T08:05:18.429Z</time>
</trkpt>
<trkpt lat="13.3286557" lon="99.8290202">
<ele>4.673</ele>
<time>2018-03-31T08:05:21.909Z</time>
</trkpt>
<trkpt lat="13.3291735" lon="99.8291125">
<ele>4.638</ele>
<time>2018-03-31T08:05:25.030Z</time>
</trkpt>
<trkpt lat="13.3296630" lon="99.8292002">
<ele>4.270</ele>
<time>2018-03-31T08:05:28.026Z</time>
</trkpt>
<trkpt lat="13.3301560" lon="99.8292970">
<ele>3.702</ele>
<time>2018-03-31T08:05:31.128Z</time>
</trkpt>
<trkpt lat="13.3306662" lon="99.8293761">
<ele>3.221</ele>
<time>2018-03-31T08:05:34.150Z</time>
</trkpt>
<trkpt lat="13.3311530" lon="99.8294661">
<ele>2.861</ele>
<time>2018-03-31T08:05:36.769Z</time>
</trkpt>
<trkpt lat="13.3316281" lon="99.8295552">
<ele>2.305</ele>
<time>2018-03-31T08:05:39.133Z</time>
</trkpt>
<trkpt lat="13.3321566" lon="99.8296464">
<ele>1.436</ele>
<time>2018-03-31T08:05:41.657Z</time>
</trkpt>
<trkpt lat="13.3327493" lon="99.8297636">
<ele>0.675</ele>
<time>2018-03-31T08:05:44.459Z</time>
</trkpt>
<trkpt lat="13.3333743" lon="99.8298700">
<ele>0.351</ele>
<time>2018-03-31T08:05:47.457Z</time>
</trkpt>
<trkpt lat="13.3340236" lon="99.8299756">
<ele>0.306</ele>
<time>2018-03-31T08:05:50.711Z</time>
</trkpt>
<trkpt lat="13.3346676" lon="99.8300286">
<ele>0.332</ele>
<time>2018-03-31T08:05:54.059Z</time>
</trkpt>
<trkpt lat="13.3352735" lon="99.8300701">
<ele>0.653</ele>
<time>2018-03-31T08:05:57.278Z</time>
</trkpt>
<trkpt lat="13.3358496" lon="99.8301511">
<ele>1.610</ele>
<time>2018-03-31T08:06:00.333Z</time>
</trkpt>
<trkpt lat="13.3364103" lon="99.8301541">
<ele>2.866</ele>
<time>2018-03-31T08:06:03.194Z</time>
</trkpt>
<trkpt lat="13.3367870" lon="99.8300780">
<ele>3.771</ele>
<time>2018-03-31T08:06:05.144Z</time>
</trkpt>
<trkpt lat="13.3371439" lon="99.8299275">
<ele>4.213</ele>
<time>2018-03-31T08:06:07.155Z</time>
</trkpt>
<trkpt lat="13.3374935" lon="99.8296751">
<ele>4.522</ele>
<time>2018-03-31T08:06:09.504Z</time>
</trkpt>
<trkpt lat="13.3377856" lon="99.8294149">
<ele>4.942</ele>
<time>2018-03-31T08:06:11.727Z</time>
</trkpt>
<trkpt lat="13.3380740" lon="99.8291481">
<ele>5.369</ele>
<time>2018-03-31T08:06:14.009Z</time>
</trkpt>
<trkpt lat="13.3383970" lon="99.8289569">
<ele>5.620</ele>
<time>2018-03-31T08:06:16.231Z</time>
</trkpt>
<trkpt lat="13.3387105" lon="99.8288074">
<ele>5.737</ele>
<time>2018-03-31T08:06:18.313Z</time>
</trkpt>
<trkpt lat="13.3390604" lon="99.8287192">
<ele>5.963</ele>
<time>2018-03-31T08:06:20.471Z</time>
</trkpt>
<trkpt lat="13.3394258" lon="99.8287974">
<ele>6.450</ele>
<time>2018-03-31T08:06:22.669Z</time>
</trkpt>
<trkpt lat="13.3397400" lon="99.8289390">
<ele>7.128</ele>
<time>2018-03-31T08:06:24.657Z</time>
</trkpt>
<trkpt lat="13.3400227" lon="99.8291001">
<ele>7.915</ele>
<time>2018-03-31T08:06:26.494Z</time>
</trkpt>
<trkpt lat="13.3402632" lon="99.8293308">
<ele>8.923</ele>
<time>2018-03-31T08:06:28.334Z</time>
</trkpt>
<trkpt lat="13.3404664" lon="99.8296323">
<ele>10.155</ele>
<time>2018-03-31T08:06:30.306Z</time>
</trkpt>
<trkpt lat="13.3405863" lon="99.8299610">
<ele>11.260</ele>
<time>2018-03-31T08:06:32.148Z</time>
</trkpt>
<trkpt lat="13.3406327" lon="99.8303143">
<ele>12.162</ele>
<time>2018-03-31T08:06:33.947Z</time>
</trkpt>
<trkpt lat="13.3406596" lon="99.8306830">
<ele>13.072</ele>
<time>2018-03-31T08:06:35.722Z</time>
</trkpt>
<trkpt lat="13.3406755" lon="99.8310533">
<ele>13.789</ele>
<time>2018-03-31T08:06:37.439Z</time>
</trkpt>
<trkpt lat="13.3406904" lon="99.8314228">
<ele>13.944</ele>
<time>2018-03-31T08:06:39.101Z</time>
</trkpt>
<trkpt lat="13.3407136" lon="99.8318154">
<ele>13.454</ele>
<time>2018-03-31T08:06:40.841Z</time>
</trkpt>
<trkpt lat="13.3407366" lon="99.8322375">
<ele>12.391</ele>
<time>2018-03-31T08:06:42.684Z</time>
</trkpt>
<trkpt lat="13.3407768" lon="99.8329078">
<ele>10.901</ele>
<time>2018-03-31T08:06:45.592Z</time>
</trkpt>
<trkpt lat="13.3408191" lon="99.8335907">
<ele>8.920</ele>
<time>2018-03-31T08:06:48.525Z</time>
</trkpt>
<trkpt lat="13.3408616" lon="99.8342645">
<ele>6.626</ele>
<time>2018-03-31T08:06:51.396Z</time>
</trkpt>
<trkpt lat="13.3409031" lon="99.8349739">
<ele>4.714</ele>
<time>2018-03-31T08:06:54.404Z</time>
</trkpt>
<trkpt lat="13.3409459" lon="99.8356669">
<ele>3.637</ele>
<time>2018-03-31T08:06:57.336Z</time>
</trkpt>
<trkpt lat="13.3409849" lon="99.8363859">
<ele>3.341</ele>
<time>2018-03-31T08:07:00.366Z</time>
</trkpt>
<trkpt lat="13.3410275" lon="99.8370895">
<ele>3.654</ele>
<time>2018-03-31T08:07:03.314Z</time>
</trkpt>
<trkpt lat="13.3410618" lon="99.8378061">
<ele>4.352</ele>
<time>2018-03-31T08:07:06.288Z</time>
</trkpt>
<trkpt lat="13.3411075" lon="99.8385164">
<ele>5.172</ele>
<time>2018-03-31T08:07:09.210Z</time>
</trkpt>
<trkpt lat="13.3411440" lon="99.8392364">
<ele>5.826</ele>
<time>2018-03-31T08:07:12.144Z</time>
</trkpt>
<trkpt lat="13.3411864" lon="99.8399723">
<ele>6.167</ele>
<time>2018-03-31T08:07:15.119Z</time>
</trkpt>
<trkpt lat="13.3412265" lon="99.8407071">
<ele>6.186</ele>
<time>2018-03-31T08:07:18.064Z</time>
</trkpt>
<trkpt lat="13.3412627" lon="99.8414487">
<ele>5.813</ele>
<time>2018-03-31T08:07:21.016Z</time>
</trkpt>
<trkpt lat="13.3413010" lon="99.8421968">
<ele>5.087</ele>
<time>2018-03-31T08:07:23.971Z</time>
</trkpt>
<trkpt lat="13.3413439" lon="99.8429420">
<ele>4.187</ele>
<time>2018-03-31T08:07:26.907Z</time>
</trkpt>
<trkpt lat="13.3413941" lon="99.8437024">
<ele>3.335</ele>
<time>2018-03-31T08:07:29.908Z</time>
</trkpt>
<trkpt lat="13.3414393" lon="99.8444567">
<ele>2.766</ele>
<time>2018-03-31T08:07:32.876Z</time>
</trkpt>
<trkpt lat="13.3414752" lon="99.8452158">
<ele>2.568</ele>
<time>2018-03-31T08:07:35.837Z</time>
</trkpt>
<trkpt lat="13.3415189" lon="99.8459739">
<ele>2.659</ele>
<time>2018-03-31T08:07:38.767Z</time>
</trkpt>
<trkpt lat="13.3415495" lon="99.8467501">
<ele>3.152</ele>
<time>2018-03-31T08:07:41.752Z</time>
</trkpt>
<trkpt lat="13.3415880" lon="99.8475285">
<ele>4.447</ele>
<time>2018-03-31T08:07:44.772Z</time>
</trkpt>
<trkpt lat="13.3416305" lon="99.8483102">
<ele>6.601</ele>
<time>2018-03-31T08:07:47.800Z</time>
</trkpt>
<trkpt lat="13.3416777" lon="99.8490725">
<ele>8.782</ele>
<time>2018-03-31T08:07:50.675Z</time>
</trkpt>
<trkpt lat="13.3417202" lon="99.8498424">
<ele>9.968</ele>
<time>2018-03-31T08:07:53.508Z</time>
</trkpt>
<trkpt lat="13.3417681" lon="99.8506496">
<ele>9.611</ele>
<time>2018-03-31T08:07:56.466Z</time>
</trkpt>
<trkpt lat="13.3418221" lon="99.8514717">
<ele>7.924</ele>
<time>2018-03-31T08:07:59.492Z</time>
</trkpt>
<trkpt lat="13.3418725" lon="99.8522855">
<ele>5.845</ele>
<time>2018-03-31T08:08:02.491Z</time>
</trkpt>
<trkpt lat="13.3419675" lon="99.8531027">
<ele>4.252</ele>
<time>2018-03-31T08:08:05.513Z</time>
</trkpt>
<trkpt lat="13.3420882" lon="99.8539017">
<ele>3.380</ele>
<time>2018-03-31T08:08:08.477Z</time>
</trkpt>
<trkpt lat="13.3422489" lon="99.8547088">
<ele>3.089</ele>
<time>2018-03-31T08:08:11.464Z</time>
</trkpt>
<trkpt lat="13.3424497" lon="99.8555098">
<ele>3.085</ele>
<time>2018-03-31T08:08:14.408Z</time>
</trkpt>
<trkpt lat="13.3426403" lon="99.8563082">
<ele>2.918</ele>
<time>2018-03-31T08:08:17.305Z</time>
</trkpt>
<trkpt lat="13.3428357" lon="99.8571498">
<ele>2.363</ele>
<time>2018-03-31T08:08:20.315Z</time>
</trkpt>
<trkpt lat="13.3430446" lon="99.8579659">
<ele>1.808</ele>
<time>2018-03-31T08:08:23.240Z</time>
</trkpt>
<trkpt lat="13.3432566" lon="99.8588014">
<ele>1.912</ele>
<time>2018-03-31T08:08:26.264Z</time>
</trkpt>
<trkpt lat="13.3434662" lon="99.8596269">
<ele>2.832</ele>
<time>2018-03-31T08:08:29.235Z</time>
</trkpt>
<trkpt lat="13.3436741" lon="99.8604483">
<ele>4.005</ele>
<time>2018-03-31T08:08:32.153Z</time>
</trkpt>
<trkpt lat="13.3438567" lon="99.8612858">
<ele>4.752</ele>
<time>2018-03-31T08:08:35.071Z</time>
</trkpt>
<trkpt lat="13.3440931" lon="99.8621318">
<ele>4.619</ele>
<time>2018-03-31T08:08:38.042Z</time>
</trkpt>
<trkpt lat="13.3443340" lon="99.8629672">
<ele>3.648</ele>
<time>2018-03-31T08:08:41.012Z</time>
</trkpt>
<trkpt lat="13.3445307" lon="99.8638278">
<ele>2.968</ele>
<time>2018-03-31T08:08:44.133Z</time>
</trkpt>
<trkpt lat="13.3447445" lon="99.8646597">
<ele>3.402</ele>
<time>2018-03-31T08:08:47.257Z</time>
</trkpt>
<trkpt lat="13.3449385" lon="99.8654633">
<ele>3.962</ele>
<time>2018-03-31T08:08:50.293Z</time>
</trkpt>
<trkpt lat="13.3450849" lon="99.8662895">
<ele>3.637</ele>
<time>2018-03-31T08:08:53.344Z</time>
</trkpt>
<trkpt lat="13.3452081" lon="99.8671153">
<ele>2.800</ele>
<time>2018-03-31T08:08:56.317Z</time>
</trkpt>
<trkpt lat="13.3452701" lon="99.8679325">
<ele>1.998</ele>
<time>2018-03-31T08:08:59.194Z</time>
</trkpt>
<trkpt lat="13.3452924" lon="99.8687678">
<ele>1.219</ele>
<time>2018-03-31T08:09:02.118Z</time>
</trkpt>
<trkpt lat="13.3453121" lon="99.8696231">
<ele>0.440</ele>
<time>2018-03-31T08:09:05.143Z</time>
</trkpt>
<trkpt lat="13.3453408" lon="99.8704750">
<ele>0.000</ele>
<time>2018-03-31T08:09:08.209Z</time>
</trkpt>
<trkpt lat="13.3453591" lon="99.8713246">
<ele>0.000</ele>
<time>2018-03-31T08:09:11.318Z</time>
</trkpt>
<trkpt lat="13.3453737" lon="99.8721491">
<ele>0.000</ele>
<time>2018-03-31T08:09:14.359Z</time>
</trkpt>
<trkpt lat="13.3453934" lon="99.8729664">
<ele>0.000</ele>
<time>2018-03-31T08:09:17.387Z</time>
</trkpt>
<trkpt lat="13.3454090" lon="99.8737567">
<ele>0.000</ele>
<time>2018-03-31T08:09:20.410Z</time>
</trkpt>
<trkpt lat="13.3454188" lon="99.8745821">
<ele>0.000</ele>
<time>2018-03-31T08:09:23.968Z</time>
</trkpt>
<trkpt lat="13.3454341" lon="99.8753647">
<ele>0.000</ele>
<time>2018-03-31T08:09:28.276Z</time>
</trkpt>
<trkpt lat="13.3454456" lon="99.8760510">
<ele>0.000</ele>
<time>2018-03-31T08:09:32.423Z</time>
</trkpt>
<trkpt lat="13.3454572" lon="99.8765863">
<ele>0.000</ele>
<time>2018-03-31T08:09:35.299Z</time>
</trkpt>
<trkpt lat="13.3454721" lon="99.8770342">
<ele>0.000</ele>
<time>2018-03-31T08:09:37.559Z</time>
</trkpt>
<trkpt lat="13.3454820" lon="99.8775778">
<ele>0.000</ele>
<time>2018-03-31T08:09:40.207Z</time>
</trkpt>
<trkpt lat="13.3454919" lon="99.8781728">
<ele>0.000</ele>
<time>2018-03-31T08:09:43.002Z</time>
</trkpt>
<trkpt lat="13.3454952" lon="99.8787803">
<ele>0.000</ele>
<time>2018-03-31T08:09:45.749Z</time>
</trkpt>
<trkpt lat="13.3455112" lon="99.8794169">
<ele>0.000</ele>
<time>2018-03-31T08:09:48.504Z</time>
</trkpt>
<trkpt lat="13.3455270" lon="99.8800772">
<ele>0.000</ele>
<time>2018-03-31T08:09:51.234Z</time>
</trkpt>
<trkpt lat="13.3455340" lon="99.8807675">
<ele>0.000</ele>
<time>2018-03-31T08:09:53.984Z</time>
</trkpt>
<trkpt lat="13.3455566" lon="99.8814948">
<ele>0.000</ele>
<time>2018-03-31T08:09:56.794Z</time>
</trkpt>
<trkpt lat="13.3455673" lon="99.8822431">
<ele>0.000</ele>
<time>2018-03-31T08:09:59.600Z</time>
</trkpt>
<trkpt lat="13.3456072" lon="99.8830058">
<ele>0.000</ele>
<time>2018-03-31T08:10:02.400Z</time>
</trkpt>
<trkpt lat="13.3456891" lon="99.8838131">
<ele>0.000</ele>
<time>2018-03-31T08:10:05.320Z</time>
</trkpt>
<trkpt lat="13.3457971" lon="99.8846249">
<ele>0.000</ele>
<time>2018-03-31T08:10:08.213Z</time>
</trkpt>
<trkpt lat="13.3459497" lon="99.8854523">
<ele>0.000</ele>
<time>2018-03-31T08:10:11.165Z</time>
</trkpt>
<trkpt lat="13.3461590" lon="99.8862781">
<ele>0.000</ele>
<time>2018-03-31T08:10:14.172Z</time>
</trkpt>
<trkpt lat="13.3463789" lon="99.8871098">
<ele>0.000</ele>
<time>2018-03-31T08:10:17.245Z</time>
</trkpt>
<trkpt lat="13.3466140" lon="99.8879121">
<ele>0.000</ele>
<time>2018-03-31T08:10:20.244Z</time>
</trkpt>
<trkpt lat="13.3468448" lon="99.8887076">
<ele>0.000</ele>
<time>2018-03-31T08:10:23.190Z</time>
</trkpt>
<trkpt lat="13.3470511" lon="99.8895211">
<ele>0.458</ele>
<time>2018-03-31T08:10:26.145Z</time>
</trkpt>
<trkpt lat="13.3472532" lon="99.8903291">
<ele>1.550</ele>
<time>2018-03-31T08:10:29.058Z</time>
</trkpt>
<trkpt lat="13.3474575" lon="99.8911706">
<ele>2.523</ele>
<time>2018-03-31T08:10:32.073Z</time>
</trkpt>
<trkpt lat="13.3476498" lon="99.8920044">
<ele>3.012</ele>
<time>2018-03-31T08:10:35.049Z</time>
</trkpt>
<trkpt lat="13.3478586" lon="99.8928405">
<ele>3.099</ele>
<time>2018-03-31T08:10:38.075Z</time>
</trkpt>
<trkpt lat="13.3480563" lon="99.8936798">
<ele>2.901</ele>
<time>2018-03-31T08:10:41.112Z</time>
</trkpt>
<trkpt lat="13.3482601" lon="99.8945064">
<ele>2.485</ele>
<time>2018-03-31T08:10:44.075Z</time>
</trkpt>
<trkpt lat="13.3484682" lon="99.8953114">
<ele>1.993</ele>
<time>2018-03-31T08:10:46.928Z</time>
</trkpt>
<trkpt lat="13.3486812" lon="99.8961635">
<ele>1.519</ele>
<time>2018-03-31T08:10:49.910Z</time>
</trkpt>
<trkpt lat="13.3489001" lon="99.8970191">
<ele>1.132</ele>
<time>2018-03-31T08:10:52.898Z</time>
</trkpt>
<trkpt lat="13.3491159" lon="99.8978936">
<ele>1.229</ele>
<time>2018-03-31T08:10:55.961Z</time>
</trkpt>
<trkpt lat="13.3493481" lon="99.8987578">
<ele>1.965</ele>
<time>2018-03-31T08:10:59.051Z</time>
</trkpt>
<trkpt lat="13.3495849" lon="99.8995954">
<ele>2.670</ele>
<time>2018-03-31T08:11:02.143Z</time>
</trkpt>
<trkpt lat="13.3497980" lon="99.9004318">
<ele>2.770</ele>
<time>2018-03-31T08:11:05.269Z</time>
</trkpt>
<trkpt lat="13.3499980" lon="99.9012302">
<ele>2.589</ele>
<time>2018-03-31T08:11:08.249Z</time>
</trkpt>
<trkpt lat="13.3501992" lon="99.9020295">
<ele>2.585</ele>
<time>2018-03-31T08:11:11.236Z</time>
</trkpt>
<trkpt lat="13.3504041" lon="99.9028308">
<ele>2.735</ele>
<time>2018-03-31T08:11:14.279Z</time>
</trkpt>
<trkpt lat="13.3506043" lon="99.9036469">
<ele>2.815</ele>
<time>2018-03-31T08:11:17.368Z</time>
</trkpt>
<trkpt lat="13.3508033" lon="99.9044294">
<ele>2.669</ele>
<time>2018-03-31T08:11:20.260Z</time>
</trkpt>
<trkpt lat="13.3510064" lon="99.9052301">
<ele>2.276</ele>
<time>2018-03-31T08:11:23.150Z</time>
</trkpt>
<trkpt lat="13.3511983" lon="99.9060635">
<ele>1.842</ele>
<time>2018-03-31T08:11:26.092Z</time>
</trkpt>
<trkpt lat="13.3513974" lon="99.9068944">
<ele>1.607</ele>
<time>2018-03-31T08:11:28.999Z</time>
</trkpt>
<trkpt lat="13.3516140" lon="99.9077359">
<ele>1.736</ele>
<time>2018-03-31T08:11:31.998Z</time>
</trkpt>
<trkpt lat="13.3518291" lon="99.9085993">
<ele>2.273</ele>
<time>2018-03-31T08:11:35.133Z</time>
</trkpt>
<trkpt lat="13.3520410" lon="99.9094248">
<ele>2.976</ele>
<time>2018-03-31T08:11:38.208Z</time>
</trkpt>
<trkpt lat="13.3522458" lon="99.9102537">
<ele>3.571</ele>
<time>2018-03-31T08:11:41.459Z</time>
</trkpt>
<trkpt lat="13.3524455" lon="99.9110392">
<ele>3.966</ele>
<time>2018-03-31T08:11:44.756Z</time>
</trkpt>
<trkpt lat="13.3526232" lon="99.9117770">
<ele>4.139</ele>
<time>2018-03-31T08:11:48.090Z</time>
</trkpt>
<trkpt lat="13.3528104" lon="99.9124798">
<ele>4.182</ele>
<time>2018-03-31T08:11:51.550Z</time>
</trkpt>
<trkpt lat="13.3529668" lon="99.9131276">
<ele>4.214</ele>
<time>2018-03-31T08:11:54.976Z</time>
</trkpt>
<trkpt lat="13.3531125" lon="99.9137453">
<ele>4.254</ele>
<time>2018-03-31T08:11:58.388Z</time>
</trkpt>
<trkpt lat="13.3532353" lon="99.9143203">
<ele>4.226</ele>
<time>2018-03-31T08:12:01.545Z</time>
</trkpt>
<trkpt lat="13.3533650" lon="99.9148634">
<ele>3.840</ele>
<time>2018-03-31T08:12:04.483Z</time>
</trkpt>
<trkpt lat="13.3534824" lon="99.9154027">
<ele>2.753</ele>
<time>2018-03-31T08:12:07.275Z</time>
</trkpt>
<trkpt lat="13.3535817" lon="99.9159668">
<ele>1.211</ele>
<time>2018-03-31T08:12:10.053Z</time>
</trkpt>
<trkpt lat="13.3536831" lon="99.9165294">
<ele>0.000</ele>
<time>2018-03-31T08:12:12.722Z</time>
</trkpt>
<trkpt lat="13.3537946" lon="99.9171274">
<ele>0.000</ele>
<time>2018-03-31T08:12:15.462Z</time>
</trkpt>
<trkpt lat="13.3539563" lon="99.9177401">
<ele>0.000</ele>
<time>2018-03-31T08:12:18.256Z</time>
</trkpt>
<trkpt lat="13.3540710" lon="99.9184204">
<ele>0.000</ele>
<time>2018-03-31T08:12:21.319Z</time>
</trkpt>
<trkpt lat="13.3541382" lon="99.9191009">
<ele>0.000</ele>
<time>2018-03-31T08:12:24.520Z</time>
</trkpt>
<trkpt lat="13.3542731" lon="99.9197667">
<ele>0.000</ele>
<time>2018-03-31T08:12:28.013Z</time>
</trkpt>
<trkpt lat="13.3543654" lon="99.9204016">
<ele>0.000</ele>
<time>2018-03-31T08:12:31.557Z</time>
</trkpt>
<trkpt lat="13.3544717" lon="99.9209638">
<ele>0.000</ele>
<time>2018-03-31T08:12:34.785Z</time>
</trkpt>
<trkpt lat="13.3545674" lon="99.9215021">
<ele>0.000</ele>
<time>2018-03-31T08:12:37.842Z</time>
</trkpt>
<trkpt lat="13.3546622" lon="99.9220220">
<ele>0.000</ele>
<time>2018-03-31T08:12:40.814Z</time>
</trkpt>
<trkpt lat="13.3547518" lon="99.9225524">
<ele>0.000</ele>
<time>2018-03-31T08:12:43.835Z</time>
</trkpt>
<trkpt lat="13.3548501" lon="99.9230830">
<ele>0.000</ele>
<time>2018-03-31T08:12:46.847Z</time>
</trkpt>
<trkpt lat="13.3549538" lon="99.9235999">
<ele>0.000</ele>
<time>2018-03-31T08:12:49.812Z</time>
</trkpt>
<trkpt lat="13.3550551" lon="99.9241312">
<ele>0.000</ele>
<time>2018-03-31T08:12:52.860Z</time>
</trkpt>
<trkpt lat="13.3551558" lon="99.9246546">
<ele>0.000</ele>
<time>2018-03-31T08:12:55.782Z</time>
</trkpt>
<trkpt lat="13.3552467" lon="99.9251747">
<ele>0.000</ele>
<time>2018-03-31T08:12:58.516Z</time>
</trkpt>
<trkpt lat="13.3553358" lon="99.9257062">
<ele>0.000</ele>
<time>2018-03-31T08:13:01.175Z</time>
</trkpt>
<trkpt lat="13.3554564" lon="99.9262492">
<ele>0.397</ele>
<time>2018-03-31T08:13:03.889Z</time>
</trkpt>
<trkpt lat="13.3555370" lon="99.9268494">
<ele>0.386</ele>
<time>2018-03-31T08:13:06.868Z</time>
</trkpt>
<trkpt lat="13.3556583" lon="99.9274665">
<ele>0.439</ele>
<time>2018-03-31T08:13:09.965Z</time>
</trkpt>
<trkpt lat="13.3557741" lon="99.9280606">
<ele>0.925</ele>
<time>2018-03-31T08:13:12.790Z</time>
</trkpt>
<trkpt lat="13.3558873" lon="99.9286527">
<ele>1.504</ele>
<time>2018-03-31T08:13:15.434Z</time>
</trkpt>
<trkpt lat="13.3559705" lon="99.9290628">
<ele>1.780</ele>
<time>2018-03-31T08:13:17.187Z</time>
</trkpt>
<trkpt lat="13.3560530" lon="99.9294875">
<ele>1.678</ele>
<time>2018-03-31T08:13:18.955Z</time>
</trkpt>
<trkpt lat="13.3561304" lon="99.9299394">
<ele>1.300</ele>
<time>2018-03-31T08:13:20.793Z</time>
</trkpt>
<trkpt lat="13.3562200" lon="99.9304102">
<ele>0.951</ele>
<time>2018-03-31T08:13:22.676Z</time>
</trkpt>
<trkpt lat="13.3563111" lon="99.9308985">
<ele>0.807</ele>
<time>2018-03-31T08:13:24.573Z</time>
</trkpt>
<trkpt lat="13.3563996" lon="99.9313929">
<ele>0.619</ele>
<time>2018-03-31T08:13:26.432Z</time>
</trkpt>
<trkpt lat="13.3564459" lon="99.9319067">
<ele>0.196</ele>
<time>2018-03-31T08:13:28.297Z</time>
</trkpt>
<trkpt lat="13.3565835" lon="99.9324280">
<ele>0.000</ele>
<time>2018-03-31T08:13:30.223Z</time>
</trkpt>
<trkpt lat="13.3566851" lon="99.9329689">
<ele>0.000</ele>
<time>2018-03-31T08:13:32.167Z</time>
</trkpt>
<trkpt lat="13.3567997" lon="99.9335178">
<ele>0.000</ele>
<time>2018-03-31T08:13:34.126Z</time>
</trkpt>
<trkpt lat="13.3569105" lon="99.9340715">
<ele>0.000</ele>
<time>2018-03-31T08:13:36.071Z</time>
</trkpt>
<trkpt lat="13.3570213" lon="99.9346352">
<ele>0.000</ele>
<time>2018-03-31T08:13:38.042Z</time>
</trkpt>
<trkpt lat="13.3571327" lon="99.9352035">
<ele>0.000</ele>
<time>2018-03-31T08:13:40.050Z</time>
</trkpt>
<trkpt lat="13.3572537" lon="99.9357693">
<ele>0.000</ele>
<time>2018-03-31T08:13:42.094Z</time>
</trkpt>
<trkpt lat="13.3573601" lon="99.9363445">
<ele>0.000</ele>
<time>2018-03-31T08:13:44.193Z</time>
</trkpt>
<trkpt lat="13.3574632" lon="99.9369064">
<ele>0.000</ele>
<time>2018-03-31T08:13:46.281Z</time>
</trkpt>
<trkpt lat="13.3575638" lon="99.9374594">
<ele>0.000</ele>
<time>2018-03-31T08:13:48.358Z</time>
</trkpt>
<trkpt lat="13.3576762" lon="99.9379980">
<ele>0.000</ele>
<time>2018-03-31T08:13:50.400Z</time>
</trkpt>
<trkpt lat="13.3578178" lon="99.9388014">
<ele>0.000</ele>
<time>2018-03-31T08:13:53.402Z</time>
</trkpt>
<trkpt lat="13.3579866" lon="99.9395845">
<ele>0.000</ele>
<time>2018-03-31T08:13:56.295Z</time>
</trkpt>
<trkpt lat="13.3581918" lon="99.9403807">
<ele>1.188</ele>
<time>2018-03-31T08:13:59.233Z</time>
</trkpt>
<trkpt lat="13.3585079" lon="99.9411577">
<ele>2.147</ele>
<time>2018-03-31T08:14:02.219Z</time>
</trkpt>
<trkpt lat="13.3588481" lon="99.9419214">
<ele>2.902</ele>
<time>2018-03-31T08:14:05.165Z</time>
</trkpt>
<trkpt lat="13.3592638" lon="99.9426637">
<ele>3.445</ele>
<time>2018-03-31T08:14:08.139Z</time>
</trkpt>
<trkpt lat="13.3597645" lon="99.9433638">
<ele>3.703</ele>
<time>2018-03-31T08:14:11.171Z</time>
</trkpt>
<trkpt lat="13.3603102" lon="99.9440686">
<ele>3.642</ele>
<time>2018-03-31T08:14:14.341Z</time>
</trkpt>
<trkpt lat="13.3608066" lon="99.9447007">
<ele>3.400</ele>
<time>2018-03-31T08:14:17.252Z</time>
</trkpt>
<trkpt lat="13.3613284" lon="99.9453988">
<ele>3.558</ele>
<time>2018-03-31T08:14:20.579Z</time>
</trkpt>
<trkpt lat="13.3618263" lon="99.9460267">
<ele>4.488</ele>
<time>2018-03-31T08:14:23.777Z</time>
</trkpt>
<trkpt lat="13.3622967" lon="99.9466356">
<ele>5.611</ele>
<time>2018-03-31T08:14:26.894Z</time>
</trkpt>
<trkpt lat="13.3627357" lon="99.9472223">
<ele>6.248</ele>
<time>2018-03-31T08:14:29.917Z</time>
</trkpt>
<trkpt lat="13.3631983" lon="99.9478230">
<ele>6.407</ele>
<time>2018-03-31T08:14:33.047Z</time>
</trkpt>
<trkpt lat="13.3636114" lon="99.9483887">
<ele>6.148</ele>
<time>2018-03-31T08:14:35.867Z</time>
</trkpt>
<trkpt lat="13.3640632" lon="99.9489914">
<ele>4.928</ele>
<time>2018-03-31T08:14:38.842Z</time>
</trkpt>
<trkpt lat="13.3645253" lon="99.9496026">
<ele>2.691</ele>
<time>2018-03-31T08:14:41.816Z</time>
</trkpt>
<trkpt lat="13.3649893" lon="99.9502075">
<ele>0.485</ele>
<time>2018-03-31T08:14:44.742Z</time>
</trkpt>
<trkpt lat="13.3654679" lon="99.9508211">
<ele>0.000</ele>
<time>2018-03-31T08:14:47.763Z</time>
</trkpt>
<trkpt lat="13.3659694" lon="99.9514476">
<ele>0.000</ele>
<time>2018-03-31T08:14:50.979Z</time>
</trkpt>
<trkpt lat="13.3664429" lon="99.9520527">
<ele>0.000</ele>
<time>2018-03-31T08:14:54.122Z</time>
</trkpt>
<trkpt lat="13.3668893" lon="99.9526396">
<ele>1.619</ele>
<time>2018-03-31T08:14:57.174Z</time>
</trkpt>
<trkpt lat="13.3673406" lon="99.9532148">
<ele>3.585</ele>
<time>2018-03-31T08:15:00.281Z</time>
</trkpt>
<trkpt lat="13.3677833" lon="99.9537855">
<ele>4.396</ele>
<time>2018-03-31T08:15:03.451Z</time>
</trkpt>
<trkpt lat="13.3682149" lon="99.9543587">
<ele>4.330</ele>
<time>2018-03-31T08:15:06.659Z</time>
</trkpt>
<trkpt lat="13.3686217" lon="99.9548935">
<ele>4.211</ele>
<time>2018-03-31T08:15:09.644Z</time>
</trkpt>
<trkpt lat="13.3690362" lon="99.9554358">
<ele>4.603</ele>
<time>2018-03-31T08:15:12.564Z</time>
</trkpt>
<trkpt lat="13.3694422" lon="99.9559707">
<ele>5.286</ele>
<time>2018-03-31T08:15:15.316Z</time>
</trkpt>
<trkpt lat="13.3698759" lon="99.9565341">
<ele>5.397</ele>
<time>2018-03-31T08:15:18.161Z</time>
</trkpt>
<trkpt lat="13.3703263" lon="99.9571188">
<ele>4.530</ele>
<time>2018-03-31T08:15:21.086Z</time>
</trkpt>
<trkpt lat="13.3707786" lon="99.9577284">
<ele>3.311</ele>
<time>2018-03-31T08:15:24.060Z</time>
</trkpt>
<trkpt lat="13.3712583" lon="99.9583222">
<ele>2.541</ele>
<time>2018-03-31T08:15:26.997Z</time>
</trkpt>
<trkpt lat="13.3717469" lon="99.9589158">
<ele>2.417</ele>
<time>2018-03-31T08:15:29.884Z</time>
</trkpt>
<trkpt lat="13.3722379" lon="99.9595162">
<ele>2.945</ele>
<time>2018-03-31T08:15:32.751Z</time>
</trkpt>
<trkpt lat="13.3727476" lon="99.9601627">
<ele>4.135</ele>
<time>2018-03-31T08:15:35.781Z</time>
</trkpt>
<trkpt lat="13.3732579" lon="99.9608017">
<ele>5.601</ele>
<time>2018-03-31T08:15:38.771Z</time>
</trkpt>
<trkpt lat="13.3737588" lon="99.9614297">
<ele>6.595</ele>
<time>2018-03-31T08:15:41.670Z</time>
</trkpt>
<trkpt lat="13.3742536" lon="99.9620747">
<ele>6.853</ele>
<time>2018-03-31T08:15:44.550Z</time>
</trkpt>
<trkpt lat="13.3747558" lon="99.9627418">
<ele>6.769</ele>
<time>2018-03-31T08:15:47.456Z</time>
</trkpt>
<trkpt lat="13.3752510" lon="99.9634396">
<ele>6.713</ele>
<time>2018-03-31T08:15:50.408Z</time>
</trkpt>
<trkpt lat="13.3757733" lon="99.9641358">
<ele>6.525</ele>
<time>2018-03-31T08:15:53.396Z</time>
</trkpt>
<trkpt lat="13.3762843" lon="99.9648342">
<ele>6.005</ele>
<time>2018-03-31T08:15:56.340Z</time>
</trkpt>
<trkpt lat="13.3768135" lon="99.9655294">
<ele>5.497</ele>
<time>2018-03-31T08:15:59.302Z</time>
</trkpt>
<trkpt lat="13.3773626" lon="99.9662539">
<ele>5.344</ele>
<time>2018-03-31T08:16:02.382Z</time>
</trkpt>
<trkpt lat="13.3778979" lon="99.9669543">
<ele>5.426</ele>
<time>2018-03-31T08:16:05.395Z</time>
</trkpt>
<trkpt lat="13.3784307" lon="99.9676691">
<ele>5.454</ele>
<time>2018-03-31T08:16:08.450Z</time>
</trkpt>
<trkpt lat="13.3789371" lon="99.9683400">
<ele>5.286</ele>
<time>2018-03-31T08:16:11.318Z</time>
</trkpt>
<trkpt lat="13.3794448" lon="99.9690824">
<ele>4.652</ele>
<time>2018-03-31T08:16:14.361Z</time>
</trkpt>
<trkpt lat="13.3799636" lon="99.9697784">
<ele>3.468</ele>
<time>2018-03-31T08:16:17.321Z</time>
</trkpt>
<trkpt lat="13.3805124" lon="99.9704850">
<ele>2.483</ele>
<time>2018-03-31T08:16:20.457Z</time>
</trkpt>
<trkpt lat="13.3810917" lon="99.9711714">
<ele>2.321</ele>
<time>2018-03-31T08:16:23.632Z</time>
</trkpt>
<trkpt lat="13.3816064" lon="99.9718178">
<ele>2.675</ele>
<time>2018-03-31T08:16:26.531Z</time>
</trkpt>
<trkpt lat="13.3821288" lon="99.9724980">
<ele>3.138</ele>
<time>2018-03-31T08:16:29.585Z</time>
</trkpt>
<trkpt lat="13.3826395" lon="99.9731950">
<ele>3.505</ele>
<time>2018-03-31T08:16:32.757Z</time>
</trkpt>
<trkpt lat="13.3830391" lon="99.9739453">
<ele>3.512</ele>
<time>2018-03-31T08:16:35.868Z</time>
</trkpt>
<trkpt lat="13.3833437" lon="99.9746826">
<ele>3.015</ele>
<time>2018-03-31T08:16:38.716Z</time>
</trkpt>
<trkpt lat="13.3835942" lon="99.9754718">
<ele>2.095</ele>
<time>2018-03-31T08:16:41.644Z</time>
</trkpt>
<trkpt lat="13.3837906" lon="99.9763209">
<ele>1.060</ele>
<time>2018-03-31T08:16:44.763Z</time>
</trkpt>
<trkpt lat="13.3838662" lon="99.9771571">
<ele>0.345</ele>
<time>2018-03-31T08:16:47.759Z</time>
</trkpt>
<trkpt lat="13.3838948" lon="99.9779774">
<ele>0.134</ele>
<time>2018-03-31T08:16:50.613Z</time>
</trkpt>
<trkpt lat="13.3838725" lon="99.9788056">
<ele>0.118</ele>
<time>2018-03-31T08:16:53.428Z</time>
</trkpt>
<trkpt lat="13.3838489" lon="99.9796973">
<ele>0.000</ele>
<time>2018-03-31T08:16:56.473Z</time>
</trkpt>
<trkpt lat="13.3838531" lon="99.9805987">
<ele>0.000</ele>
<time>2018-03-31T08:16:59.639Z</time>
</trkpt>
<trkpt lat="13.3838297" lon="99.9814950">
<ele>0.000</ele>
<time>2018-03-31T08:17:02.843Z</time>
</trkpt>
<trkpt lat="13.3838028" lon="99.9823225">
<ele>0.000</ele>
<time>2018-03-31T08:17:05.775Z</time>
</trkpt>
<trkpt lat="13.3837878" lon="99.9831480">
<ele>0.934</ele>
<time>2018-03-31T08:17:08.655Z</time>
</trkpt>
<trkpt lat="13.3837721" lon="99.9839933">
<ele>3.249</ele>
<time>2018-03-31T08:17:11.578Z</time>
</trkpt>
<trkpt lat="13.3837447" lon="99.9848478">
<ele>5.573</ele>
<time>2018-03-31T08:17:14.531Z</time>
</trkpt>
<trkpt lat="13.3837361" lon="99.9857202">
<ele>6.713</ele>
<time>2018-03-31T08:17:17.583Z</time>
</trkpt>
<trkpt lat="13.3837225" lon="99.9865979">
<ele>5.999</ele>
<time>2018-03-31T08:17:20.735Z</time>
</trkpt>
<trkpt lat="13.3837039" lon="99.9874542">
<ele>3.786</ele>
<time>2018-03-31T08:17:23.926Z</time>
</trkpt>
<trkpt lat="13.3836776" lon="99.9883041">
<ele>1.141</ele>
<time>2018-03-31T08:17:27.176Z</time>
</trkpt>
<trkpt lat="13.3837130" lon="99.9890831">
<ele>0.000</ele>
<time>2018-03-31T08:17:30.168Z</time>
</trkpt>
<trkpt lat="13.3838447" lon="99.9898418">
<ele>0.000</ele>
<time>2018-03-31T08:17:33.079Z</time>
</trkpt>
<trkpt lat="13.3840542" lon="99.9905798">
<ele>0.000</ele>
<time>2018-03-31T08:17:35.906Z</time>
</trkpt>
<trkpt lat="13.3843478" lon="99.9913057">
<ele>0.000</ele>
<time>2018-03-31T08:17:38.761Z</time>
</trkpt>
<trkpt lat="13.3847392" lon="99.9920389">
<ele>0.000</ele>
<time>2018-03-31T08:17:41.835Z</time>
</trkpt>
<trkpt lat="13.3852058" lon="99.9927117">
<ele>0.000</ele>
<time>2018-03-31T08:17:44.901Z</time>
</trkpt>
<trkpt lat="13.3857264" lon="99.9933192">
<ele>0.000</ele>
<time>2018-03-31T08:17:47.871Z</time>
</trkpt>
<trkpt lat="13.3862836" lon="99.9938778">
<ele>0.000</ele>
<time>2018-03-31T08:17:50.740Z</time>
</trkpt>
<trkpt lat="13.3868650" lon="99.9944406">
<ele>0.000</ele>
<time>2018-03-31T08:17:53.611Z</time>
</trkpt>
<trkpt lat="13.3874638" lon="99.9950483">
<ele>0.000</ele>
<time>2018-03-31T08:17:56.573Z</time>
</trkpt>
<trkpt lat="13.3880727" lon="99.9956494">
<ele>0.000</ele>
<time>2018-03-31T08:17:59.489Z</time>
</trkpt>
<trkpt lat="13.3886817" lon="99.9962665">
<ele>0.434</ele>
<time>2018-03-31T08:18:02.395Z</time>
</trkpt>
<trkpt lat="13.3893136" lon="99.9968924">
<ele>0.788</ele>
<time>2018-03-31T08:18:05.354Z</time>
</trkpt>
<trkpt lat="13.3899691" lon="99.9975330">
<ele>0.971</ele>
<time>2018-03-31T08:18:08.396Z</time>
</trkpt>
<trkpt lat="13.3906114" lon="99.9981694">
<ele>1.147</ele>
<time>2018-03-31T08:18:11.420Z</time>
</trkpt>
<trkpt lat="13.3912557" lon="99.9988109">
<ele>1.364</ele>
<time>2018-03-31T08:18:14.507Z</time>
</trkpt>
<trkpt lat="13.3918985" lon="99.9993957">
<ele>1.537</ele>
<time>2018-03-31T08:18:17.484Z</time>
</trkpt>
<trkpt lat="13.3925217" lon="100.0000135">
<ele>1.749</ele>
<time>2018-03-31T08:18:20.484Z</time>
</trkpt>
<trkpt lat="13.3931381" lon="100.0006257">
<ele>2.301</ele>
<time>2018-03-31T08:18:23.433Z</time>
</trkpt>
<trkpt lat="13.3937565" lon="100.0012439">
<ele>3.143</ele>
<time>2018-03-31T08:18:26.365Z</time>
</trkpt>
<trkpt lat="13.3943812" lon="100.0018698">
<ele>3.851</ele>
<time>2018-03-31T08:18:29.290Z</time>
</trkpt>
<trkpt lat="13.3950282" lon="100.0025286">
<ele>4.212</ele>
<time>2018-03-31T08:18:32.349Z</time>
</trkpt>
<trkpt lat="13.3956868" lon="100.0031893">
<ele>4.155</ele>
<time>2018-03-31T08:18:35.472Z</time>
</trkpt>
<trkpt lat="13.3963039" lon="100.0038112">
<ele>3.721</ele>
<time>2018-03-31T08:18:38.396Z</time>
</trkpt>
<trkpt lat="13.3969480" lon="100.0044862">
<ele>3.255</ele>
<time>2018-03-31T08:18:41.475Z</time>
</trkpt>
<trkpt lat="13.3975917" lon="100.0051354">
<ele>2.964</ele>
<time>2018-03-31T08:18:44.492Z</time>
</trkpt>
<trkpt lat="13.3982467" lon="100.0057964">
<ele>2.704</ele>
<time>2018-03-31T08:18:47.608Z</time>
</trkpt>
<trkpt lat="13.3988655" lon="100.0064180">
<ele>2.132</ele>
<time>2018-03-31T08:18:50.601Z</time>
</trkpt>
<trkpt lat="13.3995016" lon="100.0070684">
<ele>1.174</ele>
<time>2018-03-31T08:18:53.775Z</time>
</trkpt>
<trkpt lat="13.4001240" lon="100.0076628">
<ele>0.640</ele>
<time>2018-03-31T08:18:56.823Z</time>
</trkpt>
<trkpt lat="13.4006840" lon="100.0082611">
<ele>1.328</ele>
<time>2018-03-31T08:18:59.704Z</time>
</trkpt>
<trkpt lat="13.4012307" lon="100.0089172">
<ele>2.819</ele>
<time>2018-03-31T08:19:02.662Z</time>
</trkpt>
<trkpt lat="13.4017361" lon="100.0095813">
<ele>4.252</ele>
<time>2018-03-31T08:19:05.584Z</time>
</trkpt>
<trkpt lat="13.4022581" lon="100.0102782">
<ele>5.229</ele>
<time>2018-03-31T08:19:08.730Z</time>
</trkpt>
<trkpt lat="13.4027416" lon="100.0109586">
<ele>5.802</ele>
<time>2018-03-31T08:19:11.821Z</time>
</trkpt>
<trkpt lat="13.4032150" lon="100.0116354">
<ele>6.250</ele>
<time>2018-03-31T08:19:14.919Z</time>
</trkpt>
<trkpt lat="13.4036842" lon="100.0123071">
<ele>6.601</ele>
<time>2018-03-31T08:19:17.993Z</time>
</trkpt>
<trkpt lat="13.4041457" lon="100.0129712">
<ele>6.531</ele>
<time>2018-03-31T08:19:21.032Z</time>
</trkpt>
<trkpt lat="13.4046030" lon="100.0136367">
<ele>5.939</ele>
<time>2018-03-31T08:19:24.053Z</time>
</trkpt>
<trkpt lat="13.4050466" lon="100.0142762">
<ele>4.799</ele>
<time>2018-03-31T08:19:26.949Z</time>
</trkpt>
<trkpt lat="13.4055084" lon="100.0149500">
<ele>3.292</ele>
<time>2018-03-31T08:19:29.998Z</time>
</trkpt>
<trkpt lat="13.4059591" lon="100.0156347">
<ele>1.960</ele>
<time>2018-03-31T08:19:33.091Z</time>
</trkpt>
<trkpt lat="13.4064118" lon="100.0163146">
<ele>1.063</ele>
<time>2018-03-31T08:19:36.273Z</time>
</trkpt>
<trkpt lat="13.4068559" lon="100.0169441">
<ele>0.460</ele>
<time>2018-03-31T08:19:39.479Z</time>
</trkpt>
<trkpt lat="13.4072937" lon="100.0175862">
<ele>0.110</ele>
<time>2018-03-31T08:19:42.879Z</time>
</trkpt>
<trkpt lat="13.4076906" lon="100.0181509">
<ele>0.072</ele>
<time>2018-03-31T08:19:45.930Z</time>
</trkpt>
<trkpt lat="13.4080440" lon="100.0187242">
<ele>0.541</ele>
<time>2018-03-31T08:19:48.902Z</time>
</trkpt>
<trkpt lat="13.4082285" lon="100.0189877">
<ele>1.446</ele>
<time>2018-03-31T08:19:50.323Z</time>
</trkpt>
<trkpt lat="13.4084083" lon="100.0192370">
<ele>2.299</ele>
<time>2018-03-31T08:19:51.682Z</time>
</trkpt>
<trkpt lat="13.4085193" lon="100.0193336">
<ele>2.736</ele>
<time>2018-03-31T08:19:52.336Z</time>
</trkpt>
<trkpt lat="13.4087933" lon="100.0197456">
<ele>2.976</ele>
<time>2018-03-31T08:19:54.522Z</time>
</trkpt>
<trkpt lat="13.4090302" lon="100.0200771">
<ele>3.689</ele>
<time>2018-03-31T08:19:56.400Z</time>
</trkpt>
<trkpt lat="13.4092583" lon="100.0204453">
<ele>5.133</ele>
<time>2018-03-31T08:19:58.755Z</time>
</trkpt>
<trkpt lat="13.4095364" lon="100.0208245">
<ele>6.658</ele>
<time>2018-03-31T08:20:01.920Z</time>
</trkpt>
<trkpt lat="13.4098120" lon="100.0213201">
<ele>7.545</ele>
<time>2018-03-31T08:20:05.472Z</time>
</trkpt>
<trkpt lat="13.4100715" lon="100.0216775">
<ele>7.565</ele>
<time>2018-03-31T08:20:08.186Z</time>
</trkpt>
<trkpt lat="13.4103982" lon="100.0221243">
<ele>6.769</ele>
<time>2018-03-31T08:20:11.506Z</time>
</trkpt>
<trkpt lat="13.4107085" lon="100.0225970">
<ele>5.270</ele>
<time>2018-03-31T08:20:14.661Z</time>
</trkpt>
<trkpt lat="13.4110104" lon="100.0230713">
<ele>3.468</ele>
<time>2018-03-31T08:20:17.733Z</time>
</trkpt>
<trkpt lat="13.4112110" lon="100.0233239">
<ele>2.133</ele>
<time>2018-03-31T08:20:19.537Z</time>
</trkpt>
<trkpt lat="13.4114403" lon="100.0236196">
<ele>1.742</ele>
<time>2018-03-31T08:20:21.625Z</time>
</trkpt>
<trkpt lat="13.4116592" lon="100.0239281">
<ele>1.991</ele>
<time>2018-03-31T08:20:23.696Z</time>
</trkpt>
<trkpt lat="13.4118626" lon="100.0241884">
<ele>2.397</ele>
<time>2018-03-31T08:20:25.506Z</time>
</trkpt>
<trkpt lat="13.4120896" lon="100.0244894">
<ele>2.730</ele>
<time>2018-03-31T08:20:27.593Z</time>
</trkpt>
<trkpt lat="13.4123214" lon="100.0247883">
<ele>2.953</ele>
<time>2018-03-31T08:20:29.679Z</time>
</trkpt>
<trkpt lat="13.4125658" lon="100.0250736">
<ele>2.804</ele>
<time>2018-03-31T08:20:31.709Z</time>
</trkpt>
<trkpt lat="13.4128228" lon="100.0253704">
<ele>2.155</ele>
<time>2018-03-31T08:20:33.758Z</time>
</trkpt>
<trkpt lat="13.4130979" lon="100.0256746">
<ele>1.444</ele>
<time>2018-03-31T08:20:35.809Z</time>
</trkpt>
<trkpt lat="13.4133859" lon="100.0259746">
<ele>1.222</ele>
<time>2018-03-31T08:20:37.807Z</time>
</trkpt>
<trkpt lat="13.4136916" lon="100.0263017">
<ele>1.511</ele>
<time>2018-03-31T08:20:39.876Z</time>
</trkpt>
<trkpt lat="13.4139968" lon="100.0266094">
<ele>1.926</ele>
<time>2018-03-31T08:20:41.849Z</time>
</trkpt>
<trkpt lat="13.4143005" lon="100.0269171">
<ele>2.138</ele>
<time>2018-03-31T08:20:43.810Z</time>
</trkpt>
<trkpt lat="13.4146148" lon="100.0272466">
<ele>2.163</ele>
<time>2018-03-31T08:20:45.831Z</time>
</trkpt>
<trkpt lat="13.4149538" lon="100.0275827">
<ele>2.287</ele>
<time>2018-03-31T08:20:47.863Z</time>
</trkpt>
<trkpt lat="13.4153106" lon="100.0279468">
<ele>2.669</ele>
<time>2018-03-31T08:20:49.937Z</time>
</trkpt>
<trkpt lat="13.4156700" lon="100.0283188">
<ele>2.938</ele>
<time>2018-03-31T08:20:51.979Z</time>
</trkpt>
<trkpt lat="13.4160221" lon="100.0286815">
<ele>2.788</ele>
<time>2018-03-31T08:20:53.963Z</time>
</trkpt>
<trkpt lat="13.4163781" lon="100.0290398">
<ele>2.511</ele>
<time>2018-03-31T08:20:55.965Z</time>
</trkpt>
<trkpt lat="13.4167146" lon="100.0293843">
<ele>2.431</ele>
<time>2018-03-31T08:20:57.885Z</time>
</trkpt>
<trkpt lat="13.4172469" lon="100.0299197">
<ele>2.270</ele>
<time>2018-03-31T08:21:00.882Z</time>
</trkpt>
<trkpt lat="13.4177979" lon="100.0304860">
<ele>1.751</ele>
<time>2018-03-31T08:21:03.982Z</time>
</trkpt>
<trkpt lat="13.4183359" lon="100.0310315">
<ele>1.364</ele>
<time>2018-03-31T08:21:06.991Z</time>
</trkpt>
<trkpt lat="13.4188648" lon="100.0315569">
<ele>1.560</ele>
<time>2018-03-31T08:21:09.924Z</time>
</trkpt>
<trkpt lat="13.4194140" lon="100.0321171">
<ele>1.944</ele>
<time>2018-03-31T08:21:12.972Z</time>
</trkpt>
<trkpt lat="13.4199687" lon="100.0326704">
<ele>1.050</ele>
<time>2018-03-31T08:21:16.006Z</time>
</trkpt>
<trkpt lat="13.4204952" lon="100.0332018">
<ele>0.000</ele>
<time>2018-03-31T08:21:18.970Z</time>
</trkpt>
<trkpt lat="13.4210187" lon="100.0337201">
<ele>0.000</ele>
<time>2018-03-31T08:21:21.961Z</time>
</trkpt>
<trkpt lat="13.4215282" lon="100.0342385">
<ele>0.000</ele>
<time>2018-03-31T08:21:24.927Z</time>
</trkpt>
<trkpt lat="13.4220449" lon="100.0347704">
<ele>0.000</ele>
<time>2018-03-31T08:21:27.948Z</time>
</trkpt>
<trkpt lat="13.4225488" lon="100.0352823">
<ele>0.000</ele>
<time>2018-03-31T08:21:30.904Z</time>
</trkpt>
<trkpt lat="13.4230513" lon="100.0358067">
<ele>0.000</ele>
<time>2018-03-31T08:21:33.973Z</time>
</trkpt>
<trkpt lat="13.4235259" lon="100.0362941">
<ele>0.000</ele>
<time>2018-03-31T08:21:37.029Z</time>
</trkpt>
<trkpt lat="13.4239140" lon="100.0367199">
<ele>0.000</ele>
<time>2018-03-31T08:21:39.918Z</time>
</trkpt>
<trkpt lat="13.4242656" lon="100.0370932">
<ele>0.000</ele>
<time>2018-03-31T08:21:42.769Z</time>
</trkpt>
<trkpt lat="13.4246309" lon="100.0374877">
<ele>0.000</ele>
<time>2018-03-31T08:21:45.790Z</time>
</trkpt>
<trkpt lat="13.4249943" lon="100.0379293">
<ele>0.000</ele>
<time>2018-03-31T08:21:48.789Z</time>
</trkpt>
<trkpt lat="13.4253721" lon="100.0384146">
<ele>0.000</ele>
<time>2018-03-31T08:21:51.811Z</time>
</trkpt>
<trkpt lat="13.4257595" lon="100.0389327">
<ele>0.000</ele>
<time>2018-03-31T08:21:54.818Z</time>
</trkpt>
<trkpt lat="13.4261348" lon="100.0394679">
<ele>0.000</ele>
<time>2018-03-31T08:21:57.786Z</time>
</trkpt>
<trkpt lat="13.4264824" lon="100.0400382">
<ele>0.000</ele>
<time>2018-03-31T08:22:00.809Z</time>
</trkpt>
<trkpt lat="13.4267065" lon="100.0404233">
<ele>0.000</ele>
<time>2018-03-31T08:22:02.814Z</time>
</trkpt>
<trkpt lat="13.4271582" lon="100.0411701">
<ele>0.000</ele>
<time>2018-03-31T08:22:06.735Z</time>
</trkpt>
<trkpt lat="13.4274594" lon="100.0417003">
<ele>0.000</ele>
<time>2018-03-31T08:22:09.472Z</time>
</trkpt>
<trkpt lat="13.4277762" lon="100.0422774">
<ele>0.000</ele>
<time>2018-03-31T08:22:12.447Z</time>
</trkpt>
<trkpt lat="13.4280701" lon="100.0428003">
<ele>0.000</ele>
<time>2018-03-31T08:22:15.274Z</time>
</trkpt>
<trkpt lat="13.4283980" lon="100.0433802">
<ele>0.000</ele>
<time>2018-03-31T08:22:18.425Z</time>
</trkpt>
<trkpt lat="13.4287149" lon="100.0439524">
<ele>0.000</ele>
<time>2018-03-31T08:22:21.392Z</time>
</trkpt>
<trkpt lat="13.4290326" lon="100.0445162">
<ele>0.000</ele>
<time>2018-03-31T08:22:24.302Z</time>
</trkpt>
<trkpt lat="13.4293802" lon="100.0450901">
<ele>0.000</ele>
<time>2018-03-31T08:22:27.287Z</time>
</trkpt>
<trkpt lat="13.4297200" lon="100.0456924">
<ele>0.000</ele>
<time>2018-03-31T08:22:30.366Z</time>
</trkpt>
<trkpt lat="13.4300389" lon="100.0462599">
<ele>0.000</ele>
<time>2018-03-31T08:22:33.336Z</time>
</trkpt>
<trkpt lat="13.4303698" lon="100.0468257">
<ele>0.000</ele>
<time>2018-03-31T08:22:36.427Z</time>
</trkpt>
<trkpt lat="13.4306542" lon="100.0473256">
<ele>0.000</ele>
<time>2018-03-31T08:22:39.223Z</time>
</trkpt>
<trkpt lat="13.4309578" lon="100.0478621">
<ele>0.000</ele>
<time>2018-03-31T08:22:42.259Z</time>
</trkpt>
<trkpt lat="13.4312458" lon="100.0483906">
<ele>0.000</ele>
<time>2018-03-31T08:22:45.248Z</time>
</trkpt>
<trkpt lat="13.4315137" lon="100.0488903">
<ele>0.000</ele>
<time>2018-03-31T08:22:48.128Z</time>
</trkpt>
<trkpt lat="13.4318184" lon="100.0493666">
<ele>0.000</ele>
<time>2018-03-31T08:22:51.100Z</time>
</trkpt>
<trkpt lat="13.4320752" lon="100.0498141">
<ele>0.000</ele>
<time>2018-03-31T08:22:53.972Z</time>
</trkpt>
<trkpt lat="13.4323117" lon="100.0502388">
<ele>0.000</ele>
<time>2018-03-31T08:22:56.891Z</time>
</trkpt>
<trkpt lat="13.4325395" lon="100.0506357">
<ele>0.000</ele>
<time>2018-03-31T08:22:59.792Z</time>
</trkpt>
<trkpt lat="13.4327624" lon="100.0510173">
<ele>0.000</ele>
<time>2018-03-31T08:23:02.689Z</time>
</trkpt>
<trkpt lat="13.4329986" lon="100.0514294">
<ele>0.000</ele>
<time>2018-03-31T08:23:05.799Z</time>
</trkpt>
<trkpt lat="13.4332358" lon="100.0518496">
<ele>0.000</ele>
<time>2018-03-31T08:23:08.893Z</time>
</trkpt>
<trkpt lat="13.4334568" lon="100.0522218">
<ele>1.169</ele>
<time>2018-03-31T08:23:11.677Z</time>
</trkpt>
<trkpt lat="13.4336874" lon="100.0526159">
<ele>2.544</ele>
<time>2018-03-31T08:23:14.661Z</time>
</trkpt>
<trkpt lat="13.4338961" lon="100.0530354">
<ele>3.237</ele>
<time>2018-03-31T08:23:17.740Z</time>
</trkpt>
<trkpt lat="13.4341125" lon="100.0534021">
<ele>2.986</ele>
<time>2018-03-31T08:23:20.579Z</time>
</trkpt>
<trkpt lat="13.4343341" lon="100.0537857">
<ele>2.389</ele>
<time>2018-03-31T08:23:23.555Z</time>
</trkpt>
<trkpt lat="13.4345547" lon="100.0541938">
<ele>2.053</ele>
<time>2018-03-31T08:23:26.614Z</time>
</trkpt>
<trkpt lat="13.4347871" lon="100.0546523">
<ele>2.169</ele>
<time>2018-03-31T08:23:29.768Z</time>
</trkpt>
<trkpt lat="13.4350690" lon="100.0551467">
<ele>2.612</ele>
<time>2018-03-31T08:23:32.920Z</time>
</trkpt>
<trkpt lat="13.4353500" lon="100.0556365">
<ele>2.922</ele>
<time>2018-03-31T08:23:35.921Z</time>
</trkpt>
<trkpt lat="13.4356272" lon="100.0561158">
<ele>2.830</ele>
<time>2018-03-31T08:23:38.915Z</time>
</trkpt>
<trkpt lat="13.4359174" lon="100.0565955">
<ele>2.747</ele>
<time>2018-03-31T08:23:41.945Z</time>
</trkpt>
<trkpt lat="13.4362391" lon="100.0570683">
<ele>3.097</ele>
<time>2018-03-31T08:23:44.976Z</time>
</trkpt>
<trkpt lat="13.4365694" lon="100.0577837">
<ele>3.651</ele>
<time>2018-03-31T08:23:48.639Z</time>
</trkpt>
<trkpt lat="13.4369124" lon="100.0584269">
<ele>4.014</ele>
<time>2018-03-31T08:23:51.699Z</time>
</trkpt>
<trkpt lat="13.4373205" lon="100.0591504">
<ele>4.262</ele>
<time>2018-03-31T08:23:54.994Z</time>
</trkpt>
<trkpt lat="13.4377094" lon="100.0598363">
<ele>4.831</ele>
<time>2018-03-31T08:23:57.990Z</time>
</trkpt>
<trkpt lat="13.4381363" lon="100.0605672">
<ele>5.760</ele>
<time>2018-03-31T08:24:01.136Z</time>
</trkpt>
<trkpt lat="13.4385531" lon="100.0612592">
<ele>6.091</ele>
<time>2018-03-31T08:24:04.129Z</time>
</trkpt>
<trkpt lat="13.4389426" lon="100.0619520">
<ele>5.154</ele>
<time>2018-03-31T08:24:07.108Z</time>
</trkpt>
<trkpt lat="13.4393386" lon="100.0626292">
<ele>3.723</ele>
<time>2018-03-31T08:24:10.108Z</time>
</trkpt>
<trkpt lat="13.4397272" lon="100.0632891">
<ele>2.880</ele>
<time>2018-03-31T08:24:13.081Z</time>
</trkpt>
<trkpt lat="13.4400974" lon="100.0639449">
<ele>2.825</ele>
<time>2018-03-31T08:24:16.017Z</time>
</trkpt>
<trkpt lat="13.4404827" lon="100.0646043">
<ele>3.176</ele>
<time>2018-03-31T08:24:18.982Z</time>
</trkpt>
<trkpt lat="13.4408819" lon="100.0653119">
<ele>3.857</ele>
<time>2018-03-31T08:24:22.070Z</time>
</trkpt>
<trkpt lat="13.4412871" lon="100.0660181">
<ele>4.938</ele>
<time>2018-03-31T08:24:25.105Z</time>
</trkpt>
<trkpt lat="13.4416951" lon="100.0667181">
<ele>5.921</ele>
<time>2018-03-31T08:24:28.139Z</time>
</trkpt>
<trkpt lat="13.4421150" lon="100.0673504">
<ele>6.235</ele>
<time>2018-03-31T08:24:31.060Z</time>
</trkpt>
<trkpt lat="13.4424865" lon="100.0679877">
<ele>5.903</ele>
<time>2018-03-31T08:24:33.988Z</time>
</trkpt>
<trkpt lat="13.4428245" lon="100.0686119">
<ele>5.391</ele>
<time>2018-03-31T08:24:36.932Z</time>
</trkpt>
<trkpt lat="13.4431549" lon="100.0692099">
<ele>5.185</ele>
<time>2018-03-31T08:24:39.908Z</time>
</trkpt>
<trkpt lat="13.4434854" lon="100.0697803">
<ele>5.291</ele>
<time>2018-03-31T08:24:42.878Z</time>
</trkpt>
<trkpt lat="13.4437988" lon="100.0703441">
<ele>5.429</ele>
<time>2018-03-31T08:24:45.864Z</time>
</trkpt>
<trkpt lat="13.4441192" lon="100.0708914">
<ele>5.398</ele>
<time>2018-03-31T08:24:48.868Z</time>
</trkpt>
<trkpt lat="13.4444306" lon="100.0714382">
<ele>5.199</ele>
<time>2018-03-31T08:24:51.896Z</time>
</trkpt>
<trkpt lat="13.4447559" lon="100.0719624">
<ele>5.287</ele>
<time>2018-03-31T08:24:54.935Z</time>
</trkpt>
<trkpt lat="13.4450635" lon="100.0724690">
<ele>5.950</ele>
<time>2018-03-31T08:24:57.957Z</time>
</trkpt>
<trkpt lat="13.4453349" lon="100.0729517">
<ele>6.591</ele>
<time>2018-03-31T08:25:00.882Z</time>
</trkpt>
<trkpt lat="13.4456376" lon="100.0734065">
<ele>6.549</ele>
<time>2018-03-31T08:25:03.825Z</time>
</trkpt>
<trkpt lat="13.4459533" lon="100.0739087">
<ele>5.737</ele>
<time>2018-03-31T08:25:06.957Z</time>
</trkpt>
<trkpt lat="13.4462575" lon="100.0744018">
<ele>4.509</ele>
<time>2018-03-31T08:25:09.971Z</time>
</trkpt>
<trkpt lat="13.4464772" lon="100.0747431">
<ele>3.532</ele>
<time>2018-03-31T08:25:12.105Z</time>
</trkpt>
<trkpt lat="13.4468595" lon="100.0752909">
<ele>3.507</ele>
<time>2018-03-31T08:25:15.665Z</time>
</trkpt>
<trkpt lat="13.4471242" lon="100.0756872">
<ele>4.544</ele>
<time>2018-03-31T08:25:18.204Z</time>
</trkpt>
<trkpt lat="13.4473750" lon="100.0760107">
<ele>5.898</ele>
<time>2018-03-31T08:25:20.388Z</time>
</trkpt>
<trkpt lat="13.4476136" lon="100.0763953">
<ele>7.087</ele>
<time>2018-03-31T08:25:23.008Z</time>
</trkpt>
<trkpt lat="13.4478904" lon="100.0767864">
<ele>8.251</ele>
<time>2018-03-31T08:25:26.063Z</time>
</trkpt>
<trkpt lat="13.4481699" lon="100.0772207">
<ele>9.020</ele>
<time>2018-03-31T08:25:29.362Z</time>
</trkpt>
<trkpt lat="13.4484250" lon="100.0776402">
<ele>9.003</ele>
<time>2018-03-31T08:25:32.390Z</time>
</trkpt>
<trkpt lat="13.4487501" lon="100.0780572">
<ele>8.433</ele>
<time>2018-03-31T08:25:35.544Z</time>
</trkpt>
<trkpt lat="13.4490405" lon="100.0785537">
<ele>7.703</ele>
<time>2018-03-31T08:25:38.723Z</time>
</trkpt>
<trkpt lat="13.4493756" lon="100.0790028">
<ele>7.188</ele>
<time>2018-03-31T08:25:41.698Z</time>
</trkpt>
<trkpt lat="13.4497134" lon="100.0794329">
<ele>7.515</ele>
<time>2018-03-31T08:25:44.657Z</time>
</trkpt>
<trkpt lat="13.4500379" lon="100.0798662">
<ele>8.813</ele>
<time>2018-03-31T08:25:47.672Z</time>
</trkpt>
<trkpt lat="13.4503095" lon="100.0802700">
<ele>10.177</ele>
<time>2018-03-31T08:25:50.466Z</time>
</trkpt>
<trkpt lat="13.4505901" lon="100.0807101">
<ele>10.719</ele>
<time>2018-03-31T08:25:53.532Z</time>
</trkpt>
<trkpt lat="13.4508363" lon="100.0811061">
<ele>10.379</ele>
<time>2018-03-31T08:25:56.355Z</time>
</trkpt>
<trkpt lat="13.4510932" lon="100.0815321">
<ele>9.327</ele>
<time>2018-03-31T08:25:59.437Z</time>
</trkpt>
<trkpt lat="13.4513606" lon="100.0819207">
<ele>7.929</ele>
<time>2018-03-31T08:26:02.374Z</time>
</trkpt>
<trkpt lat="13.4516270" lon="100.0823689">
<ele>6.717</ele>
<time>2018-03-31T08:26:05.576Z</time>
</trkpt>
<trkpt lat="13.4519047" lon="100.0828176">
<ele>5.466</ele>
<time>2018-03-31T08:26:08.710Z</time>
</trkpt>
<trkpt lat="13.4521723" lon="100.0832594">
<ele>3.779</ele>
<time>2018-03-31T08:26:11.707Z</time>
</trkpt>
<trkpt lat="13.4524261" lon="100.0837619">
<ele>2.177</ele>
<time>2018-03-31T08:26:14.904Z</time>
</trkpt>
<trkpt lat="13.4527386" lon="100.0841580">
<ele>0.664</ele>
<time>2018-03-31T08:26:17.794Z</time>
</trkpt>
<trkpt lat="13.4530105" lon="100.0845399">
<ele>0.000</ele>
<time>2018-03-31T08:26:20.562Z</time>
</trkpt>
<trkpt lat="13.4533280" lon="100.0850436">
<ele>0.000</ele>
<time>2018-03-31T08:26:23.966Z</time>
</trkpt>
<trkpt lat="13.4536852" lon="100.0856429">
<ele>0.000</ele>
<time>2018-03-31T08:26:27.452Z</time>
</trkpt>
<trkpt lat="13.4540687" lon="100.0861786">
<ele>0.000</ele>
<time>2018-03-31T08:26:30.480Z</time>
</trkpt>
<trkpt lat="13.4544529" lon="100.0867652">
<ele>0.000</ele>
<time>2018-03-31T08:26:33.561Z</time>
</trkpt>
<trkpt lat="13.4548401" lon="100.0873866">
<ele>0.000</ele>
<time>2018-03-31T08:26:36.666Z</time>
</trkpt>
<trkpt lat="13.4552277" lon="100.0879698">
<ele>0.000</ele>
<time>2018-03-31T08:26:39.581Z</time>
</trkpt>
<trkpt lat="13.4556464" lon="100.0885852">
<ele>0.000</ele>
<time>2018-03-31T08:26:42.653Z</time>
</trkpt>
<trkpt lat="13.4560442" lon="100.0891578">
<ele>0.000</ele>
<time>2018-03-31T08:26:45.546Z</time>
</trkpt>
<trkpt lat="13.4564450" lon="100.0897688">
<ele>0.000</ele>
<time>2018-03-31T08:26:48.598Z</time>
</trkpt>
<trkpt lat="13.4568536" lon="100.0903886">
<ele>0.000</ele>
<time>2018-03-31T08:26:51.666Z</time>
</trkpt>
<trkpt lat="13.4572442" lon="100.0910399">
<ele>0.000</ele>
<time>2018-03-31T08:26:54.749Z</time>
</trkpt>
<trkpt lat="13.4576620" lon="100.0916740">
<ele>0.000</ele>
<time>2018-03-31T08:26:57.794Z</time>
</trkpt>
<trkpt lat="13.4581138" lon="100.0922908">
<ele>0.000</ele>
<time>2018-03-31T08:27:00.891Z</time>
</trkpt>
<trkpt lat="13.4584890" lon="100.0928189">
<ele>0.000</ele>
<time>2018-03-31T08:27:03.611Z</time>
</trkpt>
<trkpt lat="13.4588730" lon="100.0934308">
<ele>0.000</ele>
<time>2018-03-31T08:27:06.721Z</time>
</trkpt>
<trkpt lat="13.4592761" lon="100.0939981">
<ele>0.000</ele>
<time>2018-03-31T08:27:09.714Z</time>
</trkpt>
<trkpt lat="13.4596597" lon="100.0946062">
<ele>0.000</ele>
<time>2018-03-31T08:27:12.748Z</time>
</trkpt>
<trkpt lat="13.4600956" lon="100.0952482">
<ele>0.000</ele>
<time>2018-03-31T08:27:15.877Z</time>
</trkpt>
<trkpt lat="13.4605374" lon="100.0958507">
<ele>0.000</ele>
<time>2018-03-31T08:27:18.763Z</time>
</trkpt>
<trkpt lat="13.4610204" lon="100.0965482">
<ele>0.000</ele>
<time>2018-03-31T08:27:21.926Z</time>
</trkpt>
<trkpt lat="13.4614734" lon="100.0972141">
<ele>0.000</ele>
<time>2018-03-31T08:27:24.885Z</time>
</trkpt>
<trkpt lat="13.4619221" lon="100.0979411">
<ele>0.000</ele>
<time>2018-03-31T08:27:27.987Z</time>
</trkpt>
<trkpt lat="13.4623593" lon="100.0986455">
<ele>0.000</ele>
<time>2018-03-31T08:27:30.989Z</time>
</trkpt>
<trkpt lat="13.4626501" lon="100.0990615">
<ele>0.000</ele>
<time>2018-03-31T08:27:32.892Z</time>
</trkpt>
<trkpt lat="13.4629340" lon="100.0994996">
<ele>0.000</ele>
<time>2018-03-31T08:27:34.916Z</time>
</trkpt>
<trkpt lat="13.4632014" lon="100.0998648">
<ele>0.000</ele>
<time>2018-03-31T08:27:36.718Z</time>
</trkpt>
<trkpt lat="13.4634794" lon="100.1003167">
<ele>0.000</ele>
<time>2018-03-31T08:27:38.798Z</time>
</trkpt>
<trkpt lat="13.4638018" lon="100.1008061">
<ele>0.000</ele>
<time>2018-03-31T08:27:40.969Z</time>
</trkpt>
<trkpt lat="13.4641190" lon="100.1012943">
<ele>0.000</ele>
<time>2018-03-31T08:27:43.019Z</time>
</trkpt>
<trkpt lat="13.4644529" lon="100.1017918">
<ele>0.000</ele>
<time>2018-03-31T08:27:45.076Z</time>
</trkpt>
<trkpt lat="13.4647867" lon="100.1022570">
<ele>0.000</ele>
<time>2018-03-31T08:27:47.029Z</time>
</trkpt>
<trkpt lat="13.4651282" lon="100.1027129">
<ele>0.000</ele>
<time>2018-03-31T08:27:48.965Z</time>
</trkpt>
<trkpt lat="13.4654482" lon="100.1032129">
<ele>0.000</ele>
<time>2018-03-31T08:27:50.979Z</time>
</trkpt>
<trkpt lat="13.4657844" lon="100.1036967">
<ele>0.000</ele>
<time>2018-03-31T08:27:52.997Z</time>
</trkpt>
<trkpt lat="13.4660909" lon="100.1041664">
<ele>0.000</ele>
<time>2018-03-31T08:27:54.939Z</time>
</trkpt>
<trkpt lat="13.4663946" lon="100.1046512">
<ele>0.000</ele>
<time>2018-03-31T08:27:56.926Z</time>
</trkpt>
<trkpt lat="13.4667157" lon="100.1051342">
<ele>0.000</ele>
<time>2018-03-31T08:27:58.933Z</time>
</trkpt>
<trkpt lat="13.4670581" lon="100.1056230">
<ele>0.000</ele>
<time>2018-03-31T08:28:00.977Z</time>
</trkpt>
<trkpt lat="13.4673779" lon="100.1061380">
<ele>0.447</ele>
<time>2018-03-31T08:28:03.026Z</time>
</trkpt>
<trkpt lat="13.4677235" lon="100.1066305">
<ele>1.180</ele>
<time>2018-03-31T08:28:05.039Z</time>
</trkpt>
<trkpt lat="13.4680681" lon="100.1071624">
<ele>1.286</ele>
<time>2018-03-31T08:28:07.151Z</time>
</trkpt>
<trkpt lat="13.4683700" lon="100.1076421">
<ele>0.752</ele>
<time>2018-03-31T08:28:09.061Z</time>
</trkpt>
<trkpt lat="13.4688607" lon="100.1083831">
<ele>0.000</ele>
<time>2018-03-31T08:28:12.085Z</time>
</trkpt>
<trkpt lat="13.4693938" lon="100.1090945">
<ele>0.000</ele>
<time>2018-03-31T08:28:15.132Z</time>
</trkpt>
<trkpt lat="13.4698878" lon="100.1097934">
<ele>0.000</ele>
<time>2018-03-31T08:28:18.111Z</time>
</trkpt>
<trkpt lat="13.4703454" lon="100.1104876">
<ele>0.000</ele>
<time>2018-03-31T08:28:21.064Z</time>
</trkpt>
<trkpt lat="13.4708483" lon="100.1111776">
<ele>0.000</ele>
<time>2018-03-31T08:28:24.150Z</time>
</trkpt>
<trkpt lat="13.4712298" lon="100.1118613">
<ele>0.000</ele>
<time>2018-03-31T08:28:27.007Z</time>
</trkpt>
<trkpt lat="13.4717191" lon="100.1125431">
<ele>0.000</ele>
<time>2018-03-31T08:28:30.098Z</time>
</trkpt>
<trkpt lat="13.4721904" lon="100.1131715">
<ele>0.274</ele>
<time>2018-03-31T08:28:33.029Z</time>
</trkpt>
<trkpt lat="13.4725770" lon="100.1138175">
<ele>0.948</ele>
<time>2018-03-31T08:28:35.898Z</time>
</trkpt>
<trkpt lat="13.4729974" lon="100.1144395">
<ele>2.070</ele>
<time>2018-03-31T08:28:38.816Z</time>
</trkpt>
<trkpt lat="13.4734422" lon="100.1150168">
<ele>3.487</ele>
<time>2018-03-31T08:28:41.689Z</time>
</trkpt>
<trkpt lat="13.4739471" lon="100.1156250">
<ele>5.308</ele>
<time>2018-03-31T08:28:44.800Z</time>
</trkpt>
<trkpt lat="13.4745315" lon="100.1161692">
<ele>7.334</ele>
<time>2018-03-31T08:28:47.916Z</time>
</trkpt>
<trkpt lat="13.4751237" lon="100.1166213">
<ele>8.733</ele>
<time>2018-03-31T08:28:50.837Z</time>
</trkpt>
<trkpt lat="13.4757648" lon="100.1170552">
<ele>8.172</ele>
<time>2018-03-31T08:28:53.867Z</time>
</trkpt>
<trkpt lat="13.4764503" lon="100.1174441">
<ele>5.248</ele>
<time>2018-03-31T08:28:56.924Z</time>
</trkpt>
<trkpt lat="13.4771607" lon="100.1177677">
<ele>1.522</ele>
<time>2018-03-31T08:28:59.952Z</time>
</trkpt>
<trkpt lat="13.4778764" lon="100.1180448">
<ele>0.000</ele>
<time>2018-03-31T08:29:02.974Z</time>
</trkpt>
<trkpt lat="13.4785740" lon="100.1182718">
<ele>0.000</ele>
<time>2018-03-31T08:29:05.960Z</time>
</trkpt>
<trkpt lat="13.4792393" lon="100.1184908">
<ele>0.000</ele>
<time>2018-03-31T08:29:08.955Z</time>
</trkpt>
<trkpt lat="13.4798518" lon="100.1186960">
<ele>0.000</ele>
<time>2018-03-31T08:29:11.910Z</time>
</trkpt>
<trkpt lat="13.4804188" lon="100.1188860">
<ele>0.000</ele>
<time>2018-03-31T08:29:14.856Z</time>
</trkpt>
<trkpt lat="13.4809571" lon="100.1190763">
<ele>0.000</ele>
<time>2018-03-31T08:29:17.817Z</time>
</trkpt>
<trkpt lat="13.4814922" lon="100.1192687">
<ele>0.000</ele>
<time>2018-03-31T08:29:20.794Z</time>
</trkpt>
<trkpt lat="13.4820593" lon="100.1194664">
<ele>0.000</ele>
<time>2018-03-31T08:29:23.837Z</time>
</trkpt>
<trkpt lat="13.4826639" lon="100.1196664">
<ele>0.000</ele>
<time>2018-03-31T08:29:26.906Z</time>
</trkpt>
<trkpt lat="13.4832737" lon="100.1198669">
<ele>0.000</ele>
<time>2018-03-31T08:29:29.911Z</time>
</trkpt>
<trkpt lat="13.4838994" lon="100.1200744">
<ele>0.000</ele>
<time>2018-03-31T08:29:32.954Z</time>
</trkpt>
<trkpt lat="13.4845261" lon="100.1202826">
<ele>0.000</ele>
<time>2018-03-31T08:29:35.977Z</time>
</trkpt>
<trkpt lat="13.4851503" lon="100.1204851">
<ele>0.000</ele>
<time>2018-03-31T08:29:38.966Z</time>
</trkpt>
<trkpt lat="13.4857795" lon="100.1206899">
<ele>0.000</ele>
<time>2018-03-31T08:29:41.954Z</time>
</trkpt>
<trkpt lat="13.4864296" lon="100.1209120">
<ele>0.000</ele>
<time>2018-03-31T08:29:45.027Z</time>
</trkpt>
<trkpt lat="13.4870723" lon="100.1211244">
<ele>0.000</ele>
<time>2018-03-31T08:29:48.055Z</time>
</trkpt>
<trkpt lat="13.4877005" lon="100.1213389">
<ele>0.000</ele>
<time>2018-03-31T08:29:51.024Z</time>
</trkpt>
<trkpt lat="13.4883450" lon="100.1215521">
<ele>0.000</ele>
<time>2018-03-31T08:29:54.045Z</time>
</trkpt>
<trkpt lat="13.4890024" lon="100.1217772">
<ele>0.000</ele>
<time>2018-03-31T08:29:57.124Z</time>
</trkpt>
<trkpt lat="13.4896396" lon="100.1219974">
<ele>0.000</ele>
<time>2018-03-31T08:30:00.076Z</time>
</trkpt>
<trkpt lat="13.4903095" lon="100.1222284">
<ele>0.000</ele>
<time>2018-03-31T08:30:03.113Z</time>
</trkpt>
<trkpt lat="13.4909760" lon="100.1224489">
<ele>0.000</ele>
<time>2018-03-31T08:30:06.067Z</time>
</trkpt>
<trkpt lat="13.4916780" lon="100.1226786">
<ele>0.000</ele>
<time>2018-03-31T08:30:09.161Z</time>
</trkpt>
<trkpt lat="13.4923539" lon="100.1229193">
<ele>0.000</ele>
<time>2018-03-31T08:30:12.185Z</time>
</trkpt>
<trkpt lat="13.4930261" lon="100.1231463">
<ele>0.000</ele>
<time>2018-03-31T08:30:15.190Z</time>
</trkpt>
<trkpt lat="13.4936963" lon="100.1233579">
<ele>0.000</ele>
<time>2018-03-31T08:30:18.166Z</time>
</trkpt>
<trkpt lat="13.4943786" lon="100.1235934">
<ele>0.000</ele>
<time>2018-03-31T08:30:21.216Z</time>
</trkpt>
<trkpt lat="13.4950411" lon="100.1238238">
<ele>0.000</ele>
<time>2018-03-31T08:30:24.226Z</time>
</trkpt>
<trkpt lat="13.4956656" lon="100.1240260">
<ele>0.000</ele>
<time>2018-03-31T08:30:27.100Z</time>
</trkpt>
<trkpt lat="13.4963251" lon="100.1242400">
<ele>0.000</ele>
<time>2018-03-31T08:30:30.143Z</time>
</trkpt>
<trkpt lat="13.4969947" lon="100.1244500">
<ele>0.000</ele>
<time>2018-03-31T08:30:33.240Z</time>
</trkpt>
<trkpt lat="13.4976394" lon="100.1246505">
<ele>0.000</ele>
<time>2018-03-31T08:30:36.273Z</time>
</trkpt>
<trkpt lat="13.4982518" lon="100.1248537">
<ele>0.000</ele>
<time>2018-03-31T08:30:39.232Z</time>
</trkpt>
<trkpt lat="13.4988545" lon="100.1250553">
<ele>0.000</ele>
<time>2018-03-31T08:30:42.226Z</time>
</trkpt>
<trkpt lat="13.4994387" lon="100.1252613">
<ele>0.000</ele>
<time>2018-03-31T08:30:45.222Z</time>
</trkpt>
<trkpt lat="13.5000248" lon="100.1254617">
<ele>0.000</ele>
<time>2018-03-31T08:30:48.231Z</time>
</trkpt>
<trkpt lat="13.5006182" lon="100.1256646">
<ele>0.000</ele>
<time>2018-03-31T08:30:51.195Z</time>
</trkpt>
<trkpt lat="13.5012809" lon="100.1258827">
<ele>0.000</ele>
<time>2018-03-31T08:30:54.316Z</time>
</trkpt>
<trkpt lat="13.5019561" lon="100.1261092">
<ele>0.000</ele>
<time>2018-03-31T08:30:57.318Z</time>
</trkpt>
<trkpt lat="13.5026685" lon="100.1263455">
<ele>0.000</ele>
<time>2018-03-31T08:31:00.367Z</time>
</trkpt>
<trkpt lat="13.5033679" lon="100.1265955">
<ele>0.000</ele>
<time>2018-03-31T08:31:03.362Z</time>
</trkpt>
<trkpt lat="13.5040523" lon="100.1268833">
<ele>0.000</ele>
<time>2018-03-31T08:31:06.385Z</time>
</trkpt>
<trkpt lat="13.5046976" lon="100.1272488">
<ele>0.000</ele>
<time>2018-03-31T08:31:09.453Z</time>
</trkpt>
<trkpt lat="13.5052844" lon="100.1276516">
<ele>0.000</ele>
<time>2018-03-31T08:31:12.456Z</time>
</trkpt>
<trkpt lat="13.5058228" lon="100.1280942">
<ele>0.000</ele>
<time>2018-03-31T08:31:15.449Z</time>
</trkpt>
<trkpt lat="13.5063135" lon="100.1285916">
<ele>0.000</ele>
<time>2018-03-31T08:31:18.485Z</time>
</trkpt>
<trkpt lat="13.5067596" lon="100.1291266">
<ele>0.000</ele>
<time>2018-03-31T08:31:21.557Z</time>
</trkpt>
<trkpt lat="13.5071269" lon="100.1296435">
<ele>0.000</ele>
<time>2018-03-31T08:31:24.432Z</time>
</trkpt>
<trkpt lat="13.5074659" lon="100.1302139">
<ele>0.000</ele>
<time>2018-03-31T08:31:27.507Z</time>
</trkpt>
<trkpt lat="13.5077475" lon="100.1308102">
<ele>0.000</ele>
<time>2018-03-31T08:31:30.571Z</time>
</trkpt>
<trkpt lat="13.5079695" lon="100.1314366">
<ele>0.000</ele>
<time>2018-03-31T08:31:33.715Z</time>
</trkpt>
<trkpt lat="13.5081251" lon="100.1320001">
<ele>0.000</ele>
<time>2018-03-31T08:31:36.668Z</time>
</trkpt>
<trkpt lat="13.5082689" lon="100.1325217">
<ele>0.000</ele>
<time>2018-03-31T08:31:39.589Z</time>
</trkpt>
<trkpt lat="13.5084290" lon="100.1330411">
<ele>0.000</ele>
<time>2018-03-31T08:31:42.630Z</time>
</trkpt>
<trkpt lat="13.5085789" lon="100.1335528">
<ele>0.000</ele>
<time>2018-03-31T08:31:45.694Z</time>
</trkpt>
<trkpt lat="13.5087200" lon="100.1340517">
<ele>0.000</ele>
<time>2018-03-31T08:31:48.757Z</time>
</trkpt>
<trkpt lat="13.5088504" lon="100.1345231">
<ele>0.000</ele>
<time>2018-03-31T08:31:51.620Z</time>
</trkpt>
<trkpt lat="13.5090019" lon="100.1350158">
<ele>0.000</ele>
<time>2018-03-31T08:31:54.459Z</time>
</trkpt>
<trkpt lat="13.5091628" lon="100.1355903">
<ele>0.000</ele>
<time>2018-03-31T08:31:57.466Z</time>
</trkpt>
<trkpt lat="13.5093424" lon="100.1362250">
<ele>0.000</ele>
<time>2018-03-31T08:32:00.535Z</time>
</trkpt>
<trkpt lat="13.5095530" lon="100.1368593">
<ele>0.000</ele>
<time>2018-03-31T08:32:03.519Z</time>
</trkpt>
<trkpt lat="13.5097462" lon="100.1375042">
<ele>0.000</ele>
<time>2018-03-31T08:32:06.512Z</time>
</trkpt>
<trkpt lat="13.5099541" lon="100.1381321">
<ele>0.000</ele>
<time>2018-03-31T08:32:09.455Z</time>
</trkpt>
<trkpt lat="13.5101598" lon="100.1387804">
<ele>0.000</ele>
<time>2018-03-31T08:32:12.438Z</time>
</trkpt>
<trkpt lat="13.5103606" lon="100.1394598">
<ele>0.000</ele>
<time>2018-03-31T08:32:15.487Z</time>
</trkpt>
<trkpt lat="13.5105676" lon="100.1401393">
<ele>0.000</ele>
<time>2018-03-31T08:32:18.543Z</time>
</trkpt>
<trkpt lat="13.5107674" lon="100.1407880">
<ele>0.000</ele>
<time>2018-03-31T08:32:21.528Z</time>
</trkpt>
<trkpt lat="13.5109511" lon="100.1414171">
<ele>0.000</ele>
<time>2018-03-31T08:32:24.471Z</time>
</trkpt>
<trkpt lat="13.5111478" lon="100.1420564">
<ele>0.000</ele>
<time>2018-03-31T08:32:27.461Z</time>
</trkpt>
<trkpt lat="13.5113418" lon="100.1427314">
<ele>0.000</ele>
<time>2018-03-31T08:32:30.527Z</time>
</trkpt>
<trkpt lat="13.5115484" lon="100.1433550">
<ele>0.000</ele>
<time>2018-03-31T08:32:33.378Z</time>
</trkpt>
<trkpt lat="13.5117447" lon="100.1440015">
<ele>0.000</ele>
<time>2018-03-31T08:32:36.363Z</time>
</trkpt>
<trkpt lat="13.5119425" lon="100.1446329">
<ele>0.000</ele>
<time>2018-03-31T08:32:39.349Z</time>
</trkpt>
<trkpt lat="13.5121198" lon="100.1452511">
<ele>0.000</ele>
<time>2018-03-31T08:32:42.259Z</time>
</trkpt>
<trkpt lat="13.5123071" lon="100.1458819">
<ele>0.000</ele>
<time>2018-03-31T08:32:45.219Z</time>
</trkpt>
<trkpt lat="13.5125054" lon="100.1465321">
<ele>0.000</ele>
<time>2018-03-31T08:32:48.315Z</time>
</trkpt>
<trkpt lat="13.5126913" lon="100.1471301">
<ele>0.000</ele>
<time>2018-03-31T08:32:51.275Z</time>
</trkpt>
<trkpt lat="13.5128682" lon="100.1477118">
<ele>0.000</ele>
<time>2018-03-31T08:32:54.276Z</time>
</trkpt>
<trkpt lat="13.5130339" lon="100.1482778">
<ele>0.000</ele>
<time>2018-03-31T08:32:57.260Z</time>
</trkpt>
<trkpt lat="13.5132040" lon="100.1488508">
<ele>0.000</ele>
<time>2018-03-31T08:33:00.284Z</time>
</trkpt>
<trkpt lat="13.5133857" lon="100.1494251">
<ele>0.000</ele>
<time>2018-03-31T08:33:03.293Z</time>
</trkpt>
<trkpt lat="13.5135696" lon="100.1500085">
<ele>0.000</ele>
<time>2018-03-31T08:33:06.336Z</time>
</trkpt>
<trkpt lat="13.5137374" lon="100.1505682">
<ele>0.000</ele>
<time>2018-03-31T08:33:09.283Z</time>
</trkpt>
<trkpt lat="13.5139068" lon="100.1511204">
<ele>0.000</ele>
<time>2018-03-31T08:33:12.239Z</time>
</trkpt>
<trkpt lat="13.5140752" lon="100.1516743">
<ele>0.000</ele>
<time>2018-03-31T08:33:15.184Z</time>
</trkpt>
<trkpt lat="13.5142369" lon="100.1522578">
<ele>0.000</ele>
<time>2018-03-31T08:33:18.167Z</time>
</trkpt>
<trkpt lat="13.5144159" lon="100.1528867">
<ele>0.000</ele>
<time>2018-03-31T08:33:21.238Z</time>
</trkpt>
<trkpt lat="13.5146125" lon="100.1535259">
<ele>0.000</ele>
<time>2018-03-31T08:33:24.238Z</time>
</trkpt>
<trkpt lat="13.5148142" lon="100.1542030">
<ele>0.000</ele>
<time>2018-03-31T08:33:27.278Z</time>
</trkpt>
<trkpt lat="13.5150256" lon="100.1549004">
<ele>0.000</ele>
<time>2018-03-31T08:33:30.340Z</time>
</trkpt>
<trkpt lat="13.5152244" lon="100.1555704">
<ele>0.000</ele>
<time>2018-03-31T08:33:33.296Z</time>
</trkpt>
<trkpt lat="13.5154160" lon="100.1562365">
<ele>0.000</ele>
<time>2018-03-31T08:33:36.237Z</time>
</trkpt>
<trkpt lat="13.5156248" lon="100.1569285">
<ele>0.000</ele>
<time>2018-03-31T08:33:39.248Z</time>
</trkpt>
<trkpt lat="13.5158313" lon="100.1576358">
<ele>0.000</ele>
<time>2018-03-31T08:33:42.234Z</time>
</trkpt>
<trkpt lat="13.5160484" lon="100.1583740">
<ele>0.000</ele>
<time>2018-03-31T08:33:45.288Z</time>
</trkpt>
<trkpt lat="13.5162749" lon="100.1590936">
<ele>0.000</ele>
<time>2018-03-31T08:33:48.288Z</time>
</trkpt>
<trkpt lat="13.5164895" lon="100.1597879">
<ele>0.000</ele>
<time>2018-03-31T08:33:51.260Z</time>
</trkpt>
<trkpt lat="13.5166901" lon="100.1604571">
<ele>0.000</ele>
<time>2018-03-31T08:33:54.233Z</time>
</trkpt>
<trkpt lat="13.5168987" lon="100.1611029">
<ele>0.000</ele>
<time>2018-03-31T08:33:57.277Z</time>
</trkpt>
<trkpt lat="13.5170761" lon="100.1616869">
<ele>0.000</ele>
<time>2018-03-31T08:34:00.210Z</time>
</trkpt>
<trkpt lat="13.5172357" lon="100.1622361">
<ele>0.000</ele>
<time>2018-03-31T08:34:03.160Z</time>
</trkpt>
<trkpt lat="13.5173896" lon="100.1627522">
<ele>0.000</ele>
<time>2018-03-31T08:34:06.089Z</time>
</trkpt>
<trkpt lat="13.5175457" lon="100.1632669">
<ele>0.000</ele>
<time>2018-03-31T08:34:09.068Z</time>
</trkpt>
<trkpt lat="13.5177022" lon="100.1637919">
<ele>0.000</ele>
<time>2018-03-31T08:34:12.061Z</time>
</trkpt>
<trkpt lat="13.5178627" lon="100.1643334">
<ele>0.000</ele>
<time>2018-03-31T08:34:15.112Z</time>
</trkpt>
<trkpt lat="13.5180208" lon="100.1648562">
<ele>0.000</ele>
<time>2018-03-31T08:34:18.070Z</time>
</trkpt>
<trkpt lat="13.5181846" lon="100.1653950">
<ele>0.000</ele>
<time>2018-03-31T08:34:21.096Z</time>
</trkpt>
<trkpt lat="13.5183629" lon="100.1659369">
<ele>0.000</ele>
<time>2018-03-31T08:34:24.112Z</time>
</trkpt>
<trkpt lat="13.5185396" lon="100.1664914">
<ele>0.000</ele>
<time>2018-03-31T08:34:27.158Z</time>
</trkpt>
<trkpt lat="13.5187076" lon="100.1670284">
<ele>0.000</ele>
<time>2018-03-31T08:34:30.098Z</time>
</trkpt>
<trkpt lat="13.5188917" lon="100.1675898">
<ele>0.000</ele>
<time>2018-03-31T08:34:33.149Z</time>
</trkpt>
<trkpt lat="13.5190745" lon="100.1681400">
<ele>0.000</ele>
<time>2018-03-31T08:34:36.072Z</time>
</trkpt>
<trkpt lat="13.5192743" lon="100.1687252">
<ele>0.000</ele>
<time>2018-03-31T08:34:39.099Z</time>
</trkpt>
<trkpt lat="13.5194709" lon="100.1693228">
<ele>0.000</ele>
<time>2018-03-31T08:34:42.103Z</time>
</trkpt>
<trkpt lat="13.5196071" lon="100.1697241">
<ele>0.000</ele>
<time>2018-03-31T08:34:44.091Z</time>
</trkpt>
<trkpt lat="13.5197483" lon="100.1701270">
<ele>0.000</ele>
<time>2018-03-31T08:34:46.055Z</time>
</trkpt>
<trkpt lat="13.5198871" lon="100.1705503">
<ele>0.000</ele>
<time>2018-03-31T08:34:48.067Z</time>
</trkpt>
<trkpt lat="13.5200291" lon="100.1709841">
<ele>0.000</ele>
<time>2018-03-31T08:34:50.119Z</time>
</trkpt>
<trkpt lat="13.5201647" lon="100.1714073">
<ele>0.000</ele>
<time>2018-03-31T08:34:52.144Z</time>
</trkpt>
<trkpt lat="13.5202964" lon="100.1718078">
<ele>0.000</ele>
<time>2018-03-31T08:34:54.082Z</time>
</trkpt>
<trkpt lat="13.5204394" lon="100.1722251">
<ele>0.000</ele>
<time>2018-03-31T08:34:56.096Z</time>
</trkpt>
<trkpt lat="13.5205776" lon="100.1726421">
<ele>0.000</ele>
<time>2018-03-31T08:34:58.084Z</time>
</trkpt>
<trkpt lat="13.5207175" lon="100.1730533">
<ele>0.000</ele>
<time>2018-03-31T08:35:00.052Z</time>
</trkpt>
<trkpt lat="13.5208583" lon="100.1734636">
<ele>0.000</ele>
<time>2018-03-31T08:35:02.026Z</time>
</trkpt>
<trkpt lat="13.5210006" lon="100.1738806">
<ele>0.000</ele>
<time>2018-03-31T08:35:04.047Z</time>
</trkpt>
<trkpt lat="13.5211446" lon="100.1742888">
<ele>0.000</ele>
<time>2018-03-31T08:35:06.075Z</time>
</trkpt>
<trkpt lat="13.5212834" lon="100.1746715">
<ele>0.000</ele>
<time>2018-03-31T08:35:08.047Z</time>
</trkpt>
<trkpt lat="13.5214129" lon="100.1750524">
<ele>0.000</ele>
<time>2018-03-31T08:35:10.059Z</time>
</trkpt>
<trkpt lat="13.5215345" lon="100.1754220">
<ele>0.000</ele>
<time>2018-03-31T08:35:12.063Z</time>
</trkpt>
<trkpt lat="13.5216556" lon="100.1757770">
<ele>0.000</ele>
<time>2018-03-31T08:35:14.066Z</time>
</trkpt>
<trkpt lat="13.5217763" lon="100.1761144">
<ele>0.000</ele>
<time>2018-03-31T08:35:16.053Z</time>
</trkpt>
<trkpt lat="13.5218859" lon="100.1764415">
<ele>0.000</ele>
<time>2018-03-31T08:35:18.030Z</time>
</trkpt>
<trkpt lat="13.5219909" lon="100.1767586">
<ele>0.000</ele>
<time>2018-03-31T08:35:19.977Z</time>
</trkpt>
<trkpt lat="13.5221573" lon="100.1772605">
<ele>0.000</ele>
<time>2018-03-31T08:35:23.055Z</time>
</trkpt>
<trkpt lat="13.5223270" lon="100.1777382">
<ele>0.000</ele>
<time>2018-03-31T08:35:25.990Z</time>
</trkpt>
<trkpt lat="13.5224899" lon="100.1782332">
<ele>0.000</ele>
<time>2018-03-31T08:35:29.001Z</time>
</trkpt>
<trkpt lat="13.5226536" lon="100.1787304">
<ele>0.000</ele>
<time>2018-03-31T08:35:31.981Z</time>
</trkpt>
<trkpt lat="13.5228331" lon="100.1792422">
<ele>0.000</ele>
<time>2018-03-31T08:35:35.009Z</time>
</trkpt>
<trkpt lat="13.5229998" lon="100.1797661">
<ele>0.000</ele>
<time>2018-03-31T08:35:38.001Z</time>
</trkpt>
<trkpt lat="13.5232471" lon="100.1805219">
<ele>0.000</ele>
<time>2018-03-31T08:35:42.077Z</time>
</trkpt>
<trkpt lat="13.5234662" lon="100.1811483">
<ele>0.000</ele>
<time>2018-03-31T08:35:45.185Z</time>
</trkpt>
<trkpt lat="13.5236898" lon="100.1818067">
<ele>0.000</ele>
<time>2018-03-31T08:35:48.310Z</time>
</trkpt>
<trkpt lat="13.5238959" lon="100.1824255">
<ele>0.000</ele>
<time>2018-03-31T08:35:51.351Z</time>
</trkpt>
<trkpt lat="13.5240739" lon="100.1829619">
<ele>0.000</ele>
<time>2018-03-31T08:35:54.312Z</time>
</trkpt>
<trkpt lat="13.5242090" lon="100.1833989">
<ele>0.000</ele>
<time>2018-03-31T08:35:57.140Z</time>
</trkpt>
<trkpt lat="13.5243394" lon="100.1837492">
<ele>0.000</ele>
<time>2018-03-31T08:35:59.973Z</time>
</trkpt>
<trkpt lat="13.5244339" lon="100.1840371">
<ele>0.000</ele>
<time>2018-03-31T08:36:02.864Z</time>
</trkpt>
<trkpt lat="13.5245138" lon="100.1842668">
<ele>0.000</ele>
<time>2018-03-31T08:36:05.666Z</time>
</trkpt>
<trkpt lat="13.5245843" lon="100.1844767">
<ele>0.000</ele>
<time>2018-03-31T08:36:08.481Z</time>
</trkpt>
<trkpt lat="13.5246782" lon="100.1847003">
<ele>0.000</ele>
<time>2018-03-31T08:36:11.519Z</time>
</trkpt>
<trkpt lat="13.5247842" lon="100.1849760">
<ele>0.000</ele>
<time>2018-03-31T08:36:14.828Z</time>
</trkpt>
<trkpt lat="13.5248869" lon="100.1852384">
<ele>0.000</ele>
<time>2018-03-31T08:36:17.818Z</time>
</trkpt>
<trkpt lat="13.5249664" lon="100.1854827">
<ele>0.000</ele>
<time>2018-03-31T08:36:20.558Z</time>
</trkpt>
<trkpt lat="13.5250248" lon="100.1857873">
<ele>0.000</ele>
<time>2018-03-31T08:36:23.738Z</time>
</trkpt>
<trkpt lat="13.5250766" lon="100.1860603">
<ele>0.000</ele>
<time>2018-03-31T08:36:26.633Z</time>
</trkpt>
<trkpt lat="13.5251748" lon="100.1863134">
<ele>0.000</ele>
<time>2018-03-31T08:36:29.799Z</time>
</trkpt>
<trkpt lat="13.5252484" lon="100.1865395">
<ele>0.000</ele>
<time>2018-03-31T08:36:33.154Z</time>
</trkpt>
<trkpt lat="13.5252837" lon="100.1866459">
<ele>0.000</ele>
<time>2018-03-31T08:36:35.404Z</time>
</trkpt>
<trkpt lat="13.5253222" lon="100.1867358">
<ele>0.000</ele>
<time>2018-03-31T08:36:39.218Z</time>
</trkpt>
<trkpt lat="13.5253607" lon="100.1868453">
<ele>0.000</ele>
<time>2018-03-31T08:36:44.354Z</time>
</trkpt>
<trkpt lat="13.5253962" lon="100.1869408">
<ele>0.000</ele>
<time>2018-03-31T08:36:47.788Z</time>
</trkpt>
<trkpt lat="13.5254298" lon="100.1870441">
<ele>0.000</ele>
<time>2018-03-31T08:36:51.015Z</time>
</trkpt>
<trkpt lat="13.5254665" lon="100.1871450">
<ele>0.000</ele>
<time>2018-03-31T08:36:54.062Z</time>
</trkpt>
<trkpt lat="13.5255105" lon="100.1872837">
<ele>0.000</ele>
<time>2018-03-31T08:36:57.481Z</time>
</trkpt>
<trkpt lat="13.5255523" lon="100.1873862">
<ele>0.000</ele>
<time>2018-03-31T08:36:59.997Z</time>
</trkpt>
<trkpt lat="13.5255523" lon="100.1873862">
<ele>0.000</ele>
<time>2018-03-31T08:37:09.996Z</time>
</trkpt>
<trkpt lat="13.5255523" lon="100.1873862">
<ele>0.000</ele>
<time>2018-03-31T08:37:29.766Z</time>
</trkpt>
<trkpt lat="13.5256251" lon="100.1876392">
<ele>0.000</ele>
<time>2018-03-31T08:37:38.469Z</time>
</trkpt>
<trkpt lat="13.5256726" lon="100.1877681">
<ele>0.000</ele>
<time>2018-03-31T08:37:40.979Z</time>
</trkpt>
<trkpt lat="13.5257087" lon="100.1878716">
<ele>0.000</ele>
<time>2018-03-31T08:37:42.995Z</time>
</trkpt>
<trkpt lat="13.5257087" lon="100.1878716">
<ele>0.000</ele>
<time>2018-03-31T08:37:49.995Z</time>
</trkpt>
<trkpt lat="13.5257087" lon="100.1878716">
<ele>0.000</ele>
<time>2018-03-31T08:37:53.451Z</time>
</trkpt>
<trkpt lat="13.5257898" lon="100.1881008">
<ele>0.000</ele>
<time>2018-03-31T08:38:04.305Z</time>
</trkpt>
<trkpt lat="13.5258236" lon="100.1881971">
<ele>0.000</ele>
<time>2018-03-31T08:38:06.501Z</time>
</trkpt>
<trkpt lat="13.5258725" lon="100.1883471">
<ele>0.000</ele>
<time>2018-03-31T08:38:09.068Z</time>
</trkpt>
<trkpt lat="13.5259347" lon="100.1885504">
<ele>0.000</ele>
<time>2018-03-31T08:38:12.107Z</time>
</trkpt>
<trkpt lat="13.5260072" lon="100.1887423">
<ele>0.000</ele>
<time>2018-03-31T08:38:14.933Z</time>
</trkpt>
<trkpt lat="13.5260630" lon="100.1889714">
<ele>0.000</ele>
<time>2018-03-31T08:38:17.974Z</time>
</trkpt>
<trkpt lat="13.5261418" lon="100.1892072">
<ele>0.000</ele>
<time>2018-03-31T08:38:20.903Z</time>
</trkpt>
<trkpt lat="13.5262308" lon="100.1894644">
<ele>0.000</ele>
<time>2018-03-31T08:38:24.136Z</time>
</trkpt>
<trkpt lat="13.5262960" lon="100.1896717">
<ele>0.000</ele>
<time>2018-03-31T08:38:27.337Z</time>
</trkpt>
<trkpt lat="13.5263489" lon="100.1898105">
<ele>0.000</ele>
<time>2018-03-31T08:38:30.404Z</time>
</trkpt>
<trkpt lat="13.5263843" lon="100.1899167">
<ele>0.000</ele>
<time>2018-03-31T08:38:33.239Z</time>
</trkpt>
<trkpt lat="13.5264122" lon="100.1900170">
<ele>0.000</ele>
<time>2018-03-31T08:38:35.964Z</time>
</trkpt>
<trkpt lat="13.5264501" lon="100.1901227">
<ele>0.000</ele>
<time>2018-03-31T08:38:38.543Z</time>
</trkpt>
<trkpt lat="13.5264972" lon="100.1902814">
<ele>0.000</ele>
<time>2018-03-31T08:38:41.700Z</time>
</trkpt>
<trkpt lat="13.5265526" lon="100.1904327">
<ele>0.000</ele>
<time>2018-03-31T08:38:44.373Z</time>
</trkpt>
<trkpt lat="13.5266098" lon="100.1906246">
<ele>0.000</ele>
<time>2018-03-31T08:38:47.380Z</time>
</trkpt>
<trkpt lat="13.5266904" lon="100.1908320">
<ele>0.000</ele>
<time>2018-03-31T08:38:50.586Z</time>
</trkpt>
<trkpt lat="13.5267438" lon="100.1910224">
<ele>0.000</ele>
<time>2018-03-31T08:38:53.475Z</time>
</trkpt>
<trkpt lat="13.5268085" lon="100.1912370">
<ele>0.000</ele>
<time>2018-03-31T08:38:56.723Z</time>
</trkpt>
<trkpt lat="13.5268862" lon="100.1914225">
<ele>0.000</ele>
<time>2018-03-31T08:38:59.692Z</time>
</trkpt>
<trkpt lat="13.5269375" lon="100.1915990">
<ele>0.000</ele>
<time>2018-03-31T08:39:02.585Z</time>
</trkpt>
<trkpt lat="13.5269989" lon="100.1917591">
<ele>0.000</ele>
<time>2018-03-31T08:39:05.771Z</time>
</trkpt>
<trkpt lat="13.5270459" lon="100.1918720">
<ele>0.000</ele>
<time>2018-03-31T08:39:09.276Z</time>
</trkpt>
<trkpt lat="13.5270699" lon="100.1919729">
<ele>0.000</ele>
<time>2018-03-31T08:39:12.993Z</time>
</trkpt>
<trkpt lat="13.5270699" lon="100.1919729">
<ele>0.000</ele>
<time>2018-03-31T08:39:19.993Z</time>
</trkpt>
<trkpt lat="13.5270699" lon="100.1919729">
<ele>0.000</ele>
<time>2018-03-31T08:39:22.465Z</time>
</trkpt>
<trkpt lat="13.5271370" lon="100.1921803">
<ele>0.000</ele>
<time>2018-03-31T08:39:34.929Z</time>
</trkpt>
<trkpt lat="13.5271672" lon="100.1922761">
<ele>0.000</ele>
<time>2018-03-31T08:39:37.985Z</time>
</trkpt>
<trkpt lat="13.5272030" lon="100.1923795">
<ele>0.000</ele>
<time>2018-03-31T08:39:40.480Z</time>
</trkpt>
<trkpt lat="13.5272512" lon="100.1925204">
<ele>0.000</ele>
<time>2018-03-31T08:39:44.010Z</time>
</trkpt>
<trkpt lat="13.5272885" lon="100.1926134">
<ele>0.000</ele>
<time>2018-03-31T08:39:46.562Z</time>
</trkpt>
<trkpt lat="13.5273219" lon="100.1927247">
<ele>0.000</ele>
<time>2018-03-31T08:39:49.081Z</time>
</trkpt>
<trkpt lat="13.5273706" lon="100.1928723">
<ele>0.000</ele>
<time>2018-03-31T08:39:52.484Z</time>
</trkpt>
<trkpt lat="13.5273998" lon="100.1929701">
<ele>0.000</ele>
<time>2018-03-31T08:39:55.391Z</time>
</trkpt>
<trkpt lat="13.5274423" lon="100.1930539">
<ele>0.000</ele>
<time>2018-03-31T08:39:58.362Z</time>
</trkpt>
<trkpt lat="13.5274695" lon="100.1931723">
<ele>0.000</ele>
<time>2018-03-31T08:40:02.369Z</time>
</trkpt>
<trkpt lat="13.5275029" lon="100.1932791">
<ele>0.000</ele>
<time>2018-03-31T08:40:05.992Z</time>
</trkpt>
<trkpt lat="13.5275029" lon="100.1932791">
<ele>0.000</ele>
<time>2018-03-31T08:40:11.992Z</time>
</trkpt>
<trkpt lat="13.5275029" lon="100.1932791">
<ele>0.000</ele>
<time>2018-03-31T08:40:16.575Z</time>
</trkpt>
<trkpt lat="13.5275752" lon="100.1934873">
<ele>0.000</ele>
<time>2018-03-31T08:40:29.599Z</time>
</trkpt>
<trkpt lat="13.5276054" lon="100.1935798">
<ele>0.000</ele>
<time>2018-03-31T08:40:32.879Z</time>
</trkpt>
<trkpt lat="13.5276319" lon="100.1936774">
<ele>0.000</ele>
<time>2018-03-31T08:40:36.320Z</time>
</trkpt>
<trkpt lat="13.5276652" lon="100.1937738">
<ele>0.000</ele>
<time>2018-03-31T08:40:39.991Z</time>
</trkpt>
<trkpt lat="13.5276652" lon="100.1937738">
<ele>0.000</ele>
<time>2018-03-31T08:40:50.991Z</time>
</trkpt>
<trkpt lat="13.5276652" lon="100.1937738">
<ele>0.000</ele>
<time>2018-03-31T08:41:23.249Z</time>
</trkpt>
<trkpt lat="13.5278500" lon="100.1942519">
<ele>0.000</ele>
<time>2018-03-31T08:42:00.514Z</time>
</trkpt>
<trkpt lat="13.5278755" lon="100.1943415">
<ele>0.000</ele>
<time>2018-03-31T08:42:03.695Z</time>
</trkpt>
<trkpt lat="13.5279044" lon="100.1944337">
<ele>0.000</ele>
<time>2018-03-31T08:42:06.270Z</time>
</trkpt>
<trkpt lat="13.5279428" lon="100.1945513">
<ele>0.000</ele>
<time>2018-03-31T08:42:08.797Z</time>
</trkpt>
<trkpt lat="13.5279808" lon="100.1946581">
<ele>0.000</ele>
<time>2018-03-31T08:42:11.394Z</time>
</trkpt>
<trkpt lat="13.5280232" lon="100.1947680">
<ele>0.000</ele>
<time>2018-03-31T08:42:14.547Z</time>
</trkpt>
<trkpt lat="13.5280629" lon="100.1948665">
<ele>0.000</ele>
<time>2018-03-31T08:42:18.325Z</time>
</trkpt>
<trkpt lat="13.5281006" lon="100.1949659">
<ele>0.000</ele>
<time>2018-03-31T08:42:22.574Z</time>
</trkpt>
<trkpt lat="13.5281280" lon="100.1950555">
<ele>0.000</ele>
<time>2018-03-31T08:42:26.937Z</time>
</trkpt>
<trkpt lat="13.5281659" lon="100.1951529">
<ele>0.000</ele>
<time>2018-03-31T08:42:32.608Z</time>
</trkpt>
<trkpt lat="13.5281953" lon="100.1952468">
<ele>0.000</ele>
<time>2018-03-31T08:42:37.999Z</time>
</trkpt>
<trkpt lat="13.5281953" lon="100.1952468">
<ele>0.000</ele>
<time>2018-03-31T08:42:40.999Z</time>
</trkpt>
<trkpt lat="13.5281953" lon="100.1952468">
<ele>0.000</ele>
<time>2018-03-31T08:42:55.011Z</time>
</trkpt>
<trkpt lat="13.5282282" lon="100.1954203">
<ele>0.000</ele>
<time>2018-03-31T08:43:06.147Z</time>
</trkpt>
<trkpt lat="13.5282581" lon="100.1955267">
<ele>0.000</ele>
<time>2018-03-31T08:43:09.756Z</time>
</trkpt>
<trkpt lat="13.5282887" lon="100.1956255">
<ele>0.000</ele>
<time>2018-03-31T08:43:12.540Z</time>
</trkpt>
<trkpt lat="13.5283370" lon="100.1957346">
<ele>0.000</ele>
<time>2018-03-31T08:43:15.745Z</time>
</trkpt>
<trkpt lat="13.5283721" lon="100.1958301">
<ele>0.000</ele>
<time>2018-03-31T08:43:18.777Z</time>
</trkpt>
<trkpt lat="13.5284088" lon="100.1959276">
<ele>0.000</ele>
<time>2018-03-31T08:43:22.550Z</time>
</trkpt>
<trkpt lat="13.5284353" lon="100.1960228">
<ele>0.000</ele>
<time>2018-03-31T08:43:27.194Z</time>
</trkpt>
<trkpt lat="13.5284649" lon="100.1961135">
<ele>0.000</ele>
<time>2018-03-31T08:43:32.997Z</time>
</trkpt>
<trkpt lat="13.5284649" lon="100.1961135">
<ele>0.000</ele>
<time>2018-03-31T08:43:41.997Z</time>
</trkpt>
<trkpt lat="13.5284649" lon="100.1961135">
<ele>0.000</ele>
<time>2018-03-31T08:44:02.123Z</time>
</trkpt>
<trkpt lat="13.5285426" lon="100.1963145">
<ele>0.000</ele>
<time>2018-03-31T08:44:14.569Z</time>
</trkpt>
<trkpt lat="13.5285865" lon="100.1964415">
<ele>0.000</ele>
<time>2018-03-31T08:44:17.764Z</time>
</trkpt>
<trkpt lat="13.5286211" lon="100.1965416">
<ele>0.537</ele>
<time>2018-03-31T08:44:20.435Z</time>
</trkpt>
<trkpt lat="13.5286613" lon="100.1966537">
<ele>0.866</ele>
<time>2018-03-31T08:44:23.435Z</time>
</trkpt>
<trkpt lat="13.5286985" lon="100.1967650">
<ele>0.877</ele>
<time>2018-03-31T08:44:26.441Z</time>
</trkpt>
<trkpt lat="13.5287303" lon="100.1968587">
<ele>0.590</ele>
<time>2018-03-31T08:44:29.295Z</time>
</trkpt>
<trkpt lat="13.5287693" lon="100.1969466">
<ele>0.034</ele>
<time>2018-03-31T08:44:32.477Z</time>
</trkpt>
<trkpt lat="13.5288221" lon="100.1970279">
<ele>0.000</ele>
<time>2018-03-31T08:44:35.996Z</time>
</trkpt>
<trkpt lat="13.5288221" lon="100.1970279">
<ele>0.000</ele>
<time>2018-03-31T08:44:42.996Z</time>
</trkpt>
<trkpt lat="13.5288221" lon="100.1970279">
<ele>0.000</ele>
<time>2018-03-31T08:44:50.960Z</time>
</trkpt>
<trkpt lat="13.5288778" lon="100.1972247">
<ele>0.000</ele>
<time>2018-03-31T08:45:01.546Z</time>
</trkpt>
<trkpt lat="13.5289220" lon="100.1973353">
<ele>0.007</ele>
<time>2018-03-31T08:45:04.580Z</time>
</trkpt>
<trkpt lat="13.5289571" lon="100.1974371">
<ele>0.000</ele>
<time>2018-03-31T08:45:06.995Z</time>
</trkpt>
<trkpt lat="13.5289571" lon="100.1974371">
<ele>0.000</ele>
<time>2018-03-31T08:45:21.995Z</time>
</trkpt>
<trkpt lat="13.5289571" lon="100.1974371">
<ele>0.000</ele>
<time>2018-03-31T08:45:24.764Z</time>
</trkpt>
<trkpt lat="13.5290686" lon="100.1977756">
<ele>0.000</ele>
<time>2018-03-31T08:45:46.219Z</time>
</trkpt>
<trkpt lat="13.5291005" lon="100.1978779">
<ele>0.000</ele>
<time>2018-03-31T08:45:49.443Z</time>
</trkpt>
<trkpt lat="13.5291348" lon="100.1979776">
<ele>0.136</ele>
<time>2018-03-31T08:45:52.415Z</time>
</trkpt>
<trkpt lat="13.5291740" lon="100.1980998">
<ele>0.465</ele>
<time>2018-03-31T08:45:55.975Z</time>
</trkpt>
<trkpt lat="13.5292105" lon="100.1982117">
<ele>0.841</ele>
<time>2018-03-31T08:45:59.343Z</time>
</trkpt>
<trkpt lat="13.5292600" lon="100.1983202">
<ele>1.055</ele>
<time>2018-03-31T08:46:02.614Z</time>
</trkpt>
<trkpt lat="13.5293115" lon="100.1984038">
<ele>1.099</ele>
<time>2018-03-31T08:46:05.046Z</time>
</trkpt>
<trkpt lat="13.5293541" lon="100.1985128">
<ele>1.099</ele>
<time>2018-03-31T08:46:07.838Z</time>
</trkpt>
<trkpt lat="13.5293905" lon="100.1986315">
<ele>1.176</ele>
<time>2018-03-31T08:46:10.848Z</time>
</trkpt>
<trkpt lat="13.5294228" lon="100.1987349">
<ele>1.332</ele>
<time>2018-03-31T08:46:13.281Z</time>
</trkpt>
<trkpt lat="13.5294635" lon="100.1988723">
<ele>1.418</ele>
<time>2018-03-31T08:46:16.102Z</time>
</trkpt>
<trkpt lat="13.5294998" lon="100.1990243">
<ele>1.353</ele>
<time>2018-03-31T08:46:19.228Z</time>
</trkpt>
<trkpt lat="13.5295397" lon="100.1991448">
<ele>1.276</ele>
<time>2018-03-31T08:46:22.004Z</time>
</trkpt>
<trkpt lat="13.5296039" lon="100.1992268">
<ele>1.424</ele>
<time>2018-03-31T08:46:24.181Z</time>
</trkpt>
<trkpt lat="13.5296578" lon="100.1993837">
<ele>1.800</ele>
<time>2018-03-31T08:46:27.440Z</time>
</trkpt>
<trkpt lat="13.5296979" lon="100.1995252">
<ele>1.931</ele>
<time>2018-03-31T08:46:30.415Z</time>
</trkpt>
<trkpt lat="13.5297370" lon="100.1996511">
<ele>1.347</ele>
<time>2018-03-31T08:46:33.314Z</time>
</trkpt>
<trkpt lat="13.5297810" lon="100.1997506">
<ele>0.336</ele>
<time>2018-03-31T08:46:35.800Z</time>
</trkpt>
<trkpt lat="13.5298245" lon="100.1998723">
<ele>0.000</ele>
<time>2018-03-31T08:46:38.721Z</time>
</trkpt>
<trkpt lat="13.5298592" lon="100.1999998">
<ele>0.000</ele>
<time>2018-03-31T08:46:41.510Z</time>
</trkpt>
<trkpt lat="13.5299028" lon="100.2001594">
<ele>0.000</ele>
<time>2018-03-31T08:46:44.698Z</time>
</trkpt>
<trkpt lat="13.5299513" lon="100.2003033">
<ele>0.000</ele>
<time>2018-03-31T08:46:47.474Z</time>
</trkpt>
<trkpt lat="13.5300028" lon="100.2004596">
<ele>0.000</ele>
<time>2018-03-31T08:46:50.327Z</time>
</trkpt>
<trkpt lat="13.5300578" lon="100.2006320">
<ele>0.000</ele>
<time>2018-03-31T08:46:53.303Z</time>
</trkpt>
<trkpt lat="13.5301164" lon="100.2007949">
<ele>0.000</ele>
<time>2018-03-31T08:46:56.393Z</time>
</trkpt>
<trkpt lat="13.5301601" lon="100.2008908">
<ele>0.000</ele>
<time>2018-03-31T08:46:58.704Z</time>
</trkpt>
<trkpt lat="13.5301922" lon="100.2009832">
<ele>0.000</ele>
<time>2018-03-31T08:47:01.490Z</time>
</trkpt>
<trkpt lat="13.5302240" lon="100.2010772">
<ele>0.000</ele>
<time>2018-03-31T08:47:04.992Z</time>
</trkpt>
<trkpt lat="13.5302240" lon="100.2010772">
<ele>0.000</ele>
<time>2018-03-31T08:47:08.992Z</time>
</trkpt>
<trkpt lat="13.5302240" lon="100.2010772">
<ele>0.169</ele>
<time>2018-03-31T08:47:16.688Z</time>
</trkpt>
<trkpt lat="13.5303129" lon="100.2012305">
<ele>0.167</ele>
<time>2018-03-31T08:47:28.232Z</time>
</trkpt>
<trkpt lat="13.5303493" lon="100.2013487">
<ele>0.000</ele>
<time>2018-03-31T08:47:31.879Z</time>
</trkpt>
<trkpt lat="13.5303811" lon="100.2014693">
<ele>0.000</ele>
<time>2018-03-31T08:47:34.818Z</time>
</trkpt>
<trkpt lat="13.5304189" lon="100.2015976">
<ele>0.000</ele>
<time>2018-03-31T08:47:37.790Z</time>
</trkpt>
<trkpt lat="13.5304552" lon="100.2017195">
<ele>0.000</ele>
<time>2018-03-31T08:47:40.492Z</time>
</trkpt>
<trkpt lat="13.5304955" lon="100.2018538">
<ele>0.000</ele>
<time>2018-03-31T08:47:43.259Z</time>
</trkpt>
<trkpt lat="13.5305391" lon="100.2019966">
<ele>0.000</ele>
<time>2018-03-31T08:47:45.950Z</time>
</trkpt>
<trkpt lat="13.5306016" lon="100.2021679">
<ele>0.000</ele>
<time>2018-03-31T08:47:48.974Z</time>
</trkpt>
<trkpt lat="13.5306592" lon="100.2023497">
<ele>0.000</ele>
<time>2018-03-31T08:47:52.005Z</time>
</trkpt>
<trkpt lat="13.5307155" lon="100.2025167">
<ele>0.368</ele>
<time>2018-03-31T08:47:54.704Z</time>
</trkpt>
<trkpt lat="13.5307767" lon="100.2027156">
<ele>0.706</ele>
<time>2018-03-31T08:47:57.686Z</time>
</trkpt>
<trkpt lat="13.5308507" lon="100.2029279">
<ele>0.480</ele>
<time>2018-03-31T08:48:01.090Z</time>
</trkpt>
<trkpt lat="13.5309027" lon="100.2030319">
<ele>0.000</ele>
<time>2018-03-31T08:48:03.508Z</time>
</trkpt>
<trkpt lat="13.5309339" lon="100.2031244">
<ele>0.000</ele>
<time>2018-03-31T08:48:06.444Z</time>
</trkpt>
<trkpt lat="13.5309501" lon="100.2032206">
<ele>0.000</ele>
<time>2018-03-31T08:48:10.016Z</time>
</trkpt>
<trkpt lat="13.5309903" lon="100.2033130">
<ele>0.242</ele>
<time>2018-03-31T08:48:13.159Z</time>
</trkpt>
<trkpt lat="13.5310287" lon="100.2034222">
<ele>0.133</ele>
<time>2018-03-31T08:48:16.075Z</time>
</trkpt>
<trkpt lat="13.5310765" lon="100.2035629">
<ele>0.000</ele>
<time>2018-03-31T08:48:19.265Z</time>
</trkpt>
<trkpt lat="13.5311236" lon="100.2037069">
<ele>0.000</ele>
<time>2018-03-31T08:48:22.043Z</time>
</trkpt>
<trkpt lat="13.5311858" lon="100.2038847">
<ele>0.000</ele>
<time>2018-03-31T08:48:25.085Z</time>
</trkpt>
<trkpt lat="13.5312449" lon="100.2040594">
<ele>0.000</ele>
<time>2018-03-31T08:48:27.936Z</time>
</trkpt>
<trkpt lat="13.5312981" lon="100.2042643">
<ele>0.000</ele>
<time>2018-03-31T08:48:31.108Z</time>
</trkpt>
<trkpt lat="13.5313740" lon="100.2044649">
<ele>0.000</ele>
<time>2018-03-31T08:48:34.210Z</time>
</trkpt>
<trkpt lat="13.5314337" lon="100.2046455">
<ele>0.000</ele>
<time>2018-03-31T08:48:37.032Z</time>
</trkpt>
<trkpt lat="13.5314900" lon="100.2048133">
<ele>0.000</ele>
<time>2018-03-31T08:48:39.846Z</time>
</trkpt>
<trkpt lat="13.5315521" lon="100.2049784">
<ele>0.000</ele>
<time>2018-03-31T08:48:42.870Z</time>
</trkpt>
<trkpt lat="13.5316085" lon="100.2051311">
<ele>0.000</ele>
<time>2018-03-31T08:48:45.847Z</time>
</trkpt>
<trkpt lat="13.5316645" lon="100.2052728">
<ele>0.000</ele>
<time>2018-03-31T08:48:48.740Z</time>
</trkpt>
<trkpt lat="13.5317163" lon="100.2054411">
<ele>0.000</ele>
<time>2018-03-31T08:48:51.911Z</time>
</trkpt>
<trkpt lat="13.5317674" lon="100.2055954">
<ele>0.000</ele>
<time>2018-03-31T08:48:54.914Z</time>
</trkpt>
<trkpt lat="13.5318014" lon="100.2057007">
<ele>0.000</ele>
<time>2018-03-31T08:48:57.411Z</time>
</trkpt>
<trkpt lat="13.5318238" lon="100.2058100">
<ele>0.000</ele>
<time>2018-03-31T08:49:00.679Z</time>
</trkpt>
<trkpt lat="13.5318570" lon="100.2059172">
<ele>0.000</ele>
<time>2018-03-31T08:49:03.887Z</time>
</trkpt>
<trkpt lat="13.5318994" lon="100.2060044">
<ele>0.000</ele>
<time>2018-03-31T08:49:06.216Z</time>
</trkpt>
<trkpt lat="13.5318953" lon="100.2061164">
<ele>0.000</ele>
<time>2018-03-31T08:49:08.997Z</time>
</trkpt>
<trkpt lat="13.5318953" lon="100.2061164">
<ele>0.000</ele>
<time>2018-03-31T08:49:13.998Z</time>
</trkpt>
<trkpt lat="13.5318953" lon="100.2061164">
<ele>0.000</ele>
<time>2018-03-31T08:49:23.681Z</time>
</trkpt>
<trkpt lat="13.5319700" lon="100.2062688">
<ele>0.000</ele>
<time>2018-03-31T08:49:32.769Z</time>
</trkpt>
<trkpt lat="13.5320016" lon="100.2063638">
<ele>0.433</ele>
<time>2018-03-31T08:49:36.273Z</time>
</trkpt>
<trkpt lat="13.5320382" lon="100.2064648">
<ele>1.592</ele>
<time>2018-03-31T08:49:40.233Z</time>
</trkpt>
<trkpt lat="13.5320752" lon="100.2065763">
<ele>2.883</ele>
<time>2018-03-31T08:49:44.390Z</time>
</trkpt>
<trkpt lat="13.5321036" lon="100.2066869">
<ele>3.225</ele>
<time>2018-03-31T08:49:48.291Z</time>
</trkpt>
<trkpt lat="13.5321350" lon="100.2067992">
<ele>2.315</ele>
<time>2018-03-31T08:49:52.206Z</time>
</trkpt>
<trkpt lat="13.5321662" lon="100.2068874">
<ele>1.086</ele>
<time>2018-03-31T08:49:55.221Z</time>
</trkpt>
<trkpt lat="13.5322015" lon="100.2069745">
<ele>0.460</ele>
<time>2018-03-31T08:49:58.157Z</time>
</trkpt>
<trkpt lat="13.5322344" lon="100.2070648">
<ele>0.495</ele>
<time>2018-03-31T08:50:01.252Z</time>
</trkpt>
<trkpt lat="13.5322739" lon="100.2071716">
<ele>0.899</ele>
<time>2018-03-31T08:50:05.109Z</time>
</trkpt>
<trkpt lat="13.5323061" lon="100.2072645">
<ele>1.240</ele>
<time>2018-03-31T08:50:08.491Z</time>
</trkpt>
<trkpt lat="13.5323427" lon="100.2073806">
<ele>1.269</ele>
<time>2018-03-31T08:50:12.685Z</time>
</trkpt>
<trkpt lat="13.5323825" lon="100.2074728">
<ele>1.232</ele>
<time>2018-03-31T08:50:16.401Z</time>
</trkpt>
<trkpt lat="13.5324412" lon="100.2075668">
<ele>1.596</ele>
<time>2018-03-31T08:50:20.870Z</time>
</trkpt>
<trkpt lat="13.5324720" lon="100.2076637">
<ele>2.522</ele>
<time>2018-03-31T08:50:25.196Z</time>
</trkpt>
<trkpt lat="13.5325003" lon="100.2077540">
<ele>3.778</ele>
<time>2018-03-31T08:50:29.622Z</time>
</trkpt>
<trkpt lat="13.5325336" lon="100.2078614">
<ele>4.986</ele>
<time>2018-03-31T08:50:34.973Z</time>
</trkpt>
<trkpt lat="13.5325666" lon="100.2079656">
<ele>5.806</ele>
<time>2018-03-31T08:50:39.343Z</time>
</trkpt>
<trkpt lat="13.5325960" lon="100.2080644">
<ele>6.016</ele>
<time>2018-03-31T08:50:42.836Z</time>
</trkpt>
<trkpt lat="13.5326335" lon="100.2081725">
<ele>5.742</ele>
<time>2018-03-31T08:50:46.546Z</time>
</trkpt>
<trkpt lat="13.5326703" lon="100.2082700">
<ele>5.512</ele>
<time>2018-03-31T08:50:49.591Z</time>
</trkpt>
<trkpt lat="13.5327146" lon="100.2084237">
<ele>5.686</ele>
<time>2018-03-31T08:50:53.426Z</time>
</trkpt>
<trkpt lat="13.5327655" lon="100.2085514">
<ele>5.766</ele>
<time>2018-03-31T08:50:56.383Z</time>
</trkpt>
<trkpt lat="13.5328127" lon="100.2086951">
<ele>5.207</ele>
<time>2018-03-31T08:50:59.649Z</time>
</trkpt>
<trkpt lat="13.5328549" lon="100.2087988">
<ele>4.344</ele>
<time>2018-03-31T08:51:02.604Z</time>
</trkpt>
<trkpt lat="13.5328839" lon="100.2088986">
<ele>3.679</ele>
<time>2018-03-31T08:51:06.474Z</time>
</trkpt>
<trkpt lat="13.5329247" lon="100.2089958">
<ele>3.260</ele>
<time>2018-03-31T08:51:12.173Z</time>
</trkpt>
<trkpt lat="13.5329560" lon="100.2091170">
<ele>2.791</ele>
<time>2018-03-31T08:51:17.012Z</time>
</trkpt>
<trkpt lat="13.5329873" lon="100.2092250">
<ele>2.090</ele>
<time>2018-03-31T08:51:20.336Z</time>
</trkpt>
<trkpt lat="13.5330239" lon="100.2093205">
<ele>1.538</ele>
<time>2018-03-31T08:51:23.446Z</time>
</trkpt>
<trkpt lat="13.5330588" lon="100.2094322">
<ele>1.500</ele>
<time>2018-03-31T08:51:27.134Z</time>
</trkpt>
<trkpt lat="13.5330963" lon="100.2095417">
<ele>1.669</ele>
<time>2018-03-31T08:51:30.294Z</time>
</trkpt>
<trkpt lat="13.5331378" lon="100.2096678">
<ele>1.617</ele>
<time>2018-03-31T08:51:33.540Z</time>
</trkpt>
<trkpt lat="13.5331777" lon="100.2097984">
<ele>1.267</ele>
<time>2018-03-31T08:51:36.742Z</time>
</trkpt>
<trkpt lat="13.5332105" lon="100.2099136">
<ele>0.894</ele>
<time>2018-03-31T08:51:39.809Z</time>
</trkpt>
<trkpt lat="13.5332352" lon="100.2100041">
<ele>0.871</ele>
<time>2018-03-31T08:51:42.723Z</time>
</trkpt>
<trkpt lat="13.5332632" lon="100.2101070">
<ele>1.310</ele>
<time>2018-03-31T08:51:46.646Z</time>
</trkpt>
<trkpt lat="13.5332920" lon="100.2102019">
<ele>2.027</ele>
<time>2018-03-31T08:51:50.704Z</time>
</trkpt>
<trkpt lat="13.5333264" lon="100.2102917">
<ele>2.713</ele>
<time>2018-03-31T08:51:54.088Z</time>
</trkpt>
<trkpt lat="13.5333616" lon="100.2104025">
<ele>2.857</ele>
<time>2018-03-31T08:51:57.329Z</time>
</trkpt>
<trkpt lat="13.5334097" lon="100.2105105">
<ele>2.274</ele>
<time>2018-03-31T08:52:00.459Z</time>
</trkpt>
<trkpt lat="13.5334537" lon="100.2106117">
<ele>1.510</ele>
<time>2018-03-31T08:52:03.445Z</time>
</trkpt>
<trkpt lat="13.5334880" lon="100.2107096">
<ele>1.028</ele>
<time>2018-03-31T08:52:06.336Z</time>
</trkpt>
<trkpt lat="13.5335288" lon="100.2108220">
<ele>0.680</ele>
<time>2018-03-31T08:52:09.666Z</time>
</trkpt>
<trkpt lat="13.5335628" lon="100.2109195">
<ele>0.320</ele>
<time>2018-03-31T08:52:12.995Z</time>
</trkpt>
<trkpt lat="13.5335628" lon="100.2109195">
<ele>0.043</ele>
<time>2018-03-31T08:52:20.995Z</time>
</trkpt>
<trkpt lat="13.5335628" lon="100.2109195">
<ele>0.000</ele>
<time>2018-03-31T08:52:21.095Z</time>
</trkpt>
<trkpt lat="13.5336463" lon="100.2111815">
<ele>0.000</ele>
<time>2018-03-31T08:52:36.159Z</time>
</trkpt>
<trkpt lat="13.5336784" lon="100.2112938">
<ele>0.110</ele>
<time>2018-03-31T08:52:39.401Z</time>
</trkpt>
<trkpt lat="13.5337058" lon="100.2113840">
<ele>0.014</ele>
<time>2018-03-31T08:52:41.995Z</time>
</trkpt>
<trkpt lat="13.5337058" lon="100.2113840">
<ele>0.000</ele>
<time>2018-03-31T08:52:45.994Z</time>
</trkpt>
<trkpt lat="13.5337058" lon="100.2113840">
<ele>0.000</ele>
<time>2018-03-31T08:52:50.086Z</time>
</trkpt>
<trkpt lat="13.5337892" lon="100.2115978">
<ele>0.000</ele>
<time>2018-03-31T08:53:05.532Z</time>
</trkpt>
<trkpt lat="13.5338086" lon="100.2116921">
<ele>0.000</ele>
<time>2018-03-31T08:53:08.754Z</time>
</trkpt>
<trkpt lat="13.5338297" lon="100.2117861">
<ele>0.000</ele>
<time>2018-03-31T08:53:11.397Z</time>
</trkpt>
<trkpt lat="13.5338661" lon="100.2118962">
<ele>0.000</ele>
<time>2018-03-31T08:53:14.009Z</time>
</trkpt>
<trkpt lat="13.5339024" lon="100.2120678">
<ele>0.000</ele>
<time>2018-03-31T08:53:17.628Z</time>
</trkpt>
<trkpt lat="13.5339622" lon="100.2122038">
<ele>0.000</ele>
<time>2018-03-31T08:53:21.162Z</time>
</trkpt>
<trkpt lat="13.5340068" lon="100.2123142">
<ele>0.000</ele>
<time>2018-03-31T08:53:24.611Z</time>
</trkpt>
<trkpt lat="13.5340401" lon="100.2124036">
<ele>0.000</ele>
<time>2018-03-31T08:53:27.297Z</time>
</trkpt>
<trkpt lat="13.5340649" lon="100.2125031">
<ele>0.000</ele>
<time>2018-03-31T08:53:29.818Z</time>
</trkpt>
<trkpt lat="13.5341061" lon="100.2126337">
<ele>0.366</ele>
<time>2018-03-31T08:53:32.795Z</time>
</trkpt>
<trkpt lat="13.5341486" lon="100.2127774">
<ele>1.665</ele>
<time>2018-03-31T08:53:35.759Z</time>
</trkpt>
<trkpt lat="13.5341914" lon="100.2129277">
<ele>2.832</ele>
<time>2018-03-31T08:53:38.753Z</time>
</trkpt>
<trkpt lat="13.5342597" lon="100.2130751">
<ele>3.429</ele>
<time>2018-03-31T08:53:42.611Z</time>
</trkpt>
<trkpt lat="13.5343033" lon="100.2131665">
<ele>3.568</ele>
<time>2018-03-31T08:53:45.329Z</time>
</trkpt>
<trkpt lat="13.5343292" lon="100.2132580">
<ele>3.246</ele>
<time>2018-03-31T08:53:47.527Z</time>
</trkpt>
<trkpt lat="13.5343528" lon="100.2133896">
<ele>2.227</ele>
<time>2018-03-31T08:53:49.879Z</time>
</trkpt>
<trkpt lat="13.5344165" lon="100.2135840">
<ele>0.564</ele>
<time>2018-03-31T08:53:52.793Z</time>
</trkpt>
<trkpt lat="13.5344822" lon="100.2137842">
<ele>0.000</ele>
<time>2018-03-31T08:53:56.041Z</time>
</trkpt>
<trkpt lat="13.5345310" lon="100.2139409">
<ele>0.000</ele>
<time>2018-03-31T08:54:00.654Z</time>
</trkpt>
<trkpt lat="13.5345649" lon="100.2140274">
<ele>0.000</ele>
<time>2018-03-31T08:54:04.895Z</time>
</trkpt>
<trkpt lat="13.5345957" lon="100.2141415">
<ele>0.000</ele>
<time>2018-03-31T08:54:09.452Z</time>
</trkpt>
<trkpt lat="13.5346307" lon="100.2142398">
<ele>0.000</ele>
<time>2018-03-31T08:54:12.620Z</time>
</trkpt>
<trkpt lat="13.5346623" lon="100.2143334">
<ele>0.000</ele>
<time>2018-03-31T08:54:15.450Z</time>
</trkpt>
<trkpt lat="13.5346975" lon="100.2144327">
<ele>0.000</ele>
<time>2018-03-31T08:54:18.438Z</time>
</trkpt>
<trkpt lat="13.5347310" lon="100.2145288">
<ele>0.000</ele>
<time>2018-03-31T08:54:21.123Z</time>
</trkpt>
<trkpt lat="13.5347683" lon="100.2146388">
<ele>0.000</ele>
<time>2018-03-31T08:54:23.572Z</time>
</trkpt>
<trkpt lat="13.5348235" lon="100.2148169">
<ele>0.000</ele>
<time>2018-03-31T08:54:26.538Z</time>
</trkpt>
<trkpt lat="13.5349006" lon="100.2150422">
<ele>0.000</ele>
<time>2018-03-31T08:54:29.626Z</time>
</trkpt>
<trkpt lat="13.5349758" lon="100.2152650">
<ele>0.000</ele>
<time>2018-03-31T08:54:32.647Z</time>
</trkpt>
<trkpt lat="13.5350376" lon="100.2154456">
<ele>0.000</ele>
<time>2018-03-31T08:54:35.151Z</time>
</trkpt>
<trkpt lat="13.5351111" lon="100.2156823">
<ele>0.000</ele>
<time>2018-03-31T08:54:38.272Z</time>
</trkpt>
<trkpt lat="13.5351882" lon="100.2159049">
<ele>0.000</ele>
<time>2018-03-31T08:54:41.281Z</time>
</trkpt>
<trkpt lat="13.5352403" lon="100.2160840">
<ele>0.000</ele>
<time>2018-03-31T08:54:44.037Z</time>
</trkpt>
<trkpt lat="13.5352839" lon="100.2162039">
<ele>0.000</ele>
<time>2018-03-31T08:54:46.272Z</time>
</trkpt>
<trkpt lat="13.5353074" lon="100.2163331">
<ele>0.000</ele>
<time>2018-03-31T08:54:48.940Z</time>
</trkpt>
<trkpt lat="13.5353784" lon="100.2165428">
<ele>0.000</ele>
<time>2018-03-31T08:54:52.456Z</time>
</trkpt>
<trkpt lat="13.5354991" lon="100.2168058">
<ele>0.000</ele>
<time>2018-03-31T08:54:55.641Z</time>
</trkpt>
<trkpt lat="13.5356164" lon="100.2171575">
<ele>0.174</ele>
<time>2018-03-31T08:54:58.723Z</time>
</trkpt>
<trkpt lat="13.5357019" lon="100.2174003">
<ele>0.104</ele>
<time>2018-03-31T08:55:00.610Z</time>
</trkpt>
<trkpt lat="13.5358364" lon="100.2177786">
<ele>0.000</ele>
<time>2018-03-31T08:55:03.496Z</time>
</trkpt>
<trkpt lat="13.5359606" lon="100.2181594">
<ele>0.000</ele>
<time>2018-03-31T08:55:06.375Z</time>
</trkpt>
<trkpt lat="13.5360677" lon="100.2185639">
<ele>0.000</ele>
<time>2018-03-31T08:55:09.338Z</time>
</trkpt>
<trkpt lat="13.5362000" lon="100.2189929">
<ele>0.000</ele>
<time>2018-03-31T08:55:12.363Z</time>
</trkpt>
<trkpt lat="13.5363488" lon="100.2194243">
<ele>0.000</ele>
<time>2018-03-31T08:55:15.283Z</time>
</trkpt>
<trkpt lat="13.5365007" lon="100.2198716">
<ele>0.000</ele>
<time>2018-03-31T08:55:18.191Z</time>
</trkpt>
<trkpt lat="13.5366624" lon="100.2203390">
<ele>0.000</ele>
<time>2018-03-31T08:55:21.143Z</time>
</trkpt>
<trkpt lat="13.5368180" lon="100.2208361">
<ele>0.000</ele>
<time>2018-03-31T08:55:24.168Z</time>
</trkpt>
<trkpt lat="13.5369825" lon="100.2212777">
<ele>0.000</ele>
<time>2018-03-31T08:55:26.990Z</time>
</trkpt>
<trkpt lat="13.5369825" lon="100.2212777">
<ele>0.000</ele>
<time>2018-03-31T08:55:33.990Z</time>
</trkpt>
<trkpt lat="13.5369825" lon="100.2212777">
<ele>0.000</ele>
<time>2018-03-31T08:55:35.508Z</time>
</trkpt>
<trkpt lat="13.5370396" lon="100.2214738">
<ele>0.000</ele>
<time>2018-03-31T08:55:43.210Z</time>
</trkpt>
<trkpt lat="13.5370946" lon="100.2216246">
<ele>0.000</ele>
<time>2018-03-31T08:55:45.859Z</time>
</trkpt>
<trkpt lat="13.5371687" lon="100.2218567">
<ele>0.250</ele>
<time>2018-03-31T08:55:48.834Z</time>
</trkpt>
<trkpt lat="13.5372820" lon="100.2221553">
<ele>0.860</ele>
<time>2018-03-31T08:55:52.021Z</time>
</trkpt>
<trkpt lat="13.5374050" lon="100.2224531">
<ele>1.582</ele>
<time>2018-03-31T08:55:55.068Z</time>
</trkpt>
<trkpt lat="13.5375159" lon="100.2227386">
<ele>2.044</ele>
<time>2018-03-31T08:55:58.050Z</time>
</trkpt>
<trkpt lat="13.5376173" lon="100.2230211">
<ele>1.939</ele>
<time>2018-03-31T08:56:01.198Z</time>
</trkpt>
<trkpt lat="13.5377010" lon="100.2232699">
<ele>1.504</ele>
<time>2018-03-31T08:56:04.294Z</time>
</trkpt>
<trkpt lat="13.5377704" lon="100.2234824">
<ele>0.954</ele>
<time>2018-03-31T08:56:07.300Z</time>
</trkpt>
<trkpt lat="13.5378389" lon="100.2236726">
<ele>0.270</ele>
<time>2018-03-31T08:56:10.397Z</time>
</trkpt>
<trkpt lat="13.5379038" lon="100.2238462">
<ele>0.000</ele>
<time>2018-03-31T08:56:13.827Z</time>
</trkpt>
<trkpt lat="13.5379522" lon="100.2239739">
<ele>0.000</ele>
<time>2018-03-31T08:56:18.004Z</time>
</trkpt>
<trkpt lat="13.5379880" lon="100.2240727">
<ele>0.000</ele>
<time>2018-03-31T08:56:23.142Z</time>
</trkpt>
<trkpt lat="13.5380188" lon="100.2241687">
<ele>0.000</ele>
<time>2018-03-31T08:56:28.555Z</time>
</trkpt>
<trkpt lat="13.5380584" lon="100.2242664">
<ele>0.000</ele>
<time>2018-03-31T08:56:33.214Z</time>
</trkpt>
<trkpt lat="13.5380916" lon="100.2243540">
<ele>0.000</ele>
<time>2018-03-31T08:56:36.209Z</time>
</trkpt>
<trkpt lat="13.5381270" lon="100.2244588">
<ele>0.000</ele>
<time>2018-03-31T08:56:39.136Z</time>
</trkpt>
<trkpt lat="13.5381571" lon="100.2245845">
<ele>0.000</ele>
<time>2018-03-31T08:56:42.042Z</time>
</trkpt>
<trkpt lat="13.5381895" lon="100.2246850">
<ele>0.000</ele>
<time>2018-03-31T08:56:44.415Z</time>
</trkpt>
<trkpt lat="13.5382242" lon="100.2247953">
<ele>0.000</ele>
<time>2018-03-31T08:56:47.407Z</time>
</trkpt>
<trkpt lat="13.5382601" lon="100.2248875">
<ele>0.000</ele>
<time>2018-03-31T08:56:50.327Z</time>
</trkpt>
<trkpt lat="13.5382747" lon="100.2249967">
<ele>0.000</ele>
<time>2018-03-31T08:56:53.321Z</time>
</trkpt>
<trkpt lat="13.5383268" lon="100.2251234">
<ele>0.000</ele>
<time>2018-03-31T08:56:56.586Z</time>
</trkpt>
<trkpt lat="13.5383721" lon="100.2252548">
<ele>0.000</ele>
<time>2018-03-31T08:56:59.804Z</time>
</trkpt>
<trkpt lat="13.5384158" lon="100.2253786">
<ele>0.000</ele>
<time>2018-03-31T08:57:02.632Z</time>
</trkpt>
<trkpt lat="13.5384612" lon="100.2255179">
<ele>0.000</ele>
<time>2018-03-31T08:57:05.456Z</time>
</trkpt>
<trkpt lat="13.5385097" lon="100.2256716">
<ele>0.000</ele>
<time>2018-03-31T08:57:08.543Z</time>
</trkpt>
<trkpt lat="13.5385579" lon="100.2258142">
<ele>0.000</ele>
<time>2018-03-31T08:57:11.725Z</time>
</trkpt>
<trkpt lat="13.5385890" lon="100.2259192">
<ele>0.000</ele>
<time>2018-03-31T08:57:14.739Z</time>
</trkpt>
<trkpt lat="13.5386203" lon="100.2260104">
<ele>0.000</ele>
<time>2018-03-31T08:57:17.750Z</time>
</trkpt>
<trkpt lat="13.5386567" lon="100.2261017">
<ele>0.000</ele>
<time>2018-03-31T08:57:20.744Z</time>
</trkpt>
<trkpt lat="13.5386930" lon="100.2262093">
<ele>0.000</ele>
<time>2018-03-31T08:57:23.749Z</time>
</trkpt>
<trkpt lat="13.5387303" lon="100.2263255">
<ele>0.000</ele>
<time>2018-03-31T08:57:26.757Z</time>
</trkpt>
<trkpt lat="13.5387678" lon="100.2264440">
<ele>0.000</ele>
<time>2018-03-31T08:57:29.785Z</time>
</trkpt>
<trkpt lat="13.5388049" lon="100.2265622">
<ele>0.000</ele>
<time>2018-03-31T08:57:32.570Z</time>
</trkpt>
<trkpt lat="13.5388654" lon="100.2267156">
<ele>0.000</ele>
<time>2018-03-31T08:57:35.595Z</time>
</trkpt>
<trkpt lat="13.5389278" lon="100.2269043">
<ele>0.000</ele>
<time>2018-03-31T08:57:38.516Z</time>
</trkpt>
<trkpt lat="13.5390033" lon="100.2271388">
<ele>0.000</ele>
<time>2018-03-31T08:57:41.759Z</time>
</trkpt>
<trkpt lat="13.5390836" lon="100.2273441">
<ele>0.000</ele>
<time>2018-03-31T08:57:44.815Z</time>
</trkpt>
<trkpt lat="13.5391587" lon="100.2275191">
<ele>0.000</ele>
<time>2018-03-31T08:57:47.791Z</time>
</trkpt>
<trkpt lat="13.5391981" lon="100.2276850">
<ele>0.000</ele>
<time>2018-03-31T08:57:50.693Z</time>
</trkpt>
<trkpt lat="13.5392377" lon="100.2278545">
<ele>0.000</ele>
<time>2018-03-31T08:57:53.869Z</time>
</trkpt>
<trkpt lat="13.5392810" lon="100.2280013">
<ele>0.000</ele>
<time>2018-03-31T08:57:56.924Z</time>
</trkpt>
<trkpt lat="13.5393243" lon="100.2281378">
<ele>0.000</ele>
<time>2018-03-31T08:58:00.449Z</time>
</trkpt>
<trkpt lat="13.5393502" lon="100.2282427">
<ele>0.000</ele>
<time>2018-03-31T08:58:03.623Z</time>
</trkpt>
<trkpt lat="13.5393911" lon="100.2283385">
<ele>0.000</ele>
<time>2018-03-31T08:58:06.529Z</time>
</trkpt>
<trkpt lat="13.5394337" lon="100.2284833">
<ele>0.000</ele>
<time>2018-03-31T08:58:09.783Z</time>
</trkpt>
<trkpt lat="13.5394798" lon="100.2286234">
<ele>0.000</ele>
<time>2018-03-31T08:58:12.428Z</time>
</trkpt>
<trkpt lat="13.5395466" lon="100.2288051">
<ele>0.000</ele>
<time>2018-03-31T08:58:15.476Z</time>
</trkpt>
<trkpt lat="13.5396193" lon="100.2290010">
<ele>0.000</ele>
<time>2018-03-31T08:58:18.517Z</time>
</trkpt>
<trkpt lat="13.5396910" lon="100.2291984">
<ele>0.000</ele>
<time>2018-03-31T08:58:21.567Z</time>
</trkpt>
<trkpt lat="13.5397590" lon="100.2293875">
<ele>0.000</ele>
<time>2018-03-31T08:58:24.654Z</time>
</trkpt>
<trkpt lat="13.5398085" lon="100.2295619">
<ele>0.000</ele>
<time>2018-03-31T08:58:27.726Z</time>
</trkpt>
<trkpt lat="13.5398642" lon="100.2297165">
<ele>0.000</ele>
<time>2018-03-31T08:58:30.693Z</time>
</trkpt>
<trkpt lat="13.5399268" lon="100.2299145">
<ele>0.000</ele>
<time>2018-03-31T08:58:34.465Z</time>
</trkpt>
<trkpt lat="13.5399696" lon="100.2300428">
<ele>0.000</ele>
<time>2018-03-31T08:58:37.103Z</time>
</trkpt>
<trkpt lat="13.5400111" lon="100.2301834">
<ele>0.000</ele>
<time>2018-03-31T08:58:39.823Z</time>
</trkpt>
<trkpt lat="13.5400631" lon="100.2303504">
<ele>0.000</ele>
<time>2018-03-31T08:58:42.600Z</time>
</trkpt>
<trkpt lat="13.5401244" lon="100.2305517">
<ele>0.000</ele>
<time>2018-03-31T08:58:45.579Z</time>
</trkpt>
<trkpt lat="13.5401912" lon="100.2307576">
<ele>0.000</ele>
<time>2018-03-31T08:58:48.573Z</time>
</trkpt>
<trkpt lat="13.5402671" lon="100.2309645">
<ele>0.000</ele>
<time>2018-03-31T08:58:51.633Z</time>
</trkpt>
<trkpt lat="13.5403461" lon="100.2311701">
<ele>0.000</ele>
<time>2018-03-31T08:58:54.744Z</time>
</trkpt>
<trkpt lat="13.5404154" lon="100.2313543">
<ele>0.000</ele>
<time>2018-03-31T08:58:57.692Z</time>
</trkpt>
<trkpt lat="13.5404789" lon="100.2315315">
<ele>0.000</ele>
<time>2018-03-31T08:59:00.738Z</time>
</trkpt>
<trkpt lat="13.5405464" lon="100.2316890">
<ele>0.000</ele>
<time>2018-03-31T08:59:03.738Z</time>
</trkpt>
<trkpt lat="13.5405978" lon="100.2318257">
<ele>0.000</ele>
<time>2018-03-31T08:59:06.811Z</time>
</trkpt>
<trkpt lat="13.5406494" lon="100.2319667">
<ele>0.000</ele>
<time>2018-03-31T08:59:11.222Z</time>
</trkpt>
<trkpt lat="13.5406778" lon="100.2320930">
<ele>0.000</ele>
<time>2018-03-31T08:59:14.967Z</time>
</trkpt>
<trkpt lat="13.5407137" lon="100.2322050">
<ele>0.000</ele>
<time>2018-03-31T08:59:17.677Z</time>
</trkpt>
<trkpt lat="13.5407530" lon="100.2323296">
<ele>0.000</ele>
<time>2018-03-31T08:59:20.385Z</time>
</trkpt>
<trkpt lat="13.5408023" lon="100.2324767">
<ele>0.000</ele>
<time>2018-03-31T08:59:23.658Z</time>
</trkpt>
<trkpt lat="13.5408412" lon="100.2325845">
<ele>0.000</ele>
<time>2018-03-31T08:59:26.302Z</time>
</trkpt>
<trkpt lat="13.5408806" lon="100.2326965">
<ele>0.000</ele>
<time>2018-03-31T08:59:29.154Z</time>
</trkpt>
<trkpt lat="13.5409339" lon="100.2328224">
<ele>0.000</ele>
<time>2018-03-31T08:59:32.401Z</time>
</trkpt>
<trkpt lat="13.5409710" lon="100.2329448">
<ele>0.000</ele>
<time>2018-03-31T08:59:35.651Z</time>
</trkpt>
<trkpt lat="13.5410017" lon="100.2330383">
<ele>0.000</ele>
<time>2018-03-31T08:59:38.664Z</time>
</trkpt>
<trkpt lat="13.5410333" lon="100.2331561">
<ele>0.000</ele>
<time>2018-03-31T08:59:42.791Z</time>
</trkpt>
<trkpt lat="13.5410789" lon="100.2332897">
<ele>0.000</ele>
<time>2018-03-31T08:59:47.191Z</time>
</trkpt>
<trkpt lat="13.5411206" lon="100.2334197">
<ele>0.000</ele>
<time>2018-03-31T08:59:50.467Z</time>
</trkpt>
<trkpt lat="13.5411469" lon="100.2335849">
<ele>0.000</ele>
<time>2018-03-31T08:59:53.830Z</time>
</trkpt>
<trkpt lat="13.5411900" lon="100.2337574">
<ele>1.026</ele>
<time>2018-03-31T08:59:56.975Z</time>
</trkpt>
<trkpt lat="13.5412472" lon="100.2339022">
<ele>1.274</ele>
<time>2018-03-31T08:59:59.760Z</time>
</trkpt>
<trkpt lat="13.5412938" lon="100.2340176">
<ele>0.931</ele>
<time>2018-03-31T09:00:02.276Z</time>
</trkpt>
<trkpt lat="13.5413086" lon="100.2341355">
<ele>0.226</ele>
<time>2018-03-31T09:00:05.025Z</time>
</trkpt>
<trkpt lat="13.5413428" lon="100.2342637">
<ele>0.000</ele>
<time>2018-03-31T09:00:08.308Z</time>
</trkpt>
<trkpt lat="13.5413912" lon="100.2344132">
<ele>0.000</ele>
<time>2018-03-31T09:00:11.805Z</time>
</trkpt>
<trkpt lat="13.5414458" lon="100.2345571">
<ele>0.000</ele>
<time>2018-03-31T09:00:14.716Z</time>
</trkpt>
<trkpt lat="13.5415192" lon="100.2347266">
<ele>0.000</ele>
<time>2018-03-31T09:00:17.859Z</time>
</trkpt>
<trkpt lat="13.5415895" lon="100.2349671">
<ele>0.000</ele>
<time>2018-03-31T09:00:21.303Z</time>
</trkpt>
<trkpt lat="13.5416759" lon="100.2352207">
<ele>0.000</ele>
<time>2018-03-31T09:00:24.396Z</time>
</trkpt>
<trkpt lat="13.5417751" lon="100.2354690">
<ele>0.000</ele>
<time>2018-03-31T09:00:27.349Z</time>
</trkpt>
<trkpt lat="13.5418520" lon="100.2357284">
<ele>0.000</ele>
<time>2018-03-31T09:00:30.337Z</time>
</trkpt>
<trkpt lat="13.5419461" lon="100.2360465">
<ele>0.000</ele>
<time>2018-03-31T09:00:33.787Z</time>
</trkpt>
<trkpt lat="13.5420207" lon="100.2363246">
<ele>0.000</ele>
<time>2018-03-31T09:00:36.507Z</time>
</trkpt>
<trkpt lat="13.5421560" lon="100.2367154">
<ele>0.000</ele>
<time>2018-03-31T09:00:39.884Z</time>
</trkpt>
<trkpt lat="13.5422468" lon="100.2371084">
<ele>0.000</ele>
<time>2018-03-31T09:00:42.777Z</time>
</trkpt>
<trkpt lat="13.5423636" lon="100.2375785">
<ele>0.000</ele>
<time>2018-03-31T09:00:45.885Z</time>
</trkpt>
<trkpt lat="13.5424739" lon="100.2380750">
<ele>0.000</ele>
<time>2018-03-31T09:00:48.897Z</time>
</trkpt>
<trkpt lat="13.5425775" lon="100.2385763">
<ele>0.000</ele>
<time>2018-03-31T09:00:51.827Z</time>
</trkpt>
<trkpt lat="13.5426853" lon="100.2391188">
<ele>0.000</ele>
<time>2018-03-31T09:00:54.873Z</time>
</trkpt>
<trkpt lat="13.5427902" lon="100.2396647">
<ele>0.000</ele>
<time>2018-03-31T09:00:57.860Z</time>
</trkpt>
<trkpt lat="13.5429004" lon="100.2402123">
<ele>0.000</ele>
<time>2018-03-31T09:01:00.879Z</time>
</trkpt>
<trkpt lat="13.5429670" lon="100.2407581">
<ele>0.000</ele>
<time>2018-03-31T09:01:03.860Z</time>
</trkpt>
<trkpt lat="13.5430438" lon="100.2412958">
<ele>0.000</ele>
<time>2018-03-31T09:01:06.834Z</time>
</trkpt>
<trkpt lat="13.5431035" lon="100.2418132">
<ele>0.000</ele>
<time>2018-03-31T09:01:09.724Z</time>
</trkpt>
<trkpt lat="13.5431691" lon="100.2423568">
<ele>0.000</ele>
<time>2018-03-31T09:01:12.739Z</time>
</trkpt>
<trkpt lat="13.5432221" lon="100.2428992">
<ele>0.000</ele>
<time>2018-03-31T09:01:15.681Z</time>
</trkpt>
<trkpt lat="13.5432867" lon="100.2434657">
<ele>0.000</ele>
<time>2018-03-31T09:01:18.684Z</time>
</trkpt>
<trkpt lat="13.5433264" lon="100.2440892">
<ele>0.000</ele>
<time>2018-03-31T09:01:21.859Z</time>
</trkpt>
<trkpt lat="13.5434092" lon="100.2446664">
<ele>0.000</ele>
<time>2018-03-31T09:01:24.756Z</time>
</trkpt>
<trkpt lat="13.5434788" lon="100.2452847">
<ele>0.000</ele>
<time>2018-03-31T09:01:27.776Z</time>
</trkpt>
<trkpt lat="13.5435510" lon="100.2459039">
<ele>0.000</ele>
<time>2018-03-31T09:01:30.780Z</time>
</trkpt>
<trkpt lat="13.5436216" lon="100.2465046">
<ele>0.000</ele>
<time>2018-03-31T09:01:33.771Z</time>
</trkpt>
<trkpt lat="13.5436981" lon="100.2470656">
<ele>0.000</ele>
<time>2018-03-31T09:01:36.711Z</time>
</trkpt>
<trkpt lat="13.5437527" lon="100.2475883">
<ele>0.000</ele>
<time>2018-03-31T09:01:39.622Z</time>
</trkpt>
<trkpt lat="13.5438005" lon="100.2480878">
<ele>0.000</ele>
<time>2018-03-31T09:01:42.543Z</time>
</trkpt>
<trkpt lat="13.5438593" lon="100.2485955">
<ele>0.000</ele>
<time>2018-03-31T09:01:45.557Z</time>
</trkpt>
<trkpt lat="13.5439217" lon="100.2491197">
<ele>0.281</ele>
<time>2018-03-31T09:01:48.581Z</time>
</trkpt>
<trkpt lat="13.5439848" lon="100.2496884">
<ele>1.476</ele>
<time>2018-03-31T09:01:51.671Z</time>
</trkpt>
<trkpt lat="13.5440487" lon="100.2502648">
<ele>2.083</ele>
<time>2018-03-31T09:01:54.637Z</time>
</trkpt>
<trkpt lat="13.5441157" lon="100.2508768">
<ele>2.590</ele>
<time>2018-03-31T09:01:57.675Z</time>
</trkpt>
<trkpt lat="13.5441901" lon="100.2514834">
<ele>3.384</ele>
<time>2018-03-31T09:02:00.661Z</time>
</trkpt>
<trkpt lat="13.5442639" lon="100.2520976">
<ele>4.044</ele>
<time>2018-03-31T09:02:03.688Z</time>
</trkpt>
<trkpt lat="13.5443294" lon="100.2527129">
<ele>3.793</ele>
<time>2018-03-31T09:02:06.700Z</time>
</trkpt>
<trkpt lat="13.5443991" lon="100.2533231">
<ele>2.191</ele>
<time>2018-03-31T09:02:09.684Z</time>
</trkpt>
<trkpt lat="13.5444714" lon="100.2539318">
<ele>0.000</ele>
<time>2018-03-31T09:02:12.688Z</time>
</trkpt>
<trkpt lat="13.5445563" lon="100.2545186">
<ele>0.000</ele>
<time>2018-03-31T09:02:15.653Z</time>
</trkpt>
<trkpt lat="13.5446792" lon="100.2550843">
<ele>0.000</ele>
<time>2018-03-31T09:02:18.598Z</time>
</trkpt>
<trkpt lat="13.5448279" lon="100.2556666">
<ele>0.000</ele>
<time>2018-03-31T09:02:21.602Z</time>
</trkpt>
<trkpt lat="13.5450147" lon="100.2562918">
<ele>0.000</ele>
<time>2018-03-31T09:02:24.705Z</time>
</trkpt>
<trkpt lat="13.5452625" lon="100.2569160">
<ele>0.000</ele>
<time>2018-03-31T09:02:27.763Z</time>
</trkpt>
<trkpt lat="13.5455470" lon="100.2575275">
<ele>0.000</ele>
<time>2018-03-31T09:02:30.772Z</time>
</trkpt>
<trkpt lat="13.5458605" lon="100.2581196">
<ele>0.000</ele>
<time>2018-03-31T09:02:33.781Z</time>
</trkpt>
<trkpt lat="13.5462023" lon="100.2586684">
<ele>0.000</ele>
<time>2018-03-31T09:02:36.744Z</time>
</trkpt>
<trkpt lat="13.5465746" lon="100.2591940">
<ele>0.000</ele>
<time>2018-03-31T09:02:39.729Z</time>
</trkpt>
<trkpt lat="13.5469853" lon="100.2597160">
<ele>0.000</ele>
<time>2018-03-31T09:02:42.787Z</time>
</trkpt>
<trkpt lat="13.5474345" lon="100.2601950">
<ele>0.000</ele>
<time>2018-03-31T09:02:45.766Z</time>
</trkpt>
<trkpt lat="13.5478949" lon="100.2606922">
<ele>0.000</ele>
<time>2018-03-31T09:02:48.784Z</time>
</trkpt>
<trkpt lat="13.5483503" lon="100.2612042">
<ele>0.000</ele>
<time>2018-03-31T09:02:51.813Z</time>
</trkpt>
<trkpt lat="13.5488087" lon="100.2616777">
<ele>0.000</ele>
<time>2018-03-31T09:02:54.739Z</time>
</trkpt>
<trkpt lat="13.5492818" lon="100.2621831">
<ele>0.000</ele>
<time>2018-03-31T09:02:57.780Z</time>
</trkpt>
<trkpt lat="13.5497517" lon="100.2627187">
<ele>0.000</ele>
<time>2018-03-31T09:03:00.910Z</time>
</trkpt>
<trkpt lat="13.5501838" lon="100.2631633">
<ele>0.000</ele>
<time>2018-03-31T09:03:03.810Z</time>
</trkpt>
<trkpt lat="13.5505795" lon="100.2635857">
<ele>0.000</ele>
<time>2018-03-31T09:03:06.707Z</time>
</trkpt>
<trkpt lat="13.5509839" lon="100.2640301">
<ele>0.000</ele>
<time>2018-03-31T09:03:09.749Z</time>
</trkpt>
<trkpt lat="13.5514023" lon="100.2644602">
<ele>0.000</ele>
<time>2018-03-31T09:03:12.760Z</time>
</trkpt>
<trkpt lat="13.5518044" lon="100.2648899">
<ele>0.000</ele>
<time>2018-03-31T09:03:15.764Z</time>
</trkpt>
<trkpt lat="13.5521468" lon="100.2652722">
<ele>0.000</ele>
<time>2018-03-31T09:03:18.585Z</time>
</trkpt>
<trkpt lat="13.5524775" lon="100.2655961">
<ele>0.000</ele>
<time>2018-03-31T09:03:21.403Z</time>
</trkpt>
<trkpt lat="13.5527910" lon="100.2659674">
<ele>0.000</ele>
<time>2018-03-31T09:03:24.470Z</time>
</trkpt>
<trkpt lat="13.5530116" lon="100.2662010">
<ele>0.000</ele>
<time>2018-03-31T09:03:26.448Z</time>
</trkpt>
<trkpt lat="13.5532503" lon="100.2664496">
<ele>0.158</ele>
<time>2018-03-31T09:03:28.465Z</time>
</trkpt>
<trkpt lat="13.5534992" lon="100.2667199">
<ele>1.403</ele>
<time>2018-03-31T09:03:30.509Z</time>
</trkpt>
<trkpt lat="13.5537519" lon="100.2669883">
<ele>2.994</ele>
<time>2018-03-31T09:03:32.506Z</time>
</trkpt>
<trkpt lat="13.5540121" lon="100.2672608">
<ele>4.763</ele>
<time>2018-03-31T09:03:34.519Z</time>
</trkpt>
<trkpt lat="13.5542753" lon="100.2675575">
<ele>6.310</ele>
<time>2018-03-31T09:03:36.575Z</time>
</trkpt>
<trkpt lat="13.5545448" lon="100.2678596">
<ele>7.477</ele>
<time>2018-03-31T09:03:38.592Z</time>
</trkpt>
<trkpt lat="13.5548298" lon="100.2681895">
<ele>8.329</ele>
<time>2018-03-31T09:03:40.684Z</time>
</trkpt>
<trkpt lat="13.5551217" lon="100.2685206">
<ele>8.614</ele>
<time>2018-03-31T09:03:42.737Z</time>
</trkpt>
<trkpt lat="13.5554207" lon="100.2688433">
<ele>8.267</ele>
<time>2018-03-31T09:03:44.750Z</time>
</trkpt>
<trkpt lat="13.5557084" lon="100.2691706">
<ele>7.755</ele>
<time>2018-03-31T09:03:46.747Z</time>
</trkpt>
<trkpt lat="13.5560005" lon="100.2694832">
<ele>7.514</ele>
<time>2018-03-31T09:03:48.727Z</time>
</trkpt>
<trkpt lat="13.5562936" lon="100.2698058">
<ele>7.555</ele>
<time>2018-03-31T09:03:50.734Z</time>
</trkpt>
<trkpt lat="13.5565982" lon="100.2701431">
<ele>7.496</ele>
<time>2018-03-31T09:03:52.810Z</time>
</trkpt>
<trkpt lat="13.5568816" lon="100.2704435">
<ele>6.905</ele>
<time>2018-03-31T09:03:54.712Z</time>
</trkpt>
<trkpt lat="13.5571757" lon="100.2707645">
<ele>5.938</ele>
<time>2018-03-31T09:03:56.720Z</time>
</trkpt>
<trkpt lat="13.5574795" lon="100.2710690">
<ele>5.157</ele>
<time>2018-03-31T09:03:58.679Z</time>
</trkpt>
<trkpt lat="13.5577916" lon="100.2714078">
<ele>4.873</ele>
<time>2018-03-31T09:04:00.732Z</time>
</trkpt>
<trkpt lat="13.5581083" lon="100.2717640">
<ele>5.299</ele>
<time>2018-03-31T09:04:02.797Z</time>
</trkpt>
<trkpt lat="13.5585963" lon="100.2722720">
<ele>6.571</ele>
<time>2018-03-31T09:04:05.782Z</time>
</trkpt>
<trkpt lat="13.5590953" lon="100.2728098">
<ele>8.450</ele>
<time>2018-03-31T09:04:08.900Z</time>
</trkpt>
<trkpt lat="13.5595163" lon="100.2732656">
<ele>10.277</ele>
<time>2018-03-31T09:04:11.770Z</time>
</trkpt>
<trkpt lat="13.5598905" lon="100.2736882">
<ele>11.032</ele>
<time>2018-03-31T09:04:14.682Z</time>
</trkpt>
<trkpt lat="13.5602841" lon="100.2741004">
<ele>10.383</ele>
<time>2018-03-31T09:04:17.694Z</time>
</trkpt>
<trkpt lat="13.5607008" lon="100.2745311">
<ele>9.289</ele>
<time>2018-03-31T09:04:20.716Z</time>
</trkpt>
<trkpt lat="13.5611491" lon="100.2749947">
<ele>8.625</ele>
<time>2018-03-31T09:04:23.766Z</time>
</trkpt>
<trkpt lat="13.5616271" lon="100.2755154">
<ele>8.487</ele>
<time>2018-03-31T09:04:26.888Z</time>
</trkpt>
<trkpt lat="13.5621053" lon="100.2760592">
<ele>8.688</ele>
<time>2018-03-31T09:04:29.963Z</time>
</trkpt>
<trkpt lat="13.5625719" lon="100.2765703">
<ele>8.706</ele>
<time>2018-03-31T09:04:32.942Z</time>
</trkpt>
<trkpt lat="13.5630148" lon="100.2770493">
<ele>8.227</ele>
<time>2018-03-31T09:04:35.882Z</time>
</trkpt>
<trkpt lat="13.5634351" lon="100.2775059">
<ele>7.457</ele>
<time>2018-03-31T09:04:38.826Z</time>
</trkpt>
<trkpt lat="13.5638310" lon="100.2779763">
<ele>6.626</ele>
<time>2018-03-31T09:04:41.850Z</time>
</trkpt>
<trkpt lat="13.5642566" lon="100.2783900">
<ele>5.834</ele>
<time>2018-03-31T09:04:44.779Z</time>
</trkpt>
<trkpt lat="13.5646824" lon="100.2788544">
<ele>5.250</ele>
<time>2018-03-31T09:04:47.791Z</time>
</trkpt>
<trkpt lat="13.5651013" lon="100.2793672">
<ele>4.955</ele>
<time>2018-03-31T09:04:50.889Z</time>
</trkpt>
<trkpt lat="13.5654964" lon="100.2798405">
<ele>4.865</ele>
<time>2018-03-31T09:04:53.812Z</time>
</trkpt>
<trkpt lat="13.5658689" lon="100.2803393">
<ele>4.720</ele>
<time>2018-03-31T09:04:56.805Z</time>
</trkpt>
<trkpt lat="13.5662153" lon="100.2808659">
<ele>4.376</ele>
<time>2018-03-31T09:04:59.844Z</time>
</trkpt>
<trkpt lat="13.5665512" lon="100.2813885">
<ele>3.911</ele>
<time>2018-03-31T09:05:02.837Z</time>
</trkpt>
<trkpt lat="13.5668857" lon="100.2819406">
<ele>3.483</ele>
<time>2018-03-31T09:05:05.911Z</time>
</trkpt>
<trkpt lat="13.5671781" lon="100.2824901">
<ele>3.158</ele>
<time>2018-03-31T09:05:08.832Z</time>
</trkpt>
<trkpt lat="13.5674750" lon="100.2830624">
<ele>2.896</ele>
<time>2018-03-31T09:05:11.817Z</time>
</trkpt>
<trkpt lat="13.5677790" lon="100.2836592">
<ele>2.401</ele>
<time>2018-03-31T09:05:14.892Z</time>
</trkpt>
<trkpt lat="13.5680750" lon="100.2842367">
<ele>1.281</ele>
<time>2018-03-31T09:05:17.992Z</time>
</trkpt>
<trkpt lat="13.5683123" lon="100.2846824">
<ele>0.000</ele>
<time>2018-03-31T09:05:20.771Z</time>
</trkpt>
<trkpt lat="13.5685123" lon="100.2850320">
<ele>0.000</ele>
<time>2018-03-31T09:05:23.622Z</time>
</trkpt>
<trkpt lat="13.5686309" lon="100.2852740">
<ele>0.000</ele>
<time>2018-03-31T09:05:26.138Z</time>
</trkpt>
<trkpt lat="13.5687344" lon="100.2854601">
<ele>0.000</ele>
<time>2018-03-31T09:05:28.721Z</time>
</trkpt>
<trkpt lat="13.5688141" lon="100.2856315">
<ele>0.000</ele>
<time>2018-03-31T09:05:31.395Z</time>
</trkpt>
<trkpt lat="13.5688898" lon="100.2857772">
<ele>0.000</ele>
<time>2018-03-31T09:05:34.098Z</time>
</trkpt>
<trkpt lat="13.5689574" lon="100.2859131">
<ele>0.000</ele>
<time>2018-03-31T09:05:37.013Z</time>
</trkpt>
<trkpt lat="13.5690017" lon="100.2859993">
<ele>0.000</ele>
<time>2018-03-31T09:05:39.246Z</time>
</trkpt>
<trkpt lat="13.5690495" lon="100.2860966">
<ele>0.000</ele>
<time>2018-03-31T09:05:42.435Z</time>
</trkpt>
<trkpt lat="13.5691550" lon="100.2863062">
<ele>0.000</ele>
<time>2018-03-31T09:05:48.078Z</time>
</trkpt>
<trkpt lat="13.5692684" lon="100.2865237">
<ele>0.000</ele>
<time>2018-03-31T09:05:51.640Z</time>
</trkpt>
<trkpt lat="13.5693537" lon="100.2866965">
<ele>0.000</ele>
<time>2018-03-31T09:05:54.392Z</time>
</trkpt>
<trkpt lat="13.5694523" lon="100.2868833">
<ele>0.000</ele>
<time>2018-03-31T09:05:57.533Z</time>
</trkpt>
<trkpt lat="13.5695500" lon="100.2870626">
<ele>0.000</ele>
<time>2018-03-31T09:06:00.642Z</time>
</trkpt>
<trkpt lat="13.5696358" lon="100.2872347">
<ele>0.000</ele>
<time>2018-03-31T09:06:03.774Z</time>
</trkpt>
<trkpt lat="13.5697063" lon="100.2873678">
<ele>0.000</ele>
<time>2018-03-31T09:06:06.458Z</time>
</trkpt>
<trkpt lat="13.5697711" lon="100.2875097">
<ele>0.000</ele>
<time>2018-03-31T09:06:09.428Z</time>
</trkpt>
<trkpt lat="13.5698333" lon="100.2876400">
<ele>0.000</ele>
<time>2018-03-31T09:06:12.444Z</time>
</trkpt>
<trkpt lat="13.5698900" lon="100.2877434">
<ele>0.000</ele>
<time>2018-03-31T09:06:15.988Z</time>
</trkpt>
<trkpt lat="13.5699285" lon="100.2878342">
<ele>0.000</ele>
<time>2018-03-31T09:06:19.996Z</time>
</trkpt>
<trkpt lat="13.5699285" lon="100.2878342">
<ele>0.000</ele>
<time>2018-03-31T09:06:22.995Z</time>
</trkpt>
<trkpt lat="13.5699285" lon="100.2878342">
<ele>0.000</ele>
<time>2018-03-31T09:06:26.629Z</time>
</trkpt>
<trkpt lat="13.5700204" lon="100.2879817">
<ele>0.000</ele>
<time>2018-03-31T09:06:35.194Z</time>
</trkpt>
<trkpt lat="13.5700923" lon="100.2881194">
<ele>0.181</ele>
<time>2018-03-31T09:06:38.168Z</time>
</trkpt>
<trkpt lat="13.5701849" lon="100.2882924">
<ele>0.729</ele>
<time>2018-03-31T09:06:41.534Z</time>
</trkpt>
<trkpt lat="13.5702668" lon="100.2884429">
<ele>0.971</ele>
<time>2018-03-31T09:06:44.458Z</time>
</trkpt>
<trkpt lat="13.5703550" lon="100.2886169">
<ele>1.201</ele>
<time>2018-03-31T09:06:47.650Z</time>
</trkpt>
<trkpt lat="13.5704519" lon="100.2887598">
<ele>1.207</ele>
<time>2018-03-31T09:06:50.372Z</time>
</trkpt>
<trkpt lat="13.5705542" lon="100.2889446">
<ele>0.837</ele>
<time>2018-03-31T09:06:53.678Z</time>
</trkpt>
<trkpt lat="13.5706327" lon="100.2891041">
<ele>0.207</ele>
<time>2018-03-31T09:06:56.891Z</time>
</trkpt>
<trkpt lat="13.5706927" lon="100.2892270">
<ele>0.000</ele>
<time>2018-03-31T09:07:01.100Z</time>
</trkpt>
<trkpt lat="13.5707384" lon="100.2893187">
<ele>0.000</ele>
<time>2018-03-31T09:07:04.656Z</time>
</trkpt>
<trkpt lat="13.5708020" lon="100.2894324">
<ele>0.333</ele>
<time>2018-03-31T09:07:08.642Z</time>
</trkpt>
<trkpt lat="13.5708927" lon="100.2895898">
<ele>0.323</ele>
<time>2018-03-31T09:07:12.252Z</time>
</trkpt>
<trkpt lat="13.5709728" lon="100.2897360">
<ele>0.000</ele>
<time>2018-03-31T09:07:15.138Z</time>
</trkpt>
<trkpt lat="13.5710631" lon="100.2899082">
<ele>0.000</ele>
<time>2018-03-31T09:07:18.178Z</time>
</trkpt>
<trkpt lat="13.5711679" lon="100.2900906">
<ele>0.000</ele>
<time>2018-03-31T09:07:21.142Z</time>
</trkpt>
<trkpt lat="13.5712823" lon="100.2903079">
<ele>0.000</ele>
<time>2018-03-31T09:07:24.457Z</time>
</trkpt>
<trkpt lat="13.5713860" lon="100.2904951">
<ele>0.000</ele>
<time>2018-03-31T09:07:27.083Z</time>
</trkpt>
<trkpt lat="13.5715103" lon="100.2907373">
<ele>0.000</ele>
<time>2018-03-31T09:07:29.840Z</time>
</trkpt>
<trkpt lat="13.5716866" lon="100.2910766">
<ele>0.000</ele>
<time>2018-03-31T09:07:33.023Z</time>
</trkpt>
<trkpt lat="13.5718860" lon="100.2914507">
<ele>0.566</ele>
<time>2018-03-31T09:07:36.218Z</time>
</trkpt>
<trkpt lat="13.5720710" lon="100.2917973">
<ele>1.674</ele>
<time>2018-03-31T09:07:39.031Z</time>
</trkpt>
<trkpt lat="13.5722707" lon="100.2921963">
<ele>2.052</ele>
<time>2018-03-31T09:07:41.979Z</time>
</trkpt>
<trkpt lat="13.5725006" lon="100.2926299">
<ele>1.943</ele>
<time>2018-03-31T09:07:45.020Z</time>
</trkpt>
<trkpt lat="13.5727290" lon="100.2930799">
<ele>1.452</ele>
<time>2018-03-31T09:07:48.026Z</time>
</trkpt>
<trkpt lat="13.5729697" lon="100.2935409">
<ele>0.560</ele>
<time>2018-03-31T09:07:51.110Z</time>
</trkpt>
<trkpt lat="13.5731783" lon="100.2939465">
<ele>0.000</ele>
<time>2018-03-31T09:07:53.895Z</time>
</trkpt>
<trkpt lat="13.5734015" lon="100.2943682">
<ele>0.000</ele>
<time>2018-03-31T09:07:56.832Z</time>
</trkpt>
<trkpt lat="13.5736542" lon="100.2948274">
<ele>0.000</ele>
<time>2018-03-31T09:07:59.930Z</time>
</trkpt>
<trkpt lat="13.5739008" lon="100.2953099">
<ele>0.000</ele>
<time>2018-03-31T09:08:02.955Z</time>
</trkpt>
<trkpt lat="13.5741521" lon="100.2958054">
<ele>0.000</ele>
<time>2018-03-31T09:08:05.966Z</time>
</trkpt>
<trkpt lat="13.5744048" lon="100.2963016">
<ele>0.000</ele>
<time>2018-03-31T09:08:08.944Z</time>
</trkpt>
<trkpt lat="13.5746559" lon="100.2967920">
<ele>0.000</ele>
<time>2018-03-31T09:08:11.868Z</time>
</trkpt>
<trkpt lat="13.5749126" lon="100.2973032">
<ele>0.000</ele>
<time>2018-03-31T09:08:14.918Z</time>
</trkpt>
<trkpt lat="13.5751632" lon="100.2977978">
<ele>0.000</ele>
<time>2018-03-31T09:08:17.900Z</time>
</trkpt>
<trkpt lat="13.5754264" lon="100.2982911">
<ele>0.000</ele>
<time>2018-03-31T09:08:20.910Z</time>
</trkpt>
<trkpt lat="13.5756825" lon="100.2987966">
<ele>0.000</ele>
<time>2018-03-31T09:08:23.972Z</time>
</trkpt>
<trkpt lat="13.5759319" lon="100.2992940">
<ele>0.000</ele>
<time>2018-03-31T09:08:27.030Z</time>
</trkpt>
<trkpt lat="13.5761733" lon="100.2997508">
<ele>0.000</ele>
<time>2018-03-31T09:08:29.869Z</time>
</trkpt>
<trkpt lat="13.5764395" lon="100.3002627">
<ele>0.000</ele>
<time>2018-03-31T09:08:32.931Z</time>
</trkpt>
<trkpt lat="13.5767002" lon="100.3007839">
<ele>0.000</ele>
<time>2018-03-31T09:08:35.844Z</time>
</trkpt>
<trkpt lat="13.5770078" lon="100.3013654">
<ele>0.000</ele>
<time>2018-03-31T09:08:38.956Z</time>
</trkpt>
<trkpt lat="13.5773291" lon="100.3019177">
<ele>0.000</ele>
<time>2018-03-31T09:08:41.906Z</time>
</trkpt>
<trkpt lat="13.5775838" lon="100.3025167">
<ele>0.000</ele>
<time>2018-03-31T09:08:44.885Z</time>
</trkpt>
<trkpt lat="13.5778910" lon="100.3030868">
<ele>0.000</ele>
<time>2018-03-31T09:08:47.843Z</time>
</trkpt>
<trkpt lat="13.5782005" lon="100.3036748">
<ele>0.000</ele>
<time>2018-03-31T09:08:50.871Z</time>
</trkpt>
<trkpt lat="13.5785176" lon="100.3042565">
<ele>0.000</ele>
<time>2018-03-31T09:08:53.931Z</time>
</trkpt>
<trkpt lat="13.5787749" lon="100.3048035">
<ele>0.000</ele>
<time>2018-03-31T09:08:56.785Z</time>
</trkpt>
<trkpt lat="13.5790785" lon="100.3053629">
<ele>0.000</ele>
<time>2018-03-31T09:08:59.844Z</time>
</trkpt>
<trkpt lat="13.5793748" lon="100.3059219">
<ele>0.000</ele>
<time>2018-03-31T09:09:02.939Z</time>
</trkpt>
<trkpt lat="13.5796405" lon="100.3064636">
<ele>0.000</ele>
<time>2018-03-31T09:09:05.887Z</time>
</trkpt>
<trkpt lat="13.5799553" lon="100.3070302">
<ele>0.000</ele>
<time>2018-03-31T09:09:08.964Z</time>
</trkpt>
<trkpt lat="13.5802310" lon="100.3076394">
<ele>0.000</ele>
<time>2018-03-31T09:09:12.118Z</time>
</trkpt>
<trkpt lat="13.5805347" lon="100.3081519">
<ele>0.000</ele>
<time>2018-03-31T09:09:15.032Z</time>
</trkpt>
<trkpt lat="13.5808132" lon="100.3086658">
<ele>0.000</ele>
<time>2018-03-31T09:09:17.963Z</time>
</trkpt>
<trkpt lat="13.5810846" lon="100.3091998">
<ele>0.000</ele>
<time>2018-03-31T09:09:21.016Z</time>
</trkpt>
<trkpt lat="13.5813199" lon="100.3097014">
<ele>0.000</ele>
<time>2018-03-31T09:09:23.844Z</time>
</trkpt>
<trkpt lat="13.5815828" lon="100.3102329">
<ele>0.000</ele>
<time>2018-03-31T09:09:26.803Z</time>
</trkpt>
<trkpt lat="13.5818566" lon="100.3107913">
<ele>0.000</ele>
<time>2018-03-31T09:09:29.828Z</time>
</trkpt>
<trkpt lat="13.5821578" lon="100.3113273">
<ele>0.000</ele>
<time>2018-03-31T09:09:32.797Z</time>
</trkpt>
<trkpt lat="13.5824524" lon="100.3118899">
<ele>0.000</ele>
<time>2018-03-31T09:09:35.862Z</time>
</trkpt>
<trkpt lat="13.5827314" lon="100.3124389">
<ele>0.000</ele>
<time>2018-03-31T09:09:38.867Z</time>
</trkpt>
<trkpt lat="13.5829978" lon="100.3129592">
<ele>0.000</ele>
<time>2018-03-31T09:09:41.797Z</time>
</trkpt>
<trkpt lat="13.5832708" lon="100.3134776">
<ele>0.000</ele>
<time>2018-03-31T09:09:44.830Z</time>
</trkpt>
<trkpt lat="13.5835385" lon="100.3139692">
<ele>0.000</ele>
<time>2018-03-31T09:09:47.795Z</time>
</trkpt>
<trkpt lat="13.5837922" lon="100.3144755">
<ele>0.000</ele>
<time>2018-03-31T09:09:50.803Z</time>
</trkpt>
<trkpt lat="13.5840618" lon="100.3149775">
<ele>0.000</ele>
<time>2018-03-31T09:09:53.795Z</time>
</trkpt>
<trkpt lat="13.5843293" lon="100.3155025">
<ele>0.000</ele>
<time>2018-03-31T09:09:56.823Z</time>
</trkpt>
<trkpt lat="13.5845880" lon="100.3160260">
<ele>0.000</ele>
<time>2018-03-31T09:09:59.736Z</time>
</trkpt>
<trkpt lat="13.5848308" lon="100.3166043">
<ele>0.000</ele>
<time>2018-03-31T09:10:02.845Z</time>
</trkpt>
<trkpt lat="13.5850846" lon="100.3171537">
<ele>0.000</ele>
<time>2018-03-31T09:10:06.065Z</time>
</trkpt>
<trkpt lat="13.5852954" lon="100.3175882">
<ele>0.000</ele>
<time>2018-03-31T09:10:08.930Z</time>
</trkpt>
<trkpt lat="13.5854809" lon="100.3180118">
<ele>0.000</ele>
<time>2018-03-31T09:10:11.859Z</time>
</trkpt>
<trkpt lat="13.5856572" lon="100.3184160">
<ele>0.000</ele>
<time>2018-03-31T09:10:14.708Z</time>
</trkpt>
<trkpt lat="13.5858301" lon="100.3188423">
<ele>0.000</ele>
<time>2018-03-31T09:10:17.606Z</time>
</trkpt>
<trkpt lat="13.5860101" lon="100.3193055">
<ele>0.000</ele>
<time>2018-03-31T09:10:20.590Z</time>
</trkpt>
<trkpt lat="13.5861895" lon="100.3197857">
<ele>0.000</ele>
<time>2018-03-31T09:10:23.562Z</time>
</trkpt>
<trkpt lat="13.5863835" lon="100.3202555">
<ele>0.000</ele>
<time>2018-03-31T09:10:26.450Z</time>
</trkpt>
<trkpt lat="13.5866029" lon="100.3207432">
<ele>0.000</ele>
<time>2018-03-31T09:10:29.434Z</time>
</trkpt>
<trkpt lat="13.5867787" lon="100.3212534">
<ele>0.000</ele>
<time>2018-03-31T09:10:32.462Z</time>
</trkpt>
<trkpt lat="13.5869589" lon="100.3217267">
<ele>0.000</ele>
<time>2018-03-31T09:10:35.424Z</time>
</trkpt>
<trkpt lat="13.5870692" lon="100.3220405">
<ele>0.000</ele>
<time>2018-03-31T09:10:37.439Z</time>
</trkpt>
<trkpt lat="13.5871830" lon="100.3223473">
<ele>0.000</ele>
<time>2018-03-31T09:10:39.452Z</time>
</trkpt>
<trkpt lat="13.5873110" lon="100.3226578">
<ele>0.000</ele>
<time>2018-03-31T09:10:41.561Z</time>
</trkpt>
<trkpt lat="13.5874193" lon="100.3229452">
<ele>0.000</ele>
<time>2018-03-31T09:10:43.483Z</time>
</trkpt>
<trkpt lat="13.5875370" lon="100.3232814">
<ele>0.000</ele>
<time>2018-03-31T09:10:45.600Z</time>
</trkpt>
<trkpt lat="13.5876843" lon="100.3236183">
<ele>0.000</ele>
<time>2018-03-31T09:10:47.685Z</time>
</trkpt>
<trkpt lat="13.5878120" lon="100.3239460">
<ele>0.000</ele>
<time>2018-03-31T09:10:49.627Z</time>
</trkpt>
<trkpt lat="13.5879386" lon="100.3242983">
<ele>0.000</ele>
<time>2018-03-31T09:10:51.644Z</time>
</trkpt>
<trkpt lat="13.5880646" lon="100.3246317">
<ele>0.000</ele>
<time>2018-03-31T09:10:53.592Z</time>
</trkpt>
<trkpt lat="13.5881882" lon="100.3249562">
<ele>0.000</ele>
<time>2018-03-31T09:10:55.514Z</time>
</trkpt>
<trkpt lat="13.5883196" lon="100.3252982">
<ele>0.000</ele>
<time>2018-03-31T09:10:57.492Z</time>
</trkpt>
<trkpt lat="13.5884598" lon="100.3256550">
<ele>0.000</ele>
<time>2018-03-31T09:10:59.507Z</time>
</trkpt>
<trkpt lat="13.5885969" lon="100.3260147">
<ele>0.000</ele>
<time>2018-03-31T09:11:01.504Z</time>
</trkpt>
<trkpt lat="13.5887327" lon="100.3263726">
<ele>0.000</ele>
<time>2018-03-31T09:11:03.470Z</time>
</trkpt>
<trkpt lat="13.5888557" lon="100.3267386">
<ele>0.000</ele>
<time>2018-03-31T09:11:05.409Z</time>
</trkpt>
<trkpt lat="13.5890057" lon="100.3271253">
<ele>0.000</ele>
<time>2018-03-31T09:11:07.438Z</time>
</trkpt>
<trkpt lat="13.5891482" lon="100.3275172">
<ele>0.000</ele>
<time>2018-03-31T09:11:09.438Z</time>
</trkpt>
<trkpt lat="13.5893029" lon="100.3279259">
<ele>0.000</ele>
<time>2018-03-31T09:11:11.500Z</time>
</trkpt>
<trkpt lat="13.5894404" lon="100.3283377">
<ele>0.000</ele>
<time>2018-03-31T09:11:13.527Z</time>
</trkpt>
<trkpt lat="13.5895668" lon="100.3287373">
<ele>0.000</ele>
<time>2018-03-31T09:11:15.450Z</time>
</trkpt>
<trkpt lat="13.5897918" lon="100.3293640">
<ele>0.000</ele>
<time>2018-03-31T09:11:18.475Z</time>
</trkpt>
<trkpt lat="13.5900192" lon="100.3299859">
<ele>0.000</ele>
<time>2018-03-31T09:11:21.517Z</time>
</trkpt>
<trkpt lat="13.5902375" lon="100.3305746">
<ele>0.000</ele>
<time>2018-03-31T09:11:24.508Z</time>
</trkpt>
<trkpt lat="13.5904425" lon="100.3311324">
<ele>0.000</ele>
<time>2018-03-31T09:11:27.436Z</time>
</trkpt>
<trkpt lat="13.5906534" lon="100.3316908">
<ele>0.000</ele>
<time>2018-03-31T09:11:30.475Z</time>
</trkpt>
<trkpt lat="13.5908417" lon="100.3322238">
<ele>0.000</ele>
<time>2018-03-31T09:11:33.485Z</time>
</trkpt>
<trkpt lat="13.5910133" lon="100.3327208">
<ele>0.000</ele>
<time>2018-03-31T09:11:36.535Z</time>
</trkpt>
<trkpt lat="13.5911790" lon="100.3331316">
<ele>0.000</ele>
<time>2018-03-31T09:11:39.407Z</time>
</trkpt>
<trkpt lat="13.5913418" lon="100.3335333">
<ele>0.000</ele>
<time>2018-03-31T09:11:42.448Z</time>
</trkpt>
<trkpt lat="13.5914854" lon="100.3339289">
<ele>0.000</ele>
<time>2018-03-31T09:11:45.443Z</time>
</trkpt>
<trkpt lat="13.5916476" lon="100.3343384">
<ele>0.000</ele>
<time>2018-03-31T09:11:48.469Z</time>
</trkpt>
<trkpt lat="13.5918010" lon="100.3347609">
<ele>0.000</ele>
<time>2018-03-31T09:11:51.412Z</time>
</trkpt>
<trkpt lat="13.5919887" lon="100.3351824">
<ele>0.000</ele>
<time>2018-03-31T09:11:54.302Z</time>
</trkpt>
<trkpt lat="13.5921657" lon="100.3356706">
<ele>0.000</ele>
<time>2018-03-31T09:11:57.385Z</time>
</trkpt>
<trkpt lat="13.5923555" lon="100.3361679">
<ele>0.000</ele>
<time>2018-03-31T09:12:00.417Z</time>
</trkpt>
<trkpt lat="13.5925450" lon="100.3366730">
<ele>0.000</ele>
<time>2018-03-31T09:12:03.378Z</time>
</trkpt>
<trkpt lat="13.5927194" lon="100.3372204">
<ele>0.000</ele>
<time>2018-03-31T09:12:06.376Z</time>
</trkpt>
<trkpt lat="13.5928855" lon="100.3377987">
<ele>0.000</ele>
<time>2018-03-31T09:12:09.345Z</time>
</trkpt>
<trkpt lat="13.5930229" lon="100.3384245">
<ele>0.000</ele>
<time>2018-03-31T09:12:12.345Z</time>
</trkpt>
<trkpt lat="13.5931199" lon="100.3390891">
<ele>0.000</ele>
<time>2018-03-31T09:12:15.345Z</time>
</trkpt>
<trkpt lat="13.5932044" lon="100.3397801">
<ele>0.000</ele>
<time>2018-03-31T09:12:18.348Z</time>
</trkpt>
<trkpt lat="13.5932484" lon="100.3404843">
<ele>0.000</ele>
<time>2018-03-31T09:12:21.334Z</time>
</trkpt>
<trkpt lat="13.5932112" lon="100.3412097">
<ele>0.000</ele>
<time>2018-03-31T09:12:24.397Z</time>
</trkpt>
<trkpt lat="13.5931882" lon="100.3419152">
<ele>0.000</ele>
<time>2018-03-31T09:12:27.420Z</time>
</trkpt>
<trkpt lat="13.5931484" lon="100.3425904">
<ele>0.000</ele>
<time>2018-03-31T09:12:30.350Z</time>
</trkpt>
<trkpt lat="13.5931364" lon="100.3433066">
<ele>0.000</ele>
<time>2018-03-31T09:12:33.437Z</time>
</trkpt>
<trkpt lat="13.5930941" lon="100.3440100">
<ele>0.000</ele>
<time>2018-03-31T09:12:36.479Z</time>
</trkpt>
<trkpt lat="13.5930840" lon="100.3447158">
<ele>0.000</ele>
<time>2018-03-31T09:12:39.527Z</time>
</trkpt>
<trkpt lat="13.5930752" lon="100.3454042">
<ele>0.000</ele>
<time>2018-03-31T09:12:42.465Z</time>
</trkpt>
<trkpt lat="13.5930527" lon="100.3461168">
<ele>0.000</ele>
<time>2018-03-31T09:12:45.462Z</time>
</trkpt>
<trkpt lat="13.5930154" lon="100.3468241">
<ele>0.000</ele>
<time>2018-03-31T09:12:48.402Z</time>
</trkpt>
<trkpt lat="13.5929597" lon="100.3475564">
<ele>0.000</ele>
<time>2018-03-31T09:12:51.437Z</time>
</trkpt>
<trkpt lat="13.5929307" lon="100.3482682">
<ele>0.816</ele>
<time>2018-03-31T09:12:54.391Z</time>
</trkpt>
<trkpt lat="13.5929003" lon="100.3489859">
<ele>1.288</ele>
<time>2018-03-31T09:12:57.397Z</time>
</trkpt>
<trkpt lat="13.5928646" lon="100.3496812">
<ele>0.468</ele>
<time>2018-03-31T09:13:00.366Z</time>
</trkpt>
<trkpt lat="13.5928402" lon="100.3503531">
<ele>0.000</ele>
<time>2018-03-31T09:13:03.332Z</time>
</trkpt>
<trkpt lat="13.5928176" lon="100.3510121">
<ele>0.000</ele>
<time>2018-03-31T09:13:06.342Z</time>
</trkpt>
<trkpt lat="13.5927827" lon="100.3516501">
<ele>0.000</ele>
<time>2018-03-31T09:13:09.302Z</time>
</trkpt>
<trkpt lat="13.5927449" lon="100.3522919">
<ele>0.000</ele>
<time>2018-03-31T09:13:12.255Z</time>
</trkpt>
<trkpt lat="13.5927285" lon="100.3529639">
<ele>0.000</ele>
<time>2018-03-31T09:13:15.289Z</time>
</trkpt>
<trkpt lat="13.5927066" lon="100.3536152">
<ele>0.000</ele>
<time>2018-03-31T09:13:18.220Z</time>
</trkpt>
<trkpt lat="13.5926626" lon="100.3542684">
<ele>0.000</ele>
<time>2018-03-31T09:13:21.190Z</time>
</trkpt>
<trkpt lat="13.5926301" lon="100.3549166">
<ele>0.000</ele>
<time>2018-03-31T09:13:24.250Z</time>
</trkpt>
<trkpt lat="13.5926064" lon="100.3555048">
<ele>0.000</ele>
<time>2018-03-31T09:13:27.273Z</time>
</trkpt>
<trkpt lat="13.5925658" lon="100.3560272">
<ele>0.000</ele>
<time>2018-03-31T09:13:30.146Z</time>
</trkpt>
<trkpt lat="13.5925292" lon="100.3565805">
<ele>0.000</ele>
<time>2018-03-31T09:13:33.169Z</time>
</trkpt>
<trkpt lat="13.5925528" lon="100.3571493">
<ele>0.000</ele>
<time>2018-03-31T09:13:36.173Z</time>
</trkpt>
<trkpt lat="13.5925909" lon="100.3577306">
<ele>0.000</ele>
<time>2018-03-31T09:13:39.196Z</time>
</trkpt>
<trkpt lat="13.5927022" lon="100.3583133">
<ele>0.000</ele>
<time>2018-03-31T09:13:42.293Z</time>
</trkpt>
<trkpt lat="13.5928115" lon="100.3588421">
<ele>0.000</ele>
<time>2018-03-31T09:13:45.142Z</time>
</trkpt>
<trkpt lat="13.5929764" lon="100.3593803">
<ele>0.000</ele>
<time>2018-03-31T09:13:48.053Z</time>
</trkpt>
<trkpt lat="13.5932039" lon="100.3599694">
<ele>0.000</ele>
<time>2018-03-31T09:13:51.161Z</time>
</trkpt>
<trkpt lat="13.5934719" lon="100.3605251">
<ele>0.000</ele>
<time>2018-03-31T09:13:54.081Z</time>
</trkpt>
<trkpt lat="13.5938060" lon="100.3611055">
<ele>0.000</ele>
<time>2018-03-31T09:13:57.193Z</time>
</trkpt>
<trkpt lat="13.5941596" lon="100.3616362">
<ele>0.000</ele>
<time>2018-03-31T09:14:00.164Z</time>
</trkpt>
<trkpt lat="13.5945573" lon="100.3621137">
<ele>0.000</ele>
<time>2018-03-31T09:14:03.079Z</time>
</trkpt>
<trkpt lat="13.5949830" lon="100.3625785">
<ele>0.000</ele>
<time>2018-03-31T09:14:06.009Z</time>
</trkpt>
<trkpt lat="13.5954787" lon="100.3630231">
<ele>0.000</ele>
<time>2018-03-31T09:14:09.041Z</time>
</trkpt>
<trkpt lat="13.5959687" lon="100.3634957">
<ele>0.000</ele>
<time>2018-03-31T09:14:12.039Z</time>
</trkpt>
<trkpt lat="13.5964760" lon="100.3639923">
<ele>0.000</ele>
<time>2018-03-31T09:14:15.105Z</time>
</trkpt>
<trkpt lat="13.5969471" lon="100.3644797">
<ele>0.000</ele>
<time>2018-03-31T09:14:18.073Z</time>
</trkpt>
<trkpt lat="13.5974091" lon="100.3649405">
<ele>0.000</ele>
<time>2018-03-31T09:14:21.002Z</time>
</trkpt>
<trkpt lat="13.5978740" lon="100.3654044">
<ele>0.000</ele>
<time>2018-03-31T09:14:23.995Z</time>
</trkpt>
<trkpt lat="13.5983226" lon="100.3658612">
<ele>0.000</ele>
<time>2018-03-31T09:14:26.942Z</time>
</trkpt>
<trkpt lat="13.5987792" lon="100.3663336">
<ele>0.000</ele>
<time>2018-03-31T09:14:29.965Z</time>
</trkpt>
<trkpt lat="13.5992363" lon="100.3667910">
<ele>0.047</ele>
<time>2018-03-31T09:14:32.935Z</time>
</trkpt>
<trkpt lat="13.5997060" lon="100.3672442">
<ele>0.997</ele>
<time>2018-03-31T09:14:35.926Z</time>
</trkpt>
<trkpt lat="13.6001728" lon="100.3677125">
<ele>1.780</ele>
<time>2018-03-31T09:14:38.921Z</time>
</trkpt>
<trkpt lat="13.6006426" lon="100.3681849">
<ele>2.300</ele>
<time>2018-03-31T09:14:41.901Z</time>
</trkpt>
<trkpt lat="13.6011458" lon="100.3686451">
<ele>2.820</ele>
<time>2018-03-31T09:14:44.934Z</time>
</trkpt>
<trkpt lat="13.6016252" lon="100.3691452">
<ele>3.253</ele>
<time>2018-03-31T09:14:48.014Z</time>
</trkpt>
<trkpt lat="13.6021073" lon="100.3696038">
<ele>3.535</ele>
<time>2018-03-31T09:14:51.004Z</time>
</trkpt>
<trkpt lat="13.6025797" lon="100.3700581">
<ele>3.819</ele>
<time>2018-03-31T09:14:53.970Z</time>
</trkpt>
<trkpt lat="13.6030547" lon="100.3705254">
<ele>4.132</ele>
<time>2018-03-31T09:14:56.971Z</time>
</trkpt>
<trkpt lat="13.6035229" lon="100.3710129">
<ele>4.320</ele>
<time>2018-03-31T09:15:00.017Z</time>
</trkpt>
<trkpt lat="13.6039865" lon="100.3714478">
<ele>4.013</ele>
<time>2018-03-31T09:15:03.038Z</time>
</trkpt>
<trkpt lat="13.6043770" lon="100.3718273">
<ele>3.055</ele>
<time>2018-03-31T09:15:06.017Z</time>
</trkpt>
<trkpt lat="13.6046668" lon="100.3721276">
<ele>1.797</ele>
<time>2018-03-31T09:15:08.818Z</time>
</trkpt>
<trkpt lat="13.6049173" lon="100.3723716">
<ele>0.714</ele>
<time>2018-03-31T09:15:11.603Z</time>
</trkpt>
<trkpt lat="13.6051657" lon="100.3726158">
<ele>0.291</ele>
<time>2018-03-31T09:15:14.534Z</time>
</trkpt>
<trkpt lat="13.6054290" lon="100.3728680">
<ele>0.629</ele>
<time>2018-03-31T09:15:17.570Z</time>
</trkpt>
<trkpt lat="13.6057082" lon="100.3731179">
<ele>1.205</ele>
<time>2018-03-31T09:15:20.626Z</time>
</trkpt>
<trkpt lat="13.6060117" lon="100.3733979">
<ele>1.541</ele>
<time>2018-03-31T09:15:23.773Z</time>
</trkpt>
<trkpt lat="13.6063021" lon="100.3737000">
<ele>1.355</ele>
<time>2018-03-31T09:15:26.847Z</time>
</trkpt>
<trkpt lat="13.6065777" lon="100.3739591">
<ele>0.644</ele>
<time>2018-03-31T09:15:29.709Z</time>
</trkpt>
<trkpt lat="13.6068526" lon="100.3742203">
<ele>0.000</ele>
<time>2018-03-31T09:15:32.714Z</time>
</trkpt>
<trkpt lat="13.6070964" lon="100.3744740">
<ele>0.000</ele>
<time>2018-03-31T09:15:35.656Z</time>
</trkpt>
<trkpt lat="13.6073259" lon="100.3746989">
<ele>0.080</ele>
<time>2018-03-31T09:15:38.542Z</time>
</trkpt>
<trkpt lat="13.6075136" lon="100.3748939">
<ele>0.192</ele>
<time>2018-03-31T09:15:41.208Z</time>
</trkpt>
<trkpt lat="13.6077007" lon="100.3750734">
<ele>0.000</ele>
<time>2018-03-31T09:15:44.068Z</time>
</trkpt>
<trkpt lat="13.6078877" lon="100.3752502">
<ele>0.000</ele>
<time>2018-03-31T09:15:47.069Z</time>
</trkpt>
<trkpt lat="13.6081064" lon="100.3754711">
<ele>0.000</ele>
<time>2018-03-31T09:15:50.300Z</time>
</trkpt>
<trkpt lat="13.6083274" lon="100.3756882">
<ele>0.000</ele>
<time>2018-03-31T09:15:53.205Z</time>
</trkpt>
<trkpt lat="13.6085496" lon="100.3758983">
<ele>0.618</ele>
<time>2018-03-31T09:15:56.104Z</time>
</trkpt>
<trkpt lat="13.6087738" lon="100.3761049">
<ele>1.112</ele>
<time>2018-03-31T09:15:59.035Z</time>
</trkpt>
<trkpt lat="13.6089883" lon="100.3763114">
<ele>0.895</ele>
<time>2018-03-31T09:16:01.923Z</time>
</trkpt>
<trkpt lat="13.6091893" lon="100.3765136">
<ele>0.041</ele>
<time>2018-03-31T09:16:04.853Z</time>
</trkpt>
<trkpt lat="13.6093969" lon="100.3767116">
<ele>0.000</ele>
<time>2018-03-31T09:16:07.956Z</time>
</trkpt>
<trkpt lat="13.6095887" lon="100.3768944">
<ele>0.387</ele>
<time>2018-03-31T09:16:10.968Z</time>
</trkpt>
<trkpt lat="13.6097746" lon="100.3770713">
<ele>1.925</ele>
<time>2018-03-31T09:16:13.907Z</time>
</trkpt>
<trkpt lat="13.6099555" lon="100.3772510">
<ele>3.304</ele>
<time>2018-03-31T09:16:16.871Z</time>
</trkpt>
<trkpt lat="13.6100772" lon="100.3773702">
<ele>4.120</ele>
<time>2018-03-31T09:16:19.276Z</time>
</trkpt>
<trkpt lat="13.6101641" lon="100.3774632">
<ele>4.397</ele>
<time>2018-03-31T09:16:21.539Z</time>
</trkpt>
<trkpt lat="13.6102522" lon="100.3775554">
<ele>4.369</ele>
<time>2018-03-31T09:16:24.361Z</time>
</trkpt>
<trkpt lat="13.6103134" lon="100.3776237">
<ele>4.082</ele>
<time>2018-03-31T09:16:26.946Z</time>
</trkpt>
<trkpt lat="13.6103897" lon="100.3777036">
<ele>3.578</ele>
<time>2018-03-31T09:16:31.063Z</time>
</trkpt>
<trkpt lat="13.6104571" lon="100.3777736">
<ele>3.251</ele>
<time>2018-03-31T09:16:35.790Z</time>
</trkpt>
<trkpt lat="13.6105451" lon="100.3778485">
<ele>3.391</ele>
<time>2018-03-31T09:16:40.944Z</time>
</trkpt>
<trkpt lat="13.6106407" lon="100.3779242">
<ele>3.468</ele>
<time>2018-03-31T09:16:46.292Z</time>
</trkpt>
<trkpt lat="13.6107604" lon="100.3780415">
<ele>2.902</ele>
<time>2018-03-31T09:16:52.053Z</time>
</trkpt>
<trkpt lat="13.6109296" lon="100.3782199">
<ele>1.989</ele>
<time>2018-03-31T09:16:56.445Z</time>
</trkpt>
<trkpt lat="13.6110647" lon="100.3783457">
<ele>1.402</ele>
<time>2018-03-31T09:16:59.091Z</time>
</trkpt>
<trkpt lat="13.6111740" lon="100.3784494">
<ele>1.320</ele>
<time>2018-03-31T09:17:01.242Z</time>
</trkpt>
<trkpt lat="13.6112653" lon="100.3785421">
<ele>1.525</ele>
<time>2018-03-31T09:17:03.546Z</time>
</trkpt>
<trkpt lat="13.6113712" lon="100.3786595">
<ele>1.857</ele>
<time>2018-03-31T09:17:06.938Z</time>
</trkpt>
<trkpt lat="13.6114943" lon="100.3787909">
<ele>2.217</ele>
<time>2018-03-31T09:17:10.862Z</time>
</trkpt>
<trkpt lat="13.6115981" lon="100.3788906">
<ele>2.237</ele>
<time>2018-03-31T09:17:13.698Z</time>
</trkpt>
<trkpt lat="13.6117370" lon="100.3790297">
<ele>1.541</ele>
<time>2018-03-31T09:17:17.377Z</time>
</trkpt>
<trkpt lat="13.6118984" lon="100.3791908">
<ele>0.364</ele>
<time>2018-03-31T09:17:21.125Z</time>
</trkpt>
<trkpt lat="13.6120099" lon="100.3792943">
<ele>0.000</ele>
<time>2018-03-31T09:17:23.574Z</time>
</trkpt>
<trkpt lat="13.6120873" lon="100.3793620">
<ele>0.000</ele>
<time>2018-03-31T09:17:25.351Z</time>
</trkpt>
<trkpt lat="13.6121827" lon="100.3794477">
<ele>0.000</ele>
<time>2018-03-31T09:17:28.125Z</time>
</trkpt>
<trkpt lat="13.6122991" lon="100.3795754">
<ele>0.000</ele>
<time>2018-03-31T09:17:32.148Z</time>
</trkpt>
<trkpt lat="13.6124369" lon="100.3797138">
<ele>0.703</ele>
<time>2018-03-31T09:17:35.714Z</time>
</trkpt>
<trkpt lat="13.6125433" lon="100.3798165">
<ele>1.538</ele>
<time>2018-03-31T09:17:38.296Z</time>
</trkpt>
<trkpt lat="13.6126740" lon="100.3799410">
<ele>2.256</ele>
<time>2018-03-31T09:17:41.658Z</time>
</trkpt>
<trkpt lat="13.6128029" lon="100.3800641">
<ele>2.668</ele>
<time>2018-03-31T09:17:44.774Z</time>
</trkpt>
<trkpt lat="13.6129165" lon="100.3801796">
<ele>2.507</ele>
<time>2018-03-31T09:17:47.256Z</time>
</trkpt>
<trkpt lat="13.6130326" lon="100.3802918">
<ele>1.649</ele>
<time>2018-03-31T09:17:49.415Z</time>
</trkpt>
<trkpt lat="13.6131589" lon="100.3804174">
<ele>0.698</ele>
<time>2018-03-31T09:17:51.600Z</time>
</trkpt>
<trkpt lat="13.6133064" lon="100.3805606">
<ele>0.167</ele>
<time>2018-03-31T09:17:53.857Z</time>
</trkpt>
<trkpt lat="13.6134525" lon="100.3807027">
<ele>0.000</ele>
<time>2018-03-31T09:17:55.882Z</time>
</trkpt>
<trkpt lat="13.6136020" lon="100.3808481">
<ele>0.092</ele>
<time>2018-03-31T09:17:57.902Z</time>
</trkpt>
<trkpt lat="13.6137408" lon="100.3809815">
<ele>0.630</ele>
<time>2018-03-31T09:17:59.805Z</time>
</trkpt>
<trkpt lat="13.6138541" lon="100.3810945">
<ele>1.224</ele>
<time>2018-03-31T09:18:01.529Z</time>
</trkpt>
<trkpt lat="13.6139628" lon="100.3812008">
<ele>1.535</ele>
<time>2018-03-31T09:18:03.343Z</time>
</trkpt>
<trkpt lat="13.6140683" lon="100.3813111">
<ele>1.577</ele>
<time>2018-03-31T09:18:05.312Z</time>
</trkpt>
<trkpt lat="13.6141689" lon="100.3814142">
<ele>1.487</ele>
<time>2018-03-31T09:18:07.267Z</time>
</trkpt>
<trkpt lat="13.6142607" lon="100.3815066">
<ele>1.432</ele>
<time>2018-03-31T09:18:09.120Z</time>
</trkpt>
<trkpt lat="13.6143579" lon="100.3816083">
<ele>1.493</ele>
<time>2018-03-31T09:18:11.184Z</time>
</trkpt>
<trkpt lat="13.6144650" lon="100.3817142">
<ele>1.572</ele>
<time>2018-03-31T09:18:13.401Z</time>
</trkpt>
<trkpt lat="13.6145784" lon="100.3818289">
<ele>1.518</ele>
<time>2018-03-31T09:18:15.715Z</time>
</trkpt>
<trkpt lat="13.6146954" lon="100.3819412">
<ele>1.184</ele>
<time>2018-03-31T09:18:17.853Z</time>
</trkpt>
<trkpt lat="13.6148196" lon="100.3820687">
<ele>0.615</ele>
<time>2018-03-31T09:18:20.005Z</time>
</trkpt>
<trkpt lat="13.6149334" lon="100.3821829">
<ele>0.326</ele>
<time>2018-03-31T09:18:21.888Z</time>
</trkpt>
<trkpt lat="13.6151066" lon="100.3823602">
<ele>0.629</ele>
<time>2018-03-31T09:18:24.836Z</time>
</trkpt>
<trkpt lat="13.6153020" lon="100.3825402">
<ele>1.017</ele>
<time>2018-03-31T09:18:27.954Z</time>
</trkpt>
<trkpt lat="13.6154590" lon="100.3826864">
<ele>0.957</ele>
<time>2018-03-31T09:18:30.581Z</time>
</trkpt>
<trkpt lat="13.6156077" lon="100.3828318">
<ele>0.426</ele>
<time>2018-03-31T09:18:33.391Z</time>
</trkpt>
<trkpt lat="13.6157416" lon="100.3829700">
<ele>0.000</ele>
<time>2018-03-31T09:18:36.228Z</time>
</trkpt>
<trkpt lat="13.6158650" lon="100.3830878">
<ele>0.000</ele>
<time>2018-03-31T09:18:38.976Z</time>
</trkpt>
<trkpt lat="13.6159842" lon="100.3832091">
<ele>0.000</ele>
<time>2018-03-31T09:18:41.923Z</time>
</trkpt>
<trkpt lat="13.6160837" lon="100.3833058">
<ele>0.000</ele>
<time>2018-03-31T09:18:44.538Z</time>
</trkpt>
<trkpt lat="13.6162238" lon="100.3834436">
<ele>0.000</ele>
<time>2018-03-31T09:18:48.267Z</time>
</trkpt>
<trkpt lat="13.6163481" lon="100.3835697">
<ele>0.035</ele>
<time>2018-03-31T09:18:51.293Z</time>
</trkpt>
<trkpt lat="13.6164261" lon="100.3836438">
<ele>0.000</ele>
<time>2018-03-31T09:18:53.338Z</time>
</trkpt>
<trkpt lat="13.6164970" lon="100.3837170">
<ele>0.000</ele>
<time>2018-03-31T09:18:55.560Z</time>
</trkpt>
<trkpt lat="13.6165942" lon="100.3838110">
<ele>0.000</ele>
<time>2018-03-31T09:18:59.125Z</time>
</trkpt>
<trkpt lat="13.6166986" lon="100.3839217">
<ele>0.000</ele>
<time>2018-03-31T09:19:02.712Z</time>
</trkpt>
<trkpt lat="13.6167867" lon="100.3840135">
<ele>0.000</ele>
<time>2018-03-31T09:19:05.565Z</time>
</trkpt>
<trkpt lat="13.6168974" lon="100.3841282">
<ele>0.000</ele>
<time>2018-03-31T09:19:09.107Z</time>
</trkpt>
<trkpt lat="13.6170020" lon="100.3842226">
<ele>0.000</ele>
<time>2018-03-31T09:19:12.094Z</time>
</trkpt>
<trkpt lat="13.6171033" lon="100.3843258">
<ele>0.000</ele>
<time>2018-03-31T09:19:15.100Z</time>
</trkpt>
<trkpt lat="13.6172217" lon="100.3844517">
<ele>0.000</ele>
<time>2018-03-31T09:19:18.421Z</time>
</trkpt>
<trkpt lat="13.6173596" lon="100.3845824">
<ele>0.044</ele>
<time>2018-03-31T09:19:21.740Z</time>
</trkpt>
<trkpt lat="13.6174556" lon="100.3846810">
<ele>0.281</ele>
<time>2018-03-31T09:19:24.276Z</time>
</trkpt>
<trkpt lat="13.6175452" lon="100.3847713">
<ele>0.365</ele>
<time>2018-03-31T09:19:27.270Z</time>
</trkpt>
<trkpt lat="13.6176129" lon="100.3848428">
<ele>0.263</ele>
<time>2018-03-31T09:19:31.025Z</time>
</trkpt>
<trkpt lat="13.6176868" lon="100.3849291">
<ele>0.079</ele>
<time>2018-03-31T09:19:36.048Z</time>
</trkpt>
<trkpt lat="13.6177589" lon="100.3850020">
<ele>0.000</ele>
<time>2018-03-31T09:19:39.915Z</time>
</trkpt>
<trkpt lat="13.6178415" lon="100.3850860">
<ele>0.000</ele>
<time>2018-03-31T09:19:43.270Z</time>
</trkpt>
<trkpt lat="13.6179086" lon="100.3851589">
<ele>0.000</ele>
<time>2018-03-31T09:19:45.979Z</time>
</trkpt>
<trkpt lat="13.6179699" lon="100.3852268">
<ele>0.000</ele>
<time>2018-03-31T09:19:48.654Z</time>
</trkpt>
<trkpt lat="13.6180545" lon="100.3853100">
<ele>0.000</ele>
<time>2018-03-31T09:19:52.391Z</time>
</trkpt>
<trkpt lat="13.6181251" lon="100.3853776">
<ele>0.000</ele>
<time>2018-03-31T09:19:55.554Z</time>
</trkpt>
<trkpt lat="13.6182064" lon="100.3854558">
<ele>0.000</ele>
<time>2018-03-31T09:19:58.997Z</time>
</trkpt>
<trkpt lat="13.6182958" lon="100.3855395">
<ele>0.000</ele>
<time>2018-03-31T09:20:02.285Z</time>
</trkpt>
<trkpt lat="13.6183854" lon="100.3856216">
<ele>0.000</ele>
<time>2018-03-31T09:20:05.333Z</time>
</trkpt>
<trkpt lat="13.6184988" lon="100.3857325">
<ele>0.000</ele>
<time>2018-03-31T09:20:08.798Z</time>
</trkpt>
<trkpt lat="13.6186449" lon="100.3858780">
<ele>0.000</ele>
<time>2018-03-31T09:20:12.226Z</time>
</trkpt>
<trkpt lat="13.6187866" lon="100.3860104">
<ele>0.000</ele>
<time>2018-03-31T09:20:15.200Z</time>
</trkpt>
<trkpt lat="13.6189038" lon="100.3861293">
<ele>0.000</ele>
<time>2018-03-31T09:20:17.947Z</time>
</trkpt>
<trkpt lat="13.6190544" lon="100.3862791">
<ele>0.000</ele>
<time>2018-03-31T09:20:21.280Z</time>
</trkpt>
<trkpt lat="13.6192071" lon="100.3864276">
<ele>0.000</ele>
<time>2018-03-31T09:20:24.387Z</time>
</trkpt>
<trkpt lat="13.6193389" lon="100.3865556">
<ele>0.000</ele>
<time>2018-03-31T09:20:27.104Z</time>
</trkpt>
<trkpt lat="13.6194823" lon="100.3866946">
<ele>0.000</ele>
<time>2018-03-31T09:20:30.119Z</time>
</trkpt>
<trkpt lat="13.6196216" lon="100.3868308">
<ele>0.000</ele>
<time>2018-03-31T09:20:33.222Z</time>
</trkpt>
<trkpt lat="13.6197351" lon="100.3869401">
<ele>0.000</ele>
<time>2018-03-31T09:20:35.993Z</time>
</trkpt>
<trkpt lat="13.6198658" lon="100.3870654">
<ele>0.000</ele>
<time>2018-03-31T09:20:39.141Z</time>
</trkpt>
<trkpt lat="13.6200384" lon="100.3872319">
<ele>0.000</ele>
<time>2018-03-31T09:20:42.653Z</time>
</trkpt>
<trkpt lat="13.6202138" lon="100.3874071">
<ele>0.000</ele>
<time>2018-03-31T09:20:45.804Z</time>
</trkpt>
<trkpt lat="13.6203813" lon="100.3875722">
<ele>0.000</ele>
<time>2018-03-31T09:20:48.905Z</time>
</trkpt>
<trkpt lat="13.6204998" lon="100.3876801">
<ele>0.000</ele>
<time>2018-03-31T09:20:51.381Z</time>
</trkpt>
<trkpt lat="13.6206412" lon="100.3878243">
<ele>0.000</ele>
<time>2018-03-31T09:20:54.538Z</time>
</trkpt>
<trkpt lat="13.6208082" lon="100.3879980">
<ele>0.000</ele>
<time>2018-03-31T09:20:57.618Z</time>
</trkpt>
<trkpt lat="13.6210077" lon="100.3882006">
<ele>0.000</ele>
<time>2018-03-31T09:21:00.682Z</time>
</trkpt>
<trkpt lat="13.6212425" lon="100.3884383">
<ele>0.000</ele>
<time>2018-03-31T09:21:03.862Z</time>
</trkpt>
<trkpt lat="13.6214747" lon="100.3886799">
<ele>0.000</ele>
<time>2018-03-31T09:21:06.966Z</time>
</trkpt>
<trkpt lat="13.6216730" lon="100.3888764">
<ele>0.000</ele>
<time>2018-03-31T09:21:09.709Z</time>
</trkpt>
<trkpt lat="13.6218881" lon="100.3890878">
<ele>0.000</ele>
<time>2018-03-31T09:21:12.787Z</time>
</trkpt>
<trkpt lat="13.6221291" lon="100.3893251">
<ele>0.000</ele>
<time>2018-03-31T09:21:16.011Z</time>
</trkpt>
<trkpt lat="13.6223959" lon="100.3895774">
<ele>0.000</ele>
<time>2018-03-31T09:21:19.135Z</time>
</trkpt>
<trkpt lat="13.6226774" lon="100.3898497">
<ele>0.000</ele>
<time>2018-03-31T09:21:22.155Z</time>
</trkpt>
<trkpt lat="13.6229766" lon="100.3901415">
<ele>0.000</ele>
<time>2018-03-31T09:21:25.219Z</time>
</trkpt>
<trkpt lat="13.6232667" lon="100.3904272">
<ele>0.000</ele>
<time>2018-03-31T09:21:28.206Z</time>
</trkpt>
<trkpt lat="13.6235536" lon="100.3906985">
<ele>0.000</ele>
<time>2018-03-31T09:21:31.141Z</time>
</trkpt>
<trkpt lat="13.6238618" lon="100.3909951">
<ele>0.000</ele>
<time>2018-03-31T09:21:34.211Z</time>
</trkpt>
<trkpt lat="13.6241631" lon="100.3913166">
<ele>0.000</ele>
<time>2018-03-31T09:21:37.150Z</time>
</trkpt>
<trkpt lat="13.6245090" lon="100.3916664">
<ele>0.000</ele>
<time>2018-03-31T09:21:40.237Z</time>
</trkpt>
<trkpt lat="13.6248541" lon="100.3920076">
<ele>0.000</ele>
<time>2018-03-31T09:21:43.196Z</time>
</trkpt>
<trkpt lat="13.6252059" lon="100.3923596">
<ele>0.000</ele>
<time>2018-03-31T09:21:46.186Z</time>
</trkpt>
<trkpt lat="13.6255830" lon="100.3927436">
<ele>0.000</ele>
<time>2018-03-31T09:21:49.320Z</time>
</trkpt>
<trkpt lat="13.6259694" lon="100.3931163">
<ele>0.000</ele>
<time>2018-03-31T09:21:52.386Z</time>
</trkpt>
<trkpt lat="13.6263423" lon="100.3934811">
<ele>0.000</ele>
<time>2018-03-31T09:21:55.433Z</time>
</trkpt>
<trkpt lat="13.6266969" lon="100.3938190">
<ele>0.000</ele>
<time>2018-03-31T09:21:58.409Z</time>
</trkpt>
<trkpt lat="13.6270242" lon="100.3941539">
<ele>0.000</ele>
<time>2018-03-31T09:22:01.313Z</time>
</trkpt>
<trkpt lat="13.6273747" lon="100.3945058">
<ele>0.000</ele>
<time>2018-03-31T09:22:04.370Z</time>
</trkpt>
<trkpt lat="13.6277397" lon="100.3948528">
<ele>0.000</ele>
<time>2018-03-31T09:22:07.392Z</time>
</trkpt>
<trkpt lat="13.6281060" lon="100.3952217">
<ele>0.000</ele>
<time>2018-03-31T09:22:10.432Z</time>
</trkpt>
<trkpt lat="13.6284722" lon="100.3955895">
<ele>0.000</ele>
<time>2018-03-31T09:22:13.407Z</time>
</trkpt>
<trkpt lat="13.6288419" lon="100.3959563">
<ele>0.000</ele>
<time>2018-03-31T09:22:16.313Z</time>
</trkpt>
<trkpt lat="13.6292494" lon="100.3963534">
<ele>0.000</ele>
<time>2018-03-31T09:22:19.361Z</time>
</trkpt>
<trkpt lat="13.6296732" lon="100.3967551">
<ele>0.000</ele>
<time>2018-03-31T09:22:22.371Z</time>
</trkpt>
<trkpt lat="13.6300966" lon="100.3971626">
<ele>0.000</ele>
<time>2018-03-31T09:22:25.336Z</time>
</trkpt>
<trkpt lat="13.6305162" lon="100.3975896">
<ele>0.000</ele>
<time>2018-03-31T09:22:28.362Z</time>
</trkpt>
<trkpt lat="13.6309288" lon="100.3980052">
<ele>0.000</ele>
<time>2018-03-31T09:22:31.423Z</time>
</trkpt>
<trkpt lat="13.6313127" lon="100.3983810">
<ele>0.000</ele>
<time>2018-03-31T09:22:34.393Z</time>
</trkpt>
<trkpt lat="13.6316599" lon="100.3987349">
<ele>0.000</ele>
<time>2018-03-31T09:22:37.239Z</time>
</trkpt>
<trkpt lat="13.6320486" lon="100.3991217">
<ele>0.000</ele>
<time>2018-03-31T09:22:40.365Z</time>
</trkpt>
<trkpt lat="13.6324410" lon="100.3994956">
<ele>0.000</ele>
<time>2018-03-31T09:22:43.346Z</time>
</trkpt>
<trkpt lat="13.6328473" lon="100.3998850">
<ele>0.000</ele>
<time>2018-03-31T09:22:46.387Z</time>
</trkpt>
<trkpt lat="13.6332174" lon="100.4002752">
<ele>0.000</ele>
<time>2018-03-31T09:22:49.387Z</time>
</trkpt>
<trkpt lat="13.6335717" lon="100.4006110">
<ele>0.000</ele>
<time>2018-03-31T09:22:52.387Z</time>
</trkpt>
<trkpt lat="13.6338656" lon="100.4009012">
<ele>0.000</ele>
<time>2018-03-31T09:22:55.250Z</time>
</trkpt>
<trkpt lat="13.6341365" lon="100.4011761">
<ele>0.000</ele>
<time>2018-03-31T09:22:58.181Z</time>
</trkpt>
<trkpt lat="13.6344070" lon="100.4014321">
<ele>0.000</ele>
<time>2018-03-31T09:23:01.171Z</time>
</trkpt>
<trkpt lat="13.6346678" lon="100.4016692">
<ele>0.000</ele>
<time>2018-03-31T09:23:04.158Z</time>
</trkpt>
<trkpt lat="13.6349071" lon="100.4019085">
<ele>0.000</ele>
<time>2018-03-31T09:23:07.165Z</time>
</trkpt>
<trkpt lat="13.6351326" lon="100.4021358">
<ele>0.000</ele>
<time>2018-03-31T09:23:10.005Z</time>
</trkpt>
<trkpt lat="13.6353938" lon="100.4024001">
<ele>0.000</ele>
<time>2018-03-31T09:23:13.101Z</time>
</trkpt>
<trkpt lat="13.6356792" lon="100.4026787">
<ele>0.000</ele>
<time>2018-03-31T09:23:16.126Z</time>
</trkpt>
<trkpt lat="13.6359973" lon="100.4029991">
<ele>0.000</ele>
<time>2018-03-31T09:23:19.223Z</time>
</trkpt>
<trkpt lat="13.6363399" lon="100.4033362">
<ele>0.000</ele>
<time>2018-03-31T09:23:22.303Z</time>
</trkpt>
<trkpt lat="13.6366897" lon="100.4036740">
<ele>0.000</ele>
<time>2018-03-31T09:23:25.356Z</time>
</trkpt>
<trkpt lat="13.6370227" lon="100.4040187">
<ele>0.000</ele>
<time>2018-03-31T09:23:28.403Z</time>
</trkpt>
<trkpt lat="13.6373350" lon="100.4043409">
<ele>0.000</ele>
<time>2018-03-31T09:23:31.339Z</time>
</trkpt>
<trkpt lat="13.6376548" lon="100.4046622">
<ele>0.000</ele>
<time>2018-03-31T09:23:34.312Z</time>
</trkpt>
<trkpt lat="13.6379866" lon="100.4049972">
<ele>0.000</ele>
<time>2018-03-31T09:23:37.320Z</time>
</trkpt>
<trkpt lat="13.6383312" lon="100.4053523">
<ele>0.000</ele>
<time>2018-03-31T09:23:40.343Z</time>
</trkpt>
<trkpt lat="13.6386815" lon="100.4057335">
<ele>0.000</ele>
<time>2018-03-31T09:23:43.312Z</time>
</trkpt>
<trkpt lat="13.6390482" lon="100.4061502">
<ele>0.000</ele>
<time>2018-03-31T09:23:46.275Z</time>
</trkpt>
<trkpt lat="13.6394600" lon="100.4066102">
<ele>0.000</ele>
<time>2018-03-31T09:23:49.354Z</time>
</trkpt>
<trkpt lat="13.6398756" lon="100.4070943">
<ele>0.000</ele>
<time>2018-03-31T09:23:52.419Z</time>
</trkpt>
<trkpt lat="13.6402504" lon="100.4075953">
<ele>0.000</ele>
<time>2018-03-31T09:23:55.416Z</time>
</trkpt>
<trkpt lat="13.6406395" lon="100.4080952">
<ele>0.000</ele>
<time>2018-03-31T09:23:58.447Z</time>
</trkpt>
<trkpt lat="13.6410257" lon="100.4086094">
<ele>0.000</ele>
<time>2018-03-31T09:24:01.470Z</time>
</trkpt>
<trkpt lat="13.6414063" lon="100.4091244">
<ele>0.000</ele>
<time>2018-03-31T09:24:04.428Z</time>
</trkpt>
<trkpt lat="13.6417972" lon="100.4096513">
<ele>0.000</ele>
<time>2018-03-31T09:24:07.419Z</time>
</trkpt>
<trkpt lat="13.6421964" lon="100.4101988">
<ele>1.351</ele>
<time>2018-03-31T09:24:10.519Z</time>
</trkpt>
<trkpt lat="13.6425773" lon="100.4107043">
<ele>2.993</ele>
<time>2018-03-31T09:24:13.482Z</time>
</trkpt>
<trkpt lat="13.6429600" lon="100.4111992">
<ele>4.104</ele>
<time>2018-03-31T09:24:16.427Z</time>
</trkpt>
<trkpt lat="13.6433641" lon="100.4117129">
<ele>4.420</ele>
<time>2018-03-31T09:24:19.412Z</time>
</trkpt>
<trkpt lat="13.6437691" lon="100.4122586">
<ele>4.261</ele>
<time>2018-03-31T09:24:22.395Z</time>
</trkpt>
<trkpt lat="13.6441929" lon="100.4128200">
<ele>3.648</ele>
<time>2018-03-31T09:24:25.434Z</time>
</trkpt>
<trkpt lat="13.6445961" lon="100.4133715">
<ele>2.187</ele>
<time>2018-03-31T09:24:28.455Z</time>
</trkpt>
<trkpt lat="13.6449797" lon="100.4138853">
<ele>0.261</ele>
<time>2018-03-31T09:24:31.550Z</time>
</trkpt>
<trkpt lat="13.6452852" lon="100.4143004">
<ele>0.000</ele>
<time>2018-03-31T09:24:34.418Z</time>
</trkpt>
<trkpt lat="13.6455450" lon="100.4146682">
<ele>0.000</ele>
<time>2018-03-31T09:24:37.259Z</time>
</trkpt>
<trkpt lat="13.6458006" lon="100.4150139">
<ele>0.000</ele>
<time>2018-03-31T09:24:40.311Z</time>
</trkpt>
<trkpt lat="13.6460129" lon="100.4153017">
<ele>0.000</ele>
<time>2018-03-31T09:24:43.258Z</time>
</trkpt>
<trkpt lat="13.6461965" lon="100.4155505">
<ele>0.000</ele>
<time>2018-03-31T09:24:46.062Z</time>
</trkpt>
<trkpt lat="13.6464114" lon="100.4158276">
<ele>0.000</ele>
<time>2018-03-31T09:24:49.094Z</time>
</trkpt>
<trkpt lat="13.6466607" lon="100.4161499">
<ele>0.000</ele>
<time>2018-03-31T09:24:52.212Z</time>
</trkpt>
<trkpt lat="13.6469282" lon="100.4165094">
<ele>0.000</ele>
<time>2018-03-31T09:24:55.333Z</time>
</trkpt>
<trkpt lat="13.6471963" lon="100.4168637">
<ele>0.000</ele>
<time>2018-03-31T09:24:58.353Z</time>
</trkpt>
<trkpt lat="13.6473574" lon="100.4170909">
<ele>0.000</ele>
<time>2018-03-31T09:25:00.293Z</time>
</trkpt>
<trkpt lat="13.6475149" lon="100.4173059">
<ele>0.000</ele>
<time>2018-03-31T09:25:02.209Z</time>
</trkpt>
<trkpt lat="13.6476808" lon="100.4175259">
<ele>0.000</ele>
<time>2018-03-31T09:25:04.233Z</time>
</trkpt>
<trkpt lat="13.6478413" lon="100.4177470">
<ele>0.000</ele>
<time>2018-03-31T09:25:06.254Z</time>
</trkpt>
<trkpt lat="13.6479945" lon="100.4179605">
<ele>0.000</ele>
<time>2018-03-31T09:25:08.173Z</time>
</trkpt>
<trkpt lat="13.6481708" lon="100.4181959">
<ele>0.000</ele>
<time>2018-03-31T09:25:10.219Z</time>
</trkpt>
<trkpt lat="13.6483663" lon="100.4184569">
<ele>0.000</ele>
<time>2018-03-31T09:25:12.329Z</time>
</trkpt>
<trkpt lat="13.6485652" lon="100.4187274">
<ele>0.000</ele>
<time>2018-03-31T09:25:14.362Z</time>
</trkpt>
<trkpt lat="13.6487748" lon="100.4190007">
<ele>0.000</ele>
<time>2018-03-31T09:25:16.366Z</time>
</trkpt>
<trkpt lat="13.6489913" lon="100.4192828">
<ele>0.000</ele>
<time>2018-03-31T09:25:18.432Z</time>
</trkpt>
<trkpt lat="13.6491882" lon="100.4195608">
<ele>0.000</ele>
<time>2018-03-31T09:25:20.438Z</time>
</trkpt>
<trkpt lat="13.6493882" lon="100.4198397">
<ele>0.000</ele>
<time>2018-03-31T09:25:22.440Z</time>
</trkpt>
<trkpt lat="13.6495854" lon="100.4201062">
<ele>0.000</ele>
<time>2018-03-31T09:25:24.348Z</time>
</trkpt>
<trkpt lat="13.6497880" lon="100.4203858">
<ele>0.000</ele>
<time>2018-03-31T09:25:26.329Z</time>
</trkpt>
<trkpt lat="13.6500011" lon="100.4206771">
<ele>0.000</ele>
<time>2018-03-31T09:25:28.395Z</time>
</trkpt>
<trkpt lat="13.6502047" lon="100.4209532">
<ele>0.000</ele>
<time>2018-03-31T09:25:30.357Z</time>
</trkpt>
<trkpt lat="13.6505211" lon="100.4213796">
<ele>0.000</ele>
<time>2018-03-31T09:25:33.398Z</time>
</trkpt>
<trkpt lat="13.6507339" lon="100.4216639">
<ele>0.000</ele>
<time>2018-03-31T09:25:35.430Z</time>
</trkpt>
<trkpt lat="13.6509491" lon="100.4219351">
<ele>0.000</ele>
<time>2018-03-31T09:25:37.427Z</time>
</trkpt>
<trkpt lat="13.6512645" lon="100.4223389">
<ele>0.000</ele>
<time>2018-03-31T09:25:40.392Z</time>
</trkpt>
<trkpt lat="13.6515794" lon="100.4227561">
<ele>0.000</ele>
<time>2018-03-31T09:25:43.404Z</time>
</trkpt>
<trkpt lat="13.6518919" lon="100.4231810">
<ele>0.000</ele>
<time>2018-03-31T09:25:46.428Z</time>
</trkpt>
<trkpt lat="13.6521988" lon="100.4236043">
<ele>0.000</ele>
<time>2018-03-31T09:25:49.421Z</time>
</trkpt>
<trkpt lat="13.6525206" lon="100.4240296">
<ele>0.000</ele>
<time>2018-03-31T09:25:52.469Z</time>
</trkpt>
<trkpt lat="13.6528226" lon="100.4244443">
<ele>0.000</ele>
<time>2018-03-31T09:25:55.405Z</time>
</trkpt>
<trkpt lat="13.6531377" lon="100.4248701">
<ele>0.000</ele>
<time>2018-03-31T09:25:58.446Z</time>
</trkpt>
<trkpt lat="13.6534544" lon="100.4252954">
<ele>0.000</ele>
<time>2018-03-31T09:26:01.511Z</time>
</trkpt>
<trkpt lat="13.6537525" lon="100.4256904">
<ele>0.000</ele>
<time>2018-03-31T09:26:04.413Z</time>
</trkpt>
<trkpt lat="13.6540554" lon="100.4260937">
<ele>0.000</ele>
<time>2018-03-31T09:26:07.335Z</time>
</trkpt>
<trkpt lat="13.6543761" lon="100.4265387">
<ele>0.000</ele>
<time>2018-03-31T09:26:10.385Z</time>
</trkpt>
<trkpt lat="13.6547075" lon="100.4269827">
<ele>0.000</ele>
<time>2018-03-31T09:26:13.405Z</time>
</trkpt>
<trkpt lat="13.6550352" lon="100.4274144">
<ele>0.000</ele>
<time>2018-03-31T09:26:16.369Z</time>
</trkpt>
<trkpt lat="13.6553579" lon="100.4278547">
<ele>0.000</ele>
<time>2018-03-31T09:26:19.303Z</time>
</trkpt>
<trkpt lat="13.6557098" lon="100.4283344">
<ele>0.000</ele>
<time>2018-03-31T09:26:22.358Z</time>
</trkpt>
<trkpt lat="13.6560807" lon="100.4288310">
<ele>0.000</ele>
<time>2018-03-31T09:26:25.436Z</time>
</trkpt>
<trkpt lat="13.6564026" lon="100.4293147">
<ele>0.000</ele>
<time>2018-03-31T09:26:28.281Z</time>
</trkpt>
<trkpt lat="13.6567525" lon="100.4298331">
<ele>0.000</ele>
<time>2018-03-31T09:26:31.273Z</time>
</trkpt>
<trkpt lat="13.6571133" lon="100.4303660">
<ele>0.000</ele>
<time>2018-03-31T09:26:34.254Z</time>
</trkpt>
<trkpt lat="13.6574885" lon="100.4309327">
<ele>0.000</ele>
<time>2018-03-31T09:26:37.355Z</time>
</trkpt>
<trkpt lat="13.6578216" lon="100.4314761">
<ele>0.000</ele>
<time>2018-03-31T09:26:40.320Z</time>
</trkpt>
<trkpt lat="13.6581484" lon="100.4320011">
<ele>0.000</ele>
<time>2018-03-31T09:26:43.317Z</time>
</trkpt>
<trkpt lat="13.6584517" lon="100.4324968">
<ele>0.000</ele>
<time>2018-03-31T09:26:46.272Z</time>
</trkpt>
<trkpt lat="13.6587370" lon="100.4329769">
<ele>0.000</ele>
<time>2018-03-31T09:26:49.218Z</time>
</trkpt>
<trkpt lat="13.6590303" lon="100.4334651">
<ele>0.000</ele>
<time>2018-03-31T09:26:52.239Z</time>
</trkpt>
<trkpt lat="13.6593311" lon="100.4339446">
<ele>0.000</ele>
<time>2018-03-31T09:26:55.223Z</time>
</trkpt>
<trkpt lat="13.6596169" lon="100.4344288">
<ele>0.000</ele>
<time>2018-03-31T09:26:58.200Z</time>
</trkpt>
<trkpt lat="13.6598995" lon="100.4349043">
<ele>0.000</ele>
<time>2018-03-31T09:27:01.182Z</time>
</trkpt>
<trkpt lat="13.6601845" lon="100.4353788">
<ele>0.000</ele>
<time>2018-03-31T09:27:04.223Z</time>
</trkpt>
<trkpt lat="13.6604595" lon="100.4358342">
<ele>0.000</ele>
<time>2018-03-31T09:27:07.256Z</time>
</trkpt>
<trkpt lat="13.6607034" lon="100.4362336">
<ele>0.000</ele>
<time>2018-03-31T09:27:10.105Z</time>
</trkpt>
<trkpt lat="13.6609662" lon="100.4366355">
<ele>0.000</ele>
<time>2018-03-31T09:27:13.137Z</time>
</trkpt>
<trkpt lat="13.6612138" lon="100.4370552">
<ele>0.000</ele>
<time>2018-03-31T09:27:16.097Z</time>
</trkpt>
<trkpt lat="13.6615132" lon="100.4375497">
<ele>0.000</ele>
<time>2018-03-31T09:27:19.316Z</time>
</trkpt>
<trkpt lat="13.6618058" lon="100.4380272">
<ele>0.000</ele>
<time>2018-03-31T09:27:22.225Z</time>
</trkpt>
<trkpt lat="13.6621292" lon="100.4385832">
<ele>0.000</ele>
<time>2018-03-31T09:27:25.433Z</time>
</trkpt>
<trkpt lat="13.6624344" lon="100.4391104">
<ele>0.000</ele>
<time>2018-03-31T09:27:28.502Z</time>
</trkpt>
<trkpt lat="13.6627038" lon="100.4396066">
<ele>0.000</ele>
<time>2018-03-31T09:27:31.470Z</time>
</trkpt>
<trkpt lat="13.6630030" lon="100.4400863">
<ele>0.000</ele>
<time>2018-03-31T09:27:34.480Z</time>
</trkpt>
<trkpt lat="13.6632847" lon="100.4405610">
<ele>0.000</ele>
<time>2018-03-31T09:27:37.352Z</time>
</trkpt>
<trkpt lat="13.6635971" lon="100.4410775">
<ele>0.000</ele>
<time>2018-03-31T09:27:40.425Z</time>
</trkpt>
<trkpt lat="13.6639109" lon="100.4415839">
<ele>0.000</ele>
<time>2018-03-31T09:27:43.446Z</time>
</trkpt>
<trkpt lat="13.6642266" lon="100.4420935">
<ele>0.000</ele>
<time>2018-03-31T09:27:46.478Z</time>
</trkpt>
<trkpt lat="13.6645233" lon="100.4425962">
<ele>0.000</ele>
<time>2018-03-31T09:27:49.416Z</time>
</trkpt>
<trkpt lat="13.6648376" lon="100.4431142">
<ele>0.000</ele>
<time>2018-03-31T09:27:52.494Z</time>
</trkpt>
<trkpt lat="13.6651461" lon="100.4436219">
<ele>0.000</ele>
<time>2018-03-31T09:27:55.604Z</time>
</trkpt>
<trkpt lat="13.6654311" lon="100.4440944">
<ele>0.000</ele>
<time>2018-03-31T09:27:58.600Z</time>
</trkpt>
<trkpt lat="13.6657124" lon="100.4445679">
<ele>0.000</ele>
<time>2018-03-31T09:28:01.671Z</time>
</trkpt>
<trkpt lat="13.6659722" lon="100.4450065">
<ele>0.000</ele>
<time>2018-03-31T09:28:04.561Z</time>
</trkpt>
<trkpt lat="13.6662368" lon="100.4454663">
<ele>0.000</ele>
<time>2018-03-31T09:28:07.674Z</time>
</trkpt>
<trkpt lat="13.6664876" lon="100.4458809">
<ele>0.000</ele>
<time>2018-03-31T09:28:10.798Z</time>
</trkpt>
<trkpt lat="13.6666990" lon="100.4462332">
<ele>0.000</ele>
<time>2018-03-31T09:28:13.705Z</time>
</trkpt>
<trkpt lat="13.6669038" lon="100.4465606">
<ele>0.000</ele>
<time>2018-03-31T09:28:16.492Z</time>
</trkpt>
<trkpt lat="13.6671312" lon="100.4469359">
<ele>0.000</ele>
<time>2018-03-31T09:28:19.592Z</time>
</trkpt>
<trkpt lat="13.6673491" lon="100.4473068">
<ele>0.000</ele>
<time>2018-03-31T09:28:22.613Z</time>
</trkpt>
<trkpt lat="13.6675718" lon="100.4476720">
<ele>0.000</ele>
<time>2018-03-31T09:28:25.604Z</time>
</trkpt>
<trkpt lat="13.6677971" lon="100.4480375">
<ele>0.000</ele>
<time>2018-03-31T09:28:28.555Z</time>
</trkpt>
<trkpt lat="13.6680270" lon="100.4484208">
<ele>0.000</ele>
<time>2018-03-31T09:28:31.627Z</time>
</trkpt>
<trkpt lat="13.6682472" lon="100.4487796">
<ele>0.000</ele>
<time>2018-03-31T09:28:34.577Z</time>
</trkpt>
<trkpt lat="13.6684710" lon="100.4491448">
<ele>0.000</ele>
<time>2018-03-31T09:28:37.587Z</time>
</trkpt>
<trkpt lat="13.6687073" lon="100.4495187">
<ele>0.000</ele>
<time>2018-03-31T09:28:40.595Z</time>
</trkpt>
<trkpt lat="13.6689300" lon="100.4498986">
<ele>0.000</ele>
<time>2018-03-31T09:28:43.451Z</time>
</trkpt>
<trkpt lat="13.6691867" lon="100.4503052">
<ele>0.000</ele>
<time>2018-03-31T09:28:46.502Z</time>
</trkpt>
<trkpt lat="13.6694162" lon="100.4506961">
<ele>0.000</ele>
<time>2018-03-31T09:28:49.429Z</time>
</trkpt>
<trkpt lat="13.6696453" lon="100.4510814">
<ele>0.000</ele>
<time>2018-03-31T09:28:52.413Z</time>
</trkpt>
<trkpt lat="13.6698795" lon="100.4514624">
<ele>0.000</ele>
<time>2018-03-31T09:28:55.362Z</time>
</trkpt>
<trkpt lat="13.6701244" lon="100.4518664">
<ele>0.000</ele>
<time>2018-03-31T09:28:58.319Z</time>
</trkpt>
<trkpt lat="13.6703877" lon="100.4523112">
<ele>0.000</ele>
<time>2018-03-31T09:29:01.373Z</time>
</trkpt>
<trkpt lat="13.6706539" lon="100.4527657">
<ele>0.000</ele>
<time>2018-03-31T09:29:04.388Z</time>
</trkpt>
<trkpt lat="13.6709168" lon="100.4532161">
<ele>0.620</ele>
<time>2018-03-31T09:29:07.354Z</time>
</trkpt>
<trkpt lat="13.6711970" lon="100.4536771">
<ele>0.539</ele>
<time>2018-03-31T09:29:10.412Z</time>
</trkpt>
<trkpt lat="13.6714800" lon="100.4541370">
<ele>0.000</ele>
<time>2018-03-31T09:29:13.483Z</time>
</trkpt>
<trkpt lat="13.6717427" lon="100.4545757">
<ele>0.000</ele>
<time>2018-03-31T09:29:16.457Z</time>
</trkpt>
<trkpt lat="13.6720160" lon="100.4550154">
<ele>0.000</ele>
<time>2018-03-31T09:29:19.549Z</time>
</trkpt>
<trkpt lat="13.6722767" lon="100.4554361">
<ele>0.000</ele>
<time>2018-03-31T09:29:22.550Z</time>
</trkpt>
<trkpt lat="13.6725182" lon="100.4558422">
<ele>0.000</ele>
<time>2018-03-31T09:29:25.403Z</time>
</trkpt>
<trkpt lat="13.6727706" lon="100.4562698">
<ele>0.000</ele>
<time>2018-03-31T09:29:28.342Z</time>
</trkpt>
<trkpt lat="13.6730257" lon="100.4566990">
<ele>0.000</ele>
<time>2018-03-31T09:29:31.233Z</time>
</trkpt>
<trkpt lat="13.6733054" lon="100.4571655">
<ele>0.000</ele>
<time>2018-03-31T09:29:34.329Z</time>
</trkpt>
<trkpt lat="13.6735705" lon="100.4576180">
<ele>0.000</ele>
<time>2018-03-31T09:29:37.280Z</time>
</trkpt>
<trkpt lat="13.6738471" lon="100.4580797">
<ele>0.000</ele>
<time>2018-03-31T09:29:40.297Z</time>
</trkpt>
<trkpt lat="13.6741172" lon="100.4585457">
<ele>0.000</ele>
<time>2018-03-31T09:29:43.301Z</time>
</trkpt>
<trkpt lat="13.6744055" lon="100.4590171">
<ele>0.000</ele>
<time>2018-03-31T09:29:46.349Z</time>
</trkpt>
<trkpt lat="13.6746799" lon="100.4594568">
<ele>0.000</ele>
<time>2018-03-31T09:29:49.198Z</time>
</trkpt>
<trkpt lat="13.6749609" lon="100.4599236">
<ele>0.000</ele>
<time>2018-03-31T09:29:52.199Z</time>
</trkpt>
<trkpt lat="13.6752443" lon="100.4603800">
<ele>0.000</ele>
<time>2018-03-31T09:29:55.147Z</time>
</trkpt>
<trkpt lat="13.6755332" lon="100.4608391">
<ele>0.000</ele>
<time>2018-03-31T09:29:58.115Z</time>
</trkpt>
<trkpt lat="13.6758008" lon="100.4612848">
<ele>0.000</ele>
<time>2018-03-31T09:30:00.966Z</time>
</trkpt>
<trkpt lat="13.6760903" lon="100.4617814">
<ele>0.000</ele>
<time>2018-03-31T09:30:04.133Z</time>
</trkpt>
<trkpt lat="13.6763819" lon="100.4622482">
<ele>0.000</ele>
<time>2018-03-31T09:30:07.242Z</time>
</trkpt>
<trkpt lat="13.6766276" lon="100.4626660">
<ele>0.000</ele>
<time>2018-03-31T09:30:10.083Z</time>
</trkpt>
<trkpt lat="13.6768853" lon="100.4630874">
<ele>0.000</ele>
<time>2018-03-31T09:30:13.044Z</time>
</trkpt>
<trkpt lat="13.6771429" lon="100.4635067">
<ele>0.000</ele>
<time>2018-03-31T09:30:15.996Z</time>
</trkpt>
<trkpt lat="13.6773828" lon="100.4639570">
<ele>0.000</ele>
<time>2018-03-31T09:30:19.037Z</time>
</trkpt>
<trkpt lat="13.6776326" lon="100.4643806">
<ele>0.000</ele>
<time>2018-03-31T09:30:21.986Z</time>
</trkpt>
<trkpt lat="13.6778912" lon="100.4648086">
<ele>0.000</ele>
<time>2018-03-31T09:30:24.986Z</time>
</trkpt>
<trkpt lat="13.6781439" lon="100.4652736">
<ele>0.000</ele>
<time>2018-03-31T09:30:28.074Z</time>
</trkpt>
<trkpt lat="13.6783919" lon="100.4657421">
<ele>0.000</ele>
<time>2018-03-31T09:30:31.099Z</time>
</trkpt>
<trkpt lat="13.6786457" lon="100.4662154">
<ele>0.000</ele>
<time>2018-03-31T09:30:34.154Z</time>
</trkpt>
<trkpt lat="13.6788621" lon="100.4666747">
<ele>0.000</ele>
<time>2018-03-31T09:30:37.082Z</time>
</trkpt>
<trkpt lat="13.6790615" lon="100.4671359">
<ele>0.000</ele>
<time>2018-03-31T09:30:40.041Z</time>
</trkpt>
<trkpt lat="13.6792621" lon="100.4676166">
<ele>0.000</ele>
<time>2018-03-31T09:30:43.128Z</time>
</trkpt>
<trkpt lat="13.6794129" lon="100.4680617">
<ele>0.000</ele>
<time>2018-03-31T09:30:45.905Z</time>
</trkpt>
<trkpt lat="13.6795888" lon="100.4685807">
<ele>0.000</ele>
<time>2018-03-31T09:30:49.054Z</time>
</trkpt>
<trkpt lat="13.6797651" lon="100.4691076">
<ele>0.000</ele>
<time>2018-03-31T09:30:52.135Z</time>
</trkpt>
<trkpt lat="13.6799164" lon="100.4696296">
<ele>0.000</ele>
<time>2018-03-31T09:30:55.172Z</time>
</trkpt>
<trkpt lat="13.6800384" lon="100.4701265">
<ele>0.000</ele>
<time>2018-03-31T09:30:58.180Z</time>
</trkpt>
<trkpt lat="13.6801555" lon="100.4705852">
<ele>0.000</ele>
<time>2018-03-31T09:31:01.121Z</time>
</trkpt>
<trkpt lat="13.6802590" lon="100.4710408">
<ele>0.000</ele>
<time>2018-03-31T09:31:04.100Z</time>
</trkpt>
<trkpt lat="13.6803696" lon="100.4714914">
<ele>0.000</ele>
<time>2018-03-31T09:31:07.065Z</time>
</trkpt>
<trkpt lat="13.6804827" lon="100.4719672">
<ele>0.000</ele>
<time>2018-03-31T09:31:10.105Z</time>
</trkpt>
<trkpt lat="13.6806152" lon="100.4724690">
<ele>0.000</ele>
<time>2018-03-31T09:31:13.153Z</time>
</trkpt>
<trkpt lat="13.6807547" lon="100.4729862">
<ele>0.000</ele>
<time>2018-03-31T09:31:16.192Z</time>
</trkpt>
<trkpt lat="13.6809001" lon="100.4734766">
<ele>0.000</ele>
<time>2018-03-31T09:31:19.158Z</time>
</trkpt>
<trkpt lat="13.6810371" lon="100.4739361">
<ele>0.000</ele>
<time>2018-03-31T09:31:22.093Z</time>
</trkpt>
<trkpt lat="13.6811654" lon="100.4743557">
<ele>0.000</ele>
<time>2018-03-31T09:31:24.931Z</time>
</trkpt>
<trkpt lat="13.6812811" lon="100.4747893">
<ele>0.000</ele>
<time>2018-03-31T09:31:27.985Z</time>
</trkpt>
<trkpt lat="13.6813684" lon="100.4751770">
<ele>0.580</ele>
<time>2018-03-31T09:31:30.875Z</time>
</trkpt>
<trkpt lat="13.6814280" lon="100.4755285">
<ele>1.454</ele>
<time>2018-03-31T09:31:33.712Z</time>
</trkpt>
<trkpt lat="13.6814298" lon="100.4758670">
<ele>2.130</ele>
<time>2018-03-31T09:31:36.580Z</time>
</trkpt>
<trkpt lat="13.6813423" lon="100.4762053">
<ele>2.674</ele>
<time>2018-03-31T09:31:39.572Z</time>
</trkpt>
<trkpt lat="13.6811889" lon="100.4764964">
<ele>3.115</ele>
<time>2018-03-31T09:31:42.409Z</time>
</trkpt>
<trkpt lat="13.6809634" lon="100.4767680">
<ele>3.321</ele>
<time>2018-03-31T09:31:45.384Z</time>
</trkpt>
<trkpt lat="13.6806200" lon="100.4769766">
<ele>3.305</ele>
<time>2018-03-31T09:31:48.514Z</time>
</trkpt>
<trkpt lat="13.6802138" lon="100.4771414">
<ele>3.354</ele>
<time>2018-03-31T09:31:51.734Z</time>
</trkpt>
<trkpt lat="13.6798734" lon="100.4772527">
<ele>3.862</ele>
<time>2018-03-31T09:31:54.428Z</time>
</trkpt>
<trkpt lat="13.6794966" lon="100.4773862">
<ele>4.883</ele>
<time>2018-03-31T09:31:57.480Z</time>
</trkpt>
<trkpt lat="13.6790645" lon="100.4775619">
<ele>5.958</ele>
<time>2018-03-31T09:32:00.756Z</time>
</trkpt>
<trkpt lat="13.6786220" lon="100.4777582">
<ele>6.232</ele>
<time>2018-03-31T09:32:03.877Z</time>
</trkpt>
<trkpt lat="13.6781636" lon="100.4779821">
<ele>5.443</ele>
<time>2018-03-31T09:32:07.026Z</time>
</trkpt>
<trkpt lat="13.6777603" lon="100.4782460">
<ele>4.084</ele>
<time>2018-03-31T09:32:10.014Z</time>
</trkpt>
<trkpt lat="13.6774949" lon="100.4784324">
<ele>2.602</ele>
<time>2018-03-31T09:32:12.080Z</time>
</trkpt>
<trkpt lat="13.6772552" lon="100.4786295">
<ele>1.044</ele>
<time>2018-03-31T09:32:14.072Z</time>
</trkpt>
<trkpt lat="13.6770168" lon="100.4788434">
<ele>0.000</ele>
<time>2018-03-31T09:32:16.106Z</time>
</trkpt>
<trkpt lat="13.6768027" lon="100.4790802">
<ele>0.000</ele>
<time>2018-03-31T09:32:18.145Z</time>
</trkpt>
<trkpt lat="13.6766170" lon="100.4793170">
<ele>0.000</ele>
<time>2018-03-31T09:32:20.130Z</time>
</trkpt>
<trkpt lat="13.6764397" lon="100.4795827">
<ele>0.000</ele>
<time>2018-03-31T09:32:22.305Z</time>
</trkpt>
<trkpt lat="13.6763129" lon="100.4798069">
<ele>0.000</ele>
<time>2018-03-31T09:32:24.155Z</time>
</trkpt>
<trkpt lat="13.6761879" lon="100.4800531">
<ele>0.000</ele>
<time>2018-03-31T09:32:26.283Z</time>
</trkpt>
<trkpt lat="13.6760900" lon="100.4802649">
<ele>0.000</ele>
<time>2018-03-31T09:32:28.251Z</time>
</trkpt>
<trkpt lat="13.6760110" lon="100.4804493">
<ele>0.000</ele>
<time>2018-03-31T09:32:30.174Z</time>
</trkpt>
<trkpt lat="13.6759598" lon="100.4806140">
<ele>0.000</ele>
<time>2018-03-31T09:32:32.124Z</time>
</trkpt>
<trkpt lat="13.6759129" lon="100.4807430">
<ele>0.000</ele>
<time>2018-03-31T09:32:34.145Z</time>
</trkpt>
<trkpt lat="13.6758773" lon="100.4808528">
<ele>0.000</ele>
<time>2018-03-31T09:32:36.181Z</time>
</trkpt>
<trkpt lat="13.6758263" lon="100.4809372">
<ele>0.000</ele>
<time>2018-03-31T09:32:38.449Z</time>
</trkpt>
<trkpt lat="13.6757819" lon="100.4810247">
<ele>0.000</ele>
<time>2018-03-31T09:32:40.999Z</time>
</trkpt>
<trkpt lat="13.6757819" lon="100.4810247">
<ele>0.000</ele>
<time>2018-03-31T09:32:44.999Z</time>
</trkpt>
<trkpt lat="13.6757819" lon="100.4810247">
<ele>0.000</ele>
<time>2018-03-31T09:32:52.197Z</time>
</trkpt>
<trkpt lat="13.6757109" lon="100.4812062">
<ele>0.000</ele>
<time>2018-03-31T09:33:00.078Z</time>
</trkpt>
<trkpt lat="13.6756369" lon="100.4814008">
<ele>0.000</ele>
<time>2018-03-31T09:33:03.235Z</time>
</trkpt>
<trkpt lat="13.6755240" lon="100.4816342">
<ele>0.000</ele>
<time>2018-03-31T09:33:05.993Z</time>
</trkpt>
<trkpt lat="13.6753476" lon="100.4819272">
<ele>0.000</ele>
<time>2018-03-31T09:33:09.004Z</time>
</trkpt>
<trkpt lat="13.6751951" lon="100.4822633">
<ele>0.000</ele>
<time>2018-03-31T09:33:12.023Z</time>
</trkpt>
<trkpt lat="13.6750542" lon="100.4826053">
<ele>0.000</ele>
<time>2018-03-31T09:33:14.912Z</time>
</trkpt>
<trkpt lat="13.6748909" lon="100.4829944">
<ele>0.000</ele>
<time>2018-03-31T09:33:17.919Z</time>
</trkpt>
<trkpt lat="13.6747245" lon="100.4834329">
<ele>0.000</ele>
<time>2018-03-31T09:33:20.897Z</time>
</trkpt>
<trkpt lat="13.6745556" lon="100.4839208">
<ele>0.000</ele>
<time>2018-03-31T09:33:23.821Z</time>
</trkpt>
<trkpt lat="13.6743632" lon="100.4844668">
<ele>0.000</ele>
<time>2018-03-31T09:33:26.789Z</time>
</trkpt>
<trkpt lat="13.6741425" lon="100.4850575">
<ele>0.000</ele>
<time>2018-03-31T09:33:29.799Z</time>
</trkpt>
<trkpt lat="13.6739288" lon="100.4856698">
<ele>0.000</ele>
<time>2018-03-31T09:33:32.782Z</time>
</trkpt>
<trkpt lat="13.6737042" lon="100.4862845">
<ele>0.000</ele>
<time>2018-03-31T09:33:35.775Z</time>
</trkpt>
<trkpt lat="13.6734884" lon="100.4869079">
<ele>0.165</ele>
<time>2018-03-31T09:33:38.815Z</time>
</trkpt>
<trkpt lat="13.6732850" lon="100.4875191">
<ele>0.668</ele>
<time>2018-03-31T09:33:41.858Z</time>
</trkpt>
<trkpt lat="13.6730729" lon="100.4880965">
<ele>1.136</ele>
<time>2018-03-31T09:33:44.894Z</time>
</trkpt>
<trkpt lat="13.6728684" lon="100.4886354">
<ele>1.308</ele>
<time>2018-03-31T09:33:47.855Z</time>
</trkpt>
<trkpt lat="13.6726848" lon="100.4891683">
<ele>1.145</ele>
<time>2018-03-31T09:33:50.804Z</time>
</trkpt>
<trkpt lat="13.6724972" lon="100.4896992">
<ele>0.868</ele>
<time>2018-03-31T09:33:53.791Z</time>
</trkpt>
<trkpt lat="13.6723051" lon="100.4902235">
<ele>0.754</ele>
<time>2018-03-31T09:33:56.816Z</time>
</trkpt>
<trkpt lat="13.6721143" lon="100.4907296">
<ele>0.826</ele>
<time>2018-03-31T09:33:59.792Z</time>
</trkpt>
<trkpt lat="13.6719360" lon="100.4912436">
<ele>0.927</ele>
<time>2018-03-31T09:34:02.772Z</time>
</trkpt>
<trkpt lat="13.6717610" lon="100.4917667">
<ele>0.941</ele>
<time>2018-03-31T09:34:05.735Z</time>
</trkpt>
<trkpt lat="13.6715886" lon="100.4923036">
<ele>0.805</ele>
<time>2018-03-31T09:34:08.698Z</time>
</trkpt>
<trkpt lat="13.6714300" lon="100.4928588">
<ele>0.578</ele>
<time>2018-03-31T09:34:11.709Z</time>
</trkpt>
<trkpt lat="13.6712977" lon="100.4934067">
<ele>0.392</ele>
<time>2018-03-31T09:34:14.674Z</time>
</trkpt>
<trkpt lat="13.6711890" lon="100.4939558">
<ele>0.130</ele>
<time>2018-03-31T09:34:17.663Z</time>
</trkpt>
<trkpt lat="13.6710819" lon="100.4944910">
<ele>0.000</ele>
<time>2018-03-31T09:34:20.600Z</time>
</trkpt>
<trkpt lat="13.6710008" lon="100.4950496">
<ele>0.000</ele>
<time>2018-03-31T09:34:23.562Z</time>
</trkpt>
<trkpt lat="13.6709434" lon="100.4956520">
<ele>0.000</ele>
<time>2018-03-31T09:34:26.641Z</time>
</trkpt>
<trkpt lat="13.6709087" lon="100.4962410">
<ele>0.000</ele>
<time>2018-03-31T09:34:29.677Z</time>
</trkpt>
<trkpt lat="13.6708721" lon="100.4967952">
<ele>0.000</ele>
<time>2018-03-31T09:34:32.710Z</time>
</trkpt>
<trkpt lat="13.6708378" lon="100.4972991">
<ele>0.000</ele>
<time>2018-03-31T09:34:35.680Z</time>
</trkpt>
<trkpt lat="13.6708063" lon="100.4977775">
<ele>0.000</ele>
<time>2018-03-31T09:34:38.601Z</time>
</trkpt>
<trkpt lat="13.6707758" lon="100.4982792">
<ele>0.000</ele>
<time>2018-03-31T09:34:41.638Z</time>
</trkpt>
<trkpt lat="13.6707503" lon="100.4987923">
<ele>0.000</ele>
<time>2018-03-31T09:34:44.696Z</time>
</trkpt>
<trkpt lat="13.6707158" lon="100.4992912">
<ele>0.000</ele>
<time>2018-03-31T09:34:47.661Z</time>
</trkpt>
<trkpt lat="13.6706780" lon="100.4997913">
<ele>0.442</ele>
<time>2018-03-31T09:34:50.677Z</time>
</trkpt>
<trkpt lat="13.6706476" lon="100.5002710">
<ele>1.024</ele>
<time>2018-03-31T09:34:53.614Z</time>
</trkpt>
<trkpt lat="13.6706258" lon="100.5007627">
<ele>1.696</ele>
<time>2018-03-31T09:34:56.580Z</time>
</trkpt>
<trkpt lat="13.6706024" lon="100.5012857">
<ele>2.549</ele>
<time>2018-03-31T09:34:59.579Z</time>
</trkpt>
<trkpt lat="13.6705428" lon="100.5018265">
<ele>3.169</ele>
<time>2018-03-31T09:35:02.486Z</time>
</trkpt>
<trkpt lat="13.6705004" lon="100.5024169">
<ele>3.092</ele>
<time>2018-03-31T09:35:05.472Z</time>
</trkpt>
<trkpt lat="13.6704587" lon="100.5030316">
<ele>2.332</ele>
<time>2018-03-31T09:35:08.488Z</time>
</trkpt>
<trkpt lat="13.6704267" lon="100.5036508">
<ele>1.280</ele>
<time>2018-03-31T09:35:11.465Z</time>
</trkpt>
<trkpt lat="13.6703949" lon="100.5042764">
<ele>0.499</ele>
<time>2018-03-31T09:35:14.425Z</time>
</trkpt>
<trkpt lat="13.6703993" lon="100.5049253">
<ele>0.170</ele>
<time>2018-03-31T09:35:17.480Z</time>
</trkpt>
<trkpt lat="13.6704665" lon="100.5055824">
<ele>0.000</ele>
<time>2018-03-31T09:35:20.607Z</time>
</trkpt>
<trkpt lat="13.6705682" lon="100.5062015">
<ele>0.000</ele>
<time>2018-03-31T09:35:23.595Z</time>
</trkpt>
<trkpt lat="13.6707126" lon="100.5067934">
<ele>0.000</ele>
<time>2018-03-31T09:35:26.503Z</time>
</trkpt>
<trkpt lat="13.6709144" lon="100.5073882">
<ele>0.000</ele>
<time>2018-03-31T09:35:29.484Z</time>
</trkpt>
<trkpt lat="13.6711770" lon="100.5079714">
<ele>0.000</ele>
<time>2018-03-31T09:35:32.498Z</time>
</trkpt>
<trkpt lat="13.6714879" lon="100.5085345">
<ele>0.000</ele>
<time>2018-03-31T09:35:35.511Z</time>
</trkpt>
<trkpt lat="13.6718740" lon="100.5090571">
<ele>0.000</ele>
<time>2018-03-31T09:35:38.556Z</time>
</trkpt>
<trkpt lat="13.6723015" lon="100.5095396">
<ele>0.000</ele>
<time>2018-03-31T09:35:41.551Z</time>
</trkpt>
<trkpt lat="13.6727587" lon="100.5100196">
<ele>0.000</ele>
<time>2018-03-31T09:35:44.519Z</time>
</trkpt>
<trkpt lat="13.6733003" lon="100.5104693">
<ele>0.000</ele>
<time>2018-03-31T09:35:47.561Z</time>
</trkpt>
<trkpt lat="13.6738615" lon="100.5109010">
<ele>0.000</ele>
<time>2018-03-31T09:35:50.602Z</time>
</trkpt>
<trkpt lat="13.6744040" lon="100.5113325">
<ele>0.000</ele>
<time>2018-03-31T09:35:53.629Z</time>
</trkpt>
<trkpt lat="13.6749182" lon="100.5117530">
<ele>0.000</ele>
<time>2018-03-31T09:35:56.624Z</time>
</trkpt>
<trkpt lat="13.6754330" lon="100.5121301">
<ele>0.000</ele>
<time>2018-03-31T09:35:59.677Z</time>
</trkpt>
<trkpt lat="13.6758786" lon="100.5124974">
<ele>0.000</ele>
<time>2018-03-31T09:36:02.646Z</time>
</trkpt>
<trkpt lat="13.6763285" lon="100.5128360">
<ele>0.000</ele>
<time>2018-03-31T09:36:05.707Z</time>
</trkpt>
<trkpt lat="13.6767606" lon="100.5131595">
<ele>0.000</ele>
<time>2018-03-31T09:36:08.707Z</time>
</trkpt>
<trkpt lat="13.6771801" lon="100.5134755">
<ele>0.000</ele>
<time>2018-03-31T09:36:11.645Z</time>
</trkpt>
<trkpt lat="13.6776148" lon="100.5138066">
<ele>0.683</ele>
<time>2018-03-31T09:36:14.701Z</time>
</trkpt>
<trkpt lat="13.6780069" lon="100.5141812">
<ele>2.262</ele>
<time>2018-03-31T09:36:17.679Z</time>
</trkpt>
<trkpt lat="13.6784451" lon="100.5145262">
<ele>4.243</ele>
<time>2018-03-31T09:36:20.636Z</time>
</trkpt>
<trkpt lat="13.6789201" lon="100.5148851">
<ele>6.672</ele>
<time>2018-03-31T09:36:23.671Z</time>
</trkpt>
<trkpt lat="13.6794020" lon="100.5152544">
<ele>8.969</ele>
<time>2018-03-31T09:36:26.709Z</time>
</trkpt>
<trkpt lat="13.6798888" lon="100.5156232">
<ele>10.551</ele>
<time>2018-03-31T09:36:29.742Z</time>
</trkpt>
<trkpt lat="13.6803788" lon="100.5160037">
<ele>11.898</ele>
<time>2018-03-31T09:36:32.799Z</time>
</trkpt>
<trkpt lat="13.6808567" lon="100.5163712">
<ele>13.629</ele>
<time>2018-03-31T09:36:35.747Z</time>
</trkpt>
<trkpt lat="13.6813728" lon="100.5167514">
<ele>16.116</ele>
<time>2018-03-31T09:36:38.868Z</time>
</trkpt>
<trkpt lat="13.6818642" lon="100.5171269">
<ele>19.038</ele>
<time>2018-03-31T09:36:41.903Z</time>
</trkpt>
<trkpt lat="13.6823382" lon="100.5174979">
<ele>21.733</ele>
<time>2018-03-31T09:36:44.906Z</time>
</trkpt>
<trkpt lat="13.6828276" lon="100.5178730">
<ele>24.099</ele>
<time>2018-03-31T09:36:48.067Z</time>
</trkpt>
<trkpt lat="13.6832857" lon="100.5182050">
<ele>25.994</ele>
<time>2018-03-31T09:36:51.150Z</time>
</trkpt>
<trkpt lat="13.6836574" lon="100.5185170">
<ele>26.972</ele>
<time>2018-03-31T09:36:54.024Z</time>
</trkpt>
<trkpt lat="13.6840257" lon="100.5188127">
<ele>27.469</ele>
<time>2018-03-31T09:36:56.946Z</time>
</trkpt>
<trkpt lat="13.6843989" lon="100.5191106">
<ele>28.318</ele>
<time>2018-03-31T09:36:59.906Z</time>
</trkpt>
<trkpt lat="13.6847770" lon="100.5194088">
<ele>29.736</ele>
<time>2018-03-31T09:37:02.872Z</time>
</trkpt>
<trkpt lat="13.6851618" lon="100.5196943">
<ele>31.142</ele>
<time>2018-03-31T09:37:05.798Z</time>
</trkpt>
<trkpt lat="13.6855398" lon="100.5200040">
<ele>31.502</ele>
<time>2018-03-31T09:37:08.710Z</time>
</trkpt>
<trkpt lat="13.6859625" lon="100.5203401">
<ele>30.516</ele>
<time>2018-03-31T09:37:11.787Z</time>
</trkpt>
<trkpt lat="13.6864072" lon="100.5206845">
<ele>28.108</ele>
<time>2018-03-31T09:37:14.873Z</time>
</trkpt>
<trkpt lat="13.6868099" lon="100.5210152">
<ele>24.557</ele>
<time>2018-03-31T09:37:17.723Z</time>
</trkpt>
<trkpt lat="13.6872200" lon="100.5213516">
<ele>21.488</ele>
<time>2018-03-31T09:37:20.627Z</time>
</trkpt>
<trkpt lat="13.6876854" lon="100.5217088">
<ele>20.193</ele>
<time>2018-03-31T09:37:23.754Z</time>
</trkpt>
<trkpt lat="13.6881544" lon="100.5220715">
<ele>19.633</ele>
<time>2018-03-31T09:37:26.767Z</time>
</trkpt>
<trkpt lat="13.6886091" lon="100.5224345">
<ele>18.387</ele>
<time>2018-03-31T09:37:29.605Z</time>
</trkpt>
<trkpt lat="13.6891202" lon="100.5228308">
<ele>16.201</ele>
<time>2018-03-31T09:37:32.666Z</time>
</trkpt>
<trkpt lat="13.6896419" lon="100.5232471">
<ele>13.399</ele>
<time>2018-03-31T09:37:35.761Z</time>
</trkpt>
<trkpt lat="13.6901591" lon="100.5236469">
<ele>9.596</ele>
<time>2018-03-31T09:37:38.771Z</time>
</trkpt>
<trkpt lat="13.6906728" lon="100.5240473">
<ele>5.024</ele>
<time>2018-03-31T09:37:41.775Z</time>
</trkpt>
<trkpt lat="13.6912029" lon="100.5244602">
<ele>1.293</ele>
<time>2018-03-31T09:37:44.900Z</time>
</trkpt>
<trkpt lat="13.6916515" lon="100.5249151">
<ele>0.000</ele>
<time>2018-03-31T09:37:47.882Z</time>
</trkpt>
<trkpt lat="13.6920499" lon="100.5254273">
<ele>0.000</ele>
<time>2018-03-31T09:37:50.907Z</time>
</trkpt>
<trkpt lat="13.6923965" lon="100.5259813">
<ele>0.000</ele>
<time>2018-03-31T09:37:53.912Z</time>
</trkpt>
<trkpt lat="13.6926621" lon="100.5265914">
<ele>0.000</ele>
<time>2018-03-31T09:37:56.897Z</time>
</trkpt>
<trkpt lat="13.6928960" lon="100.5272256">
<ele>0.000</ele>
<time>2018-03-31T09:37:59.869Z</time>
</trkpt>
<trkpt lat="13.6931394" lon="100.5278683">
<ele>0.000</ele>
<time>2018-03-31T09:38:02.847Z</time>
</trkpt>
<trkpt lat="13.6933870" lon="100.5285170">
<ele>0.000</ele>
<time>2018-03-31T09:38:05.799Z</time>
</trkpt>
<trkpt lat="13.6936474" lon="100.5292027">
<ele>0.000</ele>
<time>2018-03-31T09:38:08.857Z</time>
</trkpt>
<trkpt lat="13.6938866" lon="100.5298820">
<ele>0.000</ele>
<time>2018-03-31T09:38:11.828Z</time>
</trkpt>
<trkpt lat="13.6941513" lon="100.5305510">
<ele>0.000</ele>
<time>2018-03-31T09:38:14.783Z</time>
</trkpt>
<trkpt lat="13.6944116" lon="100.5312236">
<ele>0.000</ele>
<time>2018-03-31T09:38:17.719Z</time>
</trkpt>
<trkpt lat="13.6946540" lon="100.5319348">
<ele>0.000</ele>
<time>2018-03-31T09:38:20.723Z</time>
</trkpt>
<trkpt lat="13.6949159" lon="100.5326559">
<ele>0.000</ele>
<time>2018-03-31T09:38:23.719Z</time>
</trkpt>
<trkpt lat="13.6952261" lon="100.5333790">
<ele>0.000</ele>
<time>2018-03-31T09:38:26.726Z</time>
</trkpt>
<trkpt lat="13.6954845" lon="100.5341532">
<ele>0.000</ele>
<time>2018-03-31T09:38:29.798Z</time>
</trkpt>
<trkpt lat="13.6957840" lon="100.5348873">
<ele>0.208</ele>
<time>2018-03-31T09:38:32.808Z</time>
</trkpt>
<trkpt lat="13.6960571" lon="100.5356105">
<ele>0.920</ele>
<time>2018-03-31T09:38:35.823Z</time>
</trkpt>
<trkpt lat="13.6962813" lon="100.5363255">
<ele>2.491</ele>
<time>2018-03-31T09:38:38.840Z</time>
</trkpt>
<trkpt lat="13.6965878" lon="100.5369688">
<ele>4.074</ele>
<time>2018-03-31T09:38:41.778Z</time>
</trkpt>
<trkpt lat="13.6968598" lon="100.5376315">
<ele>5.253</ele>
<time>2018-03-31T09:38:44.777Z</time>
</trkpt>
<trkpt lat="13.6971501" lon="100.5382722">
<ele>6.765</ele>
<time>2018-03-31T09:38:47.970Z</time>
</trkpt>
<trkpt lat="13.6974397" lon="100.5387397">
<ele>8.501</ele>
<time>2018-03-31T09:38:50.901Z</time>
</trkpt>
<trkpt lat="13.6976873" lon="100.5391407">
<ele>9.471</ele>
<time>2018-03-31T09:38:53.778Z</time>
</trkpt>
<trkpt lat="13.6979608" lon="100.5394874">
<ele>9.232</ele>
<time>2018-03-31T09:38:56.802Z</time>
</trkpt>
<trkpt lat="13.6982177" lon="100.5397940">
<ele>8.153</ele>
<time>2018-03-31T09:38:59.999Z</time>
</trkpt>
<trkpt lat="13.6984178" lon="100.5400106">
<ele>6.890</ele>
<time>2018-03-31T09:39:02.930Z</time>
</trkpt>
<trkpt lat="13.6986088" lon="100.5401794">
<ele>5.863</ele>
<time>2018-03-31T09:39:05.985Z</time>
</trkpt>
<trkpt lat="13.6987860" lon="100.5403426">
<ele>5.074</ele>
<time>2018-03-31T09:39:09.169Z</time>
</trkpt>
<trkpt lat="13.6989593" lon="100.5404845">
<ele>3.986</ele>
<time>2018-03-31T09:39:12.115Z</time>
</trkpt>
<trkpt lat="13.6991370" lon="100.5406323">
<ele>2.359</ele>
<time>2018-03-31T09:39:15.148Z</time>
</trkpt>
<trkpt lat="13.6993007" lon="100.5407501">
<ele>0.717</ele>
<time>2018-03-31T09:39:18.148Z</time>
</trkpt>
<trkpt lat="13.6994379" lon="100.5408416">
<ele>0.000</ele>
<time>2018-03-31T09:39:21.360Z</time>
</trkpt>
<trkpt lat="13.6995425" lon="100.5409187">
<ele>0.000</ele>
<time>2018-03-31T09:39:25.533Z</time>
</trkpt>
<trkpt lat="13.6996273" lon="100.5409700">
<ele>0.000</ele>
<time>2018-03-31T09:39:29.053Z</time>
</trkpt>
<trkpt lat="13.6997338" lon="100.5410415">
<ele>0.000</ele>
<time>2018-03-31T09:39:32.690Z</time>
</trkpt>
<trkpt lat="13.6998583" lon="100.5411070">
<ele>0.000</ele>
<time>2018-03-31T09:39:35.494Z</time>
</trkpt>
<trkpt lat="13.6999982" lon="100.5411873">
<ele>0.000</ele>
<time>2018-03-31T09:39:38.239Z</time>
</trkpt>
<trkpt lat="13.7001657" lon="100.5412698">
<ele>0.000</ele>
<time>2018-03-31T09:39:41.197Z</time>
</trkpt>
<trkpt lat="13.7003372" lon="100.5413362">
<ele>0.000</ele>
<time>2018-03-31T09:39:43.934Z</time>
</trkpt>
<trkpt lat="13.7005395" lon="100.5414378">
<ele>0.000</ele>
<time>2018-03-31T09:39:46.981Z</time>
</trkpt>
<trkpt lat="13.7007518" lon="100.5415959">
<ele>0.000</ele>
<time>2018-03-31T09:39:50.414Z</time>
</trkpt>
<trkpt lat="13.7009071" lon="100.5416981">
<ele>0.000</ele>
<time>2018-03-31T09:39:53.021Z</time>
</trkpt>
<trkpt lat="13.7010665" lon="100.5417743">
<ele>0.000</ele>
<time>2018-03-31T09:39:56.262Z</time>
</trkpt>
<trkpt lat="13.7011541" lon="100.5418163">
<ele>0.159</ele>
<time>2018-03-31T09:39:58.774Z</time>
</trkpt>
<trkpt lat="13.7012389" lon="100.5418683">
<ele>0.798</ele>
<time>2018-03-31T09:40:03.515Z</time>
</trkpt>
<trkpt lat="13.7013402" lon="100.5419127">
<ele>2.282</ele>
<time>2018-03-31T09:40:08.592Z</time>
</trkpt>
<trkpt lat="13.7014444" lon="100.5419558">
<ele>4.085</ele>
<time>2018-03-31T09:40:12.770Z</time>
</trkpt>
<trkpt lat="13.7015616" lon="100.5419887">
<ele>5.314</ele>
<time>2018-03-31T09:40:16.351Z</time>
</trkpt>
<trkpt lat="13.7016441" lon="100.5420360">
<ele>6.194</ele>
<time>2018-03-31T09:40:18.673Z</time>
</trkpt>
<trkpt lat="13.7017546" lon="100.5420959">
<ele>7.243</ele>
<time>2018-03-31T09:40:22.074Z</time>
</trkpt>
<trkpt lat="13.7018379" lon="100.5421406">
<ele>8.101</ele>
<time>2018-03-31T09:40:25.322Z</time>
</trkpt>
<trkpt lat="13.7019208" lon="100.5421892">
<ele>8.292</ele>
<time>2018-03-31T09:40:29.303Z</time>
</trkpt>
<trkpt lat="13.7019940" lon="100.5422518">
<ele>7.889</ele>
<time>2018-03-31T09:40:33.657Z</time>
</trkpt>
<trkpt lat="13.7020727" lon="100.5423027">
<ele>7.209</ele>
<time>2018-03-31T09:40:39.159Z</time>
</trkpt>
<trkpt lat="13.7021491" lon="100.5423652">
<ele>6.733</ele>
<time>2018-03-31T09:40:44.999Z</time>
</trkpt>
<trkpt lat="13.7021491" lon="100.5423652">
<ele>6.685</ele>
<time>2018-03-31T09:40:48.999Z</time>
</trkpt>
<trkpt lat="13.7021491" lon="100.5423652">
<ele>6.808</ele>
<time>2018-03-31T09:40:49.099Z</time>
</trkpt>
<trkpt lat="13.7023114" lon="100.5424725">
<ele>6.832</ele>
<time>2018-03-31T09:40:59.810Z</time>
</trkpt>
<trkpt lat="13.7024129" lon="100.5425222">
<ele>6.674</ele>
<time>2018-03-31T09:41:04.880Z</time>
</trkpt>
<trkpt lat="13.7024963" lon="100.5425731">
<ele>6.327</ele>
<time>2018-03-31T09:41:08.312Z</time>
</trkpt>
<trkpt lat="13.7025992" lon="100.5426350">
<ele>5.799</ele>
<time>2018-03-31T09:41:11.435Z</time>
</trkpt>
<trkpt lat="13.7027475" lon="100.5427352">
<ele>5.046</ele>
<time>2018-03-31T09:41:14.782Z</time>
</trkpt>
<trkpt lat="13.7029033" lon="100.5428212">
<ele>4.205</ele>
<time>2018-03-31T09:41:17.639Z</time>
</trkpt>
<trkpt lat="13.7030537" lon="100.5429083">
<ele>3.612</ele>
<time>2018-03-31T09:41:20.525Z</time>
</trkpt>
<trkpt lat="13.7031963" lon="100.5429860">
<ele>3.536</ele>
<time>2018-03-31T09:41:24.042Z</time>
</trkpt>
<trkpt lat="13.7032963" lon="100.5430515">
<ele>3.963</ele>
<time>2018-03-31T09:41:27.444Z</time>
</trkpt>
<trkpt lat="13.7033803" lon="100.5430979">
<ele>4.595</ele>
<time>2018-03-31T09:41:30.362Z</time>
</trkpt>
<trkpt lat="13.7034560" lon="100.5431502">
<ele>5.104</ele>
<time>2018-03-31T09:41:33.661Z</time>
</trkpt>
<trkpt lat="13.7035475" lon="100.5432030">
<ele>5.055</ele>
<time>2018-03-31T09:41:36.913Z</time>
</trkpt>
<trkpt lat="13.7036522" lon="100.5432728">
<ele>4.212</ele>
<time>2018-03-31T09:41:39.594Z</time>
</trkpt>
<trkpt lat="13.7038151" lon="100.5433729">
<ele>3.148</ele>
<time>2018-03-31T09:41:42.860Z</time>
</trkpt>
<trkpt lat="13.7039588" lon="100.5434936">
<ele>2.520</ele>
<time>2018-03-31T09:41:46.325Z</time>
</trkpt>
<trkpt lat="13.7040609" lon="100.5435749">
<ele>2.377</ele>
<time>2018-03-31T09:41:49.801Z</time>
</trkpt>
<trkpt lat="13.7041466" lon="100.5436444">
<ele>2.380</ele>
<time>2018-03-31T09:41:53.372Z</time>
</trkpt>
<trkpt lat="13.7042298" lon="100.5436919">
<ele>1.729</ele>
<time>2018-03-31T09:41:56.755Z</time>
</trkpt>
<trkpt lat="13.7043095" lon="100.5437693">
<ele>0.188</ele>
<time>2018-03-31T09:42:00.917Z</time>
</trkpt>
<trkpt lat="13.7043844" lon="100.5438342">
<ele>0.000</ele>
<time>2018-03-31T09:42:05.384Z</time>
</trkpt>
<trkpt lat="13.7044556" lon="100.5439092">
<ele>0.000</ele>
<time>2018-03-31T09:42:10.554Z</time>
</trkpt>
<trkpt lat="13.7045122" lon="100.5439817">
<ele>0.000</ele>
<time>2018-03-31T09:42:14.885Z</time>
</trkpt>
<trkpt lat="13.7045796" lon="100.5440536">
<ele>0.000</ele>
<time>2018-03-31T09:42:18.952Z</time>
</trkpt>
<trkpt lat="13.7046373" lon="100.5441562">
<ele>0.000</ele>
<time>2018-03-31T09:42:22.851Z</time>
</trkpt>
<trkpt lat="13.7046989" lon="100.5442351">
<ele>0.000</ele>
<time>2018-03-31T09:42:26.164Z</time>
</trkpt>
<trkpt lat="13.7047421" lon="100.5443210">
<ele>0.014</ele>
<time>2018-03-31T09:42:29.996Z</time>
</trkpt>
<trkpt lat="13.7047421" lon="100.5443210">
<ele>0.620</ele>
<time>2018-03-31T09:42:40.996Z</time>
</trkpt>
<trkpt lat="13.7047421" lon="100.5443210">
<ele>0.883</ele>
<time>2018-03-31T09:42:43.399Z</time>
</trkpt>
<trkpt lat="13.7048393" lon="100.5444493">
<ele>0.850</ele>
<time>2018-03-31T09:42:53.103Z</time>
</trkpt>
<trkpt lat="13.7048967" lon="100.5445404">
<ele>1.105</ele>
<time>2018-03-31T09:42:55.900Z</time>
</trkpt>
<trkpt lat="13.7049536" lon="100.5446442">
<ele>2.025</ele>
<time>2018-03-31T09:42:58.645Z</time>
</trkpt>
<trkpt lat="13.7049950" lon="100.5447405">
<ele>2.829</ele>
<time>2018-03-31T09:43:01.047Z</time>
</trkpt>
<trkpt lat="13.7050370" lon="100.5448534">
<ele>2.680</ele>
<time>2018-03-31T09:43:03.983Z</time>
</trkpt>
<trkpt lat="13.7050640" lon="100.5449617">
<ele>1.922</ele>
<time>2018-03-31T09:43:06.995Z</time>
</trkpt>
<trkpt lat="13.7050640" lon="100.5449617">
<ele>1.376</ele>
<time>2018-03-31T09:43:12.995Z</time>
</trkpt>
<trkpt lat="13.7050640" lon="100.5449617">
<ele>1.364</ele>
<time>2018-03-31T09:43:16.454Z</time>
</trkpt>
<trkpt lat="13.7051383" lon="100.5451712">
<ele>1.622</ele>
<time>2018-03-31T09:43:27.371Z</time>
</trkpt>
<trkpt lat="13.7051704" lon="100.5452716">
<ele>2.119</ele>
<time>2018-03-31T09:43:30.368Z</time>
</trkpt>
<trkpt lat="13.7052049" lon="100.5453653">
<ele>3.260</ele>
<time>2018-03-31T09:43:32.710Z</time>
</trkpt>
<trkpt lat="13.7052382" lon="100.5454940">
<ele>4.844</ele>
<time>2018-03-31T09:43:35.372Z</time>
</trkpt>
<trkpt lat="13.7052816" lon="100.5456581">
<ele>6.040</ele>
<time>2018-03-31T09:43:38.753Z</time>
</trkpt>
<trkpt lat="13.7053274" lon="100.5458052">
<ele>6.428</ele>
<time>2018-03-31T09:43:44.058Z</time>
</trkpt>
<trkpt lat="13.7053696" lon="100.5458995">
<ele>6.219</ele>
<time>2018-03-31T09:43:47.750Z</time>
</trkpt>
<trkpt lat="13.7054007" lon="100.5459944">
<ele>5.827</ele>
<time>2018-03-31T09:43:54.689Z</time>
</trkpt>
<trkpt lat="13.7054484" lon="100.5460988">
<ele>5.729</ele>
<time>2018-03-31T09:44:00.115Z</time>
</trkpt>
<trkpt lat="13.7054809" lon="100.5462096">
<ele>6.080</ele>
<time>2018-03-31T09:44:04.648Z</time>
</trkpt>
<trkpt lat="13.7055326" lon="100.5462999">
<ele>6.093</ele>
<time>2018-03-31T09:44:08.416Z</time>
</trkpt>
<trkpt lat="13.7055817" lon="100.5463799">
<ele>5.177</ele>
<time>2018-03-31T09:44:11.410Z</time>
</trkpt>
<trkpt lat="13.7056473" lon="100.5464716">
<ele>4.041</ele>
<time>2018-03-31T09:44:14.468Z</time>
</trkpt>
<trkpt lat="13.7057312" lon="100.5465783">
<ele>3.451</ele>
<time>2018-03-31T09:44:17.575Z</time>
</trkpt>
<trkpt lat="13.7058297" lon="100.5466955">
<ele>3.222</ele>
<time>2018-03-31T09:44:20.572Z</time>
</trkpt>
<trkpt lat="13.7059452" lon="100.5468002">
<ele>2.719</ele>
<time>2018-03-31T09:44:23.523Z</time>
</trkpt>
<trkpt lat="13.7060388" lon="100.5468679">
<ele>1.702</ele>
<time>2018-03-31T09:44:25.993Z</time>
</trkpt>
<trkpt lat="13.7060388" lon="100.5468679">
<ele>0.695</ele>
<time>2018-03-31T09:44:30.993Z</time>
</trkpt>
<trkpt lat="13.7060388" lon="100.5468679">
<ele>0.237</ele>
<time>2018-03-31T09:44:32.733Z</time>
</trkpt>
<trkpt lat="13.7061990" lon="100.5470058">
<ele>0.291</ele>
<time>2018-03-31T09:44:40.034Z</time>
</trkpt>
<trkpt lat="13.7063272" lon="100.5470990">
<ele>0.142</ele>
<time>2018-03-31T09:44:42.912Z</time>
</trkpt>
<trkpt lat="13.7064717" lon="100.5472074">
<ele>0.000</ele>
<time>2018-03-31T09:44:46.062Z</time>
</trkpt>
<trkpt lat="13.7066007" lon="100.5473054">
<ele>0.000</ele>
<time>2018-03-31T09:44:49.207Z</time>
</trkpt>
<trkpt lat="13.7067144" lon="100.5473787">
<ele>0.000</ele>
<time>2018-03-31T09:44:52.373Z</time>
</trkpt>
<trkpt lat="13.7067971" lon="100.5474373">
<ele>0.000</ele>
<time>2018-03-31T09:44:55.142Z</time>
</trkpt>
<trkpt lat="13.7068733" lon="100.5474894">
<ele>0.000</ele>
<time>2018-03-31T09:44:57.879Z</time>
</trkpt>
<trkpt lat="13.7069643" lon="100.5475646">
<ele>0.000</ele>
<time>2018-03-31T09:45:01.501Z</time>
</trkpt>
<trkpt lat="13.7070389" lon="100.5476232">
<ele>0.000</ele>
<time>2018-03-31T09:45:04.896Z</time>
</trkpt>
<trkpt lat="13.7071133" lon="100.5476765">
<ele>0.000</ele>
<time>2018-03-31T09:45:08.738Z</time>
</trkpt>
<trkpt lat="13.7072004" lon="100.5477468">
<ele>0.000</ele>
<time>2018-03-31T09:45:13.310Z</time>
</trkpt>
<trkpt lat="13.7072757" lon="100.5478164">
<ele>0.000</ele>
<time>2018-03-31T09:45:17.483Z</time>
</trkpt>
<trkpt lat="13.7073666" lon="100.5478764">
<ele>0.000</ele>
<time>2018-03-31T09:45:21.891Z</time>
</trkpt>
<trkpt lat="13.7074476" lon="100.5479529">
<ele>0.000</ele>
<time>2018-03-31T09:45:24.934Z</time>
</trkpt>
<trkpt lat="13.7075744" lon="100.5480889">
<ele>0.000</ele>
<time>2018-03-31T09:45:28.272Z</time>
</trkpt>
<trkpt lat="13.7077131" lon="100.5482371">
<ele>0.000</ele>
<time>2018-03-31T09:45:31.525Z</time>
</trkpt>
<trkpt lat="13.7078405" lon="100.5483640">
<ele>0.000</ele>
<time>2018-03-31T09:45:34.676Z</time>
</trkpt>
<trkpt lat="13.7079329" lon="100.5484724">
<ele>0.000</ele>
<time>2018-03-31T09:45:37.447Z</time>
</trkpt>
<trkpt lat="13.7080403" lon="100.5486031">
<ele>0.000</ele>
<time>2018-03-31T09:45:41.499Z</time>
</trkpt>
<trkpt lat="13.7081111" lon="100.5486833">
<ele>0.000</ele>
<time>2018-03-31T09:45:45.130Z</time>
</trkpt>
<trkpt lat="13.7081859" lon="100.5487408">
<ele>0.000</ele>
<time>2018-03-31T09:45:49.126Z</time>
</trkpt>
<trkpt lat="13.7082588" lon="100.5488098">
<ele>0.000</ele>
<time>2018-03-31T09:45:53.291Z</time>
</trkpt>
<trkpt lat="13.7083288" lon="100.5488824">
<ele>0.000</ele>
<time>2018-03-31T09:45:56.846Z</time>
</trkpt>
<trkpt lat="13.7084391" lon="100.5489632">
<ele>0.000</ele>
<time>2018-03-31T09:46:00.842Z</time>
</trkpt>
<trkpt lat="13.7085146" lon="100.5490465">
<ele>0.000</ele>
<time>2018-03-31T09:46:04.843Z</time>
</trkpt>
<trkpt lat="13.7085926" lon="100.5491142">
<ele>0.000</ele>
<time>2018-03-31T09:46:08.991Z</time>
</trkpt>
<trkpt lat="13.7085926" lon="100.5491142">
<ele>0.000</ele>
<time>2018-03-31T09:46:12.991Z</time>
</trkpt>
<trkpt lat="13.7085926" lon="100.5491142">
<ele>0.000</ele>
<time>2018-03-31T09:46:13.091Z</time>
</trkpt>
<trkpt lat="13.7087168" lon="100.5492453">
<ele>0.000</ele>
<time>2018-03-31T09:46:23.639Z</time>
</trkpt>
<trkpt lat="13.7088060" lon="100.5493199">
<ele>0.000</ele>
<time>2018-03-31T09:46:29.645Z</time>
</trkpt>
<trkpt lat="13.7088645" lon="100.5494005">
<ele>0.000</ele>
<time>2018-03-31T09:46:34.877Z</time>
</trkpt>
<trkpt lat="13.7089420" lon="100.5494834">
<ele>0.000</ele>
<time>2018-03-31T09:46:41.009Z</time>
</trkpt>
<trkpt lat="13.7090198" lon="100.5495646">
<ele>0.000</ele>
<time>2018-03-31T09:46:45.507Z</time>
</trkpt>
<trkpt lat="13.7091539" lon="100.5496679">
<ele>0.000</ele>
<time>2018-03-31T09:46:49.525Z</time>
</trkpt>
<trkpt lat="13.7092596" lon="100.5497592">
<ele>0.000</ele>
<time>2018-03-31T09:46:52.343Z</time>
</trkpt>
<trkpt lat="13.7093741" lon="100.5498766">
<ele>0.000</ele>
<time>2018-03-31T09:46:55.418Z</time>
</trkpt>
<trkpt lat="13.7095023" lon="100.5500118">
<ele>0.000</ele>
<time>2018-03-31T09:46:58.448Z</time>
</trkpt>
<trkpt lat="13.7096294" lon="100.5501461">
<ele>0.000</ele>
<time>2018-03-31T09:47:01.724Z</time>
</trkpt>
<trkpt lat="13.7097181" lon="100.5502240">
<ele>0.000</ele>
<time>2018-03-31T09:47:04.697Z</time>
</trkpt>
<trkpt lat="13.7097852" lon="100.5502944">
<ele>0.000</ele>
<time>2018-03-31T09:47:08.856Z</time>
</trkpt>
<trkpt lat="13.7098856" lon="100.5503791">
<ele>0.000</ele>
<time>2018-03-31T09:47:13.399Z</time>
</trkpt>
<trkpt lat="13.7099839" lon="100.5504884">
<ele>0.000</ele>
<time>2018-03-31T09:47:16.752Z</time>
</trkpt>
<trkpt lat="13.7100849" lon="100.5505863">
<ele>0.000</ele>
<time>2018-03-31T09:47:19.739Z</time>
</trkpt>
<trkpt lat="13.7101766" lon="100.5506757">
<ele>0.000</ele>
<time>2018-03-31T09:47:22.635Z</time>
</trkpt>
<trkpt lat="13.7102752" lon="100.5507583">
<ele>0.000</ele>
<time>2018-03-31T09:47:26.355Z</time>
</trkpt>
<trkpt lat="13.7103396" lon="100.5508250">
<ele>0.000</ele>
<time>2018-03-31T09:47:29.949Z</time>
</trkpt>
<trkpt lat="13.7104034" lon="100.5509026">
<ele>0.000</ele>
<time>2018-03-31T09:47:35.989Z</time>
</trkpt>
<trkpt lat="13.7104034" lon="100.5509026">
<ele>0.000</ele>
<time>2018-03-31T09:47:44.989Z</time>
</trkpt>
<trkpt lat="13.7104034" lon="100.5509026">
<ele>0.000</ele>
<time>2018-03-31T09:47:56.240Z</time>
</trkpt>
<trkpt lat="13.7106472" lon="100.5511342">
<ele>0.000</ele>
<time>2018-03-31T09:48:15.728Z</time>
</trkpt>
<trkpt lat="13.7107327" lon="100.5512266">
<ele>0.000</ele>
<time>2018-03-31T09:48:18.224Z</time>
</trkpt>
<trkpt lat="13.7108067" lon="100.5512955">
<ele>0.000</ele>
<time>2018-03-31T09:48:20.036Z</time>
</trkpt>
<trkpt lat="13.7108849" lon="100.5513768">
<ele>0.000</ele>
<time>2018-03-31T09:48:21.944Z</time>
</trkpt>
<trkpt lat="13.7109673" lon="100.5514584">
<ele>0.000</ele>
<time>2018-03-31T09:48:23.868Z</time>
</trkpt>
<trkpt lat="13.7110503" lon="100.5515362">
<ele>0.000</ele>
<time>2018-03-31T09:48:25.646Z</time>
</trkpt>
<trkpt lat="13.7111387" lon="100.5516274">
<ele>0.000</ele>
<time>2018-03-31T09:48:27.546Z</time>
</trkpt>
<trkpt lat="13.7112383" lon="100.5517219">
<ele>0.000</ele>
<time>2018-03-31T09:48:29.636Z</time>
</trkpt>
<trkpt lat="13.7113310" lon="100.5518160">
<ele>0.000</ele>
<time>2018-03-31T09:48:31.685Z</time>
</trkpt>
<trkpt lat="13.7114221" lon="100.5519052">
<ele>0.000</ele>
<time>2018-03-31T09:48:33.573Z</time>
</trkpt>
<trkpt lat="13.7115108" lon="100.5519937">
<ele>0.000</ele>
<time>2018-03-31T09:48:35.275Z</time>
</trkpt>
<trkpt lat="13.7116125" lon="100.5520936">
<ele>0.000</ele>
<time>2018-03-31T09:48:37.095Z</time>
</trkpt>
<trkpt lat="13.7117275" lon="100.5522066">
<ele>0.000</ele>
<time>2018-03-31T09:48:39.152Z</time>
</trkpt>
<trkpt lat="13.7118398" lon="100.5523167">
<ele>0.000</ele>
<time>2018-03-31T09:48:41.468Z</time>
</trkpt>
<trkpt lat="13.7119473" lon="100.5524174">
<ele>0.000</ele>
<time>2018-03-31T09:48:44.389Z</time>
</trkpt>
<trkpt lat="13.7120272" lon="100.5524977">
<ele>0.000</ele>
<time>2018-03-31T09:48:47.006Z</time>
</trkpt>
<trkpt lat="13.7121109" lon="100.5525837">
<ele>0.000</ele>
<time>2018-03-31T09:48:49.854Z</time>
</trkpt>
<trkpt lat="13.7121998" lon="100.5526696">
<ele>0.000</ele>
<time>2018-03-31T09:48:52.762Z</time>
</trkpt>
<trkpt lat="13.7122828" lon="100.5527589">
<ele>0.000</ele>
<time>2018-03-31T09:48:55.406Z</time>
</trkpt>
<trkpt lat="13.7123691" lon="100.5528490">
<ele>0.000</ele>
<time>2018-03-31T09:48:57.564Z</time>
</trkpt>
<trkpt lat="13.7124452" lon="100.5529247">
<ele>0.000</ele>
<time>2018-03-31T09:48:59.267Z</time>
</trkpt>
<trkpt lat="13.7125806" lon="100.5530582">
<ele>0.000</ele>
<time>2018-03-31T09:49:01.849Z</time>
</trkpt>
<trkpt lat="13.7127431" lon="100.5532219">
<ele>0.000</ele>
<time>2018-03-31T09:49:04.454Z</time>
</trkpt>
<trkpt lat="13.7129463" lon="100.5534229">
<ele>0.000</ele>
<time>2018-03-31T09:49:07.366Z</time>
</trkpt>
<trkpt lat="13.7131668" lon="100.5536407">
<ele>0.000</ele>
<time>2018-03-31T09:49:10.709Z</time>
</trkpt>
<trkpt lat="13.7133481" lon="100.5538165">
<ele>0.000</ele>
<time>2018-03-31T09:49:15.303Z</time>
</trkpt>
<trkpt lat="13.7134539" lon="100.5539202">
<ele>0.000</ele>
<time>2018-03-31T09:49:20.521Z</time>
</trkpt>
<trkpt lat="13.7135240" lon="100.5539890">
<ele>0.000</ele>
<time>2018-03-31T09:49:25.726Z</time>
</trkpt>
<trkpt lat="13.7135997" lon="100.5540632">
<ele>0.000</ele>
<time>2018-03-31T09:49:29.361Z</time>
</trkpt>
<trkpt lat="13.7136780" lon="100.5541476">
<ele>0.000</ele>
<time>2018-03-31T09:49:31.688Z</time>
</trkpt>
<trkpt lat="13.7138007" lon="100.5542791">
<ele>0.000</ele>
<time>2018-03-31T09:49:34.043Z</time>
</trkpt>
<trkpt lat="13.7140066" lon="100.5544665">
<ele>0.000</ele>
<time>2018-03-31T09:49:36.846Z</time>
</trkpt>
<trkpt lat="13.7142583" lon="100.5547066">
<ele>0.000</ele>
<time>2018-03-31T09:49:39.645Z</time>
</trkpt>
<trkpt lat="13.7145697" lon="100.5550039">
<ele>0.000</ele>
<time>2018-03-31T09:49:42.675Z</time>
</trkpt>
<trkpt lat="13.7148889" lon="100.5553152">
<ele>0.000</ele>
<time>2018-03-31T09:49:45.701Z</time>
</trkpt>
<trkpt lat="13.7152268" lon="100.5555918">
<ele>0.000</ele>
<time>2018-03-31T09:49:48.779Z</time>
</trkpt>
<trkpt lat="13.7155987" lon="100.5557222">
<ele>0.000</ele>
<time>2018-03-31T09:49:51.671Z</time>
</trkpt>
<trkpt lat="13.7160016" lon="100.5557071">
<ele>0.000</ele>
<time>2018-03-31T09:49:54.580Z</time>
</trkpt>
<trkpt lat="13.7163999" lon="100.5555419">
<ele>0.000</ele>
<time>2018-03-31T09:49:57.558Z</time>
</trkpt>
<trkpt lat="13.7167496" lon="100.5552634">
<ele>0.000</ele>
<time>2018-03-31T09:50:00.502Z</time>
</trkpt>
<trkpt lat="13.7170547" lon="100.5549050">
<ele>0.000</ele>
<time>2018-03-31T09:50:03.393Z</time>
</trkpt>
<trkpt lat="13.7173598" lon="100.5544971">
<ele>0.000</ele>
<time>2018-03-31T09:50:06.316Z</time>
</trkpt>
<trkpt lat="13.7176792" lon="100.5540728">
<ele>0.000</ele>
<time>2018-03-31T09:50:09.271Z</time>
</trkpt>
<trkpt lat="13.7180280" lon="100.5536812">
<ele>0.000</ele>
<time>2018-03-31T09:50:12.194Z</time>
</trkpt>
<trkpt lat="13.7184324" lon="100.5533308">
<ele>0.000</ele>
<time>2018-03-31T09:50:15.180Z</time>
</trkpt>
<trkpt lat="13.7188905" lon="100.5530562">
<ele>0.000</ele>
<time>2018-03-31T09:50:18.130Z</time>
</trkpt>
<trkpt lat="13.7194003" lon="100.5528598">
<ele>0.000</ele>
<time>2018-03-31T09:50:21.156Z</time>
</trkpt>
<trkpt lat="13.7199011" lon="100.5527589">
<ele>0.159</ele>
<time>2018-03-31T09:50:24.058Z</time>
</trkpt>
<trkpt lat="13.7204127" lon="100.5526968">
<ele>0.496</ele>
<time>2018-03-31T09:50:27.024Z</time>
</trkpt>
<trkpt lat="13.7209421" lon="100.5526355">
<ele>0.000</ele>
<time>2018-03-31T09:50:30.147Z</time>
</trkpt>
<trkpt lat="13.7214042" lon="100.5525810">
<ele>0.000</ele>
<time>2018-03-31T09:50:33.211Z</time>
</trkpt>
<trkpt lat="13.7217818" lon="100.5525249">
<ele>0.000</ele>
<time>2018-03-31T09:50:36.345Z</time>
</trkpt>
<trkpt lat="13.7220766" lon="100.5525120">
<ele>0.000</ele>
<time>2018-03-31T09:50:39.400Z</time>
</trkpt>
<trkpt lat="13.7223207" lon="100.5524635">
<ele>0.000</ele>
<time>2018-03-31T09:50:42.480Z</time>
</trkpt>
<trkpt lat="13.7225471" lon="100.5524503">
<ele>0.000</ele>
<time>2018-03-31T09:50:45.688Z</time>
</trkpt>
<trkpt lat="13.7227402" lon="100.5523689">
<ele>0.000</ele>
<time>2018-03-31T09:50:48.782Z</time>
</trkpt>
<trkpt lat="13.7228649" lon="100.5521983">
<ele>0.000</ele>
<time>2018-03-31T09:50:51.420Z</time>
</trkpt>
<trkpt lat="13.7229980" lon="100.5519327">
<ele>0.000</ele>
<time>2018-03-31T09:50:54.437Z</time>
</trkpt>
<trkpt lat="13.7231241" lon="100.5516345">
<ele>0.000</ele>
<time>2018-03-31T09:50:57.300Z</time>
</trkpt>
<trkpt lat="13.7232982" lon="100.5513013">
<ele>0.000</ele>
<time>2018-03-31T09:51:00.320Z</time>
</trkpt>
<trkpt lat="13.7234673" lon="100.5509356">
<ele>0.000</ele>
<time>2018-03-31T09:51:03.397Z</time>
</trkpt>
<trkpt lat="13.7236084" lon="100.5505940">
<ele>0.000</ele>
<time>2018-03-31T09:51:06.316Z</time>
</trkpt>
<trkpt lat="13.7237600" lon="100.5502463">
<ele>0.000</ele>
<time>2018-03-31T09:51:09.394Z</time>
</trkpt>
<trkpt lat="13.7239052" lon="100.5499019">
<ele>0.000</ele>
<time>2018-03-31T09:51:12.371Z</time>
</trkpt>
<trkpt lat="13.7240408" lon="100.5495632">
<ele>0.000</ele>
<time>2018-03-31T09:51:15.311Z</time>
</trkpt>
<trkpt lat="13.7241771" lon="100.5492316">
<ele>0.000</ele>
<time>2018-03-31T09:51:18.322Z</time>
</trkpt>
<trkpt lat="13.7243060" lon="100.5489102">
<ele>0.000</ele>
<time>2018-03-31T09:51:21.257Z</time>
</trkpt>
<trkpt lat="13.7244448" lon="100.5485758">
<ele>0.000</ele>
<time>2018-03-31T09:51:24.368Z</time>
</trkpt>
<trkpt lat="13.7245715" lon="100.5482750">
<ele>0.000</ele>
<time>2018-03-31T09:51:27.453Z</time>
</trkpt>
<trkpt lat="13.7246748" lon="100.5480278">
<ele>0.000</ele>
<time>2018-03-31T09:51:30.445Z</time>
</trkpt>
<trkpt lat="13.7247643" lon="100.5478202">
<ele>0.000</ele>
<time>2018-03-31T09:51:33.309Z</time>
</trkpt>
<trkpt lat="13.7248543" lon="100.5476094">
<ele>0.000</ele>
<time>2018-03-31T09:51:36.231Z</time>
</trkpt>
<trkpt lat="13.7249575" lon="100.5473860">
<ele>0.000</ele>
<time>2018-03-31T09:51:39.286Z</time>
</trkpt>
<trkpt lat="13.7250419" lon="100.5471845">
<ele>0.000</ele>
<time>2018-03-31T09:51:42.056Z</time>
</trkpt>
<trkpt lat="13.7251278" lon="100.5469738">
<ele>0.000</ele>
<time>2018-03-31T09:51:44.860Z</time>
</trkpt>
<trkpt lat="13.7252317" lon="100.5467121">
<ele>0.000</ele>
<time>2018-03-31T09:51:47.839Z</time>
</trkpt>
<trkpt lat="13.7253654" lon="100.5463911">
<ele>0.000</ele>
<time>2018-03-31T09:51:50.969Z</time>
</trkpt>
<trkpt lat="13.7255081" lon="100.5460589">
<ele>0.000</ele>
<time>2018-03-31T09:51:53.924Z</time>
</trkpt>
<trkpt lat="13.7256665" lon="100.5456884">
<ele>0.000</ele>
<time>2018-03-31T09:51:57.042Z</time>
</trkpt>
<trkpt lat="13.7258134" lon="100.5453463">
<ele>0.000</ele>
<time>2018-03-31T09:52:00.028Z</time>
</trkpt>
<trkpt lat="13.7259341" lon="100.5450542">
<ele>0.000</ele>
<time>2018-03-31T09:52:02.791Z</time>
</trkpt>
<trkpt lat="13.7260650" lon="100.5447498">
<ele>0.000</ele>
<time>2018-03-31T09:52:05.795Z</time>
</trkpt>
<trkpt lat="13.7261899" lon="100.5444499">
<ele>1.634</ele>
<time>2018-03-31T09:52:08.806Z</time>
</trkpt>
<trkpt lat="13.7263082" lon="100.5441673">
<ele>3.177</ele>
<time>2018-03-31T09:52:11.763Z</time>
</trkpt>
<trkpt lat="13.7264316" lon="100.5438889">
<ele>3.901</ele>
<time>2018-03-31T09:52:14.711Z</time>
</trkpt>
<trkpt lat="13.7265563" lon="100.5435985">
<ele>3.685</ele>
<time>2018-03-31T09:52:17.691Z</time>
</trkpt>
<trkpt lat="13.7266751" lon="100.5433138">
<ele>2.591</ele>
<time>2018-03-31T09:52:20.587Z</time>
</trkpt>
<trkpt lat="13.7267828" lon="100.5430373">
<ele>1.181</ele>
<time>2018-03-31T09:52:23.400Z</time>
</trkpt>
<trkpt lat="13.7269100" lon="100.5427316">
<ele>0.053</ele>
<time>2018-03-31T09:52:26.451Z</time>
</trkpt>
<trkpt lat="13.7270400" lon="100.5424109">
<ele>0.000</ele>
<time>2018-03-31T09:52:29.490Z</time>
</trkpt>
<trkpt lat="13.7271585" lon="100.5420876">
<ele>0.000</ele>
<time>2018-03-31T09:52:32.536Z</time>
</trkpt>
<trkpt lat="13.7272743" lon="100.5417972">
<ele>0.000</ele>
<time>2018-03-31T09:52:35.470Z</time>
</trkpt>
<trkpt lat="13.7273960" lon="100.5415181">
<ele>0.000</ele>
<time>2018-03-31T09:52:38.494Z</time>
</trkpt>
<trkpt lat="13.7274923" lon="100.5412906">
<ele>0.000</ele>
<time>2018-03-31T09:52:41.293Z</time>
</trkpt>
<trkpt lat="13.7275619" lon="100.5411318">
<ele>0.000</ele>
<time>2018-03-31T09:52:43.727Z</time>
</trkpt>
<trkpt lat="13.7276476" lon="100.5409364">
<ele>0.000</ele>
<time>2018-03-31T09:52:46.793Z</time>
</trkpt>
<trkpt lat="13.7277747" lon="100.5406174">
<ele>0.000</ele>
<time>2018-03-31T09:52:50.575Z</time>
</trkpt>
<trkpt lat="13.7279199" lon="100.5402662">
<ele>0.000</ele>
<time>2018-03-31T09:52:53.803Z</time>
</trkpt>
<trkpt lat="13.7280842" lon="100.5398936">
<ele>0.000</ele>
<time>2018-03-31T09:52:56.813Z</time>
</trkpt>
<trkpt lat="13.7282371" lon="100.5394960">
<ele>0.000</ele>
<time>2018-03-31T09:52:59.775Z</time>
</trkpt>
<trkpt lat="13.7284072" lon="100.5390995">
<ele>0.000</ele>
<time>2018-03-31T09:53:02.768Z</time>
</trkpt>
<trkpt lat="13.7285068" lon="100.5388453">
<ele>0.000</ele>
<time>2018-03-31T09:53:04.741Z</time>
</trkpt>
<trkpt lat="13.7286548" lon="100.5384886">
<ele>0.000</ele>
<time>2018-03-31T09:53:07.675Z</time>
</trkpt>
<trkpt lat="13.7287969" lon="100.5381596">
<ele>0.000</ele>
<time>2018-03-31T09:53:10.631Z</time>
</trkpt>
<trkpt lat="13.7289301" lon="100.5378799">
<ele>0.000</ele>
<time>2018-03-31T09:53:13.508Z</time>
</trkpt>
<trkpt lat="13.7290532" lon="100.5376461">
<ele>0.000</ele>
<time>2018-03-31T09:53:16.346Z</time>
</trkpt>
<trkpt lat="13.7291557" lon="100.5374356">
<ele>0.000</ele>
<time>2018-03-31T09:53:19.305Z</time>
</trkpt>
<trkpt lat="13.7292295" lon="100.5372835">
<ele>0.000</ele>
<time>2018-03-31T09:53:21.993Z</time>
</trkpt>
<trkpt lat="13.7292295" lon="100.5372835">
<ele>0.000</ele>
<time>2018-03-31T09:53:28.993Z</time>
</trkpt>
<trkpt lat="13.7292295" lon="100.5372835">
<ele>0.000</ele>
<time>2018-03-31T09:54:45.987Z</time>
</trkpt>
<trkpt lat="13.7292879" lon="100.5370659">
<ele>0.000</ele>
<time>2018-03-31T09:54:56.635Z</time>
</trkpt>
<trkpt lat="13.7293559" lon="100.5369084">
<ele>0.000</ele>
<time>2018-03-31T09:54:59.933Z</time>
</trkpt>
<trkpt lat="13.7294245" lon="100.5367639">
<ele>0.000</ele>
<time>2018-03-31T09:55:02.817Z</time>
</trkpt>
<trkpt lat="13.7295631" lon="100.5366767">
<ele>0.000</ele>
<time>2018-03-31T09:55:05.359Z</time>
</trkpt>
<trkpt lat="13.7297942" lon="100.5366577">
<ele>0.000</ele>
<time>2018-03-31T09:55:08.347Z</time>
</trkpt>
<trkpt lat="13.7300280" lon="100.5367314">
<ele>0.000</ele>
<time>2018-03-31T09:55:11.099Z</time>
</trkpt>
<trkpt lat="13.7302683" lon="100.5368512">
<ele>0.000</ele>
<time>2018-03-31T09:55:13.957Z</time>
</trkpt>
<trkpt lat="13.7305526" lon="100.5369692">
<ele>0.000</ele>
<time>2018-03-31T09:55:16.979Z</time>
</trkpt>
<trkpt lat="13.7308708" lon="100.5370903">
<ele>0.000</ele>
<time>2018-03-31T09:55:19.965Z</time>
</trkpt>
<trkpt lat="13.7312246" lon="100.5372228">
<ele>0.000</ele>
<time>2018-03-31T09:55:23.082Z</time>
</trkpt>
<trkpt lat="13.7315636" lon="100.5373487">
<ele>0.000</ele>
<time>2018-03-31T09:55:26.039Z</time>
</trkpt>
<trkpt lat="13.7319069" lon="100.5374692">
<ele>0.000</ele>
<time>2018-03-31T09:55:28.973Z</time>
</trkpt>
<trkpt lat="13.7321385" lon="100.5375511">
<ele>0.000</ele>
<time>2018-03-31T09:55:30.910Z</time>
</trkpt>
<trkpt lat="13.7324091" lon="100.5376309">
<ele>1.471</ele>
<time>2018-03-31T09:55:33.429Z</time>
</trkpt>
<trkpt lat="13.7325565" lon="100.5376829">
<ele>3.211</ele>
<time>2018-03-31T09:55:35.070Z</time>
</trkpt>
<trkpt lat="13.7327239" lon="100.5377330">
<ele>4.449</ele>
<time>2018-03-31T09:55:37.138Z</time>
</trkpt>
<trkpt lat="13.7328879" lon="100.5378118">
<ele>5.232</ele>
<time>2018-03-31T09:55:39.459Z</time>
</trkpt>
<trkpt lat="13.7330291" lon="100.5378785">
<ele>5.519</ele>
<time>2018-03-31T09:55:41.529Z</time>
</trkpt>
<trkpt lat="13.7331725" lon="100.5379347">
<ele>5.333</ele>
<time>2018-03-31T09:55:43.641Z</time>
</trkpt>
<trkpt lat="13.7332987" lon="100.5379884">
<ele>5.014</ele>
<time>2018-03-31T09:55:45.522Z</time>
</trkpt>
<trkpt lat="13.7334516" lon="100.5380461">
<ele>4.742</ele>
<time>2018-03-31T09:55:47.780Z</time>
</trkpt>
<trkpt lat="13.7335885" lon="100.5380989">
<ele>4.469</ele>
<time>2018-03-31T09:55:49.900Z</time>
</trkpt>
<trkpt lat="13.7337116" lon="100.5381469">
<ele>4.488</ele>
<time>2018-03-31T09:55:51.731Z</time>
</trkpt>
<trkpt lat="13.7338547" lon="100.5381873">
<ele>5.097</ele>
<time>2018-03-31T09:55:53.566Z</time>
</trkpt>
<trkpt lat="13.7340006" lon="100.5382476">
<ele>5.953</ele>
<time>2018-03-31T09:55:55.321Z</time>
</trkpt>
<trkpt lat="13.7341650" lon="100.5383320">
<ele>6.646</ele>
<time>2018-03-31T09:55:57.277Z</time>
</trkpt>
<trkpt lat="13.7343406" lon="100.5383983">
<ele>7.422</ele>
<time>2018-03-31T09:55:59.160Z</time>
</trkpt>
<trkpt lat="13.7345357" lon="100.5384736">
<ele>8.428</ele>
<time>2018-03-31T09:56:01.066Z</time>
</trkpt>
<trkpt lat="13.7347359" lon="100.5385626">
<ele>9.157</ele>
<time>2018-03-31T09:56:02.869Z</time>
</trkpt>
<trkpt lat="13.7349794" lon="100.5386466">
<ele>9.273</ele>
<time>2018-03-31T09:56:04.840Z</time>
</trkpt>
<trkpt lat="13.7353755" lon="100.5387461">
<ele>8.914</ele>
<time>2018-03-31T09:56:07.877Z</time>
</trkpt>
<trkpt lat="13.7357865" lon="100.5388348">
<ele>8.237</ele>
<time>2018-03-31T09:56:11.065Z</time>
</trkpt>
<trkpt lat="13.7361439" lon="100.5388917">
<ele>7.520</ele>
<time>2018-03-31T09:56:14.057Z</time>
</trkpt>
<trkpt lat="13.7364853" lon="100.5389409">
<ele>7.193</ele>
<time>2018-03-31T09:56:16.982Z</time>
</trkpt>
<trkpt lat="13.7368320" lon="100.5389930">
<ele>7.437</ele>
<time>2018-03-31T09:56:19.888Z</time>
</trkpt>
<trkpt lat="13.7372140" lon="100.5390487">
<ele>7.994</ele>
<time>2018-03-31T09:56:23.222Z</time>
</trkpt>
<trkpt lat="13.7375162" lon="100.5390964">
<ele>8.479</ele>
<time>2018-03-31T09:56:26.006Z</time>
</trkpt>
<trkpt lat="13.7378474" lon="100.5391515">
<ele>8.751</ele>
<time>2018-03-31T09:56:28.905Z</time>
</trkpt>
<trkpt lat="13.7382120" lon="100.5392092">
<ele>8.692</ele>
<time>2018-03-31T09:56:31.892Z</time>
</trkpt>
<trkpt lat="13.7385758" lon="100.5392578">
<ele>8.119</ele>
<time>2018-03-31T09:56:34.775Z</time>
</trkpt>
<trkpt lat="13.7390776" lon="100.5393194">
<ele>7.213</ele>
<time>2018-03-31T09:56:38.772Z</time>
</trkpt>
<trkpt lat="13.7394221" lon="100.5393743">
<ele>6.409</ele>
<time>2018-03-31T09:56:41.713Z</time>
</trkpt>
<trkpt lat="13.7397531" lon="100.5394251">
<ele>5.785</ele>
<time>2018-03-31T09:56:45.059Z</time>
</trkpt>
<trkpt lat="13.7399917" lon="100.5394583">
<ele>4.949</ele>
<time>2018-03-31T09:56:48.663Z</time>
</trkpt>
<trkpt lat="13.7401408" lon="100.5394812">
<ele>3.776</ele>
<time>2018-03-31T09:56:52.892Z</time>
</trkpt>
<trkpt lat="13.7402322" lon="100.5395019">
<ele>2.751</ele>
<time>2018-03-31T09:56:55.840Z</time>
</trkpt>
<trkpt lat="13.7403481" lon="100.5395193">
<ele>2.303</ele>
<time>2018-03-31T09:56:59.529Z</time>
</trkpt>
<trkpt lat="13.7405557" lon="100.5395619">
<ele>2.420</ele>
<time>2018-03-31T09:57:03.281Z</time>
</trkpt>
<trkpt lat="13.7408465" lon="100.5396075">
<ele>2.847</ele>
<time>2018-03-31T09:57:06.506Z</time>
</trkpt>
<trkpt lat="13.7411889" lon="100.5396596">
<ele>3.230</ele>
<time>2018-03-31T09:57:09.831Z</time>
</trkpt>
<trkpt lat="13.7414377" lon="100.5396954">
<ele>3.367</ele>
<time>2018-03-31T09:57:12.852Z</time>
</trkpt>
<trkpt lat="13.7415516" lon="100.5397205">
<ele>3.311</ele>
<time>2018-03-31T09:57:14.997Z</time>
</trkpt>
<trkpt lat="13.7415516" lon="100.5397205">
<ele>3.208</ele>
<time>2018-03-31T09:57:18.997Z</time>
</trkpt>
<trkpt lat="13.7415516" lon="100.5397205">
<ele>3.157</ele>
<time>2018-03-31T09:57:43.711Z</time>
</trkpt>
<trkpt lat="13.7416758" lon="100.5398507">
<ele>3.175</ele>
<time>2018-03-31T09:57:58.601Z</time>
</trkpt>
<trkpt lat="13.7416534" lon="100.5400009">
<ele>3.223</ele>
<time>2018-03-31T09:58:04.909Z</time>
</trkpt>
<trkpt lat="13.7416176" lon="100.5401971">
<ele>3.221</ele>
<time>2018-03-31T09:58:19.693Z</time>
</trkpt>
<trkpt lat="13.7415774" lon="100.5404183">
<ele>3.154</ele>
<time>2018-03-31T09:58:28.410Z</time>
</trkpt>
<trkpt lat="13.7415549" lon="100.5405314">
<ele>3.574</ele>
<time>2018-03-31T09:58:32.882Z</time>
</trkpt>
<trkpt lat="13.7415635" lon="100.5406307">
<ele>4.815</ele>
<time>2018-03-31T09:58:36.744Z</time>
</trkpt>
<trkpt lat="13.7415471" lon="100.5407218">
<ele>6.172</ele>
<time>2018-03-31T09:58:40.331Z</time>
</trkpt>
<trkpt lat="13.7415358" lon="100.5408292">
<ele>7.403</ele>
<time>2018-03-31T09:58:44.516Z</time>
</trkpt>
<trkpt lat="13.7415618" lon="100.5401630">
<ele>10.189</ele>
<time>2018-03-31T09:59:10.346Z</time>
</trkpt>
<trkpt lat="13.7415956" lon="100.5399370">
<ele>11.698</ele>
<time>2018-03-31T09:59:19.203Z</time>
</trkpt>
<trkpt lat="13.7414925" lon="100.5398501">
<ele>13.816</ele>
<time>2018-03-31T09:59:24.516Z</time>
</trkpt>
<trkpt lat="13.7413497" lon="100.5398221">
<ele>14.864</ele>
<time>2018-03-31T09:59:30.314Z</time>
</trkpt>
<trkpt lat="13.7411781" lon="100.5397776">
<ele>13.567</ele>
<time>2018-03-31T09:59:37.372Z</time>
</trkpt>
<trkpt lat="13.7409331" lon="100.5397339">
<ele>10.648</ele>
<time>2018-03-31T09:59:47.286Z</time>
</trkpt>
<trkpt lat="13.7406894" lon="100.5397004">
<ele>6.338</ele>
<time>2018-03-31T09:59:57.089Z</time>
</trkpt>
<trkpt lat="13.7404667" lon="100.5396768">
<ele>1.148</ele>
<time>2018-03-31T10:00:06.018Z</time>
</trkpt>
<trkpt lat="13.7402553" lon="100.5396768">
<ele>0.000</ele>
<time>2018-03-31T10:00:14.449Z</time>
</trkpt>
<trkpt lat="13.7400514" lon="100.5396546">
<ele>0.000</ele>
<time>2018-03-31T10:00:22.622Z</time>
</trkpt>
<trkpt lat="13.7398373" lon="100.5396465">
<ele>0.000</ele>
<time>2018-03-31T10:00:31.167Z</time>
</trkpt>
<trkpt lat="13.7396256" lon="100.5396008">
<ele>0.000</ele>
<time>2018-03-31T10:00:39.791Z</time>
</trkpt>
<trkpt lat="13.7394099" lon="100.5395611">
<ele>0.000</ele>
<time>2018-03-31T10:00:48.527Z</time>
</trkpt>
<trkpt lat="13.7388517" lon="100.5394716">
<ele>0.919</ele>
<time>2018-03-31T10:01:11.060Z</time>
</trkpt>
<trkpt lat="13.7382465" lon="100.5393694">
<ele>0.646</ele>
<time>2018-03-31T10:01:35.521Z</time>
</trkpt>
<trkpt lat="13.7380751" lon="100.5393364">
<ele>0.000</ele>
<time>2018-03-31T10:01:42.472Z</time>
</trkpt>
<trkpt lat="13.7378625" lon="100.5392947">
<ele>0.000</ele>
<time>2018-03-31T10:01:51.104Z</time>
</trkpt>
<trkpt lat="13.7376368" lon="100.5392600">
<ele>0.000</ele>
<time>2018-03-31T10:02:00.205Z</time>
</trkpt>
<trkpt lat="13.7372911" lon="100.5392155">
<ele>0.000</ele>
<time>2018-03-31T10:02:14.099Z</time>
</trkpt>
<trkpt lat="13.7369661" lon="100.5391582">
<ele>0.000</ele>
<time>2018-03-31T10:02:27.249Z</time>
</trkpt>
<trkpt lat="13.7366264" lon="100.5391007">
<ele>0.000</ele>
<time>2018-03-31T10:02:40.515Z</time>
</trkpt>
<trkpt lat="13.7363216" lon="100.5390551">
<ele>0.000</ele>
<time>2018-03-31T10:02:48.132Z</time>
</trkpt>
<trkpt lat="13.7360124" lon="100.5390022">
<ele>0.000</ele>
<time>2018-03-31T10:02:54.274Z</time>
</trkpt>
<trkpt lat="13.7357207" lon="100.5389607">
<ele>0.417</ele>
<time>2018-03-31T10:03:00.050Z</time>
</trkpt>
<trkpt lat="13.7354826" lon="100.5389297">
<ele>1.104</ele>
<time>2018-03-31T10:03:05.294Z</time>
</trkpt>
<trkpt lat="13.7352653" lon="100.5389016">
<ele>1.806</ele>
<time>2018-03-31T10:03:10.591Z</time>
</trkpt>
<trkpt lat="13.7350628" lon="100.5388566">
<ele>2.889</ele>
<time>2018-03-31T10:03:15.540Z</time>
</trkpt>
<trkpt lat="13.7348181" lon="100.5387721">
<ele>4.152</ele>
<time>2018-03-31T10:03:20.914Z</time>
</trkpt>
<trkpt lat="13.7346455" lon="100.5387212">
<ele>5.176</ele>
<time>2018-03-31T10:03:24.683Z</time>
</trkpt>
<trkpt lat="13.7345385" lon="100.5387229">
<ele>6.074</ele>
<time>2018-03-31T10:03:26.992Z</time>
</trkpt>
<trkpt lat="13.7344839" lon="100.5388726">
<ele>7.070</ele>
<time>2018-03-31T10:03:30.422Z</time>
</trkpt>
<trkpt lat="13.7344590" lon="100.5391284">
<ele>7.937</ele>
<time>2018-03-31T10:03:35.925Z</time>
</trkpt>
<trkpt lat="13.7344292" lon="100.5394559">
<ele>8.662</ele>
<time>2018-03-31T10:03:44.773Z</time>
</trkpt>
<trkpt lat="13.7344117" lon="100.5398153">
<ele>9.467</ele>
<time>2018-03-31T10:03:57.674Z</time>
</trkpt>
<trkpt lat="13.7344032" lon="100.5401326">
<ele>10.258</ele>
<time>2018-03-31T10:04:05.111Z</time>
</trkpt>
<trkpt lat="13.7343938" lon="100.5403515">
<ele>10.736</ele>
<time>2018-03-31T10:04:10.307Z</time>
</trkpt>
<trkpt lat="13.7343925" lon="100.5404531">
<ele>10.463</ele>
<time>2018-03-31T10:04:14.997Z</time>
</trkpt>
<trkpt lat="13.7343925" lon="100.5404531">
<ele>9.426</ele>
<time>2018-03-31T10:04:18.997Z</time>
</trkpt>
<trkpt lat="13.7343925" lon="100.5404531">
<ele>8.595</ele>
<time>2018-03-31T10:04:29.897Z</time>
</trkpt>
<trkpt lat="13.7343490" lon="100.5406481">
<ele>8.637</ele>
<time>2018-03-31T10:04:35.616Z</time>
</trkpt>
<trkpt lat="13.7343221" lon="100.5408300">
<ele>9.114</ele>
<time>2018-03-31T10:04:38.246Z</time>
</trkpt>
<trkpt lat="13.7342917" lon="100.5410963">
<ele>9.466</ele>
<time>2018-03-31T10:04:41.139Z</time>
</trkpt>
<trkpt lat="13.7342735" lon="100.5414356">
<ele>9.633</ele>
<time>2018-03-31T10:04:44.336Z</time>
</trkpt>
<trkpt lat="13.7342521" lon="100.5417115">
<ele>9.715</ele>
<time>2018-03-31T10:04:47.579Z</time>
</trkpt>
<trkpt lat="13.7342451" lon="100.5418489">
<ele>9.545</ele>
<time>2018-03-31T10:04:50.518Z</time>
</trkpt>
<trkpt lat="13.7342483" lon="100.5419451">
<ele>8.754</ele>
<time>2018-03-31T10:04:53.996Z</time>
</trkpt>
<trkpt lat="13.7342483" lon="100.5419451">
<ele>7.509</ele>
<time>2018-03-31T10:04:54.996Z</time>
</trkpt>
<trkpt lat="13.7342483" lon="100.5419451">
<ele>6.690</ele>
<time>2018-03-31T10:05:25.191Z</time>
</trkpt>
<trkpt lat="13.7342881" lon="100.5421321">
<ele>6.727</ele>
<time>2018-03-31T10:05:30.404Z</time>
</trkpt>
<trkpt lat="13.7342837" lon="100.5423634">
<ele>5.994</ele>
<time>2018-03-31T10:05:33.283Z</time>
</trkpt>
<trkpt lat="13.7342801" lon="100.5426831">
<ele>3.174</ele>
<time>2018-03-31T10:05:36.300Z</time>
</trkpt>
<trkpt lat="13.7342991" lon="100.5430432">
<ele>0.000</ele>
<time>2018-03-31T10:05:39.311Z</time>
</trkpt>
<trkpt lat="13.7342539" lon="100.5433854">
<ele>0.000</ele>
<time>2018-03-31T10:05:42.206Z</time>
</trkpt>
<trkpt lat="13.7342331" lon="100.5437275">
<ele>0.000</ele>
<time>2018-03-31T10:05:45.254Z</time>
</trkpt>
<trkpt lat="13.7342169" lon="100.5440547">
<ele>0.000</ele>
<time>2018-03-31T10:05:48.368Z</time>
</trkpt>
<trkpt lat="13.7341989" lon="100.5443752">
<ele>0.000</ele>
<time>2018-03-31T10:05:51.671Z</time>
</trkpt>
<trkpt lat="13.7341947" lon="100.5446340">
<ele>0.000</ele>
<time>2018-03-31T10:05:54.570Z</time>
</trkpt>
<trkpt lat="13.7341837" lon="100.5448842">
<ele>0.000</ele>
<time>2018-03-31T10:05:57.570Z</time>
</trkpt>
<trkpt lat="13.7341726" lon="100.5451221">
<ele>0.000</ele>
<time>2018-03-31T10:06:00.547Z</time>
</trkpt>
<trkpt lat="13.7341658" lon="100.5453487">
<ele>0.000</ele>
<time>2018-03-31T10:06:03.570Z</time>
</trkpt>
<trkpt lat="13.7341399" lon="100.5455540">
<ele>0.000</ele>
<time>2018-03-31T10:06:06.895Z</time>
</trkpt>
<trkpt lat="13.7341276" lon="100.5457036">
<ele>0.000</ele>
<time>2018-03-31T10:06:09.994Z</time>
</trkpt>
<trkpt lat="13.7341172" lon="100.5458240">
<ele>0.389</ele>
<time>2018-03-31T10:06:12.837Z</time>
</trkpt>
<trkpt lat="13.7340093" lon="100.5458674">
<ele>0.976</ele>
<time>2018-03-31T10:06:15.190Z</time>
</trkpt>
<trkpt lat="13.7337862" lon="100.5458374">
<ele>1.370</ele>
<time>2018-03-31T10:06:18.269Z</time>
</trkpt>
<trkpt lat="13.7335007" lon="100.5457864">
<ele>1.479</ele>
<time>2018-03-31T10:06:21.035Z</time>
</trkpt>
<trkpt lat="13.7331259" lon="100.5457218">
<ele>1.378</ele>
<time>2018-03-31T10:06:24.016Z</time>
</trkpt>
<trkpt lat="13.7327115" lon="100.5456683">
<ele>0.979</ele>
<time>2018-03-31T10:06:27.062Z</time>
</trkpt>
<trkpt lat="13.7323084" lon="100.5456117">
<ele>0.242</ele>
<time>2018-03-31T10:06:30.123Z</time>
</trkpt>
<trkpt lat="13.7319484" lon="100.5455442">
<ele>0.000</ele>
<time>2018-03-31T10:06:32.990Z</time>
</trkpt>
<trkpt lat="13.7315442" lon="100.5454691">
<ele>0.000</ele>
<time>2018-03-31T10:06:36.130Z</time>
</trkpt>
<trkpt lat="13.7311539" lon="100.5453989">
<ele>0.000</ele>
<time>2018-03-31T10:06:39.026Z</time>
</trkpt>
<trkpt lat="13.7307465" lon="100.5453330">
<ele>0.000</ele>
<time>2018-03-31T10:06:42.023Z</time>
</trkpt>
<trkpt lat="13.7303647" lon="100.5452727">
<ele>0.000</ele>
<time>2018-03-31T10:06:44.985Z</time>
</trkpt>
<trkpt lat="13.7300144" lon="100.5452222">
<ele>0.000</ele>
<time>2018-03-31T10:06:47.947Z</time>
</trkpt>
<trkpt lat="13.7296908" lon="100.5451708">
<ele>0.000</ele>
<time>2018-03-31T10:06:50.892Z</time>
</trkpt>
<trkpt lat="13.7293687" lon="100.5451042">
<ele>0.000</ele>
<time>2018-03-31T10:06:53.858Z</time>
</trkpt>
<trkpt lat="13.7290188" lon="100.5450441">
<ele>0.000</ele>
<time>2018-03-31T10:06:56.907Z</time>
</trkpt>
<trkpt lat="13.7286624" lon="100.5449891">
<ele>0.000</ele>
<time>2018-03-31T10:06:59.979Z</time>
</trkpt>
<trkpt lat="13.7283501" lon="100.5449280">
<ele>0.000</ele>
<time>2018-03-31T10:07:02.829Z</time>
</trkpt>
<trkpt lat="13.7280484" lon="100.5448841">
<ele>0.000</ele>
<time>2018-03-31T10:07:05.903Z</time>
</trkpt>
<trkpt lat="13.7278253" lon="100.5448487">
<ele>0.000</ele>
<time>2018-03-31T10:07:08.757Z</time>
</trkpt>
<trkpt lat="13.7276665" lon="100.5448237">
<ele>0.000</ele>
<time>2018-03-31T10:07:11.667Z</time>
</trkpt>
<trkpt lat="13.7275763" lon="100.5448065">
<ele>0.000</ele>
<time>2018-03-31T10:07:13.993Z</time>
</trkpt>
<trkpt lat="13.7275763" lon="100.5448065">
<ele>0.000</ele>
<time>2018-03-31T10:07:18.993Z</time>
</trkpt>
<trkpt lat="13.7275763" lon="100.5448065">
<ele>0.000</ele>
<time>2018-03-31T10:07:43.508Z</time>
</trkpt>
<trkpt lat="13.7273365" lon="100.5447684">
<ele>0.000</ele>
<time>2018-03-31T10:07:50.426Z</time>
</trkpt>
<trkpt lat="13.7271185" lon="100.5447430">
<ele>0.000</ele>
<time>2018-03-31T10:07:53.987Z</time>
</trkpt>
<trkpt lat="13.7269173" lon="100.5447100">
<ele>0.000</ele>
<time>2018-03-31T10:07:57.223Z</time>
</trkpt>
<trkpt lat="13.7267036" lon="100.5446674">
<ele>0.000</ele>
<time>2018-03-31T10:08:00.840Z</time>
</trkpt>
<trkpt lat="13.7265135" lon="100.5446114">
<ele>0.000</ele>
<time>2018-03-31T10:08:04.250Z</time>
</trkpt>
<trkpt lat="13.7263467" lon="100.5445451">
<ele>0.000</ele>
<time>2018-03-31T10:08:07.469Z</time>
</trkpt>
<trkpt lat="13.7261727" lon="100.5444366">
<ele>0.000</ele>
<time>2018-03-31T10:08:11.482Z</time>
</trkpt>
<trkpt lat="13.7260393" lon="100.5443162">
<ele>0.000</ele>
<time>2018-03-31T10:08:14.661Z</time>
</trkpt>
<trkpt lat="13.7259586" lon="100.5441590">
<ele>0.000</ele>
<time>2018-03-31T10:08:17.164Z</time>
</trkpt>
<trkpt lat="13.7258904" lon="100.5439561">
<ele>0.000</ele>
<time>2018-03-31T10:08:19.775Z</time>
</trkpt>
<trkpt lat="13.7257964" lon="100.5437092">
<ele>0.000</ele>
<time>2018-03-31T10:08:22.702Z</time>
</trkpt>
<trkpt lat="13.7256904" lon="100.5434123">
<ele>0.027</ele>
<time>2018-03-31T10:08:25.989Z</time>
</trkpt>
<trkpt lat="13.7255951" lon="100.5431080">
<ele>0.476</ele>
<time>2018-03-31T10:08:29.100Z</time>
</trkpt>
<trkpt lat="13.7254837" lon="100.5427893">
<ele>0.474</ele>
<time>2018-03-31T10:08:32.156Z</time>
</trkpt>
<trkpt lat="13.7253764" lon="100.5424400">
<ele>0.113</ele>
<time>2018-03-31T10:08:35.310Z</time>
</trkpt>
<trkpt lat="13.7252586" lon="100.5420693">
<ele>0.000</ele>
<time>2018-03-31T10:08:38.628Z</time>
</trkpt>
<trkpt lat="13.7251410" lon="100.5416735">
<ele>0.000</ele>
<time>2018-03-31T10:08:42.320Z</time>
</trkpt>
<trkpt lat="13.7250345" lon="100.5412893">
<ele>0.000</ele>
<time>2018-03-31T10:08:46.033Z</time>
</trkpt>
<trkpt lat="13.7249263" lon="100.5409341">
<ele>0.000</ele>
<time>2018-03-31T10:08:49.436Z</time>
</trkpt>
<trkpt lat="13.7248249" lon="100.5405966">
<ele>0.000</ele>
<time>2018-03-31T10:08:52.744Z</time>
</trkpt>
<trkpt lat="13.7247134" lon="100.5402332">
<ele>0.000</ele>
<time>2018-03-31T10:08:56.725Z</time>
</trkpt>
<trkpt lat="13.7246051" lon="100.5398837">
<ele>0.000</ele>
<time>2018-03-31T10:09:03.861Z</time>
</trkpt>
<trkpt lat="13.7245150" lon="100.5395532">
<ele>0.000</ele>
<time>2018-03-31T10:09:17.973Z</time>
</trkpt>
<trkpt lat="13.7244389" lon="100.5392792">
<ele>0.000</ele>
<time>2018-03-31T10:09:22.780Z</time>
</trkpt>
<trkpt lat="13.7243781" lon="100.5390721">
<ele>0.000</ele>
<time>2018-03-31T10:09:25.623Z</time>
</trkpt>
<trkpt lat="13.7243491" lon="100.5389829">
<ele>0.000</ele>
<time>2018-03-31T10:09:26.882Z</time>
</trkpt>
<trkpt lat="13.7243141" lon="100.5388915">
<ele>0.000</ele>
<time>2018-03-31T10:09:28.235Z</time>
</trkpt>
<trkpt lat="13.7243030" lon="100.5387970">
<ele>0.000</ele>
<time>2018-03-31T10:09:29.756Z</time>
</trkpt>
<trkpt lat="13.7244104" lon="100.5387934">
<ele>0.000</ele>
<time>2018-03-31T10:09:31.798Z</time>
</trkpt>
<trkpt lat="13.7245107" lon="100.5389319">
<ele>0.000</ele>
<time>2018-03-31T10:09:37.671Z</time>
</trkpt>
<trkpt lat="13.7245917" lon="100.5391544">
<ele>0.000</ele>
<time>2018-03-31T10:10:02.967Z</time>
</trkpt>
<trkpt lat="13.7246949" lon="100.5394280">
<ele>0.000</ele>
<time>2018-03-31T10:10:36.737Z</time>
</trkpt>
<trkpt lat="13.7247724" lon="100.5396606">
<ele>0.000</ele>
<time>2018-03-31T10:11:05.036Z</time>
</trkpt>
<trkpt lat="13.7248248" lon="100.5398434">
<ele>0.000</ele>
<time>2018-03-31T10:11:26.971Z</time>
</trkpt>
<trkpt lat="13.7248536" lon="100.5399496">
<ele>0.000</ele>
<time>2018-03-31T10:11:39.658Z</time>
</trkpt>
<trkpt lat="13.7249520" lon="100.5399801">
<ele>0.000</ele>
<time>2018-03-31T10:11:51.823Z</time>
</trkpt>
<trkpt lat="13.7249520" lon="100.5399801">
<ele>0.000</ele>
<time>2018-03-31T10:11:51.823Z</time>
</trkpt>
<trkpt lat="13.7249850" lon="100.5400523">
<ele>28.474</ele>
<time>2018-03-31T10:12:00.997Z</time>
</trkpt>
<trkpt lat="13.7249850" lon="100.5400523">
<ele>28.461</ele>
<time>2018-03-31T10:12:02.997Z</time>
</trkpt>
<trkpt lat="13.7249850" lon="100.5400523">
<ele>28.454</ele>
<time>2018-03-31T10:13:44.949Z</time>
</trkpt>
<trkpt lat="13.7249641" lon="100.5403807">
<ele>28.446</ele>
<time>2018-03-31T10:14:06.973Z</time>
</trkpt>
<trkpt lat="13.7249823" lon="100.5404752">
<ele>23.699</ele>
<time>2018-03-31T10:14:11.520Z</time>
</trkpt>
<trkpt lat="13.7250211" lon="100.5406092">
<ele>11.354</ele>
<time>2018-03-31T10:14:15.966Z</time>
</trkpt>
<trkpt lat="13.7250857" lon="100.5408149">
<ele>0.000</ele>
<time>2018-03-31T10:14:19.392Z</time>
</trkpt>
<trkpt lat="13.7251485" lon="100.5410360">
<ele>0.000</ele>
<time>2018-03-31T10:14:21.951Z</time>
</trkpt>
<trkpt lat="13.7252335" lon="100.5413259">
<ele>0.000</ele>
<time>2018-03-31T10:14:24.873Z</time>
</trkpt>
<trkpt lat="13.7253138" lon="100.5415780">
<ele>0.000</ele>
<time>2018-03-31T10:14:27.490Z</time>
</trkpt>
<trkpt lat="13.7253681" lon="100.5417874">
<ele>0.000</ele>
<time>2018-03-31T10:14:29.927Z</time>
</trkpt>
<trkpt lat="13.7253786" lon="100.5419640">
<ele>0.000</ele>
<time>2018-03-31T10:14:32.313Z</time>
</trkpt>
<trkpt lat="13.7253870" lon="100.5420823">
<ele>0.000</ele>
<time>2018-03-31T10:14:34.409Z</time>
</trkpt>
<trkpt lat="13.7253870" lon="100.5420823">
<ele>0.000</ele>
<time>2018-03-31T10:14:34.409Z</time>
</trkpt>
<trkpt lat="13.7256449" lon="100.5427124">
<ele>10.569</ele>
<time>2018-03-31T10:14:58.423Z</time>
</trkpt>
<trkpt lat="13.7256691" lon="100.5428017">
<ele>10.564</ele>
<time>2018-03-31T10:15:03.992Z</time>
</trkpt>
<trkpt lat="13.7256691" lon="100.5428017">
<ele>10.561</ele>
<time>2018-03-31T10:15:13.992Z</time>
</trkpt>
<trkpt lat="13.7256691" lon="100.5428017">
<ele>10.556</ele>
<time>2018-03-31T10:17:07.104Z</time>
</trkpt>
<trkpt lat="13.7256529" lon="100.5430352">
<ele>10.551</ele>
<time>2018-03-31T10:17:19.619Z</time>
</trkpt>
<trkpt lat="13.7256641" lon="100.5431347">
<ele>9.130</ele>
<time>2018-03-31T10:17:21.342Z</time>
</trkpt>
<trkpt lat="13.7257324" lon="100.5432271">
<ele>4.848</ele>
<time>2018-03-31T10:17:22.923Z</time>
</trkpt>
<trkpt lat="13.7257775" lon="100.5433978">
<ele>0.000</ele>
<time>2018-03-31T10:17:24.834Z</time>
</trkpt>
<trkpt lat="13.7258267" lon="100.5435759">
<ele>0.000</ele>
<time>2018-03-31T10:17:26.678Z</time>
</trkpt>
<trkpt lat="13.7259056" lon="100.5437540">
<ele>0.000</ele>
<time>2018-03-31T10:17:28.716Z</time>
</trkpt>
<trkpt lat="13.7259822" lon="100.5438981">
<ele>0.000</ele>
<time>2018-03-31T10:17:30.709Z</time>
</trkpt>
<trkpt lat="13.7259950" lon="100.5440280">
<ele>0.000</ele>
<time>2018-03-31T10:17:33.642Z</time>
</trkpt>
<trkpt lat="13.7259849" lon="100.5441231">
<ele>0.000</ele>
<time>2018-03-31T10:17:35.999Z</time>
</trkpt>
<trkpt lat="13.7259849" lon="100.5441231">
<ele>0.000</ele>
<time>2018-03-31T10:17:38.999Z</time>
</trkpt>
<trkpt lat="13.7259849" lon="100.5441231">
<ele>0.000</ele>
<time>2018-03-31T10:17:46.280Z</time>
</trkpt>
<trkpt lat="13.7258419" lon="100.5440500">
<ele>0.000</ele>
<time>2018-03-31T10:17:52.032Z</time>
</trkpt>
<trkpt lat="13.7257718" lon="100.5438633">
<ele>0.000</ele>
<time>2018-03-31T10:17:54.797Z</time>
</trkpt>
<trkpt lat="13.7256669" lon="100.5436108">
<ele>0.000</ele>
<time>2018-03-31T10:17:57.855Z</time>
</trkpt>
<trkpt lat="13.7255962" lon="100.5434608">
<ele>0.000</ele>
<time>2018-03-31T10:17:59.910Z</time>
</trkpt>
<trkpt lat="13.7254705" lon="100.5434445">
<ele>0.000</ele>
<time>2018-03-31T10:18:02.231Z</time>
</trkpt>
<trkpt lat="13.7253598" lon="100.5435420">
<ele>0.000</ele>
<time>2018-03-31T10:18:04.918Z</time>
</trkpt>
<trkpt lat="13.7252577" lon="100.5436020">
<ele>0.000</ele>
<time>2018-03-31T10:18:07.218Z</time>
</trkpt>
<trkpt lat="13.7250502" lon="100.5436936">
<ele>0.000</ele>
<time>2018-03-31T10:18:11.976Z</time>
</trkpt>
<trkpt lat="13.7248848" lon="100.5437656">
<ele>0.000</ele>
<time>2018-03-31T10:18:15.317Z</time>
</trkpt>
<trkpt lat="13.7246982" lon="100.5439130">
<ele>0.000</ele>
<time>2018-03-31T10:18:19.270Z</time>
</trkpt>
<trkpt lat="13.7245899" lon="100.5440153">
<ele>0.000</ele>
<time>2018-03-31T10:18:21.998Z</time>
</trkpt>
<trkpt lat="13.7245899" lon="100.5440153">
<ele>0.000</ele>
<time>2018-03-31T10:18:27.998Z</time>
</trkpt>
<trkpt lat="13.7245899" lon="100.5440153">
<ele>0.000</ele>
<time>2018-03-31T10:20:50.357Z</time>
</trkpt>
<trkpt lat="13.7246174" lon="100.5441054">
<ele>0.000</ele>
<time>2018-03-31T10:21:00.994Z</time>
</trkpt>
<trkpt lat="13.7246174" lon="100.5441054">
<ele>0.116</ele>
<time>2018-03-31T10:21:01.994Z</time>
</trkpt>
</trkseg>
</trk>
<extensions>
<fpdata xmlns="http://www.motionx.com/GPX-Extensions/1/1" sfv="10" origin="MotionXGPSFull 24.4 Build 5112 R64">
<bin enc="base64">
RgIAAAACAAAAeedWvcuv1kEBAAAAfgJDUNiv1kEAACIrgBzGQH4OAAAFLzMBLOkGFqBt
KECMmfUiYM+9PwAAAAASAAAASHVhaGluIHRvIEJhbmdrb2sAFgAAAE1hciAzMSwgMjAx
OCAgMTo0NyBwbQAAAAAAnwJDUNiv1kFe2ipU2K/WQVorsgCn3kaqAcmbQCwAAAAAAAAA
lhniwzT9WEC/GWCvsiQpQCzpBhagbShAAAAAAAAAJEAAAAAAAAAQQAAAAAAAGKtAAAAA
AAAAAAAAAAAAAAAAAACoYUAAAAAAAAAAAAEAAAAAAAAAAAAAAAEAAAABAAAA7OxfhLkD
oT/cPxttizCjvwEAAAABAAAACQAAALD4SZhqsFpAAAAAAAAAAAAAAAAAAAAAAAAAAAAA
AAAAAAAAAAAAAAAAAAAAAAAAABEAAADqpH9D2K/WQQAAAAAAAAAAAAAAAAAAAAD/JUS8
AgAAAAAAAAAAAAAAAQAAACcAAAAyNC4yIEJ1aWxkIDUwNjNSNjQsIE1YQUUgOC4xIGIu
IDYyNlI2NAAAAAAANlUAAAEAAAABMAAAAPUuv1oPYb9aBJroVr3Lr9ZBmuhWvcuv1kEA
AAAAALATPwAAAAAChudWvcuv1kH+8QfBy6/WQQAAAMBTiC1AAAAAAAKztcjJy6/WQVUw
B9vLr9ZBAAAAGoXvVEAAAAAAAlABi+PLr9ZBMuZH8Muv1kEAAAD+NNZgQAAAAAACgUHL
8suv1kGKx0X8y6/WQQAAgAJ4k2VAAAAAAAIU7Ij/y6/WQXvZiBHMr9ZBAAAAtm6TbkAA
AAAAAsR2iBXMr9ZBigGIF8yv1kEAAAAZNJNvQAAAAAADl3JAhsyv1kGXckCGzK/WQQAA
AOmvc4VAAAAAAARmgcWJzK/WQWaBxYnMr9ZBAACQxFHkhUAAAAAAAqJbyRnMr9ZBxQGF
N82v1kEAAFDlIM6VQAAAAAACy4TIi82v1kE1J4Wfza/WQQAA8AvrCZdAAAAAAAIm4Eir
za/WQXLDBpHOr9ZBAABYoOSyokAAAAAAAgjqyJnOr9ZBDviFLdKv1kEAAESIZqi3QAAA
AAACVDlHNNKv1kGIn4U30q/WQQAAFCFgtbdAAAAAAAL8GEc60q/WQRUdBU7Sr9ZBAAB4
MVgEuEAAAAAAArN6x1DSr9ZB0vkFW9Kv1kEAAPQtUi24QAAAAAACHJvHXtKv1kFsecVk
0q/WQQAANKdJRbhAAAAAAAI+Polz0q/WQfeuRoDSr9ZBAAAYaj94uEAAAAAAAiJPzIXS
r9ZBwheGj9Kv1kEAAJiMJp+4QAAAAAAC2o0Kl9Kv1kGYbsae0q/WQQAAkA8WvrhAAAAA
AAJ+VAij0q/WQXYdhqjSr9ZBAABwMw3UuEAAAAAAAuo/B63Sr9ZBwvxGw9Kv1kEAANAm
DC25QAAAAAACN21Jx9Kv1kEiyYbi0q/WQQAAfJYBmrlAAAAAAAK0j4jm0q/WQZ2eRhHT
r9ZBAAAg0vlEukAAAAAAAm5LiBTTr9ZBxTqGF9Ov1kEAAHyP8VC6QAAAAAACNnJHG9Ov
1kG9VYZB06/WQQAAmB3t6bpAAAAAAAKYg0lD06/WQR/0xuPTr9ZBAAC03+JrvUAAAAAA
AqxYSObTr9ZBBoNJb9Wv1kEAAI7E88fBQAAAAAACwQCMctWv1kG21ano1a/WQQAAeG4v
tMJAAAAAAAI8UYbp1a/WQeKRRwTWr9ZBAADE77HpwkAAAAAAAqG8yAbWr9ZBdHxHDNav
1kEAAGpvr/TCQAAAAAACxqMHD9av1kF4tckf1q/WQQAAzpIzFsNAAAAAAAIU7Ich1q/W
Qb8MRjnWr9ZBAAAk1K9Fw0AAAAAAAm/YCDvWr9ZBliBHUNav1kEAAHJkLHDDQAAAAAAC
MXvLVtav1kECukqm1q/WQQAAFOIqD8RAAAAAAAL0v4q71q/WQfJZx9/Wr9ZBAAAQFqRX
xEAAAAAAAuxQCujWr9ZBoyHKSNev1kEAAH63IxnFQAAAAAACTBmKTNev1kGEf8VR16/W
QQAA7oOaI8VAAAAAAAKKskpa16/WQfTDx3XXr9ZBAADCppRaxUAAAAAAAxyYCbbXr9ZB
HJgJttev1kEAAEOTjszFQAAAAAAEbhNKvNev1kFuE0q816/WQQAA6IkP2cVAAAAAAAL5
oQx916/WQTqYS7zXr9ZBAABEkxLZxUAAAAAAA7IQ8uXXr9ZBshDy5dev1kEAAKQF4PDF
QAAAAAAE/DkI6dev1kH8OQjp16/WQQAALz8M98VAAAAAAAIgZAva16/WQXR8jOzXr9ZB
AADswxT+xUAAAAAAAg3hTAvYr9ZBoBzHENiv1kEAABI7CQnGQAAAAAACkiHME9iv1kF5
ywUd2K/WQQAA4I58G8ZAAAAAAALncEpD2K/WQQg/zEPYr9ZBAAAiK4AcxkAAAAAAAAAA
AA==
</bin>
</fpdata>
</extensions>
</gpx>
